<?xml version="1.0" encoding="utf-8"?>
<gpx xmlns:xsi="http://www.w3.org/2001/XMLSchema-instance" xmlns:xsd="http://www.w3.org/2001/XMLSchema" version="1.1" creator="Shapelink.com" xmlns="http://www.topografix.com/GPX/1/1" xmlns:gpxtpx="http://www.garmin.com/xmlschemas/TrackPointExtension/v1">
  <metadata>
    <name>Cykling - Trainer 25.15 km, 2020-06-02</name>
    <desc></desc>
    <author><name>Alexander Engvall</name></author> 
    <time>2020-06-02T20:06:07Z</time>
  </metadata>
  <trk>
    <name>Cykling - Trainer 25.15 km, 2020-06-02</name>
    <trkseg>
      <trkpt lat="39.884354" lon="3.079784">
        <ele>2.7</ele>
        <time>2020-06-02T20:06:07Z</time>
      </trkpt>
      <trkpt lat="39.884392" lon="3.079788">
        <ele>2.7</ele>
        <time>2020-06-02T20:06:08Z</time>
      </trkpt>
      <trkpt lat="39.884437" lon="3.079791">
        <ele>2.7</ele>
        <time>2020-06-02T20:06:09Z</time>
      </trkpt>
      <trkpt lat="39.884483" lon="3.07979">
        <ele>2.7</ele>
        <time>2020-06-02T20:06:10Z</time>
      </trkpt>
      <trkpt lat="39.884533" lon="3.079783">
        <ele>2.7</ele>
        <time>2020-06-02T20:06:11Z</time>
      </trkpt>
      <trkpt lat="39.884586" lon="3.079773">
        <ele>2.7</ele>
        <time>2020-06-02T20:06:13Z</time>
      </trkpt>
      <trkpt lat="39.884644" lon="3.079762">
        <ele>2.7</ele>
        <time>2020-06-02T20:06:14Z</time>
      </trkpt>
      <trkpt lat="39.884701" lon="3.079748">
        <ele>2.7</ele>
        <time>2020-06-02T20:06:15Z</time>
      </trkpt>
      <trkpt lat="39.884754" lon="3.079732">
        <ele>2.7</ele>
        <time>2020-06-02T20:06:16Z</time>
      </trkpt>
      <trkpt lat="39.884815" lon="3.079707">
        <ele>2.7</ele>
        <time>2020-06-02T20:06:17Z</time>
      </trkpt>
      <trkpt lat="39.88488" lon="3.079678">
        <ele>2.7</ele>
        <time>2020-06-02T20:06:18Z</time>
      </trkpt>
      <trkpt lat="39.884937" lon="3.079656">
        <ele>2.7</ele>
        <time>2020-06-02T20:06:19Z</time>
      </trkpt>
      <trkpt lat="39.885006" lon="3.079631">
        <ele>2.7</ele>
        <time>2020-06-02T20:06:21Z</time>
      </trkpt>
      <trkpt lat="39.885075" lon="3.079606">
        <ele>2.7</ele>
        <time>2020-06-02T20:06:22Z</time>
      </trkpt>
      <trkpt lat="39.885143" lon="3.079581">
        <ele>2.7</ele>
        <time>2020-06-02T20:06:23Z</time>
      </trkpt>
      <trkpt lat="39.885212" lon="3.079557">
        <ele>2.7</ele>
        <time>2020-06-02T20:06:24Z</time>
      </trkpt>
      <trkpt lat="39.885269" lon="3.079536">
        <ele>2.7</ele>
        <time>2020-06-02T20:06:25Z</time>
      </trkpt>
      <trkpt lat="39.885342" lon="3.079511">
        <ele>2.6</ele>
        <time>2020-06-02T20:06:26Z</time>
      </trkpt>
      <trkpt lat="39.88541" lon="3.079486">
        <ele>2.6</ele>
        <time>2020-06-02T20:06:28Z</time>
      </trkpt>
      <trkpt lat="39.885479" lon="3.079462">
        <ele>2.6</ele>
        <time>2020-06-02T20:06:29Z</time>
      </trkpt>
      <trkpt lat="39.885548" lon="3.079437">
        <ele>2.6</ele>
        <time>2020-06-02T20:06:30Z</time>
      </trkpt>
      <trkpt lat="39.885616" lon="3.079412">
        <ele>2.6</ele>
        <time>2020-06-02T20:06:31Z</time>
      </trkpt>
      <trkpt lat="39.885673" lon="3.079391">
        <ele>2.6</ele>
        <time>2020-06-02T20:06:32Z</time>
      </trkpt>
      <trkpt lat="39.885742" lon="3.079367">
        <ele>2.6</ele>
        <time>2020-06-02T20:06:33Z</time>
      </trkpt>
      <trkpt lat="39.885799" lon="3.079346">
        <ele>2.6</ele>
        <time>2020-06-02T20:06:34Z</time>
      </trkpt>
      <trkpt lat="39.885868" lon="3.079321">
        <ele>2.6</ele>
        <time>2020-06-02T20:06:36Z</time>
      </trkpt>
      <trkpt lat="39.885937" lon="3.079297">
        <ele>2.6</ele>
        <time>2020-06-02T20:06:37Z</time>
      </trkpt>
      <trkpt lat="39.885994" lon="3.079276">
        <ele>2.6</ele>
        <time>2020-06-02T20:06:38Z</time>
      </trkpt>
      <trkpt lat="39.886051" lon="3.079255">
        <ele>2.6</ele>
        <time>2020-06-02T20:06:39Z</time>
      </trkpt>
      <trkpt lat="39.886108" lon="3.079234">
        <ele>2.6</ele>
        <time>2020-06-02T20:06:40Z</time>
      </trkpt>
      <trkpt lat="39.886181" lon="3.079208">
        <ele>2.6</ele>
        <time>2020-06-02T20:06:41Z</time>
      </trkpt>
      <trkpt lat="39.886257" lon="3.07918">
        <ele>2.6</ele>
        <time>2020-06-02T20:06:42Z</time>
      </trkpt>
      <trkpt lat="39.886333" lon="3.079152">
        <ele>2.6</ele>
        <time>2020-06-02T20:06:43Z</time>
      </trkpt>
      <trkpt lat="39.886414" lon="3.079123">
        <ele>2.6</ele>
        <time>2020-06-02T20:06:45Z</time>
      </trkpt>
      <trkpt lat="39.886497" lon="3.079092">
        <ele>2.6</ele>
        <time>2020-06-02T20:06:46Z</time>
      </trkpt>
      <trkpt lat="39.886566" lon="3.079066">
        <ele>2.6</ele>
        <time>2020-06-02T20:06:47Z</time>
      </trkpt>
      <trkpt lat="39.88665" lon="3.079035">
        <ele>2.7</ele>
        <time>2020-06-02T20:06:48Z</time>
      </trkpt>
      <trkpt lat="39.886734" lon="3.079003">
        <ele>2.7</ele>
        <time>2020-06-02T20:06:49Z</time>
      </trkpt>
      <trkpt lat="39.886818" lon="3.078972">
        <ele>2.7</ele>
        <time>2020-06-02T20:06:50Z</time>
      </trkpt>
      <trkpt lat="39.886898" lon="3.07894">
        <ele>2.7</ele>
        <time>2020-06-02T20:06:52Z</time>
      </trkpt>
      <trkpt lat="39.886967" lon="3.078914">
        <ele>2.8</ele>
        <time>2020-06-02T20:06:53Z</time>
      </trkpt>
      <trkpt lat="39.887047" lon="3.078883">
        <ele>2.8</ele>
        <time>2020-06-02T20:06:54Z</time>
      </trkpt>
      <trkpt lat="39.887115" lon="3.078857">
        <ele>2.8</ele>
        <time>2020-06-02T20:06:55Z</time>
      </trkpt>
      <trkpt lat="39.887196" lon="3.078827">
        <ele>2.9</ele>
        <time>2020-06-02T20:06:56Z</time>
      </trkpt>
      <trkpt lat="39.887276" lon="3.078796">
        <ele>2.9</ele>
        <time>2020-06-02T20:06:57Z</time>
      </trkpt>
      <trkpt lat="39.887356" lon="3.078766">
        <ele>3</ele>
        <time>2020-06-02T20:06:58Z</time>
      </trkpt>
      <trkpt lat="39.88744" lon="3.078736">
        <ele>3</ele>
        <time>2020-06-02T20:07:00Z</time>
      </trkpt>
      <trkpt lat="39.887505" lon="3.078712">
        <ele>3.1</ele>
        <time>2020-06-02T20:07:01Z</time>
      </trkpt>
      <trkpt lat="39.887588" lon="3.078683">
        <ele>3.1</ele>
        <time>2020-06-02T20:07:02Z</time>
      </trkpt>
      <trkpt lat="39.887669" lon="3.078656">
        <ele>3.1</ele>
        <time>2020-06-02T20:07:03Z</time>
      </trkpt>
      <trkpt lat="39.887737" lon="3.078634">
        <ele>3.1</ele>
        <time>2020-06-02T20:07:04Z</time>
      </trkpt>
      <trkpt lat="39.887817" lon="3.078608">
        <ele>3.1</ele>
        <time>2020-06-02T20:07:05Z</time>
      </trkpt>
      <trkpt lat="39.887897" lon="3.078584">
        <ele>3.2</ele>
        <time>2020-06-02T20:07:06Z</time>
      </trkpt>
      <trkpt lat="39.887981" lon="3.078563">
        <ele>3.2</ele>
        <time>2020-06-02T20:07:08Z</time>
      </trkpt>
      <trkpt lat="39.888061" lon="3.078542">
        <ele>3.2</ele>
        <time>2020-06-02T20:07:09Z</time>
      </trkpt>
      <trkpt lat="39.888145" lon="3.078523">
        <ele>3.2</ele>
        <time>2020-06-02T20:07:10Z</time>
      </trkpt>
      <trkpt lat="39.888214" lon="3.078509">
        <ele>3.2</ele>
        <time>2020-06-02T20:07:11Z</time>
      </trkpt>
      <trkpt lat="39.888287" lon="3.078495">
        <ele>3.2</ele>
        <time>2020-06-02T20:07:12Z</time>
      </trkpt>
      <trkpt lat="39.88837" lon="3.078479">
        <ele>3.3</ele>
        <time>2020-06-02T20:07:13Z</time>
      </trkpt>
      <trkpt lat="39.888451" lon="3.07846">
        <ele>3.3</ele>
        <time>2020-06-02T20:07:14Z</time>
      </trkpt>
      <trkpt lat="39.888519" lon="3.078441">
        <ele>3.3</ele>
        <time>2020-06-02T20:07:15Z</time>
      </trkpt>
      <trkpt lat="39.888588" lon="3.078423">
        <ele>3.3</ele>
        <time>2020-06-02T20:07:16Z</time>
      </trkpt>
      <trkpt lat="39.888672" lon="3.078401">
        <ele>3.3</ele>
        <time>2020-06-02T20:07:18Z</time>
      </trkpt>
      <trkpt lat="39.888756" lon="3.07838">
        <ele>3.4</ele>
        <time>2020-06-02T20:07:19Z</time>
      </trkpt>
      <trkpt lat="39.888836" lon="3.078365">
        <ele>3.5</ele>
        <time>2020-06-02T20:07:20Z</time>
      </trkpt>
      <trkpt lat="39.888924" lon="3.078361">
        <ele>3.5</ele>
        <time>2020-06-02T20:07:21Z</time>
      </trkpt>
      <trkpt lat="39.889008" lon="3.078359">
        <ele>3.6</ele>
        <time>2020-06-02T20:07:22Z</time>
      </trkpt>
      <trkpt lat="39.88908" lon="3.078357">
        <ele>3.6</ele>
        <time>2020-06-02T20:07:23Z</time>
      </trkpt>
      <trkpt lat="39.889145" lon="3.078357">
        <ele>3.6</ele>
        <time>2020-06-02T20:07:24Z</time>
      </trkpt>
      <trkpt lat="39.889187" lon="3.078357">
        <ele>3.6</ele>
        <time>2020-06-02T20:07:26Z</time>
      </trkpt>
      <trkpt lat="39.889088" lon="3.078285">
        <ele>3.6</ele>
        <time>2020-06-02T20:07:27Z</time>
      </trkpt>
      <trkpt lat="39.889061" lon="3.078288">
        <ele>3.6</ele>
        <time>2020-06-02T20:07:28Z</time>
      </trkpt>
      <trkpt lat="39.889023" lon="3.078293">
        <ele>3.6</ele>
        <time>2020-06-02T20:07:29Z</time>
      </trkpt>
      <trkpt lat="39.888973" lon="3.078299">
        <ele>3.6</ele>
        <time>2020-06-02T20:07:31Z</time>
      </trkpt>
      <trkpt lat="39.888927" lon="3.078303">
        <ele>3.6</ele>
        <time>2020-06-02T20:07:32Z</time>
      </trkpt>
      <trkpt lat="39.888874" lon="3.078309">
        <ele>3.5</ele>
        <time>2020-06-02T20:07:33Z</time>
      </trkpt>
      <trkpt lat="39.888813" lon="3.078319">
        <ele>3.5</ele>
        <time>2020-06-02T20:07:34Z</time>
      </trkpt>
      <trkpt lat="39.888767" lon="3.078322">
        <ele>3.5</ele>
        <time>2020-06-02T20:07:35Z</time>
      </trkpt>
      <trkpt lat="39.888836" lon="3.078349">
        <ele>3.5</ele>
        <time>2020-06-02T20:07:37Z</time>
      </trkpt>
      <trkpt lat="39.88887" lon="3.078349">
        <ele>3.5</ele>
        <time>2020-06-02T20:07:38Z</time>
      </trkpt>
      <trkpt lat="39.888916" lon="3.07835">
        <ele>3.5</ele>
        <time>2020-06-02T20:07:39Z</time>
      </trkpt>
      <trkpt lat="39.888954" lon="3.078355">
        <ele>3.5</ele>
        <time>2020-06-02T20:07:41Z</time>
      </trkpt>
      <trkpt lat="39.888824" lon="3.078297">
        <ele>3.4</ele>
        <time>2020-06-02T20:07:42Z</time>
      </trkpt>
      <trkpt lat="39.888786" lon="3.078308">
        <ele>3.4</ele>
        <time>2020-06-02T20:07:43Z</time>
      </trkpt>
      <trkpt lat="39.888744" lon="3.07832">
        <ele>3.4</ele>
        <time>2020-06-02T20:07:44Z</time>
      </trkpt>
      <trkpt lat="39.888691" lon="3.078337">
        <ele>3.3</ele>
        <time>2020-06-02T20:07:45Z</time>
      </trkpt>
      <trkpt lat="39.888641" lon="3.078355">
        <ele>3.3</ele>
        <time>2020-06-02T20:07:46Z</time>
      </trkpt>
      <trkpt lat="39.888576" lon="3.078376">
        <ele>3.3</ele>
        <time>2020-06-02T20:07:48Z</time>
      </trkpt>
      <trkpt lat="39.888508" lon="3.078397">
        <ele>3.3</ele>
        <time>2020-06-02T20:07:49Z</time>
      </trkpt>
      <trkpt lat="39.888439" lon="3.078418">
        <ele>3.3</ele>
        <time>2020-06-02T20:07:50Z</time>
      </trkpt>
      <trkpt lat="39.888374" lon="3.078431">
        <ele>3.3</ele>
        <time>2020-06-02T20:07:51Z</time>
      </trkpt>
      <trkpt lat="39.888344" lon="3.078433">
        <ele>3.3</ele>
        <time>2020-06-02T20:07:52Z</time>
      </trkpt>
      <trkpt lat="39.888473" lon="3.078436">
        <ele>3.3</ele>
        <time>2020-06-02T20:07:54Z</time>
      </trkpt>
      <trkpt lat="39.888512" lon="3.078429">
        <ele>3.3</ele>
        <time>2020-06-02T20:07:55Z</time>
      </trkpt>
      <trkpt lat="39.888554" lon="3.078421">
        <ele>3.3</ele>
        <time>2020-06-02T20:07:56Z</time>
      </trkpt>
      <trkpt lat="39.888607" lon="3.07841">
        <ele>3.3</ele>
        <time>2020-06-02T20:07:57Z</time>
      </trkpt>
      <trkpt lat="39.888657" lon="3.0784">
        <ele>3.3</ele>
        <time>2020-06-02T20:07:58Z</time>
      </trkpt>
      <trkpt lat="39.888721" lon="3.078387">
        <ele>3.4</ele>
        <time>2020-06-02T20:07:59Z</time>
      </trkpt>
      <trkpt lat="39.888786" lon="3.078373">
        <ele>3.4</ele>
        <time>2020-06-02T20:08:01Z</time>
      </trkpt>
      <trkpt lat="39.888847" lon="3.078364">
        <ele>3.5</ele>
        <time>2020-06-02T20:08:02Z</time>
      </trkpt>
      <trkpt lat="39.888916" lon="3.078361">
        <ele>3.5</ele>
        <time>2020-06-02T20:08:03Z</time>
      </trkpt>
      <trkpt lat="39.888992" lon="3.07836">
        <ele>3.6</ele>
        <time>2020-06-02T20:08:04Z</time>
      </trkpt>
      <trkpt lat="39.889053" lon="3.078358">
        <ele>3.6</ele>
        <time>2020-06-02T20:08:05Z</time>
      </trkpt>
      <trkpt lat="39.889133" lon="3.078357">
        <ele>3.7</ele>
        <time>2020-06-02T20:08:06Z</time>
      </trkpt>
      <trkpt lat="39.889213" lon="3.078358">
        <ele>3.7</ele>
        <time>2020-06-02T20:08:07Z</time>
      </trkpt>
      <trkpt lat="39.889282" lon="3.078359">
        <ele>3.7</ele>
        <time>2020-06-02T20:08:08Z</time>
      </trkpt>
      <trkpt lat="39.889366" lon="3.07836">
        <ele>3.7</ele>
        <time>2020-06-02T20:08:10Z</time>
      </trkpt>
      <trkpt lat="39.88945" lon="3.07836">
        <ele>3.7</ele>
        <time>2020-06-02T20:08:11Z</time>
      </trkpt>
      <trkpt lat="39.889534" lon="3.078361">
        <ele>3.7</ele>
        <time>2020-06-02T20:08:12Z</time>
      </trkpt>
      <trkpt lat="39.889603" lon="3.078361">
        <ele>3.7</ele>
        <time>2020-06-02T20:08:13Z</time>
      </trkpt>
      <trkpt lat="39.88969" lon="3.078362">
        <ele>3.8</ele>
        <time>2020-06-02T20:08:14Z</time>
      </trkpt>
      <trkpt lat="39.889778" lon="3.078362">
        <ele>3.8</ele>
        <time>2020-06-02T20:08:15Z</time>
      </trkpt>
      <trkpt lat="39.889862" lon="3.078362">
        <ele>3.8</ele>
        <time>2020-06-02T20:08:17Z</time>
      </trkpt>
      <trkpt lat="39.889938" lon="3.078362">
        <ele>3.8</ele>
        <time>2020-06-02T20:08:18Z</time>
      </trkpt>
      <trkpt lat="39.890026" lon="3.078362">
        <ele>3.8</ele>
        <time>2020-06-02T20:08:19Z</time>
      </trkpt>
      <trkpt lat="39.890114" lon="3.078362">
        <ele>3.8</ele>
        <time>2020-06-02T20:08:20Z</time>
      </trkpt>
      <trkpt lat="39.890186" lon="3.078362">
        <ele>3.8</ele>
        <time>2020-06-02T20:08:21Z</time>
      </trkpt>
      <trkpt lat="39.890278" lon="3.078361">
        <ele>3.7</ele>
        <time>2020-06-02T20:08:22Z</time>
      </trkpt>
      <trkpt lat="39.890366" lon="3.078361">
        <ele>3.7</ele>
        <time>2020-06-02T20:08:23Z</time>
      </trkpt>
      <trkpt lat="39.890442" lon="3.078361">
        <ele>3.7</ele>
        <time>2020-06-02T20:08:24Z</time>
      </trkpt>
      <trkpt lat="39.890533" lon="3.078361">
        <ele>3.6</ele>
        <time>2020-06-02T20:08:26Z</time>
      </trkpt>
      <trkpt lat="39.890606" lon="3.07836">
        <ele>3.6</ele>
        <time>2020-06-02T20:08:27Z</time>
      </trkpt>
      <trkpt lat="39.890682" lon="3.07836">
        <ele>3.6</ele>
        <time>2020-06-02T20:08:28Z</time>
      </trkpt>
      <trkpt lat="39.890774" lon="3.07836">
        <ele>3.5</ele>
        <time>2020-06-02T20:08:29Z</time>
      </trkpt>
      <trkpt lat="39.890865" lon="3.07836">
        <ele>3.5</ele>
        <time>2020-06-02T20:08:30Z</time>
      </trkpt>
      <trkpt lat="39.890953" lon="3.07836">
        <ele>3.5</ele>
        <time>2020-06-02T20:08:31Z</time>
      </trkpt>
      <trkpt lat="39.891029" lon="3.07836">
        <ele>3.4</ele>
        <time>2020-06-02T20:08:32Z</time>
      </trkpt>
      <trkpt lat="39.891121" lon="3.07836">
        <ele>3.4</ele>
        <time>2020-06-02T20:08:33Z</time>
      </trkpt>
      <trkpt lat="39.891212" lon="3.07836">
        <ele>3.3</ele>
        <time>2020-06-02T20:08:35Z</time>
      </trkpt>
      <trkpt lat="39.891289" lon="3.07836">
        <ele>3.3</ele>
        <time>2020-06-02T20:08:36Z</time>
      </trkpt>
      <trkpt lat="39.89138" lon="3.07836">
        <ele>3.2</ele>
        <time>2020-06-02T20:08:37Z</time>
      </trkpt>
      <trkpt lat="39.891472" lon="3.07836">
        <ele>3.2</ele>
        <time>2020-06-02T20:08:38Z</time>
      </trkpt>
      <trkpt lat="39.891548" lon="3.07836">
        <ele>3.1</ele>
        <time>2020-06-02T20:08:39Z</time>
      </trkpt>
      <trkpt lat="39.891636" lon="3.07836">
        <ele>3.1</ele>
        <time>2020-06-02T20:08:40Z</time>
      </trkpt>
      <trkpt lat="39.891727" lon="3.07836">
        <ele>3</ele>
        <time>2020-06-02T20:08:41Z</time>
      </trkpt>
      <trkpt lat="39.891819" lon="3.078361">
        <ele>3</ele>
        <time>2020-06-02T20:08:43Z</time>
      </trkpt>
      <trkpt lat="39.891895" lon="3.078361">
        <ele>2.9</ele>
        <time>2020-06-02T20:08:44Z</time>
      </trkpt>
      <trkpt lat="39.891987" lon="3.078362">
        <ele>2.9</ele>
        <time>2020-06-02T20:08:45Z</time>
      </trkpt>
      <trkpt lat="39.892063" lon="3.078362">
        <ele>2.9</ele>
        <time>2020-06-02T20:08:46Z</time>
      </trkpt>
      <trkpt lat="39.892139" lon="3.078362">
        <ele>2.9</ele>
        <time>2020-06-02T20:08:47Z</time>
      </trkpt>
      <trkpt lat="39.892227" lon="3.078363">
        <ele>2.9</ele>
        <time>2020-06-02T20:08:48Z</time>
      </trkpt>
      <trkpt lat="39.892319" lon="3.078363">
        <ele>3</ele>
        <time>2020-06-02T20:08:49Z</time>
      </trkpt>
      <trkpt lat="39.892395" lon="3.078363">
        <ele>3</ele>
        <time>2020-06-02T20:08:50Z</time>
      </trkpt>
      <trkpt lat="39.892487" lon="3.078364">
        <ele>3</ele>
        <time>2020-06-02T20:08:51Z</time>
      </trkpt>
      <trkpt lat="39.892578" lon="3.078364">
        <ele>3</ele>
        <time>2020-06-02T20:08:53Z</time>
      </trkpt>
      <trkpt lat="39.892666" lon="3.078365">
        <ele>3.1</ele>
        <time>2020-06-02T20:08:54Z</time>
      </trkpt>
      <trkpt lat="39.892757" lon="3.078365">
        <ele>3.1</ele>
        <time>2020-06-02T20:08:55Z</time>
      </trkpt>
      <trkpt lat="39.892834" lon="3.078366">
        <ele>3</ele>
        <time>2020-06-02T20:08:56Z</time>
      </trkpt>
      <trkpt lat="39.892925" lon="3.078366">
        <ele>2.9</ele>
        <time>2020-06-02T20:08:57Z</time>
      </trkpt>
      <trkpt lat="39.893013" lon="3.078367">
        <ele>2.8</ele>
        <time>2020-06-02T20:08:58Z</time>
      </trkpt>
      <trkpt lat="39.893089" lon="3.078367">
        <ele>2.7</ele>
        <time>2020-06-02T20:08:59Z</time>
      </trkpt>
      <trkpt lat="39.893181" lon="3.078368">
        <ele>2.6</ele>
        <time>2020-06-02T20:09:01Z</time>
      </trkpt>
      <trkpt lat="39.893272" lon="3.078368">
        <ele>2.5</ele>
        <time>2020-06-02T20:09:02Z</time>
      </trkpt>
      <trkpt lat="39.893345" lon="3.078368">
        <ele>2.5</ele>
        <time>2020-06-02T20:09:03Z</time>
      </trkpt>
      <trkpt lat="39.893436" lon="3.078368">
        <ele>2.4</ele>
        <time>2020-06-02T20:09:04Z</time>
      </trkpt>
      <trkpt lat="39.893528" lon="3.078369">
        <ele>2.3</ele>
        <time>2020-06-02T20:09:05Z</time>
      </trkpt>
      <trkpt lat="39.89362" lon="3.078369">
        <ele>2.3</ele>
        <time>2020-06-02T20:09:06Z</time>
      </trkpt>
      <trkpt lat="39.893692" lon="3.07837">
        <ele>2.3</ele>
        <time>2020-06-02T20:09:07Z</time>
      </trkpt>
      <trkpt lat="39.893768" lon="3.078371">
        <ele>2.2</ele>
        <time>2020-06-02T20:09:08Z</time>
      </trkpt>
      <trkpt lat="39.893845" lon="3.078372">
        <ele>2.2</ele>
        <time>2020-06-02T20:09:09Z</time>
      </trkpt>
      <trkpt lat="39.893936" lon="3.078373">
        <ele>2.1</ele>
        <time>2020-06-02T20:09:11Z</time>
      </trkpt>
      <trkpt lat="39.894024" lon="3.078374">
        <ele>2.2</ele>
        <time>2020-06-02T20:09:12Z</time>
      </trkpt>
      <trkpt lat="39.8941" lon="3.078375">
        <ele>2.2</ele>
        <time>2020-06-02T20:09:13Z</time>
      </trkpt>
      <trkpt lat="39.894192" lon="3.078376">
        <ele>2.2</ele>
        <time>2020-06-02T20:09:14Z</time>
      </trkpt>
      <trkpt lat="39.894279" lon="3.078377">
        <ele>2.2</ele>
        <time>2020-06-02T20:09:15Z</time>
      </trkpt>
      <trkpt lat="39.894371" lon="3.078379">
        <ele>2.3</ele>
        <time>2020-06-02T20:09:16Z</time>
      </trkpt>
      <trkpt lat="39.894463" lon="3.078381">
        <ele>2.3</ele>
        <time>2020-06-02T20:09:18Z</time>
      </trkpt>
      <trkpt lat="39.894554" lon="3.078383">
        <ele>2.3</ele>
        <time>2020-06-02T20:09:19Z</time>
      </trkpt>
      <trkpt lat="39.894646" lon="3.078387">
        <ele>2.3</ele>
        <time>2020-06-02T20:09:20Z</time>
      </trkpt>
      <trkpt lat="39.894737" lon="3.078392">
        <ele>2.3</ele>
        <time>2020-06-02T20:09:21Z</time>
      </trkpt>
      <trkpt lat="39.894829" lon="3.078398">
        <ele>2.4</ele>
        <time>2020-06-02T20:09:22Z</time>
      </trkpt>
      <trkpt lat="39.89492" lon="3.078405">
        <ele>2.4</ele>
        <time>2020-06-02T20:09:24Z</time>
      </trkpt>
      <trkpt lat="39.894997" lon="3.07841">
        <ele>2.4</ele>
        <time>2020-06-02T20:09:25Z</time>
      </trkpt>
      <trkpt lat="39.895073" lon="3.078413">
        <ele>2.4</ele>
        <time>2020-06-02T20:09:26Z</time>
      </trkpt>
      <trkpt lat="39.895164" lon="3.078418">
        <ele>2.4</ele>
        <time>2020-06-02T20:09:27Z</time>
      </trkpt>
      <trkpt lat="39.895256" lon="3.078423">
        <ele>2.4</ele>
        <time>2020-06-02T20:09:28Z</time>
      </trkpt>
      <trkpt lat="39.895348" lon="3.078432">
        <ele>2.3</ele>
        <time>2020-06-02T20:09:29Z</time>
      </trkpt>
      <trkpt lat="39.895424" lon="3.078444">
        <ele>2.3</ele>
        <time>2020-06-02T20:09:30Z</time>
      </trkpt>
      <trkpt lat="39.895515" lon="3.078459">
        <ele>2.3</ele>
        <time>2020-06-02T20:09:31Z</time>
      </trkpt>
      <trkpt lat="39.895592" lon="3.078475">
        <ele>2.3</ele>
        <time>2020-06-02T20:09:32Z</time>
      </trkpt>
      <trkpt lat="39.895683" lon="3.078499">
        <ele>2.3</ele>
        <time>2020-06-02T20:09:34Z</time>
      </trkpt>
      <trkpt lat="39.895771" lon="3.078523">
        <ele>2.3</ele>
        <time>2020-06-02T20:09:35Z</time>
      </trkpt>
      <trkpt lat="39.895847" lon="3.078542">
        <ele>2.3</ele>
        <time>2020-06-02T20:09:36Z</time>
      </trkpt>
      <trkpt lat="39.895939" lon="3.078566">
        <ele>2.3</ele>
        <time>2020-06-02T20:09:37Z</time>
      </trkpt>
      <trkpt lat="39.89603" lon="3.07859">
        <ele>2.3</ele>
        <time>2020-06-02T20:09:38Z</time>
      </trkpt>
      <trkpt lat="39.896122" lon="3.078614">
        <ele>2.3</ele>
        <time>2020-06-02T20:09:39Z</time>
      </trkpt>
      <trkpt lat="39.896194" lon="3.078633">
        <ele>2.3</ele>
        <time>2020-06-02T20:09:40Z</time>
      </trkpt>
      <trkpt lat="39.896286" lon="3.078657">
        <ele>2.3</ele>
        <time>2020-06-02T20:09:42Z</time>
      </trkpt>
      <trkpt lat="39.896378" lon="3.078681">
        <ele>2.3</ele>
        <time>2020-06-02T20:09:43Z</time>
      </trkpt>
      <trkpt lat="39.89645" lon="3.0787">
        <ele>2.3</ele>
        <time>2020-06-02T20:09:44Z</time>
      </trkpt>
      <trkpt lat="39.896542" lon="3.078723">
        <ele>2.3</ele>
        <time>2020-06-02T20:09:45Z</time>
      </trkpt>
      <trkpt lat="39.896633" lon="3.078746">
        <ele>2.3</ele>
        <time>2020-06-02T20:09:46Z</time>
      </trkpt>
      <trkpt lat="39.896706" lon="3.078765">
        <ele>2.3</ele>
        <time>2020-06-02T20:09:47Z</time>
      </trkpt>
      <trkpt lat="39.896797" lon="3.078788">
        <ele>2.3</ele>
        <time>2020-06-02T20:09:48Z</time>
      </trkpt>
      <trkpt lat="39.896889" lon="3.078811">
        <ele>2.3</ele>
        <time>2020-06-02T20:09:50Z</time>
      </trkpt>
      <trkpt lat="39.896976" lon="3.078834">
        <ele>2.3</ele>
        <time>2020-06-02T20:09:51Z</time>
      </trkpt>
      <trkpt lat="39.897068" lon="3.078856">
        <ele>2.4</ele>
        <time>2020-06-02T20:09:52Z</time>
      </trkpt>
      <trkpt lat="39.89714" lon="3.078876">
        <ele>2.5</ele>
        <time>2020-06-02T20:09:53Z</time>
      </trkpt>
      <trkpt lat="39.897232" lon="3.078898">
        <ele>2.6</ele>
        <time>2020-06-02T20:09:54Z</time>
      </trkpt>
      <trkpt lat="39.89732" lon="3.078921">
        <ele>2.7</ele>
        <time>2020-06-02T20:09:55Z</time>
      </trkpt>
      <trkpt lat="39.897396" lon="3.07894">
        <ele>2.7</ele>
        <time>2020-06-02T20:09:56Z</time>
      </trkpt>
      <trkpt lat="39.897484" lon="3.078962">
        <ele>2.9</ele>
        <time>2020-06-02T20:09:58Z</time>
      </trkpt>
      <trkpt lat="39.89756" lon="3.078981">
        <ele>2.8</ele>
        <time>2020-06-02T20:09:59Z</time>
      </trkpt>
      <trkpt lat="39.897648" lon="3.079004">
        <ele>2.7</ele>
        <time>2020-06-02T20:10:00Z</time>
      </trkpt>
      <trkpt lat="39.897736" lon="3.079027">
        <ele>2.7</ele>
        <time>2020-06-02T20:10:01Z</time>
      </trkpt>
      <trkpt lat="39.897812" lon="3.079046">
        <ele>2.6</ele>
        <time>2020-06-02T20:10:02Z</time>
      </trkpt>
      <trkpt lat="39.897888" lon="3.079064">
        <ele>2.6</ele>
        <time>2020-06-02T20:10:03Z</time>
      </trkpt>
      <trkpt lat="39.897976" lon="3.079087">
        <ele>2.5</ele>
        <time>2020-06-02T20:10:04Z</time>
      </trkpt>
      <trkpt lat="39.898067" lon="3.07911">
        <ele>2.5</ele>
        <time>2020-06-02T20:10:05Z</time>
      </trkpt>
      <trkpt lat="39.898159" lon="3.079132">
        <ele>2.5</ele>
        <time>2020-06-02T20:10:07Z</time>
      </trkpt>
      <trkpt lat="39.898251" lon="3.079154">
        <ele>2.5</ele>
        <time>2020-06-02T20:10:08Z</time>
      </trkpt>
      <trkpt lat="39.898323" lon="3.079173">
        <ele>2.5</ele>
        <time>2020-06-02T20:10:09Z</time>
      </trkpt>
      <trkpt lat="39.898415" lon="3.079195">
        <ele>2.6</ele>
        <time>2020-06-02T20:10:10Z</time>
      </trkpt>
      <trkpt lat="39.898491" lon="3.079214">
        <ele>2.6</ele>
        <time>2020-06-02T20:10:11Z</time>
      </trkpt>
      <trkpt lat="39.898579" lon="3.079235">
        <ele>2.6</ele>
        <time>2020-06-02T20:10:12Z</time>
      </trkpt>
      <trkpt lat="39.89867" lon="3.079257">
        <ele>2.6</ele>
        <time>2020-06-02T20:10:13Z</time>
      </trkpt>
      <trkpt lat="39.898746" lon="3.079275">
        <ele>2.6</ele>
        <time>2020-06-02T20:10:14Z</time>
      </trkpt>
      <trkpt lat="39.898838" lon="3.079296">
        <ele>2.7</ele>
        <time>2020-06-02T20:10:16Z</time>
      </trkpt>
      <trkpt lat="39.898914" lon="3.079313">
        <ele>2.7</ele>
        <time>2020-06-02T20:10:17Z</time>
      </trkpt>
      <trkpt lat="39.899002" lon="3.079333">
        <ele>2.8</ele>
        <time>2020-06-02T20:10:18Z</time>
      </trkpt>
      <trkpt lat="39.899094" lon="3.079353">
        <ele>2.8</ele>
        <time>2020-06-02T20:10:19Z</time>
      </trkpt>
      <trkpt lat="39.89917" lon="3.079369">
        <ele>2.7</ele>
        <time>2020-06-02T20:10:20Z</time>
      </trkpt>
      <trkpt lat="39.899246" lon="3.079385">
        <ele>2.7</ele>
        <time>2020-06-02T20:10:21Z</time>
      </trkpt>
      <trkpt lat="39.899338" lon="3.079404">
        <ele>2.7</ele>
        <time>2020-06-02T20:10:22Z</time>
      </trkpt>
      <trkpt lat="39.899414" lon="3.079419">
        <ele>2.7</ele>
        <time>2020-06-02T20:10:23Z</time>
      </trkpt>
      <trkpt lat="39.89949" lon="3.079433">
        <ele>2.7</ele>
        <time>2020-06-02T20:10:24Z</time>
      </trkpt>
      <trkpt lat="39.899582" lon="3.07945">
        <ele>2.6</ele>
        <time>2020-06-02T20:10:25Z</time>
      </trkpt>
      <trkpt lat="39.89967" lon="3.079466">
        <ele>2.6</ele>
        <time>2020-06-02T20:10:27Z</time>
      </trkpt>
      <trkpt lat="39.899761" lon="3.079482">
        <ele>2.6</ele>
        <time>2020-06-02T20:10:28Z</time>
      </trkpt>
      <trkpt lat="39.899853" lon="3.079497">
        <ele>2.6</ele>
        <time>2020-06-02T20:10:29Z</time>
      </trkpt>
      <trkpt lat="39.89994" lon="3.079511">
        <ele>2.5</ele>
        <time>2020-06-02T20:10:30Z</time>
      </trkpt>
      <trkpt lat="39.900032" lon="3.079525">
        <ele>2.5</ele>
        <time>2020-06-02T20:10:31Z</time>
      </trkpt>
      <trkpt lat="39.900108" lon="3.079536">
        <ele>2.4</ele>
        <time>2020-06-02T20:10:32Z</time>
      </trkpt>
      <trkpt lat="39.9002" lon="3.07955">
        <ele>2.4</ele>
        <time>2020-06-02T20:10:34Z</time>
      </trkpt>
      <trkpt lat="39.900295" lon="3.079563">
        <ele>2.4</ele>
        <time>2020-06-02T20:10:35Z</time>
      </trkpt>
      <trkpt lat="39.900387" lon="3.079577">
        <ele>2.5</ele>
        <time>2020-06-02T20:10:36Z</time>
      </trkpt>
      <trkpt lat="39.900463" lon="3.079588">
        <ele>2.5</ele>
        <time>2020-06-02T20:10:37Z</time>
      </trkpt>
      <trkpt lat="39.900555" lon="3.079601">
        <ele>2.5</ele>
        <time>2020-06-02T20:10:38Z</time>
      </trkpt>
      <trkpt lat="39.90065" lon="3.079616">
        <ele>2.6</ele>
        <time>2020-06-02T20:10:39Z</time>
      </trkpt>
      <trkpt lat="39.900742" lon="3.079632">
        <ele>2.7</ele>
        <time>2020-06-02T20:10:41Z</time>
      </trkpt>
      <trkpt lat="39.900833" lon="3.079648">
        <ele>2.6</ele>
        <time>2020-06-02T20:10:42Z</time>
      </trkpt>
      <trkpt lat="39.900925" lon="3.079661">
        <ele>2.5</ele>
        <time>2020-06-02T20:10:43Z</time>
      </trkpt>
      <trkpt lat="39.90102" lon="3.079674">
        <ele>2.4</ele>
        <time>2020-06-02T20:10:44Z</time>
      </trkpt>
      <trkpt lat="39.901112" lon="3.079686">
        <ele>2.3</ele>
        <time>2020-06-02T20:10:45Z</time>
      </trkpt>
      <trkpt lat="39.901188" lon="3.079698">
        <ele>2.2</ele>
        <time>2020-06-02T20:10:46Z</time>
      </trkpt>
      <trkpt lat="39.901264" lon="3.079709">
        <ele>2.2</ele>
        <time>2020-06-02T20:10:47Z</time>
      </trkpt>
      <trkpt lat="39.901356" lon="3.079727">
        <ele>2.2</ele>
        <time>2020-06-02T20:10:49Z</time>
      </trkpt>
      <trkpt lat="39.901447" lon="3.079752">
        <ele>2.3</ele>
        <time>2020-06-02T20:10:50Z</time>
      </trkpt>
      <trkpt lat="39.901524" lon="3.079775">
        <ele>2.3</ele>
        <time>2020-06-02T20:10:51Z</time>
      </trkpt>
      <trkpt lat="39.901615" lon="3.079802">
        <ele>2.4</ele>
        <time>2020-06-02T20:10:52Z</time>
      </trkpt>
      <trkpt lat="39.901688" lon="3.079826">
        <ele>2.4</ele>
        <time>2020-06-02T20:10:53Z</time>
      </trkpt>
      <trkpt lat="39.901764" lon="3.079853">
        <ele>2.4</ele>
        <time>2020-06-02T20:10:54Z</time>
      </trkpt>
      <trkpt lat="39.901852" lon="3.079884">
        <ele>2.5</ele>
        <time>2020-06-02T20:10:55Z</time>
      </trkpt>
      <trkpt lat="39.901943" lon="3.079915">
        <ele>2.5</ele>
        <time>2020-06-02T20:10:56Z</time>
      </trkpt>
      <trkpt lat="39.902031" lon="3.079948">
        <ele>2.6</ele>
        <time>2020-06-02T20:10:58Z</time>
      </trkpt>
      <trkpt lat="39.902119" lon="3.079982">
        <ele>2.6</ele>
        <time>2020-06-02T20:10:59Z</time>
      </trkpt>
      <trkpt lat="39.90221" lon="3.080017">
        <ele>2.7</ele>
        <time>2020-06-02T20:11:00Z</time>
      </trkpt>
      <trkpt lat="39.902298" lon="3.080054">
        <ele>2.8</ele>
        <time>2020-06-02T20:11:01Z</time>
      </trkpt>
      <trkpt lat="39.902386" lon="3.080092">
        <ele>2.9</ele>
        <time>2020-06-02T20:11:02Z</time>
      </trkpt>
      <trkpt lat="39.902473" lon="3.080132">
        <ele>2.9</ele>
        <time>2020-06-02T20:11:04Z</time>
      </trkpt>
      <trkpt lat="39.90255" lon="3.080165">
        <ele>3</ele>
        <time>2020-06-02T20:11:05Z</time>
      </trkpt>
      <trkpt lat="39.902634" lon="3.080208">
        <ele>3.1</ele>
        <time>2020-06-02T20:11:06Z</time>
      </trkpt>
      <trkpt lat="39.902721" lon="3.080254">
        <ele>3.1</ele>
        <time>2020-06-02T20:11:07Z</time>
      </trkpt>
      <trkpt lat="39.90279" lon="3.080294">
        <ele>3.2</ele>
        <time>2020-06-02T20:11:08Z</time>
      </trkpt>
      <trkpt lat="39.902863" lon="3.080335">
        <ele>3.1</ele>
        <time>2020-06-02T20:11:09Z</time>
      </trkpt>
      <trkpt lat="39.902931" lon="3.080381">
        <ele>3</ele>
        <time>2020-06-02T20:11:10Z</time>
      </trkpt>
      <trkpt lat="39.903011" lon="3.080441">
        <ele>2.8</ele>
        <time>2020-06-02T20:11:11Z</time>
      </trkpt>
      <trkpt lat="39.903091" lon="3.080501">
        <ele>2.8</ele>
        <time>2020-06-02T20:11:12Z</time>
      </trkpt>
      <trkpt lat="39.903168" lon="3.08056">
        <ele>2.7</ele>
        <time>2020-06-02T20:11:14Z</time>
      </trkpt>
      <trkpt lat="39.903236" lon="3.08061">
        <ele>2.7</ele>
        <time>2020-06-02T20:11:15Z</time>
      </trkpt>
      <trkpt lat="39.903301" lon="3.080659">
        <ele>2.7</ele>
        <time>2020-06-02T20:11:16Z</time>
      </trkpt>
      <trkpt lat="39.903366" lon="3.080708">
        <ele>2.7</ele>
        <time>2020-06-02T20:11:17Z</time>
      </trkpt>
      <trkpt lat="39.903446" lon="3.080766">
        <ele>2.7</ele>
        <time>2020-06-02T20:11:18Z</time>
      </trkpt>
      <trkpt lat="39.903515" lon="3.080816">
        <ele>2.7</ele>
        <time>2020-06-02T20:11:19Z</time>
      </trkpt>
      <trkpt lat="39.903591" lon="3.080874">
        <ele>2.7</ele>
        <time>2020-06-02T20:11:20Z</time>
      </trkpt>
      <trkpt lat="39.903671" lon="3.080933">
        <ele>2.6</ele>
        <time>2020-06-02T20:11:21Z</time>
      </trkpt>
      <trkpt lat="39.903751" lon="3.080991">
        <ele>2.6</ele>
        <time>2020-06-02T20:11:22Z</time>
      </trkpt>
      <trkpt lat="39.903816" lon="3.08104">
        <ele>2.6</ele>
        <time>2020-06-02T20:11:23Z</time>
      </trkpt>
      <trkpt lat="39.903896" lon="3.081098">
        <ele>2.5</ele>
        <time>2020-06-02T20:11:25Z</time>
      </trkpt>
      <trkpt lat="39.903976" lon="3.081156">
        <ele>2.5</ele>
        <time>2020-06-02T20:11:26Z</time>
      </trkpt>
      <trkpt lat="39.904053" lon="3.081214">
        <ele>2.5</ele>
        <time>2020-06-02T20:11:27Z</time>
      </trkpt>
      <trkpt lat="39.904133" lon="3.081273">
        <ele>2.5</ele>
        <time>2020-06-02T20:11:28Z</time>
      </trkpt>
      <trkpt lat="39.904213" lon="3.081331">
        <ele>2.5</ele>
        <time>2020-06-02T20:11:29Z</time>
      </trkpt>
      <trkpt lat="39.904293" lon="3.081388">
        <ele>2.4</ele>
        <time>2020-06-02T20:11:31Z</time>
      </trkpt>
      <trkpt lat="39.904377" lon="3.081441">
        <ele>2.4</ele>
        <time>2020-06-02T20:11:32Z</time>
      </trkpt>
      <trkpt lat="39.904446" lon="3.081483">
        <ele>2.4</ele>
        <time>2020-06-02T20:11:33Z</time>
      </trkpt>
      <trkpt lat="39.904514" lon="3.081525">
        <ele>2.4</ele>
        <time>2020-06-02T20:11:34Z</time>
      </trkpt>
      <trkpt lat="39.904598" lon="3.081575">
        <ele>2.4</ele>
        <time>2020-06-02T20:11:35Z</time>
      </trkpt>
      <trkpt lat="39.904663" lon="3.081617">
        <ele>2.4</ele>
        <time>2020-06-02T20:11:36Z</time>
      </trkpt>
      <trkpt lat="39.904747" lon="3.081667">
        <ele>2.4</ele>
        <time>2020-06-02T20:11:37Z</time>
      </trkpt>
      <trkpt lat="39.904827" lon="3.081717">
        <ele>2.4</ele>
        <time>2020-06-02T20:11:38Z</time>
      </trkpt>
      <trkpt lat="39.904915" lon="3.081768">
        <ele>2.4</ele>
        <time>2020-06-02T20:11:40Z</time>
      </trkpt>
      <trkpt lat="39.904999" lon="3.08182">
        <ele>2.4</ele>
        <time>2020-06-02T20:11:41Z</time>
      </trkpt>
      <trkpt lat="39.905083" lon="3.081873">
        <ele>2.4</ele>
        <time>2020-06-02T20:11:42Z</time>
      </trkpt>
      <trkpt lat="39.905167" lon="3.081927">
        <ele>2.5</ele>
        <time>2020-06-02T20:11:43Z</time>
      </trkpt>
      <trkpt lat="39.905251" lon="3.081984">
        <ele>2.5</ele>
        <time>2020-06-02T20:11:44Z</time>
      </trkpt>
      <trkpt lat="39.905323" lon="3.082031">
        <ele>2.5</ele>
        <time>2020-06-02T20:11:45Z</time>
      </trkpt>
      <trkpt lat="39.905407" lon="3.082086">
        <ele>2.5</ele>
        <time>2020-06-02T20:11:47Z</time>
      </trkpt>
      <trkpt lat="39.905476" lon="3.082132">
        <ele>2.5</ele>
        <time>2020-06-02T20:11:48Z</time>
      </trkpt>
      <trkpt lat="39.905559" lon="3.082187">
        <ele>2.5</ele>
        <time>2020-06-02T20:11:49Z</time>
      </trkpt>
      <trkpt lat="39.905632" lon="3.082233">
        <ele>2.5</ele>
        <time>2020-06-02T20:11:50Z</time>
      </trkpt>
      <trkpt lat="39.905716" lon="3.082287">
        <ele>2.5</ele>
        <time>2020-06-02T20:11:51Z</time>
      </trkpt>
      <trkpt lat="39.905796" lon="3.082342">
        <ele>2.5</ele>
        <time>2020-06-02T20:11:52Z</time>
      </trkpt>
      <trkpt lat="39.905865" lon="3.082386">
        <ele>2.5</ele>
        <time>2020-06-02T20:11:53Z</time>
      </trkpt>
      <trkpt lat="39.905949" lon="3.082441">
        <ele>2.5</ele>
        <time>2020-06-02T20:11:54Z</time>
      </trkpt>
      <trkpt lat="39.906029" lon="3.082502">
        <ele>2.5</ele>
        <time>2020-06-02T20:11:56Z</time>
      </trkpt>
      <trkpt lat="39.906101" lon="3.082573">
        <ele>2.5</ele>
        <time>2020-06-02T20:11:57Z</time>
      </trkpt>
      <trkpt lat="39.906158" lon="3.08263">
        <ele>2.6</ele>
        <time>2020-06-02T20:11:58Z</time>
      </trkpt>
      <trkpt lat="39.906223" lon="3.082699">
        <ele>2.6</ele>
        <time>2020-06-02T20:11:59Z</time>
      </trkpt>
      <trkpt lat="39.90628" lon="3.082765">
        <ele>2.6</ele>
        <time>2020-06-02T20:12:00Z</time>
      </trkpt>
      <trkpt lat="39.906338" lon="3.08284">
        <ele>2.6</ele>
        <time>2020-06-02T20:12:01Z</time>
      </trkpt>
      <trkpt lat="39.906376" lon="3.082933">
        <ele>2.7</ele>
        <time>2020-06-02T20:12:03Z</time>
      </trkpt>
      <trkpt lat="39.906403" lon="3.083036">
        <ele>2.7</ele>
        <time>2020-06-02T20:12:04Z</time>
      </trkpt>
      <trkpt lat="39.906433" lon="3.083135">
        <ele>2.8</ele>
        <time>2020-06-02T20:12:05Z</time>
      </trkpt>
      <trkpt lat="39.906513" lon="3.08314">
        <ele>2.8</ele>
        <time>2020-06-02T20:12:06Z</time>
      </trkpt>
      <trkpt lat="39.906586" lon="3.083137">
        <ele>2.8</ele>
        <time>2020-06-02T20:12:07Z</time>
      </trkpt>
      <trkpt lat="39.906654" lon="3.083155">
        <ele>2.9</ele>
        <time>2020-06-02T20:12:08Z</time>
      </trkpt>
      <trkpt lat="39.906734" lon="3.083198">
        <ele>2.9</ele>
        <time>2020-06-02T20:12:09Z</time>
      </trkpt>
      <trkpt lat="39.906803" lon="3.083234">
        <ele>3</ele>
        <time>2020-06-02T20:12:10Z</time>
      </trkpt>
      <trkpt lat="39.906876" lon="3.083271">
        <ele>3</ele>
        <time>2020-06-02T20:12:11Z</time>
      </trkpt>
      <trkpt lat="39.906956" lon="3.083318">
        <ele>3.1</ele>
        <time>2020-06-02T20:12:13Z</time>
      </trkpt>
      <trkpt lat="39.907024" lon="3.08336">
        <ele>3.1</ele>
        <time>2020-06-02T20:12:14Z</time>
      </trkpt>
      <trkpt lat="39.907108" lon="3.08341">
        <ele>3.1</ele>
        <time>2020-06-02T20:12:15Z</time>
      </trkpt>
      <trkpt lat="39.907188" lon="3.083461">
        <ele>3.1</ele>
        <time>2020-06-02T20:12:16Z</time>
      </trkpt>
      <trkpt lat="39.907272" lon="3.083515">
        <ele>3.1</ele>
        <time>2020-06-02T20:12:17Z</time>
      </trkpt>
      <trkpt lat="39.907341" lon="3.083562">
        <ele>3.1</ele>
        <time>2020-06-02T20:12:18Z</time>
      </trkpt>
      <trkpt lat="39.907421" lon="3.083619">
        <ele>3.2</ele>
        <time>2020-06-02T20:12:19Z</time>
      </trkpt>
      <trkpt lat="39.907501" lon="3.083679">
        <ele>3.2</ele>
        <time>2020-06-02T20:12:21Z</time>
      </trkpt>
      <trkpt lat="39.907566" lon="3.083735">
        <ele>3.2</ele>
        <time>2020-06-02T20:12:22Z</time>
      </trkpt>
      <trkpt lat="39.907631" lon="3.083791">
        <ele>3.3</ele>
        <time>2020-06-02T20:12:23Z</time>
      </trkpt>
      <trkpt lat="39.907707" lon="3.083859">
        <ele>3.3</ele>
        <time>2020-06-02T20:12:24Z</time>
      </trkpt>
      <trkpt lat="39.907783" lon="3.083929">
        <ele>3.3</ele>
        <time>2020-06-02T20:12:25Z</time>
      </trkpt>
      <trkpt lat="39.90786" lon="3.084001">
        <ele>3.2</ele>
        <time>2020-06-02T20:12:26Z</time>
      </trkpt>
      <trkpt lat="39.907932" lon="3.084072">
        <ele>3.2</ele>
        <time>2020-06-02T20:12:27Z</time>
      </trkpt>
      <trkpt lat="39.908009" lon="3.084143">
        <ele>3.2</ele>
        <time>2020-06-02T20:12:29Z</time>
      </trkpt>
      <trkpt lat="39.908085" lon="3.084216">
        <ele>3.2</ele>
        <time>2020-06-02T20:12:30Z</time>
      </trkpt>
      <trkpt lat="39.908161" lon="3.084288">
        <ele>3.2</ele>
        <time>2020-06-02T20:12:31Z</time>
      </trkpt>
      <trkpt lat="39.908226" lon="3.084349">
        <ele>3.2</ele>
        <time>2020-06-02T20:12:32Z</time>
      </trkpt>
      <trkpt lat="39.908302" lon="3.084422">
        <ele>3.1</ele>
        <time>2020-06-02T20:12:33Z</time>
      </trkpt>
      <trkpt lat="39.908379" lon="3.084495">
        <ele>3.1</ele>
        <time>2020-06-02T20:12:34Z</time>
      </trkpt>
      <trkpt lat="39.90844" lon="3.084556">
        <ele>3</ele>
        <time>2020-06-02T20:12:35Z</time>
      </trkpt>
      <trkpt lat="39.908504" lon="3.084617">
        <ele>3</ele>
        <time>2020-06-02T20:12:36Z</time>
      </trkpt>
      <trkpt lat="39.908565" lon="3.084677">
        <ele>3</ele>
        <time>2020-06-02T20:12:37Z</time>
      </trkpt>
      <trkpt lat="39.908642" lon="3.08475">
        <ele>3</ele>
        <time>2020-06-02T20:12:39Z</time>
      </trkpt>
      <trkpt lat="39.908714" lon="3.084825">
        <ele>3.1</ele>
        <time>2020-06-02T20:12:40Z</time>
      </trkpt>
      <trkpt lat="39.908787" lon="3.084902">
        <ele>3.1</ele>
        <time>2020-06-02T20:12:41Z</time>
      </trkpt>
      <trkpt lat="39.908859" lon="3.084979">
        <ele>3.1</ele>
        <time>2020-06-02T20:12:42Z</time>
      </trkpt>
      <trkpt lat="39.908932" lon="3.085055">
        <ele>3.1</ele>
        <time>2020-06-02T20:12:43Z</time>
      </trkpt>
      <trkpt lat="39.909004" lon="3.085128">
        <ele>3.1</ele>
        <time>2020-06-02T20:12:45Z</time>
      </trkpt>
      <trkpt lat="39.90908" lon="3.085201">
        <ele>3.1</ele>
        <time>2020-06-02T20:12:46Z</time>
      </trkpt>
      <trkpt lat="39.909153" lon="3.085278">
        <ele>3.1</ele>
        <time>2020-06-02T20:12:47Z</time>
      </trkpt>
      <trkpt lat="39.909214" lon="3.085342">
        <ele>3.1</ele>
        <time>2020-06-02T20:12:48Z</time>
      </trkpt>
      <trkpt lat="39.909286" lon="3.085425">
        <ele>3.1</ele>
        <time>2020-06-02T20:12:49Z</time>
      </trkpt>
      <trkpt lat="39.909348" lon="3.085519">
        <ele>3.2</ele>
        <time>2020-06-02T20:12:50Z</time>
      </trkpt>
      <trkpt lat="39.909409" lon="3.085613">
        <ele>3.2</ele>
        <time>2020-06-02T20:12:52Z</time>
      </trkpt>
      <trkpt lat="39.90947" lon="3.085706">
        <ele>3.3</ele>
        <time>2020-06-02T20:12:53Z</time>
      </trkpt>
      <trkpt lat="39.909523" lon="3.085783">
        <ele>3.3</ele>
        <time>2020-06-02T20:12:54Z</time>
      </trkpt>
      <trkpt lat="39.909584" lon="3.085876">
        <ele>3.3</ele>
        <time>2020-06-02T20:12:55Z</time>
      </trkpt>
      <trkpt lat="39.909634" lon="3.085953">
        <ele>3.4</ele>
        <time>2020-06-02T20:12:56Z</time>
      </trkpt>
      <trkpt lat="39.909683" lon="3.086032">
        <ele>3.4</ele>
        <time>2020-06-02T20:12:57Z</time>
      </trkpt>
      <trkpt lat="39.909737" lon="3.086107">
        <ele>3.4</ele>
        <time>2020-06-02T20:12:58Z</time>
      </trkpt>
      <trkpt lat="39.909786" lon="3.086178">
        <ele>3.3</ele>
        <time>2020-06-02T20:12:59Z</time>
      </trkpt>
      <trkpt lat="39.909847" lon="3.086259">
        <ele>3.3</ele>
        <time>2020-06-02T20:13:00Z</time>
      </trkpt>
      <trkpt lat="39.909904" lon="3.086339">
        <ele>3.3</ele>
        <time>2020-06-02T20:13:01Z</time>
      </trkpt>
      <trkpt lat="39.909965" lon="3.086419">
        <ele>3.3</ele>
        <time>2020-06-02T20:13:03Z</time>
      </trkpt>
      <trkpt lat="39.910015" lon="3.086488">
        <ele>3.3</ele>
        <time>2020-06-02T20:13:04Z</time>
      </trkpt>
      <trkpt lat="39.910072" lon="3.086572">
        <ele>3.3</ele>
        <time>2020-06-02T20:13:05Z</time>
      </trkpt>
      <trkpt lat="39.910149" lon="3.086632">
        <ele>3.3</ele>
        <time>2020-06-02T20:13:06Z</time>
      </trkpt>
      <trkpt lat="39.910221" lon="3.086569">
        <ele>3.3</ele>
        <time>2020-06-02T20:13:07Z</time>
      </trkpt>
      <trkpt lat="39.910282" lon="3.086491">
        <ele>3.3</ele>
        <time>2020-06-02T20:13:08Z</time>
      </trkpt>
      <trkpt lat="39.910343" lon="3.086417">
        <ele>3.3</ele>
        <time>2020-06-02T20:13:10Z</time>
      </trkpt>
      <trkpt lat="39.910404" lon="3.086343">
        <ele>3.2</ele>
        <time>2020-06-02T20:13:11Z</time>
      </trkpt>
      <trkpt lat="39.910465" lon="3.086268">
        <ele>3.1</ele>
        <time>2020-06-02T20:13:12Z</time>
      </trkpt>
      <trkpt lat="39.91053" lon="3.086197">
        <ele>3.3</ele>
        <time>2020-06-02T20:13:13Z</time>
      </trkpt>
      <trkpt lat="39.910591" lon="3.08613">
        <ele>3.5</ele>
        <time>2020-06-02T20:13:14Z</time>
      </trkpt>
      <trkpt lat="39.91066" lon="3.086078">
        <ele>3.7</ele>
        <time>2020-06-02T20:13:16Z</time>
      </trkpt>
      <trkpt lat="39.910721" lon="3.086105">
        <ele>3.7</ele>
        <time>2020-06-02T20:13:17Z</time>
      </trkpt>
      <trkpt lat="39.910786" lon="3.086179">
        <ele>3.8</ele>
        <time>2020-06-02T20:13:18Z</time>
      </trkpt>
      <trkpt lat="39.910843" lon="3.086237">
        <ele>3.8</ele>
        <time>2020-06-02T20:13:19Z</time>
      </trkpt>
      <trkpt lat="39.910915" lon="3.08625">
        <ele>3.8</ele>
        <time>2020-06-02T20:13:20Z</time>
      </trkpt>
      <trkpt lat="39.910984" lon="3.086205">
        <ele>3.9</ele>
        <time>2020-06-02T20:13:21Z</time>
      </trkpt>
      <trkpt lat="39.91106" lon="3.086137">
        <ele>3.9</ele>
        <time>2020-06-02T20:13:22Z</time>
      </trkpt>
      <trkpt lat="39.911125" lon="3.086081">
        <ele>3.9</ele>
        <time>2020-06-02T20:13:23Z</time>
      </trkpt>
      <trkpt lat="39.911205" lon="3.086011">
        <ele>3.9</ele>
        <time>2020-06-02T20:13:24Z</time>
      </trkpt>
      <trkpt lat="39.911289" lon="3.085938">
        <ele>3.9</ele>
        <time>2020-06-02T20:13:25Z</time>
      </trkpt>
      <trkpt lat="39.911369" lon="3.085867">
        <ele>4</ele>
        <time>2020-06-02T20:13:27Z</time>
      </trkpt>
      <trkpt lat="39.911446" lon="3.085799">
        <ele>4.1</ele>
        <time>2020-06-02T20:13:28Z</time>
      </trkpt>
      <trkpt lat="39.911522" lon="3.085731">
        <ele>4.2</ele>
        <time>2020-06-02T20:13:29Z</time>
      </trkpt>
      <trkpt lat="39.911598" lon="3.085665">
        <ele>4.4</ele>
        <time>2020-06-02T20:13:30Z</time>
      </trkpt>
      <trkpt lat="39.911659" lon="3.08561">
        <ele>4.5</ele>
        <time>2020-06-02T20:13:31Z</time>
      </trkpt>
      <trkpt lat="39.911736" lon="3.085546">
        <ele>4.7</ele>
        <time>2020-06-02T20:13:32Z</time>
      </trkpt>
      <trkpt lat="39.911808" lon="3.085481">
        <ele>4.8</ele>
        <time>2020-06-02T20:13:34Z</time>
      </trkpt>
      <trkpt lat="39.91188" lon="3.085417">
        <ele>5</ele>
        <time>2020-06-02T20:13:35Z</time>
      </trkpt>
      <trkpt lat="39.911953" lon="3.085352">
        <ele>5.3</ele>
        <time>2020-06-02T20:13:36Z</time>
      </trkpt>
      <trkpt lat="39.912014" lon="3.085298">
        <ele>5.5</ele>
        <time>2020-06-02T20:13:37Z</time>
      </trkpt>
      <trkpt lat="39.912086" lon="3.085233">
        <ele>5.8</ele>
        <time>2020-06-02T20:13:38Z</time>
      </trkpt>
      <trkpt lat="39.912163" lon="3.085169">
        <ele>6.1</ele>
        <time>2020-06-02T20:13:39Z</time>
      </trkpt>
      <trkpt lat="39.912235" lon="3.085107">
        <ele>6.3</ele>
        <time>2020-06-02T20:13:41Z</time>
      </trkpt>
      <trkpt lat="39.912312" lon="3.085046">
        <ele>6.6</ele>
        <time>2020-06-02T20:13:42Z</time>
      </trkpt>
      <trkpt lat="39.91238" lon="3.084985">
        <ele>6.9</ele>
        <time>2020-06-02T20:13:43Z</time>
      </trkpt>
      <trkpt lat="39.912449" lon="3.084925">
        <ele>6.9</ele>
        <time>2020-06-02T20:13:44Z</time>
      </trkpt>
      <trkpt lat="39.91251" lon="3.084863">
        <ele>7.1</ele>
        <time>2020-06-02T20:13:45Z</time>
      </trkpt>
      <trkpt lat="39.912559" lon="3.084809">
        <ele>7.1</ele>
        <time>2020-06-02T20:13:46Z</time>
      </trkpt>
      <trkpt lat="39.912617" lon="3.084745">
        <ele>7.4</ele>
        <time>2020-06-02T20:13:48Z</time>
      </trkpt>
      <trkpt lat="39.912662" lon="3.084693">
        <ele>7.4</ele>
        <time>2020-06-02T20:13:49Z</time>
      </trkpt>
      <trkpt lat="39.912731" lon="3.084663">
        <ele>8.5</ele>
        <time>2020-06-02T20:13:50Z</time>
      </trkpt>
      <trkpt lat="39.912788" lon="3.084716">
        <ele>8.5</ele>
        <time>2020-06-02T20:13:51Z</time>
      </trkpt>
      <trkpt lat="39.912834" lon="3.084773">
        <ele>8.6</ele>
        <time>2020-06-02T20:13:52Z</time>
      </trkpt>
      <trkpt lat="39.912888" lon="3.08485">
        <ele>8.7</ele>
        <time>2020-06-02T20:13:53Z</time>
      </trkpt>
      <trkpt lat="39.912918" lon="3.084919">
        <ele>8.9</ele>
        <time>2020-06-02T20:13:54Z</time>
      </trkpt>
      <trkpt lat="39.912949" lon="3.085002">
        <ele>9</ele>
        <time>2020-06-02T20:13:55Z</time>
      </trkpt>
      <trkpt lat="39.912979" lon="3.085086">
        <ele>9.2</ele>
        <time>2020-06-02T20:13:57Z</time>
      </trkpt>
      <trkpt lat="39.913006" lon="3.085156">
        <ele>9.3</ele>
        <time>2020-06-02T20:13:58Z</time>
      </trkpt>
      <trkpt lat="39.913029" lon="3.085227">
        <ele>9.5</ele>
        <time>2020-06-02T20:13:59Z</time>
      </trkpt>
      <trkpt lat="39.913063" lon="3.085309">
        <ele>9.6</ele>
        <time>2020-06-02T20:14:00Z</time>
      </trkpt>
      <trkpt lat="39.913086" lon="3.08538">
        <ele>9.7</ele>
        <time>2020-06-02T20:14:01Z</time>
      </trkpt>
      <trkpt lat="39.913113" lon="3.085455">
        <ele>9.8</ele>
        <time>2020-06-02T20:14:02Z</time>
      </trkpt>
      <trkpt lat="39.913143" lon="3.085551">
        <ele>9.9</ele>
        <time>2020-06-02T20:14:03Z</time>
      </trkpt>
      <trkpt lat="39.91317" lon="3.085636">
        <ele>10</ele>
        <time>2020-06-02T20:14:04Z</time>
      </trkpt>
      <trkpt lat="39.913204" lon="3.08574">
        <ele>10.1</ele>
        <time>2020-06-02T20:14:05Z</time>
      </trkpt>
      <trkpt lat="39.913238" lon="3.085845">
        <ele>10.3</ele>
        <time>2020-06-02T20:14:06Z</time>
      </trkpt>
      <trkpt lat="39.913269" lon="3.085949">
        <ele>10.4</ele>
        <time>2020-06-02T20:14:08Z</time>
      </trkpt>
      <trkpt lat="39.913292" lon="3.086033">
        <ele>10.5</ele>
        <time>2020-06-02T20:14:09Z</time>
      </trkpt>
      <trkpt lat="39.913315" lon="3.086127">
        <ele>10.6</ele>
        <time>2020-06-02T20:14:10Z</time>
      </trkpt>
      <trkpt lat="39.913338" lon="3.086211">
        <ele>10.7</ele>
        <time>2020-06-02T20:14:11Z</time>
      </trkpt>
      <trkpt lat="39.913357" lon="3.086289">
        <ele>10.8</ele>
        <time>2020-06-02T20:14:12Z</time>
      </trkpt>
      <trkpt lat="39.91338" lon="3.086367">
        <ele>10.9</ele>
        <time>2020-06-02T20:14:13Z</time>
      </trkpt>
      <trkpt lat="39.913399" lon="3.086449">
        <ele>11</ele>
        <time>2020-06-02T20:14:15Z</time>
      </trkpt>
      <trkpt lat="39.913414" lon="3.086542">
        <ele>11</ele>
        <time>2020-06-02T20:14:16Z</time>
      </trkpt>
      <trkpt lat="39.913429" lon="3.086639">
        <ele>11.1</ele>
        <time>2020-06-02T20:14:17Z</time>
      </trkpt>
      <trkpt lat="39.913444" lon="3.086722">
        <ele>11.1</ele>
        <time>2020-06-02T20:14:18Z</time>
      </trkpt>
      <trkpt lat="39.913464" lon="3.086821">
        <ele>11.1</ele>
        <time>2020-06-02T20:14:19Z</time>
      </trkpt>
      <trkpt lat="39.913479" lon="3.086904">
        <ele>11.2</ele>
        <time>2020-06-02T20:14:20Z</time>
      </trkpt>
      <trkpt lat="39.913494" lon="3.087003">
        <ele>11.2</ele>
        <time>2020-06-02T20:14:21Z</time>
      </trkpt>
      <trkpt lat="39.913506" lon="3.087085">
        <ele>11.2</ele>
        <time>2020-06-02T20:14:22Z</time>
      </trkpt>
      <trkpt lat="39.913517" lon="3.087168">
        <ele>11.3</ele>
        <time>2020-06-02T20:14:23Z</time>
      </trkpt>
      <trkpt lat="39.913532" lon="3.087266">
        <ele>11.3</ele>
        <time>2020-06-02T20:14:25Z</time>
      </trkpt>
      <trkpt lat="39.91354" lon="3.087364">
        <ele>11.3</ele>
        <time>2020-06-02T20:14:26Z</time>
      </trkpt>
      <trkpt lat="39.913548" lon="3.087446">
        <ele>11.4</ele>
        <time>2020-06-02T20:14:27Z</time>
      </trkpt>
      <trkpt lat="39.913555" lon="3.087528">
        <ele>11.4</ele>
        <time>2020-06-02T20:14:28Z</time>
      </trkpt>
      <trkpt lat="39.913563" lon="3.08761">
        <ele>11.4</ele>
        <time>2020-06-02T20:14:29Z</time>
      </trkpt>
      <trkpt lat="39.91357" lon="3.087709">
        <ele>11.5</ele>
        <time>2020-06-02T20:14:30Z</time>
      </trkpt>
      <trkpt lat="39.913578" lon="3.08781">
        <ele>11.5</ele>
        <time>2020-06-02T20:14:31Z</time>
      </trkpt>
      <trkpt lat="39.913582" lon="3.087895">
        <ele>11.5</ele>
        <time>2020-06-02T20:14:32Z</time>
      </trkpt>
      <trkpt lat="39.913589" lon="3.08798">
        <ele>11.6</ele>
        <time>2020-06-02T20:14:33Z</time>
      </trkpt>
      <trkpt lat="39.913597" lon="3.088082">
        <ele>11.8</ele>
        <time>2020-06-02T20:14:34Z</time>
      </trkpt>
      <trkpt lat="39.913601" lon="3.088185">
        <ele>11.8</ele>
        <time>2020-06-02T20:14:36Z</time>
      </trkpt>
      <trkpt lat="39.913609" lon="3.088289">
        <ele>11.8</ele>
        <time>2020-06-02T20:14:37Z</time>
      </trkpt>
      <trkpt lat="39.913612" lon="3.088378">
        <ele>11.8</ele>
        <time>2020-06-02T20:14:38Z</time>
      </trkpt>
      <trkpt lat="39.913616" lon="3.088469">
        <ele>11.8</ele>
        <time>2020-06-02T20:14:39Z</time>
      </trkpt>
      <trkpt lat="39.91362" lon="3.088579">
        <ele>11.8</ele>
        <time>2020-06-02T20:14:40Z</time>
      </trkpt>
      <trkpt lat="39.91362" lon="3.088672">
        <ele>11.8</ele>
        <time>2020-06-02T20:14:41Z</time>
      </trkpt>
      <trkpt lat="39.913624" lon="3.088783">
        <ele>11.9</ele>
        <time>2020-06-02T20:14:42Z</time>
      </trkpt>
      <trkpt lat="39.913628" lon="3.088876">
        <ele>11.9</ele>
        <time>2020-06-02T20:14:43Z</time>
      </trkpt>
      <trkpt lat="39.913635" lon="3.088988">
        <ele>12</ele>
        <time>2020-06-02T20:14:44Z</time>
      </trkpt>
      <trkpt lat="39.913639" lon="3.089083">
        <ele>12.1</ele>
        <time>2020-06-02T20:14:45Z</time>
      </trkpt>
      <trkpt lat="39.913647" lon="3.0892">
        <ele>12.2</ele>
        <time>2020-06-02T20:14:47Z</time>
      </trkpt>
      <trkpt lat="39.91365" lon="3.08932">
        <ele>12.4</ele>
        <time>2020-06-02T20:14:48Z</time>
      </trkpt>
      <trkpt lat="39.913654" lon="3.089422">
        <ele>12.5</ele>
        <time>2020-06-02T20:14:49Z</time>
      </trkpt>
      <trkpt lat="39.913662" lon="3.089545">
        <ele>12.6</ele>
        <time>2020-06-02T20:14:50Z</time>
      </trkpt>
      <trkpt lat="39.913666" lon="3.089648">
        <ele>12.8</ele>
        <time>2020-06-02T20:14:51Z</time>
      </trkpt>
      <trkpt lat="39.91367" lon="3.089769">
        <ele>12.9</ele>
        <time>2020-06-02T20:14:52Z</time>
      </trkpt>
      <trkpt lat="39.913673" lon="3.089887">
        <ele>13</ele>
        <time>2020-06-02T20:14:53Z</time>
      </trkpt>
      <trkpt lat="39.913677" lon="3.090001">
        <ele>13.1</ele>
        <time>2020-06-02T20:14:55Z</time>
      </trkpt>
      <trkpt lat="39.913685" lon="3.090111">
        <ele>13.2</ele>
        <time>2020-06-02T20:14:56Z</time>
      </trkpt>
      <trkpt lat="39.913689" lon="3.090219">
        <ele>13.3</ele>
        <time>2020-06-02T20:14:57Z</time>
      </trkpt>
      <trkpt lat="39.913696" lon="3.090306">
        <ele>13.4</ele>
        <time>2020-06-02T20:14:58Z</time>
      </trkpt>
      <trkpt lat="39.9137" lon="3.090409">
        <ele>13.4</ele>
        <time>2020-06-02T20:14:59Z</time>
      </trkpt>
      <trkpt lat="39.913704" lon="3.090493">
        <ele>13.4</ele>
        <time>2020-06-02T20:15:00Z</time>
      </trkpt>
      <trkpt lat="39.913708" lon="3.090596">
        <ele>13.4</ele>
        <time>2020-06-02T20:15:01Z</time>
      </trkpt>
      <trkpt lat="39.913712" lon="3.0907">
        <ele>13.3</ele>
        <time>2020-06-02T20:15:03Z</time>
      </trkpt>
      <trkpt lat="39.913715" lon="3.090806">
        <ele>13.3</ele>
        <time>2020-06-02T20:15:04Z</time>
      </trkpt>
      <trkpt lat="39.913723" lon="3.090914">
        <ele>13.3</ele>
        <time>2020-06-02T20:15:05Z</time>
      </trkpt>
      <trkpt lat="39.913727" lon="3.091023">
        <ele>13.1</ele>
        <time>2020-06-02T20:15:06Z</time>
      </trkpt>
      <trkpt lat="39.913731" lon="3.091136">
        <ele>13</ele>
        <time>2020-06-02T20:15:07Z</time>
      </trkpt>
      <trkpt lat="39.913734" lon="3.091232">
        <ele>12.8</ele>
        <time>2020-06-02T20:15:08Z</time>
      </trkpt>
      <trkpt lat="39.913738" lon="3.091332">
        <ele>12.7</ele>
        <time>2020-06-02T20:15:09Z</time>
      </trkpt>
      <trkpt lat="39.913746" lon="3.091453">
        <ele>12.5</ele>
        <time>2020-06-02T20:15:11Z</time>
      </trkpt>
      <trkpt lat="39.913753" lon="3.091575">
        <ele>12.2</ele>
        <time>2020-06-02T20:15:12Z</time>
      </trkpt>
      <trkpt lat="39.913757" lon="3.091679">
        <ele>12.1</ele>
        <time>2020-06-02T20:15:13Z</time>
      </trkpt>
      <trkpt lat="39.913765" lon="3.091807">
        <ele>11.8</ele>
        <time>2020-06-02T20:15:14Z</time>
      </trkpt>
      <trkpt lat="39.913773" lon="3.091937">
        <ele>11.5</ele>
        <time>2020-06-02T20:15:15Z</time>
      </trkpt>
      <trkpt lat="39.913776" lon="3.092049">
        <ele>11.3</ele>
        <time>2020-06-02T20:15:16Z</time>
      </trkpt>
      <trkpt lat="39.91378" lon="3.092163">
        <ele>11.1</ele>
        <time>2020-06-02T20:15:17Z</time>
      </trkpt>
      <trkpt lat="39.913788" lon="3.092278">
        <ele>10.9</ele>
        <time>2020-06-02T20:15:18Z</time>
      </trkpt>
      <trkpt lat="39.913795" lon="3.092419">
        <ele>10.6</ele>
        <time>2020-06-02T20:15:19Z</time>
      </trkpt>
      <trkpt lat="39.913803" lon="3.092562">
        <ele>10.3</ele>
        <time>2020-06-02T20:15:21Z</time>
      </trkpt>
      <trkpt lat="39.913811" lon="3.092706">
        <ele>10.1</ele>
        <time>2020-06-02T20:15:22Z</time>
      </trkpt>
      <trkpt lat="39.913818" lon="3.09285">
        <ele>9.8</ele>
        <time>2020-06-02T20:15:23Z</time>
      </trkpt>
      <trkpt lat="39.913826" lon="3.092996">
        <ele>9.6</ele>
        <time>2020-06-02T20:15:24Z</time>
      </trkpt>
      <trkpt lat="39.913837" lon="3.093148">
        <ele>9.5</ele>
        <time>2020-06-02T20:15:25Z</time>
      </trkpt>
      <trkpt lat="39.913845" lon="3.093306">
        <ele>9.4</ele>
        <time>2020-06-02T20:15:27Z</time>
      </trkpt>
      <trkpt lat="39.913853" lon="3.093468">
        <ele>9.3</ele>
        <time>2020-06-02T20:15:28Z</time>
      </trkpt>
      <trkpt lat="39.91386" lon="3.093633">
        <ele>9.3</ele>
        <time>2020-06-02T20:15:29Z</time>
      </trkpt>
      <trkpt lat="39.913868" lon="3.093768">
        <ele>9.3</ele>
        <time>2020-06-02T20:15:30Z</time>
      </trkpt>
      <trkpt lat="39.913872" lon="3.093927">
        <ele>9.4</ele>
        <time>2020-06-02T20:15:31Z</time>
      </trkpt>
      <trkpt lat="39.913876" lon="3.094056">
        <ele>9.4</ele>
        <time>2020-06-02T20:15:32Z</time>
      </trkpt>
      <trkpt lat="39.913876" lon="3.094204">
        <ele>9.5</ele>
        <time>2020-06-02T20:15:33Z</time>
      </trkpt>
      <trkpt lat="39.913879" lon="3.094346">
        <ele>9.6</ele>
        <time>2020-06-02T20:15:35Z</time>
      </trkpt>
      <trkpt lat="39.913883" lon="3.094484">
        <ele>9.7</ele>
        <time>2020-06-02T20:15:36Z</time>
      </trkpt>
      <trkpt lat="39.913887" lon="3.094598">
        <ele>9.8</ele>
        <time>2020-06-02T20:15:37Z</time>
      </trkpt>
      <trkpt lat="39.913887" lon="3.094734">
        <ele>9.9</ele>
        <time>2020-06-02T20:15:38Z</time>
      </trkpt>
      <trkpt lat="39.913883" lon="3.094848">
        <ele>9.9</ele>
        <time>2020-06-02T20:15:39Z</time>
      </trkpt>
      <trkpt lat="39.913876" lon="3.094982">
        <ele>10</ele>
        <time>2020-06-02T20:15:40Z</time>
      </trkpt>
      <trkpt lat="39.913868" lon="3.095093">
        <ele>10</ele>
        <time>2020-06-02T20:15:41Z</time>
      </trkpt>
      <trkpt lat="39.91386" lon="3.095225">
        <ele>10</ele>
        <time>2020-06-02T20:15:42Z</time>
      </trkpt>
      <trkpt lat="39.913849" lon="3.095353">
        <ele>10</ele>
        <time>2020-06-02T20:15:44Z</time>
      </trkpt>
      <trkpt lat="39.913834" lon="3.095476">
        <ele>10.1</ele>
        <time>2020-06-02T20:15:45Z</time>
      </trkpt>
      <trkpt lat="39.913822" lon="3.095576">
        <ele>10.1</ele>
        <time>2020-06-02T20:15:46Z</time>
      </trkpt>
      <trkpt lat="39.913807" lon="3.095695">
        <ele>10.1</ele>
        <time>2020-06-02T20:15:47Z</time>
      </trkpt>
      <trkpt lat="39.913792" lon="3.095793">
        <ele>10.1</ele>
        <time>2020-06-02T20:15:48Z</time>
      </trkpt>
      <trkpt lat="39.913773" lon="3.095912">
        <ele>10.1</ele>
        <time>2020-06-02T20:15:49Z</time>
      </trkpt>
      <trkpt lat="39.913753" lon="3.09603">
        <ele>10.1</ele>
        <time>2020-06-02T20:15:50Z</time>
      </trkpt>
      <trkpt lat="39.913734" lon="3.096146">
        <ele>10.1</ele>
        <time>2020-06-02T20:15:52Z</time>
      </trkpt>
      <trkpt lat="39.913712" lon="3.096259">
        <ele>10.1</ele>
        <time>2020-06-02T20:15:53Z</time>
      </trkpt>
      <trkpt lat="39.913692" lon="3.09637">
        <ele>10.1</ele>
        <time>2020-06-02T20:15:54Z</time>
      </trkpt>
      <trkpt lat="39.91367" lon="3.09648">
        <ele>10.1</ele>
        <time>2020-06-02T20:15:55Z</time>
      </trkpt>
      <trkpt lat="39.913647" lon="3.096571">
        <ele>10.1</ele>
        <time>2020-06-02T20:15:56Z</time>
      </trkpt>
      <trkpt lat="39.913624" lon="3.096662">
        <ele>10.1</ele>
        <time>2020-06-02T20:15:57Z</time>
      </trkpt>
      <trkpt lat="39.913601" lon="3.096772">
        <ele>10.1</ele>
        <time>2020-06-02T20:15:58Z</time>
      </trkpt>
      <trkpt lat="39.913582" lon="3.096863">
        <ele>10.1</ele>
        <time>2020-06-02T20:15:59Z</time>
      </trkpt>
      <trkpt lat="39.913559" lon="3.096954">
        <ele>10.1</ele>
        <time>2020-06-02T20:16:00Z</time>
      </trkpt>
      <trkpt lat="39.91354" lon="3.097046">
        <ele>10.1</ele>
        <time>2020-06-02T20:16:01Z</time>
      </trkpt>
      <trkpt lat="39.913517" lon="3.097157">
        <ele>10</ele>
        <time>2020-06-02T20:16:03Z</time>
      </trkpt>
      <trkpt lat="39.913494" lon="3.097269">
        <ele>10</ele>
        <time>2020-06-02T20:16:04Z</time>
      </trkpt>
      <trkpt lat="39.913467" lon="3.097383">
        <ele>10</ele>
        <time>2020-06-02T20:16:05Z</time>
      </trkpt>
      <trkpt lat="39.913441" lon="3.097497">
        <ele>10</ele>
        <time>2020-06-02T20:16:06Z</time>
      </trkpt>
      <trkpt lat="39.913414" lon="3.097612">
        <ele>10</ele>
        <time>2020-06-02T20:16:07Z</time>
      </trkpt>
      <trkpt lat="39.913387" lon="3.097728">
        <ele>10</ele>
        <time>2020-06-02T20:16:09Z</time>
      </trkpt>
      <trkpt lat="39.913361" lon="3.097844">
        <ele>10</ele>
        <time>2020-06-02T20:16:10Z</time>
      </trkpt>
      <trkpt lat="39.913334" lon="3.097959">
        <ele>10</ele>
        <time>2020-06-02T20:16:11Z</time>
      </trkpt>
      <trkpt lat="39.913307" lon="3.098075">
        <ele>10.1</ele>
        <time>2020-06-02T20:16:12Z</time>
      </trkpt>
      <trkpt lat="39.913284" lon="3.098171">
        <ele>10.1</ele>
        <time>2020-06-02T20:16:13Z</time>
      </trkpt>
      <trkpt lat="39.913258" lon="3.098285">
        <ele>10.1</ele>
        <time>2020-06-02T20:16:14Z</time>
      </trkpt>
      <trkpt lat="39.913238" lon="3.09838">
        <ele>10</ele>
        <time>2020-06-02T20:16:15Z</time>
      </trkpt>
      <trkpt lat="39.913216" lon="3.098491">
        <ele>10</ele>
        <time>2020-06-02T20:16:17Z</time>
      </trkpt>
      <trkpt lat="39.913193" lon="3.098583">
        <ele>10</ele>
        <time>2020-06-02T20:16:18Z</time>
      </trkpt>
      <trkpt lat="39.91317" lon="3.098691">
        <ele>10</ele>
        <time>2020-06-02T20:16:19Z</time>
      </trkpt>
      <trkpt lat="39.913147" lon="3.098799">
        <ele>10</ele>
        <time>2020-06-02T20:16:20Z</time>
      </trkpt>
      <trkpt lat="39.913124" lon="3.098907">
        <ele>10</ele>
        <time>2020-06-02T20:16:21Z</time>
      </trkpt>
      <trkpt lat="39.913101" lon="3.099019">
        <ele>9.9</ele>
        <time>2020-06-02T20:16:22Z</time>
      </trkpt>
      <trkpt lat="39.913078" lon="3.099133">
        <ele>9.9</ele>
        <time>2020-06-02T20:16:24Z</time>
      </trkpt>
      <trkpt lat="39.913055" lon="3.099251">
        <ele>9.9</ele>
        <time>2020-06-02T20:16:25Z</time>
      </trkpt>
      <trkpt lat="39.913021" lon="3.099368">
        <ele>9.9</ele>
        <time>2020-06-02T20:16:26Z</time>
      </trkpt>
      <trkpt lat="39.912964" lon="3.099448">
        <ele>9.9</ele>
        <time>2020-06-02T20:16:27Z</time>
      </trkpt>
      <trkpt lat="39.912876" lon="3.099531">
        <ele>9.8</ele>
        <time>2020-06-02T20:16:28Z</time>
      </trkpt>
      <trkpt lat="39.912811" lon="3.099643">
        <ele>10</ele>
        <time>2020-06-02T20:16:29Z</time>
      </trkpt>
      <trkpt lat="39.912811" lon="3.09976">
        <ele>10</ele>
        <time>2020-06-02T20:16:30Z</time>
      </trkpt>
      <trkpt lat="39.912819" lon="3.099897">
        <ele>10</ele>
        <time>2020-06-02T20:16:32Z</time>
      </trkpt>
      <trkpt lat="39.912804" lon="3.100006">
        <ele>10.1</ele>
        <time>2020-06-02T20:16:33Z</time>
      </trkpt>
      <trkpt lat="39.912781" lon="3.100132">
        <ele>10.1</ele>
        <time>2020-06-02T20:16:34Z</time>
      </trkpt>
      <trkpt lat="39.912758" lon="3.100256">
        <ele>10.1</ele>
        <time>2020-06-02T20:16:35Z</time>
      </trkpt>
      <trkpt lat="39.912723" lon="3.100373">
        <ele>10.2</ele>
        <time>2020-06-02T20:16:36Z</time>
      </trkpt>
      <trkpt lat="39.912685" lon="3.10049">
        <ele>10.2</ele>
        <time>2020-06-02T20:16:37Z</time>
      </trkpt>
      <trkpt lat="39.912659" lon="3.100586">
        <ele>10.3</ele>
        <time>2020-06-02T20:16:38Z</time>
      </trkpt>
      <trkpt lat="39.912628" lon="3.100702">
        <ele>10.3</ele>
        <time>2020-06-02T20:16:40Z</time>
      </trkpt>
      <trkpt lat="39.912598" lon="3.100816">
        <ele>10.4</ele>
        <time>2020-06-02T20:16:41Z</time>
      </trkpt>
      <trkpt lat="39.912567" lon="3.100929">
        <ele>10.6</ele>
        <time>2020-06-02T20:16:42Z</time>
      </trkpt>
      <trkpt lat="39.91254" lon="3.101025">
        <ele>10.7</ele>
        <time>2020-06-02T20:16:43Z</time>
      </trkpt>
      <trkpt lat="39.91251" lon="3.101139">
        <ele>10.7</ele>
        <time>2020-06-02T20:16:44Z</time>
      </trkpt>
      <trkpt lat="39.912479" lon="3.101253">
        <ele>10.8</ele>
        <time>2020-06-02T20:16:45Z</time>
      </trkpt>
      <trkpt lat="39.912456" lon="3.101348">
        <ele>10.8</ele>
        <time>2020-06-02T20:16:46Z</time>
      </trkpt>
      <trkpt lat="39.91243" lon="3.101462">
        <ele>10.8</ele>
        <time>2020-06-02T20:16:48Z</time>
      </trkpt>
      <trkpt lat="39.912403" lon="3.101578">
        <ele>10.9</ele>
        <time>2020-06-02T20:16:49Z</time>
      </trkpt>
      <trkpt lat="39.91238" lon="3.101693">
        <ele>11.1</ele>
        <time>2020-06-02T20:16:50Z</time>
      </trkpt>
      <trkpt lat="39.912361" lon="3.101789">
        <ele>11.3</ele>
        <time>2020-06-02T20:16:51Z</time>
      </trkpt>
      <trkpt lat="39.912342" lon="3.101888">
        <ele>11.5</ele>
        <time>2020-06-02T20:16:52Z</time>
      </trkpt>
      <trkpt lat="39.912331" lon="3.102008">
        <ele>11.8</ele>
        <time>2020-06-02T20:16:53Z</time>
      </trkpt>
      <trkpt lat="39.912327" lon="3.102125">
        <ele>12.1</ele>
        <time>2020-06-02T20:16:54Z</time>
      </trkpt>
      <trkpt lat="39.912331" lon="3.102221">
        <ele>12.4</ele>
        <time>2020-06-02T20:16:55Z</time>
      </trkpt>
      <trkpt lat="39.91235" lon="3.102328">
        <ele>12.7</ele>
        <time>2020-06-02T20:16:57Z</time>
      </trkpt>
      <trkpt lat="39.91238" lon="3.102407">
        <ele>13</ele>
        <time>2020-06-02T20:16:58Z</time>
      </trkpt>
      <trkpt lat="39.912415" lon="3.102496">
        <ele>13.4</ele>
        <time>2020-06-02T20:16:59Z</time>
      </trkpt>
      <trkpt lat="39.912445" lon="3.10258">
        <ele>13.7</ele>
        <time>2020-06-02T20:17:00Z</time>
      </trkpt>
      <trkpt lat="39.912483" lon="3.102654">
        <ele>14</ele>
        <time>2020-06-02T20:17:01Z</time>
      </trkpt>
      <trkpt lat="39.912525" lon="3.102715">
        <ele>14.3</ele>
        <time>2020-06-02T20:17:02Z</time>
      </trkpt>
      <trkpt lat="39.912571" lon="3.102766">
        <ele>14.5</ele>
        <time>2020-06-02T20:17:04Z</time>
      </trkpt>
      <trkpt lat="39.912609" lon="3.102805">
        <ele>14.7</ele>
        <time>2020-06-02T20:17:05Z</time>
      </trkpt>
      <trkpt lat="39.912651" lon="3.102851">
        <ele>14.9</ele>
        <time>2020-06-02T20:17:06Z</time>
      </trkpt>
      <trkpt lat="39.912697" lon="3.102892">
        <ele>15.2</ele>
        <time>2020-06-02T20:17:07Z</time>
      </trkpt>
      <trkpt lat="39.912735" lon="3.102922">
        <ele>15.5</ele>
        <time>2020-06-02T20:17:08Z</time>
      </trkpt>
      <trkpt lat="39.912785" lon="3.102954">
        <ele>15.9</ele>
        <time>2020-06-02T20:17:09Z</time>
      </trkpt>
      <trkpt lat="39.91283" lon="3.102983">
        <ele>16.2</ele>
        <time>2020-06-02T20:17:10Z</time>
      </trkpt>
      <trkpt lat="39.912872" lon="3.103009">
        <ele>16.4</ele>
        <time>2020-06-02T20:17:11Z</time>
      </trkpt>
      <trkpt lat="39.912918" lon="3.103043">
        <ele>16.7</ele>
        <time>2020-06-02T20:17:13Z</time>
      </trkpt>
      <trkpt lat="39.912968" lon="3.103077">
        <ele>17</ele>
        <time>2020-06-02T20:17:14Z</time>
      </trkpt>
      <trkpt lat="39.913017" lon="3.103112">
        <ele>17.3</ele>
        <time>2020-06-02T20:17:15Z</time>
      </trkpt>
      <trkpt lat="39.913059" lon="3.103139">
        <ele>17.4</ele>
        <time>2020-06-02T20:17:16Z</time>
      </trkpt>
      <trkpt lat="39.913109" lon="3.103172">
        <ele>17.6</ele>
        <time>2020-06-02T20:17:17Z</time>
      </trkpt>
      <trkpt lat="39.913147" lon="3.103199">
        <ele>17.7</ele>
        <time>2020-06-02T20:17:18Z</time>
      </trkpt>
      <trkpt lat="39.913197" lon="3.103232">
        <ele>18</ele>
        <time>2020-06-02T20:17:19Z</time>
      </trkpt>
      <trkpt lat="39.913242" lon="3.103265">
        <ele>18.3</ele>
        <time>2020-06-02T20:17:21Z</time>
      </trkpt>
      <trkpt lat="39.913288" lon="3.103297">
        <ele>18.5</ele>
        <time>2020-06-02T20:17:22Z</time>
      </trkpt>
      <trkpt lat="39.913326" lon="3.103323">
        <ele>18.8</ele>
        <time>2020-06-02T20:17:23Z</time>
      </trkpt>
      <trkpt lat="39.913364" lon="3.103349">
        <ele>19</ele>
        <time>2020-06-02T20:17:24Z</time>
      </trkpt>
      <trkpt lat="39.913406" lon="3.103379">
        <ele>19.3</ele>
        <time>2020-06-02T20:17:25Z</time>
      </trkpt>
      <trkpt lat="39.913452" lon="3.103409">
        <ele>19.6</ele>
        <time>2020-06-02T20:17:26Z</time>
      </trkpt>
      <trkpt lat="39.913498" lon="3.103439">
        <ele>19.9</ele>
        <time>2020-06-02T20:17:27Z</time>
      </trkpt>
      <trkpt lat="39.91354" lon="3.103468">
        <ele>20.2</ele>
        <time>2020-06-02T20:17:29Z</time>
      </trkpt>
      <trkpt lat="39.913582" lon="3.103497">
        <ele>20.4</ele>
        <time>2020-06-02T20:17:30Z</time>
      </trkpt>
      <trkpt lat="39.913624" lon="3.103525">
        <ele>20.7</ele>
        <time>2020-06-02T20:17:31Z</time>
      </trkpt>
      <trkpt lat="39.913662" lon="3.103549">
        <ele>20.9</ele>
        <time>2020-06-02T20:17:32Z</time>
      </trkpt>
      <trkpt lat="39.913704" lon="3.103579">
        <ele>21.2</ele>
        <time>2020-06-02T20:17:33Z</time>
      </trkpt>
      <trkpt lat="39.913746" lon="3.103608">
        <ele>21.5</ele>
        <time>2020-06-02T20:17:34Z</time>
      </trkpt>
      <trkpt lat="39.913784" lon="3.103633">
        <ele>21.7</ele>
        <time>2020-06-02T20:17:35Z</time>
      </trkpt>
      <trkpt lat="39.913818" lon="3.103657">
        <ele>21.9</ele>
        <time>2020-06-02T20:17:36Z</time>
      </trkpt>
      <trkpt lat="39.91386" lon="3.103686">
        <ele>22.2</ele>
        <time>2020-06-02T20:17:38Z</time>
      </trkpt>
      <trkpt lat="39.913906" lon="3.103716">
        <ele>22.5</ele>
        <time>2020-06-02T20:17:39Z</time>
      </trkpt>
      <trkpt lat="39.913948" lon="3.103746">
        <ele>22.7</ele>
        <time>2020-06-02T20:17:40Z</time>
      </trkpt>
      <trkpt lat="39.913986" lon="3.103771">
        <ele>23</ele>
        <time>2020-06-02T20:17:41Z</time>
      </trkpt>
      <trkpt lat="39.91402" lon="3.103796">
        <ele>23.2</ele>
        <time>2020-06-02T20:17:42Z</time>
      </trkpt>
      <trkpt lat="39.914066" lon="3.103826">
        <ele>23.4</ele>
        <time>2020-06-02T20:17:43Z</time>
      </trkpt>
      <trkpt lat="39.914112" lon="3.103856">
        <ele>23.7</ele>
        <time>2020-06-02T20:17:44Z</time>
      </trkpt>
      <trkpt lat="39.914146" lon="3.103882">
        <ele>23.9</ele>
        <time>2020-06-02T20:17:45Z</time>
      </trkpt>
      <trkpt lat="39.914185" lon="3.103907">
        <ele>24.1</ele>
        <time>2020-06-02T20:17:46Z</time>
      </trkpt>
      <trkpt lat="39.91423" lon="3.103939">
        <ele>24.4</ele>
        <time>2020-06-02T20:17:48Z</time>
      </trkpt>
      <trkpt lat="39.914272" lon="3.103971">
        <ele>24.7</ele>
        <time>2020-06-02T20:17:49Z</time>
      </trkpt>
      <trkpt lat="39.914318" lon="3.104003">
        <ele>25.1</ele>
        <time>2020-06-02T20:17:50Z</time>
      </trkpt>
      <trkpt lat="39.914364" lon="3.104036">
        <ele>25.4</ele>
        <time>2020-06-02T20:17:51Z</time>
      </trkpt>
      <trkpt lat="39.914398" lon="3.104063">
        <ele>25.7</ele>
        <time>2020-06-02T20:17:52Z</time>
      </trkpt>
      <trkpt lat="39.91444" lon="3.104095">
        <ele>26.1</ele>
        <time>2020-06-02T20:17:53Z</time>
      </trkpt>
      <trkpt lat="39.914474" lon="3.104122">
        <ele>26.4</ele>
        <time>2020-06-02T20:17:54Z</time>
      </trkpt>
      <trkpt lat="39.914513" lon="3.104153">
        <ele>26.7</ele>
        <time>2020-06-02T20:17:56Z</time>
      </trkpt>
      <trkpt lat="39.914551" lon="3.104183">
        <ele>27.1</ele>
        <time>2020-06-02T20:17:57Z</time>
      </trkpt>
      <trkpt lat="39.914585" lon="3.104211">
        <ele>27.4</ele>
        <time>2020-06-02T20:17:58Z</time>
      </trkpt>
      <trkpt lat="39.914623" lon="3.104239">
        <ele>27.8</ele>
        <time>2020-06-02T20:17:59Z</time>
      </trkpt>
      <trkpt lat="39.914654" lon="3.104263">
        <ele>28.1</ele>
        <time>2020-06-02T20:18:00Z</time>
      </trkpt>
      <trkpt lat="39.914684" lon="3.104288">
        <ele>28.4</ele>
        <time>2020-06-02T20:18:01Z</time>
      </trkpt>
      <trkpt lat="39.914726" lon="3.10432">
        <ele>28.8</ele>
        <time>2020-06-02T20:18:02Z</time>
      </trkpt>
      <trkpt lat="39.914757" lon="3.104348">
        <ele>29.2</ele>
        <time>2020-06-02T20:18:03Z</time>
      </trkpt>
      <trkpt lat="39.914791" lon="3.104383">
        <ele>29.6</ele>
        <time>2020-06-02T20:18:05Z</time>
      </trkpt>
      <trkpt lat="39.914822" lon="3.104416">
        <ele>30</ele>
        <time>2020-06-02T20:18:06Z</time>
      </trkpt>
      <trkpt lat="39.914856" lon="3.10445">
        <ele>30.4</ele>
        <time>2020-06-02T20:18:07Z</time>
      </trkpt>
      <trkpt lat="39.914883" lon="3.10448">
        <ele>30.7</ele>
        <time>2020-06-02T20:18:08Z</time>
      </trkpt>
      <trkpt lat="39.914917" lon="3.104517">
        <ele>31.1</ele>
        <time>2020-06-02T20:18:09Z</time>
      </trkpt>
      <trkpt lat="39.91494" lon="3.10455">
        <ele>31.4</ele>
        <time>2020-06-02T20:18:10Z</time>
      </trkpt>
      <trkpt lat="39.914959" lon="3.104584">
        <ele>31.7</ele>
        <time>2020-06-02T20:18:11Z</time>
      </trkpt>
      <trkpt lat="39.914959" lon="3.104623">
        <ele>32</ele>
        <time>2020-06-02T20:18:12Z</time>
      </trkpt>
      <trkpt lat="39.914947" lon="3.104646">
        <ele>32.2</ele>
        <time>2020-06-02T20:18:13Z</time>
      </trkpt>
      <trkpt lat="39.914928" lon="3.104675">
        <ele>32.4</ele>
        <time>2020-06-02T20:18:15Z</time>
      </trkpt>
      <trkpt lat="39.914902" lon="3.104703">
        <ele>32.7</ele>
        <time>2020-06-02T20:18:16Z</time>
      </trkpt>
      <trkpt lat="39.914867" lon="3.104727">
        <ele>33</ele>
        <time>2020-06-02T20:18:17Z</time>
      </trkpt>
      <trkpt lat="39.914833" lon="3.104739">
        <ele>33.3</ele>
        <time>2020-06-02T20:18:18Z</time>
      </trkpt>
      <trkpt lat="39.914791" lon="3.104743">
        <ele>33.6</ele>
        <time>2020-06-02T20:18:19Z</time>
      </trkpt>
      <trkpt lat="39.914757" lon="3.104735">
        <ele>33.9</ele>
        <time>2020-06-02T20:18:20Z</time>
      </trkpt>
      <trkpt lat="39.914711" lon="3.104718">
        <ele>34.2</ele>
        <time>2020-06-02T20:18:21Z</time>
      </trkpt>
      <trkpt lat="39.914661" lon="3.1047">
        <ele>34.5</ele>
        <time>2020-06-02T20:18:23Z</time>
      </trkpt>
      <trkpt lat="39.914616" lon="3.104683">
        <ele>34.8</ele>
        <time>2020-06-02T20:18:24Z</time>
      </trkpt>
      <trkpt lat="39.914566" lon="3.104667">
        <ele>35.1</ele>
        <time>2020-06-02T20:18:25Z</time>
      </trkpt>
      <trkpt lat="39.914516" lon="3.104652">
        <ele>35.4</ele>
        <time>2020-06-02T20:18:26Z</time>
      </trkpt>
      <trkpt lat="39.914467" lon="3.104638">
        <ele>35.7</ele>
        <time>2020-06-02T20:18:27Z</time>
      </trkpt>
      <trkpt lat="39.914417" lon="3.104624">
        <ele>35.9</ele>
        <time>2020-06-02T20:18:29Z</time>
      </trkpt>
      <trkpt lat="39.914371" lon="3.104613">
        <ele>36.2</ele>
        <time>2020-06-02T20:18:30Z</time>
      </trkpt>
      <trkpt lat="39.914314" lon="3.104599">
        <ele>36.4</ele>
        <time>2020-06-02T20:18:31Z</time>
      </trkpt>
      <trkpt lat="39.914268" lon="3.104587">
        <ele>36.7</ele>
        <time>2020-06-02T20:18:32Z</time>
      </trkpt>
      <trkpt lat="39.914211" lon="3.104572">
        <ele>37</ele>
        <time>2020-06-02T20:18:33Z</time>
      </trkpt>
      <trkpt lat="39.914165" lon="3.104559">
        <ele>37.3</ele>
        <time>2020-06-02T20:18:34Z</time>
      </trkpt>
      <trkpt lat="39.91412" lon="3.104546">
        <ele>37.5</ele>
        <time>2020-06-02T20:18:35Z</time>
      </trkpt>
      <trkpt lat="39.914062" lon="3.104531">
        <ele>37.8</ele>
        <time>2020-06-02T20:18:36Z</time>
      </trkpt>
      <trkpt lat="39.914009" lon="3.104517">
        <ele>38.1</ele>
        <time>2020-06-02T20:18:37Z</time>
      </trkpt>
      <trkpt lat="39.913956" lon="3.104504">
        <ele>38.4</ele>
        <time>2020-06-02T20:18:39Z</time>
      </trkpt>
      <trkpt lat="39.913914" lon="3.104493">
        <ele>38.6</ele>
        <time>2020-06-02T20:18:40Z</time>
      </trkpt>
      <trkpt lat="39.913864" lon="3.104481">
        <ele>38.9</ele>
        <time>2020-06-02T20:18:41Z</time>
      </trkpt>
      <trkpt lat="39.913818" lon="3.104468">
        <ele>39.1</ele>
        <time>2020-06-02T20:18:42Z</time>
      </trkpt>
      <trkpt lat="39.913776" lon="3.104457">
        <ele>39.3</ele>
        <time>2020-06-02T20:18:43Z</time>
      </trkpt>
      <trkpt lat="39.913727" lon="3.104443">
        <ele>39.5</ele>
        <time>2020-06-02T20:18:44Z</time>
      </trkpt>
      <trkpt lat="39.913689" lon="3.104432">
        <ele>39.7</ele>
        <time>2020-06-02T20:18:45Z</time>
      </trkpt>
      <trkpt lat="39.913647" lon="3.10442">
        <ele>39.9</ele>
        <time>2020-06-02T20:18:46Z</time>
      </trkpt>
      <trkpt lat="39.913597" lon="3.104406">
        <ele>40.1</ele>
        <time>2020-06-02T20:18:48Z</time>
      </trkpt>
      <trkpt lat="39.913551" lon="3.104391">
        <ele>40.3</ele>
        <time>2020-06-02T20:18:49Z</time>
      </trkpt>
      <trkpt lat="39.913509" lon="3.104379">
        <ele>40.4</ele>
        <time>2020-06-02T20:18:50Z</time>
      </trkpt>
      <trkpt lat="39.91346" lon="3.104364">
        <ele>40.6</ele>
        <time>2020-06-02T20:18:51Z</time>
      </trkpt>
      <trkpt lat="39.913418" lon="3.104351">
        <ele>40.8</ele>
        <time>2020-06-02T20:18:52Z</time>
      </trkpt>
      <trkpt lat="39.913364" lon="3.104336">
        <ele>41</ele>
        <time>2020-06-02T20:18:53Z</time>
      </trkpt>
      <trkpt lat="39.913315" lon="3.104322">
        <ele>41.2</ele>
        <time>2020-06-02T20:18:54Z</time>
      </trkpt>
      <trkpt lat="39.913261" lon="3.104307">
        <ele>41.3</ele>
        <time>2020-06-02T20:18:56Z</time>
      </trkpt>
      <trkpt lat="39.913204" lon="3.104292">
        <ele>41.6</ele>
        <time>2020-06-02T20:18:57Z</time>
      </trkpt>
      <trkpt lat="39.913155" lon="3.104279">
        <ele>41.7</ele>
        <time>2020-06-02T20:18:58Z</time>
      </trkpt>
      <trkpt lat="39.913094" lon="3.104263">
        <ele>41.9</ele>
        <time>2020-06-02T20:18:59Z</time>
      </trkpt>
      <trkpt lat="39.91304" lon="3.104251">
        <ele>42.1</ele>
        <time>2020-06-02T20:19:00Z</time>
      </trkpt>
      <trkpt lat="39.912991" lon="3.104239">
        <ele>42.3</ele>
        <time>2020-06-02T20:19:01Z</time>
      </trkpt>
      <trkpt lat="39.912933" lon="3.104225">
        <ele>42.5</ele>
        <time>2020-06-02T20:19:02Z</time>
      </trkpt>
      <trkpt lat="39.912888" lon="3.104212">
        <ele>42.6</ele>
        <time>2020-06-02T20:19:03Z</time>
      </trkpt>
      <trkpt lat="39.91283" lon="3.104197">
        <ele>42.8</ele>
        <time>2020-06-02T20:19:04Z</time>
      </trkpt>
      <trkpt lat="39.912777" lon="3.104182">
        <ele>43</ele>
        <time>2020-06-02T20:19:06Z</time>
      </trkpt>
      <trkpt lat="39.912727" lon="3.10417">
        <ele>43.2</ele>
        <time>2020-06-02T20:19:07Z</time>
      </trkpt>
      <trkpt lat="39.912674" lon="3.104156">
        <ele>43.4</ele>
        <time>2020-06-02T20:19:08Z</time>
      </trkpt>
      <trkpt lat="39.912624" lon="3.104146">
        <ele>43.6</ele>
        <time>2020-06-02T20:19:09Z</time>
      </trkpt>
      <trkpt lat="39.912571" lon="3.104137">
        <ele>43.8</ele>
        <time>2020-06-02T20:19:10Z</time>
      </trkpt>
      <trkpt lat="39.912514" lon="3.104131">
        <ele>44</ele>
        <time>2020-06-02T20:19:11Z</time>
      </trkpt>
      <trkpt lat="39.912456" lon="3.104126">
        <ele>44.2</ele>
        <time>2020-06-02T20:19:12Z</time>
      </trkpt>
      <trkpt lat="39.912399" lon="3.104121">
        <ele>44.4</ele>
        <time>2020-06-02T20:19:14Z</time>
      </trkpt>
      <trkpt lat="39.912342" lon="3.104116">
        <ele>44.7</ele>
        <time>2020-06-02T20:19:15Z</time>
      </trkpt>
      <trkpt lat="39.912285" lon="3.104112">
        <ele>44.9</ele>
        <time>2020-06-02T20:19:16Z</time>
      </trkpt>
      <trkpt lat="39.912231" lon="3.104112">
        <ele>45.1</ele>
        <time>2020-06-02T20:19:17Z</time>
      </trkpt>
      <trkpt lat="39.912174" lon="3.104114">
        <ele>45.3</ele>
        <time>2020-06-02T20:19:18Z</time>
      </trkpt>
      <trkpt lat="39.912128" lon="3.104117">
        <ele>45.5</ele>
        <time>2020-06-02T20:19:19Z</time>
      </trkpt>
      <trkpt lat="39.912083" lon="3.10412">
        <ele>45.7</ele>
        <time>2020-06-02T20:19:20Z</time>
      </trkpt>
      <trkpt lat="39.912033" lon="3.104123">
        <ele>45.9</ele>
        <time>2020-06-02T20:19:21Z</time>
      </trkpt>
      <trkpt lat="39.91198" lon="3.104126">
        <ele>46.1</ele>
        <time>2020-06-02T20:19:23Z</time>
      </trkpt>
      <trkpt lat="39.911922" lon="3.104132">
        <ele>46.3</ele>
        <time>2020-06-02T20:19:24Z</time>
      </trkpt>
      <trkpt lat="39.91188" lon="3.104139">
        <ele>46.5</ele>
        <time>2020-06-02T20:19:25Z</time>
      </trkpt>
      <trkpt lat="39.911831" lon="3.104151">
        <ele>46.7</ele>
        <time>2020-06-02T20:19:26Z</time>
      </trkpt>
      <trkpt lat="39.911781" lon="3.104163">
        <ele>47</ele>
        <time>2020-06-02T20:19:27Z</time>
      </trkpt>
      <trkpt lat="39.911732" lon="3.104177">
        <ele>47.2</ele>
        <time>2020-06-02T20:19:28Z</time>
      </trkpt>
      <trkpt lat="39.911682" lon="3.104198">
        <ele>47.4</ele>
        <time>2020-06-02T20:19:30Z</time>
      </trkpt>
      <trkpt lat="39.91164" lon="3.104239">
        <ele>47.5</ele>
        <time>2020-06-02T20:19:31Z</time>
      </trkpt>
      <trkpt lat="39.911621" lon="3.1043">
        <ele>47.6</ele>
        <time>2020-06-02T20:19:32Z</time>
      </trkpt>
      <trkpt lat="39.911621" lon="3.104362">
        <ele>47.7</ele>
        <time>2020-06-02T20:19:33Z</time>
      </trkpt>
      <trkpt lat="39.911629" lon="3.10441">
        <ele>48.1</ele>
        <time>2020-06-02T20:19:34Z</time>
      </trkpt>
      <trkpt lat="39.91164" lon="3.104464">
        <ele>48.4</ele>
        <time>2020-06-02T20:19:35Z</time>
      </trkpt>
      <trkpt lat="39.911667" lon="3.104506">
        <ele>48.6</ele>
        <time>2020-06-02T20:19:37Z</time>
      </trkpt>
      <trkpt lat="39.911705" lon="3.104519">
        <ele>48.9</ele>
        <time>2020-06-02T20:19:38Z</time>
      </trkpt>
      <trkpt lat="39.911751" lon="3.104514">
        <ele>49.2</ele>
        <time>2020-06-02T20:19:39Z</time>
      </trkpt>
      <trkpt lat="39.911804" lon="3.104501">
        <ele>49.5</ele>
        <time>2020-06-02T20:19:40Z</time>
      </trkpt>
      <trkpt lat="39.911858" lon="3.104489">
        <ele>50</ele>
        <time>2020-06-02T20:19:41Z</time>
      </trkpt>
      <trkpt lat="39.911915" lon="3.104482">
        <ele>50.4</ele>
        <time>2020-06-02T20:19:42Z</time>
      </trkpt>
      <trkpt lat="39.911961" lon="3.104481">
        <ele>50.8</ele>
        <time>2020-06-02T20:19:43Z</time>
      </trkpt>
      <trkpt lat="39.912003" lon="3.104482">
        <ele>51.1</ele>
        <time>2020-06-02T20:19:44Z</time>
      </trkpt>
      <trkpt lat="39.912044" lon="3.104483">
        <ele>51.4</ele>
        <time>2020-06-02T20:19:45Z</time>
      </trkpt>
      <trkpt lat="39.91209" lon="3.104485">
        <ele>51.8</ele>
        <time>2020-06-02T20:19:47Z</time>
      </trkpt>
      <trkpt lat="39.91214" lon="3.104487">
        <ele>52.2</ele>
        <time>2020-06-02T20:19:48Z</time>
      </trkpt>
      <trkpt lat="39.912186" lon="3.10449">
        <ele>52.5</ele>
        <time>2020-06-02T20:19:49Z</time>
      </trkpt>
      <trkpt lat="39.912228" lon="3.104492">
        <ele>52.9</ele>
        <time>2020-06-02T20:19:50Z</time>
      </trkpt>
      <trkpt lat="39.912277" lon="3.104496">
        <ele>53.2</ele>
        <time>2020-06-02T20:19:51Z</time>
      </trkpt>
      <trkpt lat="39.912327" lon="3.104501">
        <ele>53.6</ele>
        <time>2020-06-02T20:19:52Z</time>
      </trkpt>
      <trkpt lat="39.912376" lon="3.104507">
        <ele>54</ele>
        <time>2020-06-02T20:19:54Z</time>
      </trkpt>
      <trkpt lat="39.912415" lon="3.104516">
        <ele>54.3</ele>
        <time>2020-06-02T20:19:55Z</time>
      </trkpt>
      <trkpt lat="39.912464" lon="3.104528">
        <ele>54.7</ele>
        <time>2020-06-02T20:19:56Z</time>
      </trkpt>
      <trkpt lat="39.91251" lon="3.104541">
        <ele>55.1</ele>
        <time>2020-06-02T20:19:57Z</time>
      </trkpt>
      <trkpt lat="39.912544" lon="3.104551">
        <ele>55.4</ele>
        <time>2020-06-02T20:19:58Z</time>
      </trkpt>
      <trkpt lat="39.91259" lon="3.104563">
        <ele>55.8</ele>
        <time>2020-06-02T20:19:59Z</time>
      </trkpt>
      <trkpt lat="39.912624" lon="3.104573">
        <ele>56.1</ele>
        <time>2020-06-02T20:20:00Z</time>
      </trkpt>
      <trkpt lat="39.912659" lon="3.104586">
        <ele>56.4</ele>
        <time>2020-06-02T20:20:01Z</time>
      </trkpt>
      <trkpt lat="39.912701" lon="3.104605">
        <ele>56.7</ele>
        <time>2020-06-02T20:20:02Z</time>
      </trkpt>
      <trkpt lat="39.912735" lon="3.104626">
        <ele>57</ele>
        <time>2020-06-02T20:20:03Z</time>
      </trkpt>
      <trkpt lat="39.912765" lon="3.104651">
        <ele>57.3</ele>
        <time>2020-06-02T20:20:04Z</time>
      </trkpt>
      <trkpt lat="39.9128" lon="3.104678">
        <ele>57.6</ele>
        <time>2020-06-02T20:20:05Z</time>
      </trkpt>
      <trkpt lat="39.912834" lon="3.104706">
        <ele>57.9</ele>
        <time>2020-06-02T20:20:06Z</time>
      </trkpt>
      <trkpt lat="39.912876" lon="3.104739">
        <ele>58.3</ele>
        <time>2020-06-02T20:20:08Z</time>
      </trkpt>
      <trkpt lat="39.91291" lon="3.104766">
        <ele>58.7</ele>
        <time>2020-06-02T20:20:09Z</time>
      </trkpt>
      <trkpt lat="39.912949" lon="3.1048">
        <ele>59</ele>
        <time>2020-06-02T20:20:10Z</time>
      </trkpt>
      <trkpt lat="39.912987" lon="3.104834">
        <ele>59.4</ele>
        <time>2020-06-02T20:20:11Z</time>
      </trkpt>
      <trkpt lat="39.913021" lon="3.104861">
        <ele>59.7</ele>
        <time>2020-06-02T20:20:12Z</time>
      </trkpt>
      <trkpt lat="39.913063" lon="3.104893">
        <ele>60.1</ele>
        <time>2020-06-02T20:20:13Z</time>
      </trkpt>
      <trkpt lat="39.913097" lon="3.104917">
        <ele>60.4</ele>
        <time>2020-06-02T20:20:14Z</time>
      </trkpt>
      <trkpt lat="39.913135" lon="3.104944">
        <ele>60.7</ele>
        <time>2020-06-02T20:20:15Z</time>
      </trkpt>
      <trkpt lat="39.913177" lon="3.104971">
        <ele>61.1</ele>
        <time>2020-06-02T20:20:17Z</time>
      </trkpt>
      <trkpt lat="39.913212" lon="3.104993">
        <ele>61.3</ele>
        <time>2020-06-02T20:20:18Z</time>
      </trkpt>
      <trkpt lat="39.913254" lon="3.105015">
        <ele>61.7</ele>
        <time>2020-06-02T20:20:19Z</time>
      </trkpt>
      <trkpt lat="39.913296" lon="3.105032">
        <ele>62</ele>
        <time>2020-06-02T20:20:20Z</time>
      </trkpt>
      <trkpt lat="39.913334" lon="3.105043">
        <ele>62.3</ele>
        <time>2020-06-02T20:20:21Z</time>
      </trkpt>
      <trkpt lat="39.91338" lon="3.105054">
        <ele>62.7</ele>
        <time>2020-06-02T20:20:22Z</time>
      </trkpt>
      <trkpt lat="39.913422" lon="3.105068">
        <ele>63</ele>
        <time>2020-06-02T20:20:23Z</time>
      </trkpt>
      <trkpt lat="39.913467" lon="3.105082">
        <ele>63.3</ele>
        <time>2020-06-02T20:20:25Z</time>
      </trkpt>
      <trkpt lat="39.913513" lon="3.105096">
        <ele>63.7</ele>
        <time>2020-06-02T20:20:26Z</time>
      </trkpt>
      <trkpt lat="39.913563" lon="3.105111">
        <ele>64.1</ele>
        <time>2020-06-02T20:20:27Z</time>
      </trkpt>
      <trkpt lat="39.913609" lon="3.105128">
        <ele>64.5</ele>
        <time>2020-06-02T20:20:28Z</time>
      </trkpt>
      <trkpt lat="39.91365" lon="3.105145">
        <ele>64.8</ele>
        <time>2020-06-02T20:20:29Z</time>
      </trkpt>
      <trkpt lat="39.9137" lon="3.105167">
        <ele>65.1</ele>
        <time>2020-06-02T20:20:30Z</time>
      </trkpt>
      <trkpt lat="39.91375" lon="3.105191">
        <ele>65.5</ele>
        <time>2020-06-02T20:20:32Z</time>
      </trkpt>
      <trkpt lat="39.913792" lon="3.105211">
        <ele>65.8</ele>
        <time>2020-06-02T20:20:33Z</time>
      </trkpt>
      <trkpt lat="39.913837" lon="3.105238">
        <ele>66.1</ele>
        <time>2020-06-02T20:20:34Z</time>
      </trkpt>
      <trkpt lat="39.913883" lon="3.105269">
        <ele>66.5</ele>
        <time>2020-06-02T20:20:35Z</time>
      </trkpt>
      <trkpt lat="39.913925" lon="3.105305">
        <ele>66.8</ele>
        <time>2020-06-02T20:20:36Z</time>
      </trkpt>
      <trkpt lat="39.913959" lon="3.105337">
        <ele>67.1</ele>
        <time>2020-06-02T20:20:37Z</time>
      </trkpt>
      <trkpt lat="39.91399" lon="3.105369">
        <ele>67.3</ele>
        <time>2020-06-02T20:20:38Z</time>
      </trkpt>
      <trkpt lat="39.914032" lon="3.105408">
        <ele>67.7</ele>
        <time>2020-06-02T20:20:39Z</time>
      </trkpt>
      <trkpt lat="39.91407" lon="3.105447">
        <ele>68</ele>
        <time>2020-06-02T20:20:41Z</time>
      </trkpt>
      <trkpt lat="39.914112" lon="3.105487">
        <ele>68.4</ele>
        <time>2020-06-02T20:20:42Z</time>
      </trkpt>
      <trkpt lat="39.914146" lon="3.105521">
        <ele>68.6</ele>
        <time>2020-06-02T20:20:43Z</time>
      </trkpt>
      <trkpt lat="39.914192" lon="3.105561">
        <ele>69</ele>
        <time>2020-06-02T20:20:44Z</time>
      </trkpt>
      <trkpt lat="39.91423" lon="3.105594">
        <ele>69.3</ele>
        <time>2020-06-02T20:20:45Z</time>
      </trkpt>
      <trkpt lat="39.914265" lon="3.105624">
        <ele>69.6</ele>
        <time>2020-06-02T20:20:46Z</time>
      </trkpt>
      <trkpt lat="39.914307" lon="3.105659">
        <ele>69.9</ele>
        <time>2020-06-02T20:20:47Z</time>
      </trkpt>
      <trkpt lat="39.914341" lon="3.105686">
        <ele>70.2</ele>
        <time>2020-06-02T20:20:48Z</time>
      </trkpt>
      <trkpt lat="39.914379" lon="3.105719">
        <ele>70.5</ele>
        <time>2020-06-02T20:20:49Z</time>
      </trkpt>
      <trkpt lat="39.914417" lon="3.105751">
        <ele>70.8</ele>
        <time>2020-06-02T20:20:51Z</time>
      </trkpt>
      <trkpt lat="39.914455" lon="3.105783">
        <ele>71.1</ele>
        <time>2020-06-02T20:20:52Z</time>
      </trkpt>
      <trkpt lat="39.91449" lon="3.105811">
        <ele>71.4</ele>
        <time>2020-06-02T20:20:53Z</time>
      </trkpt>
      <trkpt lat="39.914528" lon="3.105843">
        <ele>71.7</ele>
        <time>2020-06-02T20:20:54Z</time>
      </trkpt>
      <trkpt lat="39.914566" lon="3.105876">
        <ele>72</ele>
        <time>2020-06-02T20:20:55Z</time>
      </trkpt>
      <trkpt lat="39.914604" lon="3.105909">
        <ele>72.4</ele>
        <time>2020-06-02T20:20:56Z</time>
      </trkpt>
      <trkpt lat="39.914635" lon="3.105937">
        <ele>72.7</ele>
        <time>2020-06-02T20:20:57Z</time>
      </trkpt>
      <trkpt lat="39.914673" lon="3.105972">
        <ele>73</ele>
        <time>2020-06-02T20:20:59Z</time>
      </trkpt>
      <trkpt lat="39.9147" lon="3.106002">
        <ele>73.3</ele>
        <time>2020-06-02T20:21:00Z</time>
      </trkpt>
      <trkpt lat="39.91473" lon="3.106039">
        <ele>73.6</ele>
        <time>2020-06-02T20:21:01Z</time>
      </trkpt>
      <trkpt lat="39.914757" lon="3.10607">
        <ele>73.9</ele>
        <time>2020-06-02T20:21:02Z</time>
      </trkpt>
      <trkpt lat="39.914791" lon="3.106108">
        <ele>74.3</ele>
        <time>2020-06-02T20:21:03Z</time>
      </trkpt>
      <trkpt lat="39.914825" lon="3.106147">
        <ele>74.7</ele>
        <time>2020-06-02T20:21:04Z</time>
      </trkpt>
      <trkpt lat="39.914852" lon="3.10618">
        <ele>74.9</ele>
        <time>2020-06-02T20:21:05Z</time>
      </trkpt>
      <trkpt lat="39.914879" lon="3.106215">
        <ele>75.2</ele>
        <time>2020-06-02T20:21:06Z</time>
      </trkpt>
      <trkpt lat="39.914909" lon="3.106259">
        <ele>75.6</ele>
        <time>2020-06-02T20:21:07Z</time>
      </trkpt>
      <trkpt lat="39.91494" lon="3.106304">
        <ele>75.9</ele>
        <time>2020-06-02T20:21:09Z</time>
      </trkpt>
      <trkpt lat="39.914963" lon="3.106343">
        <ele>76.2</ele>
        <time>2020-06-02T20:21:10Z</time>
      </trkpt>
      <trkpt lat="39.914993" lon="3.106389">
        <ele>76.5</ele>
        <time>2020-06-02T20:21:11Z</time>
      </trkpt>
      <trkpt lat="39.915024" lon="3.106434">
        <ele>76.9</ele>
        <time>2020-06-02T20:21:12Z</time>
      </trkpt>
      <trkpt lat="39.91505" lon="3.106476">
        <ele>77.2</ele>
        <time>2020-06-02T20:21:13Z</time>
      </trkpt>
      <trkpt lat="39.915077" lon="3.10651">
        <ele>77.5</ele>
        <time>2020-06-02T20:21:14Z</time>
      </trkpt>
      <trkpt lat="39.915104" lon="3.106549">
        <ele>77.9</ele>
        <time>2020-06-02T20:21:15Z</time>
      </trkpt>
      <trkpt lat="39.915131" lon="3.106582">
        <ele>78.2</ele>
        <time>2020-06-02T20:21:16Z</time>
      </trkpt>
      <trkpt lat="39.915165" lon="3.106621">
        <ele>78.6</ele>
        <time>2020-06-02T20:21:18Z</time>
      </trkpt>
      <trkpt lat="39.915199" lon="3.10666">
        <ele>78.9</ele>
        <time>2020-06-02T20:21:19Z</time>
      </trkpt>
      <trkpt lat="39.915234" lon="3.106699">
        <ele>79.3</ele>
        <time>2020-06-02T20:21:20Z</time>
      </trkpt>
      <trkpt lat="39.915272" lon="3.106738">
        <ele>79.6</ele>
        <time>2020-06-02T20:21:21Z</time>
      </trkpt>
      <trkpt lat="39.915298" lon="3.106771">
        <ele>79.9</ele>
        <time>2020-06-02T20:21:22Z</time>
      </trkpt>
      <trkpt lat="39.915329" lon="3.106803">
        <ele>80.2</ele>
        <time>2020-06-02T20:21:23Z</time>
      </trkpt>
      <trkpt lat="39.915363" lon="3.106842">
        <ele>80.5</ele>
        <time>2020-06-02T20:21:24Z</time>
      </trkpt>
      <trkpt lat="39.915398" lon="3.10688">
        <ele>80.9</ele>
        <time>2020-06-02T20:21:26Z</time>
      </trkpt>
      <trkpt lat="39.915428" lon="3.106912">
        <ele>81.2</ele>
        <time>2020-06-02T20:21:27Z</time>
      </trkpt>
      <trkpt lat="39.915455" lon="3.106945">
        <ele>81.5</ele>
        <time>2020-06-02T20:21:28Z</time>
      </trkpt>
      <trkpt lat="39.915493" lon="3.106985">
        <ele>81.8</ele>
        <time>2020-06-02T20:21:29Z</time>
      </trkpt>
      <trkpt lat="39.915527" lon="3.107025">
        <ele>82.2</ele>
        <time>2020-06-02T20:21:30Z</time>
      </trkpt>
      <trkpt lat="39.915558" lon="3.107063">
        <ele>82.5</ele>
        <time>2020-06-02T20:21:31Z</time>
      </trkpt>
      <trkpt lat="39.915592" lon="3.107101">
        <ele>82.9</ele>
        <time>2020-06-02T20:21:32Z</time>
      </trkpt>
      <trkpt lat="39.915623" lon="3.107132">
        <ele>83.2</ele>
        <time>2020-06-02T20:21:33Z</time>
      </trkpt>
      <trkpt lat="39.915649" lon="3.107162">
        <ele>83.4</ele>
        <time>2020-06-02T20:21:34Z</time>
      </trkpt>
      <trkpt lat="39.91568" lon="3.107193">
        <ele>83.8</ele>
        <time>2020-06-02T20:21:35Z</time>
      </trkpt>
      <trkpt lat="39.915707" lon="3.107223">
        <ele>84</ele>
        <time>2020-06-02T20:21:36Z</time>
      </trkpt>
      <trkpt lat="39.915737" lon="3.10726">
        <ele>84.4</ele>
        <time>2020-06-02T20:21:38Z</time>
      </trkpt>
      <trkpt lat="39.915768" lon="3.107296">
        <ele>84.7</ele>
        <time>2020-06-02T20:21:39Z</time>
      </trkpt>
      <trkpt lat="39.915798" lon="3.107332">
        <ele>85</ele>
        <time>2020-06-02T20:21:40Z</time>
      </trkpt>
      <trkpt lat="39.915821" lon="3.107362">
        <ele>85.2</ele>
        <time>2020-06-02T20:21:41Z</time>
      </trkpt>
      <trkpt lat="39.915852" lon="3.107397">
        <ele>85.6</ele>
        <time>2020-06-02T20:21:42Z</time>
      </trkpt>
      <trkpt lat="39.915882" lon="3.107433">
        <ele>85.9</ele>
        <time>2020-06-02T20:21:43Z</time>
      </trkpt>
      <trkpt lat="39.915913" lon="3.107469">
        <ele>86.2</ele>
        <time>2020-06-02T20:21:45Z</time>
      </trkpt>
      <trkpt lat="39.915943" lon="3.107504">
        <ele>86.5</ele>
        <time>2020-06-02T20:21:46Z</time>
      </trkpt>
      <trkpt lat="39.915974" lon="3.107539">
        <ele>86.9</ele>
        <time>2020-06-02T20:21:47Z</time>
      </trkpt>
      <trkpt lat="39.916004" lon="3.107574">
        <ele>87.2</ele>
        <time>2020-06-02T20:21:48Z</time>
      </trkpt>
      <trkpt lat="39.916035" lon="3.107609">
        <ele>87.5</ele>
        <time>2020-06-02T20:21:49Z</time>
      </trkpt>
      <trkpt lat="39.916065" lon="3.10764">
        <ele>87.8</ele>
        <time>2020-06-02T20:21:50Z</time>
      </trkpt>
      <trkpt lat="39.916096" lon="3.107678">
        <ele>88.2</ele>
        <time>2020-06-02T20:21:52Z</time>
      </trkpt>
      <trkpt lat="39.916126" lon="3.107711">
        <ele>88.5</ele>
        <time>2020-06-02T20:21:53Z</time>
      </trkpt>
      <trkpt lat="39.916157" lon="3.107749">
        <ele>88.8</ele>
        <time>2020-06-02T20:21:54Z</time>
      </trkpt>
      <trkpt lat="39.916183" lon="3.107781">
        <ele>89</ele>
        <time>2020-06-02T20:21:55Z</time>
      </trkpt>
      <trkpt lat="39.916214" lon="3.107818">
        <ele>89.2</ele>
        <time>2020-06-02T20:21:56Z</time>
      </trkpt>
      <trkpt lat="39.916244" lon="3.107854">
        <ele>89.4</ele>
        <time>2020-06-02T20:21:57Z</time>
      </trkpt>
      <trkpt lat="39.916275" lon="3.107889">
        <ele>89.6</ele>
        <time>2020-06-02T20:21:58Z</time>
      </trkpt>
      <trkpt lat="39.916305" lon="3.107926">
        <ele>89.9</ele>
        <time>2020-06-02T20:22:00Z</time>
      </trkpt>
      <trkpt lat="39.916332" lon="3.107956">
        <ele>90.1</ele>
        <time>2020-06-02T20:22:01Z</time>
      </trkpt>
      <trkpt lat="39.916363" lon="3.107984">
        <ele>90.3</ele>
        <time>2020-06-02T20:22:02Z</time>
      </trkpt>
      <trkpt lat="39.916393" lon="3.108008">
        <ele>90.5</ele>
        <time>2020-06-02T20:22:03Z</time>
      </trkpt>
      <trkpt lat="39.916435" lon="3.108032">
        <ele>90.8</ele>
        <time>2020-06-02T20:22:04Z</time>
      </trkpt>
      <trkpt lat="39.916481" lon="3.108051">
        <ele>91.1</ele>
        <time>2020-06-02T20:22:05Z</time>
      </trkpt>
      <trkpt lat="39.916527" lon="3.108067">
        <ele>91.5</ele>
        <time>2020-06-02T20:22:06Z</time>
      </trkpt>
      <trkpt lat="39.916565" lon="3.108074">
        <ele>91.7</ele>
        <time>2020-06-02T20:22:07Z</time>
      </trkpt>
      <trkpt lat="39.916615" lon="3.108065">
        <ele>92</ele>
        <time>2020-06-02T20:22:08Z</time>
      </trkpt>
      <trkpt lat="39.916656" lon="3.108039">
        <ele>92.2</ele>
        <time>2020-06-02T20:22:09Z</time>
      </trkpt>
      <trkpt lat="39.916702" lon="3.107995">
        <ele>92.5</ele>
        <time>2020-06-02T20:22:11Z</time>
      </trkpt>
      <trkpt lat="39.916752" lon="3.10795">
        <ele>92.9</ele>
        <time>2020-06-02T20:22:12Z</time>
      </trkpt>
      <trkpt lat="39.916801" lon="3.107905">
        <ele>93.2</ele>
        <time>2020-06-02T20:22:13Z</time>
      </trkpt>
      <trkpt lat="39.91684" lon="3.107862">
        <ele>93.5</ele>
        <time>2020-06-02T20:22:14Z</time>
      </trkpt>
      <trkpt lat="39.916878" lon="3.107811">
        <ele>93.8</ele>
        <time>2020-06-02T20:22:15Z</time>
      </trkpt>
      <trkpt lat="39.916908" lon="3.107757">
        <ele>94.2</ele>
        <time>2020-06-02T20:22:16Z</time>
      </trkpt>
      <trkpt lat="39.91695" lon="3.107692">
        <ele>94.6</ele>
        <time>2020-06-02T20:22:17Z</time>
      </trkpt>
      <trkpt lat="39.916988" lon="3.107633">
        <ele>95</ele>
        <time>2020-06-02T20:22:18Z</time>
      </trkpt>
      <trkpt lat="39.91703" lon="3.107578">
        <ele>95.5</ele>
        <time>2020-06-02T20:22:20Z</time>
      </trkpt>
      <trkpt lat="39.917068" lon="3.107523">
        <ele>95.9</ele>
        <time>2020-06-02T20:22:21Z</time>
      </trkpt>
      <trkpt lat="39.917099" lon="3.107478">
        <ele>96.2</ele>
        <time>2020-06-02T20:22:22Z</time>
      </trkpt>
      <trkpt lat="39.917137" lon="3.107425">
        <ele>96.6</ele>
        <time>2020-06-02T20:22:23Z</time>
      </trkpt>
      <trkpt lat="39.917168" lon="3.107382">
        <ele>97</ele>
        <time>2020-06-02T20:22:24Z</time>
      </trkpt>
      <trkpt lat="39.917198" lon="3.107333">
        <ele>97.3</ele>
        <time>2020-06-02T20:22:25Z</time>
      </trkpt>
      <trkpt lat="39.917229" lon="3.107287">
        <ele>97.6</ele>
        <time>2020-06-02T20:22:26Z</time>
      </trkpt>
      <trkpt lat="39.917255" lon="3.10725">
        <ele>97.9</ele>
        <time>2020-06-02T20:22:27Z</time>
      </trkpt>
      <trkpt lat="39.917286" lon="3.107205">
        <ele>98.2</ele>
        <time>2020-06-02T20:22:29Z</time>
      </trkpt>
      <trkpt lat="39.917316" lon="3.107155">
        <ele>98.5</ele>
        <time>2020-06-02T20:22:30Z</time>
      </trkpt>
      <trkpt lat="39.917347" lon="3.107102">
        <ele>98.9</ele>
        <time>2020-06-02T20:22:31Z</time>
      </trkpt>
      <trkpt lat="39.91737" lon="3.107056">
        <ele>99.1</ele>
        <time>2020-06-02T20:22:32Z</time>
      </trkpt>
      <trkpt lat="39.917396" lon="3.107">
        <ele>99.5</ele>
        <time>2020-06-02T20:22:33Z</time>
      </trkpt>
      <trkpt lat="39.917412" lon="3.106951">
        <ele>99.7</ele>
        <time>2020-06-02T20:22:34Z</time>
      </trkpt>
      <trkpt lat="39.917419" lon="3.106889">
        <ele>100</ele>
        <time>2020-06-02T20:22:35Z</time>
      </trkpt>
      <trkpt lat="39.917412" lon="3.106827">
        <ele>100.3</ele>
        <time>2020-06-02T20:22:37Z</time>
      </trkpt>
      <trkpt lat="39.9174" lon="3.106769">
        <ele>100.6</ele>
        <time>2020-06-02T20:22:38Z</time>
      </trkpt>
      <trkpt lat="39.917385" lon="3.106711">
        <ele>100.8</ele>
        <time>2020-06-02T20:22:39Z</time>
      </trkpt>
      <trkpt lat="39.91737" lon="3.106653">
        <ele>101.1</ele>
        <time>2020-06-02T20:22:40Z</time>
      </trkpt>
      <trkpt lat="39.917358" lon="3.106595">
        <ele>101.4</ele>
        <time>2020-06-02T20:22:41Z</time>
      </trkpt>
      <trkpt lat="39.917351" lon="3.106538">
        <ele>101.7</ele>
        <time>2020-06-02T20:22:43Z</time>
      </trkpt>
      <trkpt lat="39.917335" lon="3.106481">
        <ele>102</ele>
        <time>2020-06-02T20:22:44Z</time>
      </trkpt>
      <trkpt lat="39.917324" lon="3.106423">
        <ele>102.3</ele>
        <time>2020-06-02T20:22:45Z</time>
      </trkpt>
      <trkpt lat="39.917316" lon="3.106375">
        <ele>102.6</ele>
        <time>2020-06-02T20:22:46Z</time>
      </trkpt>
      <trkpt lat="39.917309" lon="3.106315">
        <ele>102.9</ele>
        <time>2020-06-02T20:22:47Z</time>
      </trkpt>
      <trkpt lat="39.917301" lon="3.106253">
        <ele>103.2</ele>
        <time>2020-06-02T20:22:48Z</time>
      </trkpt>
      <trkpt lat="39.917294" lon="3.106191">
        <ele>103.6</ele>
        <time>2020-06-02T20:22:50Z</time>
      </trkpt>
      <trkpt lat="39.91729" lon="3.106128">
        <ele>103.9</ele>
        <time>2020-06-02T20:22:51Z</time>
      </trkpt>
      <trkpt lat="39.917282" lon="3.106064">
        <ele>104.3</ele>
        <time>2020-06-02T20:22:52Z</time>
      </trkpt>
      <trkpt lat="39.917286" lon="3.105998">
        <ele>104.7</ele>
        <time>2020-06-02T20:22:53Z</time>
      </trkpt>
      <trkpt lat="39.917301" lon="3.105935">
        <ele>105.1</ele>
        <time>2020-06-02T20:22:54Z</time>
      </trkpt>
      <trkpt lat="39.91732" lon="3.105886">
        <ele>105.5</ele>
        <time>2020-06-02T20:22:55Z</time>
      </trkpt>
      <trkpt lat="39.917347" lon="3.105829">
        <ele>105.9</ele>
        <time>2020-06-02T20:22:57Z</time>
      </trkpt>
      <trkpt lat="39.917377" lon="3.105788">
        <ele>106.2</ele>
        <time>2020-06-02T20:22:58Z</time>
      </trkpt>
      <trkpt lat="39.917412" lon="3.105767">
        <ele>106.5</ele>
        <time>2020-06-02T20:22:59Z</time>
      </trkpt>
      <trkpt lat="39.917458" lon="3.105766">
        <ele>106.9</ele>
        <time>2020-06-02T20:23:00Z</time>
      </trkpt>
      <trkpt lat="39.917496" lon="3.105771">
        <ele>107.2</ele>
        <time>2020-06-02T20:23:01Z</time>
      </trkpt>
      <trkpt lat="39.917541" lon="3.105778">
        <ele>107.6</ele>
        <time>2020-06-02T20:23:02Z</time>
      </trkpt>
      <trkpt lat="39.917591" lon="3.105782">
        <ele>108</ele>
        <time>2020-06-02T20:23:03Z</time>
      </trkpt>
      <trkpt lat="39.917637" lon="3.105787">
        <ele>108.3</ele>
        <time>2020-06-02T20:23:04Z</time>
      </trkpt>
      <trkpt lat="39.917675" lon="3.105797">
        <ele>108.6</ele>
        <time>2020-06-02T20:23:05Z</time>
      </trkpt>
      <trkpt lat="39.917717" lon="3.105818">
        <ele>109</ele>
        <time>2020-06-02T20:23:07Z</time>
      </trkpt>
      <trkpt lat="39.917759" lon="3.105845">
        <ele>109.4</ele>
        <time>2020-06-02T20:23:08Z</time>
      </trkpt>
      <trkpt lat="39.917797" lon="3.105873">
        <ele>109.7</ele>
        <time>2020-06-02T20:23:09Z</time>
      </trkpt>
      <trkpt lat="39.917831" lon="3.105895">
        <ele>110</ele>
        <time>2020-06-02T20:23:10Z</time>
      </trkpt>
      <trkpt lat="39.917877" lon="3.10592">
        <ele>110.4</ele>
        <time>2020-06-02T20:23:11Z</time>
      </trkpt>
      <trkpt lat="39.917923" lon="3.105943">
        <ele>110.7</ele>
        <time>2020-06-02T20:23:12Z</time>
      </trkpt>
      <trkpt lat="39.917965" lon="3.105969">
        <ele>111.1</ele>
        <time>2020-06-02T20:23:14Z</time>
      </trkpt>
      <trkpt lat="39.918007" lon="3.105998">
        <ele>111.5</ele>
        <time>2020-06-02T20:23:15Z</time>
      </trkpt>
      <trkpt lat="39.918041" lon="3.106024">
        <ele>111.8</ele>
        <time>2020-06-02T20:23:16Z</time>
      </trkpt>
      <trkpt lat="39.918083" lon="3.106056">
        <ele>112.1</ele>
        <time>2020-06-02T20:23:17Z</time>
      </trkpt>
      <trkpt lat="39.918121" lon="3.106088">
        <ele>112.5</ele>
        <time>2020-06-02T20:23:18Z</time>
      </trkpt>
      <trkpt lat="39.918159" lon="3.106118">
        <ele>112.8</ele>
        <time>2020-06-02T20:23:19Z</time>
      </trkpt>
      <trkpt lat="39.918201" lon="3.106148">
        <ele>113.2</ele>
        <time>2020-06-02T20:23:21Z</time>
      </trkpt>
      <trkpt lat="39.91824" lon="3.106177">
        <ele>113.6</ele>
        <time>2020-06-02T20:23:22Z</time>
      </trkpt>
      <trkpt lat="39.918278" lon="3.106207">
        <ele>114</ele>
        <time>2020-06-02T20:23:23Z</time>
      </trkpt>
      <trkpt lat="39.918312" lon="3.106232">
        <ele>114.3</ele>
        <time>2020-06-02T20:23:24Z</time>
      </trkpt>
      <trkpt lat="39.918354" lon="3.106262">
        <ele>114.7</ele>
        <time>2020-06-02T20:23:25Z</time>
      </trkpt>
      <trkpt lat="39.918385" lon="3.106287">
        <ele>115</ele>
        <time>2020-06-02T20:23:26Z</time>
      </trkpt>
      <trkpt lat="39.918426" lon="3.106317">
        <ele>115.3</ele>
        <time>2020-06-02T20:23:27Z</time>
      </trkpt>
      <trkpt lat="39.918461" lon="3.106342">
        <ele>115.7</ele>
        <time>2020-06-02T20:23:28Z</time>
      </trkpt>
      <trkpt lat="39.918503" lon="3.106373">
        <ele>116</ele>
        <time>2020-06-02T20:23:30Z</time>
      </trkpt>
      <trkpt lat="39.918545" lon="3.106402">
        <ele>116.4</ele>
        <time>2020-06-02T20:23:31Z</time>
      </trkpt>
      <trkpt lat="39.918579" lon="3.106425">
        <ele>116.7</ele>
        <time>2020-06-02T20:23:32Z</time>
      </trkpt>
      <trkpt lat="39.918625" lon="3.10645">
        <ele>117.1</ele>
        <time>2020-06-02T20:23:33Z</time>
      </trkpt>
      <trkpt lat="39.918659" lon="3.10647">
        <ele>117.4</ele>
        <time>2020-06-02T20:23:34Z</time>
      </trkpt>
      <trkpt lat="39.918701" lon="3.106493">
        <ele>117.8</ele>
        <time>2020-06-02T20:23:35Z</time>
      </trkpt>
      <trkpt lat="39.918735" lon="3.106513">
        <ele>118.1</ele>
        <time>2020-06-02T20:23:36Z</time>
      </trkpt>
      <trkpt lat="39.918777" lon="3.106536">
        <ele>118.5</ele>
        <time>2020-06-02T20:23:37Z</time>
      </trkpt>
      <trkpt lat="39.918819" lon="3.106558">
        <ele>118.8</ele>
        <time>2020-06-02T20:23:39Z</time>
      </trkpt>
      <trkpt lat="39.918854" lon="3.106577">
        <ele>119.1</ele>
        <time>2020-06-02T20:23:40Z</time>
      </trkpt>
      <trkpt lat="39.918892" lon="3.106597">
        <ele>119.4</ele>
        <time>2020-06-02T20:23:41Z</time>
      </trkpt>
      <trkpt lat="39.918934" lon="3.106623">
        <ele>119.8</ele>
        <time>2020-06-02T20:23:42Z</time>
      </trkpt>
      <trkpt lat="39.91898" lon="3.10665">
        <ele>120.2</ele>
        <time>2020-06-02T20:23:43Z</time>
      </trkpt>
      <trkpt lat="39.919022" lon="3.106678">
        <ele>120.6</ele>
        <time>2020-06-02T20:23:44Z</time>
      </trkpt>
      <trkpt lat="39.91906" lon="3.1067">
        <ele>121</ele>
        <time>2020-06-02T20:23:45Z</time>
      </trkpt>
      <trkpt lat="39.919102" lon="3.106727">
        <ele>121.4</ele>
        <time>2020-06-02T20:23:46Z</time>
      </trkpt>
      <trkpt lat="39.919144" lon="3.106752">
        <ele>121.8</ele>
        <time>2020-06-02T20:23:48Z</time>
      </trkpt>
      <trkpt lat="39.919186" lon="3.106776">
        <ele>122.1</ele>
        <time>2020-06-02T20:23:49Z</time>
      </trkpt>
      <trkpt lat="39.919228" lon="3.1068">
        <ele>122.5</ele>
        <time>2020-06-02T20:23:50Z</time>
      </trkpt>
      <trkpt lat="39.919269" lon="3.106824">
        <ele>122.9</ele>
        <time>2020-06-02T20:23:51Z</time>
      </trkpt>
      <trkpt lat="39.919304" lon="3.106844">
        <ele>123.2</ele>
        <time>2020-06-02T20:23:52Z</time>
      </trkpt>
      <trkpt lat="39.919346" lon="3.106868">
        <ele>123.6</ele>
        <time>2020-06-02T20:23:53Z</time>
      </trkpt>
      <trkpt lat="39.919388" lon="3.106894">
        <ele>124.1</ele>
        <time>2020-06-02T20:23:55Z</time>
      </trkpt>
      <trkpt lat="39.919426" lon="3.10692">
        <ele>124.5</ele>
        <time>2020-06-02T20:23:56Z</time>
      </trkpt>
      <trkpt lat="39.91946" lon="3.106941">
        <ele>124.8</ele>
        <time>2020-06-02T20:23:57Z</time>
      </trkpt>
      <trkpt lat="39.919498" lon="3.106965">
        <ele>125.2</ele>
        <time>2020-06-02T20:23:58Z</time>
      </trkpt>
      <trkpt lat="39.919533" lon="3.106987">
        <ele>125.6</ele>
        <time>2020-06-02T20:23:59Z</time>
      </trkpt>
      <trkpt lat="39.919559" lon="3.107005">
        <ele>125.9</ele>
        <time>2020-06-02T20:24:00Z</time>
      </trkpt>
      <trkpt lat="39.91959" lon="3.107022">
        <ele>126.2</ele>
        <time>2020-06-02T20:24:01Z</time>
      </trkpt>
      <trkpt lat="39.91962" lon="3.107039">
        <ele>126.5</ele>
        <time>2020-06-02T20:24:02Z</time>
      </trkpt>
      <trkpt lat="39.919655" lon="3.10706">
        <ele>126.9</ele>
        <time>2020-06-02T20:24:03Z</time>
      </trkpt>
      <trkpt lat="39.919693" lon="3.107079">
        <ele>127.2</ele>
        <time>2020-06-02T20:24:05Z</time>
      </trkpt>
      <trkpt lat="39.919735" lon="3.107097">
        <ele>127.6</ele>
        <time>2020-06-02T20:24:06Z</time>
      </trkpt>
      <trkpt lat="39.919773" lon="3.107107">
        <ele>127.9</ele>
        <time>2020-06-02T20:24:07Z</time>
      </trkpt>
      <trkpt lat="39.919819" lon="3.107115">
        <ele>128.3</ele>
        <time>2020-06-02T20:24:08Z</time>
      </trkpt>
      <trkpt lat="39.919861" lon="3.107121">
        <ele>128.7</ele>
        <time>2020-06-02T20:24:09Z</time>
      </trkpt>
      <trkpt lat="39.919903" lon="3.107127">
        <ele>129.1</ele>
        <time>2020-06-02T20:24:10Z</time>
      </trkpt>
      <trkpt lat="39.919933" lon="3.107131">
        <ele>129.3</ele>
        <time>2020-06-02T20:24:11Z</time>
      </trkpt>
      <trkpt lat="39.919971" lon="3.107136">
        <ele>129.7</ele>
        <time>2020-06-02T20:24:13Z</time>
      </trkpt>
      <trkpt lat="39.920002" lon="3.10714">
        <ele>129.9</ele>
        <time>2020-06-02T20:24:14Z</time>
      </trkpt>
      <trkpt lat="39.92004" lon="3.107143">
        <ele>130.3</ele>
        <time>2020-06-02T20:24:15Z</time>
      </trkpt>
      <trkpt lat="39.920078" lon="3.107145">
        <ele>130.6</ele>
        <time>2020-06-02T20:24:16Z</time>
      </trkpt>
      <trkpt lat="39.920113" lon="3.107145">
        <ele>130.9</ele>
        <time>2020-06-02T20:24:17Z</time>
      </trkpt>
      <trkpt lat="39.920147" lon="3.107144">
        <ele>131.2</ele>
        <time>2020-06-02T20:24:18Z</time>
      </trkpt>
      <trkpt lat="39.920185" lon="3.107143">
        <ele>131.6</ele>
        <time>2020-06-02T20:24:19Z</time>
      </trkpt>
      <trkpt lat="39.920219" lon="3.107143">
        <ele>131.9</ele>
        <time>2020-06-02T20:24:20Z</time>
      </trkpt>
      <trkpt lat="39.920258" lon="3.107143">
        <ele>132.2</ele>
        <time>2020-06-02T20:24:21Z</time>
      </trkpt>
      <trkpt lat="39.920296" lon="3.107143">
        <ele>132.6</ele>
        <time>2020-06-02T20:24:23Z</time>
      </trkpt>
      <trkpt lat="39.920338" lon="3.107143">
        <ele>132.9</ele>
        <time>2020-06-02T20:24:24Z</time>
      </trkpt>
      <trkpt lat="39.920376" lon="3.107143">
        <ele>133.3</ele>
        <time>2020-06-02T20:24:25Z</time>
      </trkpt>
      <trkpt lat="39.920414" lon="3.107144">
        <ele>133.6</ele>
        <time>2020-06-02T20:24:26Z</time>
      </trkpt>
      <trkpt lat="39.920444" lon="3.107144">
        <ele>133.9</ele>
        <time>2020-06-02T20:24:27Z</time>
      </trkpt>
      <trkpt lat="39.920479" lon="3.107144">
        <ele>134.2</ele>
        <time>2020-06-02T20:24:28Z</time>
      </trkpt>
      <trkpt lat="39.920509" lon="3.107144">
        <ele>134.5</ele>
        <time>2020-06-02T20:24:29Z</time>
      </trkpt>
      <trkpt lat="39.920551" lon="3.107144">
        <ele>134.9</ele>
        <time>2020-06-02T20:24:30Z</time>
      </trkpt>
      <trkpt lat="39.920589" lon="3.107144">
        <ele>135.2</ele>
        <time>2020-06-02T20:24:32Z</time>
      </trkpt>
      <trkpt lat="39.920624" lon="3.107145">
        <ele>135.5</ele>
        <time>2020-06-02T20:24:33Z</time>
      </trkpt>
      <trkpt lat="39.920662" lon="3.107145">
        <ele>135.8</ele>
        <time>2020-06-02T20:24:34Z</time>
      </trkpt>
      <trkpt lat="39.9207" lon="3.107146">
        <ele>136.1</ele>
        <time>2020-06-02T20:24:35Z</time>
      </trkpt>
      <trkpt lat="39.920738" lon="3.107148">
        <ele>136.5</ele>
        <time>2020-06-02T20:24:36Z</time>
      </trkpt>
      <trkpt lat="39.920773" lon="3.107151">
        <ele>136.7</ele>
        <time>2020-06-02T20:24:37Z</time>
      </trkpt>
      <trkpt lat="39.920811" lon="3.107154">
        <ele>137</ele>
        <time>2020-06-02T20:24:38Z</time>
      </trkpt>
      <trkpt lat="39.920853" lon="3.107156">
        <ele>137.3</ele>
        <time>2020-06-02T20:24:40Z</time>
      </trkpt>
      <trkpt lat="39.920891" lon="3.107159">
        <ele>137.5</ele>
        <time>2020-06-02T20:24:41Z</time>
      </trkpt>
      <trkpt lat="39.920929" lon="3.107162">
        <ele>137.7</ele>
        <time>2020-06-02T20:24:42Z</time>
      </trkpt>
      <trkpt lat="39.920971" lon="3.107165">
        <ele>137.8</ele>
        <time>2020-06-02T20:24:43Z</time>
      </trkpt>
      <trkpt lat="39.921009" lon="3.107168">
        <ele>138.1</ele>
        <time>2020-06-02T20:24:44Z</time>
      </trkpt>
      <trkpt lat="39.921051" lon="3.107172">
        <ele>138.3</ele>
        <time>2020-06-02T20:24:46Z</time>
      </trkpt>
      <trkpt lat="39.921085" lon="3.107176">
        <ele>138.5</ele>
        <time>2020-06-02T20:24:47Z</time>
      </trkpt>
      <trkpt lat="39.92112" lon="3.107181">
        <ele>138.7</ele>
        <time>2020-06-02T20:24:48Z</time>
      </trkpt>
      <trkpt lat="39.921154" lon="3.107186">
        <ele>139</ele>
        <time>2020-06-02T20:24:49Z</time>
      </trkpt>
      <trkpt lat="39.921196" lon="3.107192">
        <ele>139.3</ele>
        <time>2020-06-02T20:24:50Z</time>
      </trkpt>
      <trkpt lat="39.92123" lon="3.107197">
        <ele>139.5</ele>
        <time>2020-06-02T20:24:51Z</time>
      </trkpt>
      <trkpt lat="39.921272" lon="3.107205">
        <ele>139.8</ele>
        <time>2020-06-02T20:24:52Z</time>
      </trkpt>
      <trkpt lat="39.92131" lon="3.107214">
        <ele>140.1</ele>
        <time>2020-06-02T20:24:53Z</time>
      </trkpt>
      <trkpt lat="39.921352" lon="3.107227">
        <ele>140.5</ele>
        <time>2020-06-02T20:24:54Z</time>
      </trkpt>
      <trkpt lat="39.921383" lon="3.107241">
        <ele>140.7</ele>
        <time>2020-06-02T20:24:55Z</time>
      </trkpt>
      <trkpt lat="39.921421" lon="3.107258">
        <ele>141</ele>
        <time>2020-06-02T20:24:57Z</time>
      </trkpt>
      <trkpt lat="39.921452" lon="3.107272">
        <ele>141.3</ele>
        <time>2020-06-02T20:24:58Z</time>
      </trkpt>
      <trkpt lat="39.921486" lon="3.10729">
        <ele>141.6</ele>
        <time>2020-06-02T20:24:59Z</time>
      </trkpt>
      <trkpt lat="39.921528" lon="3.107306">
        <ele>142</ele>
        <time>2020-06-02T20:25:00Z</time>
      </trkpt>
      <trkpt lat="39.921558" lon="3.10732">
        <ele>142.2</ele>
        <time>2020-06-02T20:25:01Z</time>
      </trkpt>
      <trkpt lat="39.921593" lon="3.107334">
        <ele>142.5</ele>
        <time>2020-06-02T20:25:02Z</time>
      </trkpt>
      <trkpt lat="39.921635" lon="3.10735">
        <ele>142.9</ele>
        <time>2020-06-02T20:25:03Z</time>
      </trkpt>
      <trkpt lat="39.921673" lon="3.107364">
        <ele>143.2</ele>
        <time>2020-06-02T20:25:04Z</time>
      </trkpt>
      <trkpt lat="39.921711" lon="3.107376">
        <ele>143.5</ele>
        <time>2020-06-02T20:25:05Z</time>
      </trkpt>
      <trkpt lat="39.921753" lon="3.107389">
        <ele>143.8</ele>
        <time>2020-06-02T20:25:07Z</time>
      </trkpt>
      <trkpt lat="39.921791" lon="3.1074">
        <ele>144.1</ele>
        <time>2020-06-02T20:25:08Z</time>
      </trkpt>
      <trkpt lat="39.921833" lon="3.107413">
        <ele>144.4</ele>
        <time>2020-06-02T20:25:09Z</time>
      </trkpt>
      <trkpt lat="39.921867" lon="3.107424">
        <ele>144.6</ele>
        <time>2020-06-02T20:25:10Z</time>
      </trkpt>
      <trkpt lat="39.921913" lon="3.107437">
        <ele>145</ele>
        <time>2020-06-02T20:25:11Z</time>
      </trkpt>
      <trkpt lat="39.921955" lon="3.107448">
        <ele>145.3</ele>
        <time>2020-06-02T20:25:12Z</time>
      </trkpt>
      <trkpt lat="39.921989" lon="3.107456">
        <ele>145.5</ele>
        <time>2020-06-02T20:25:13Z</time>
      </trkpt>
      <trkpt lat="39.922035" lon="3.107464">
        <ele>145.9</ele>
        <time>2020-06-02T20:25:14Z</time>
      </trkpt>
      <trkpt lat="39.922073" lon="3.107469">
        <ele>146.2</ele>
        <time>2020-06-02T20:25:15Z</time>
      </trkpt>
      <trkpt lat="39.922119" lon="3.107476">
        <ele>146.5</ele>
        <time>2020-06-02T20:25:17Z</time>
      </trkpt>
      <trkpt lat="39.922165" lon="3.107482">
        <ele>146.8</ele>
        <time>2020-06-02T20:25:18Z</time>
      </trkpt>
      <trkpt lat="39.922203" lon="3.107487">
        <ele>147.1</ele>
        <time>2020-06-02T20:25:19Z</time>
      </trkpt>
      <trkpt lat="39.922241" lon="3.107494">
        <ele>147.4</ele>
        <time>2020-06-02T20:25:20Z</time>
      </trkpt>
      <trkpt lat="39.922287" lon="3.107504">
        <ele>147.8</ele>
        <time>2020-06-02T20:25:21Z</time>
      </trkpt>
      <trkpt lat="39.922329" lon="3.107517">
        <ele>148.2</ele>
        <time>2020-06-02T20:25:22Z</time>
      </trkpt>
      <trkpt lat="39.922371" lon="3.10753">
        <ele>148.5</ele>
        <time>2020-06-02T20:25:23Z</time>
      </trkpt>
      <trkpt lat="39.922409" lon="3.107543">
        <ele>148.9</ele>
        <time>2020-06-02T20:25:25Z</time>
      </trkpt>
      <trkpt lat="39.922443" lon="3.107553">
        <ele>149.1</ele>
        <time>2020-06-02T20:25:26Z</time>
      </trkpt>
      <trkpt lat="39.922482" lon="3.107566">
        <ele>149.5</ele>
        <time>2020-06-02T20:25:27Z</time>
      </trkpt>
      <trkpt lat="39.922523" lon="3.107581">
        <ele>149.8</ele>
        <time>2020-06-02T20:25:28Z</time>
      </trkpt>
      <trkpt lat="39.922565" lon="3.107598">
        <ele>150.2</ele>
        <time>2020-06-02T20:25:29Z</time>
      </trkpt>
      <trkpt lat="39.922596" lon="3.107617">
        <ele>150.5</ele>
        <time>2020-06-02T20:25:30Z</time>
      </trkpt>
      <trkpt lat="39.922634" lon="3.107642">
        <ele>150.8</ele>
        <time>2020-06-02T20:25:31Z</time>
      </trkpt>
      <trkpt lat="39.922672" lon="3.107667">
        <ele>151.1</ele>
        <time>2020-06-02T20:25:33Z</time>
      </trkpt>
      <trkpt lat="39.92271" lon="3.107691">
        <ele>151.4</ele>
        <time>2020-06-02T20:25:34Z</time>
      </trkpt>
      <trkpt lat="39.922741" lon="3.107709">
        <ele>151.7</ele>
        <time>2020-06-02T20:25:35Z</time>
      </trkpt>
      <trkpt lat="39.922779" lon="3.10773">
        <ele>152.1</ele>
        <time>2020-06-02T20:25:36Z</time>
      </trkpt>
      <trkpt lat="39.92281" lon="3.107747">
        <ele>152.4</ele>
        <time>2020-06-02T20:25:37Z</time>
      </trkpt>
      <trkpt lat="39.922844" lon="3.107766">
        <ele>152.7</ele>
        <time>2020-06-02T20:25:38Z</time>
      </trkpt>
      <trkpt lat="39.922882" lon="3.107786">
        <ele>153.1</ele>
        <time>2020-06-02T20:25:39Z</time>
      </trkpt>
      <trkpt lat="39.922909" lon="3.107801">
        <ele>153.4</ele>
        <time>2020-06-02T20:25:40Z</time>
      </trkpt>
      <trkpt lat="39.922947" lon="3.107817">
        <ele>153.7</ele>
        <time>2020-06-02T20:25:42Z</time>
      </trkpt>
      <trkpt lat="39.922981" lon="3.107833">
        <ele>154</ele>
        <time>2020-06-02T20:25:43Z</time>
      </trkpt>
      <trkpt lat="39.923016" lon="3.107845">
        <ele>154.2</ele>
        <time>2020-06-02T20:25:44Z</time>
      </trkpt>
      <trkpt lat="39.923054" lon="3.107859">
        <ele>154.5</ele>
        <time>2020-06-02T20:25:45Z</time>
      </trkpt>
      <trkpt lat="39.923096" lon="3.107872">
        <ele>154.9</ele>
        <time>2020-06-02T20:25:46Z</time>
      </trkpt>
      <trkpt lat="39.92313" lon="3.107884">
        <ele>155.1</ele>
        <time>2020-06-02T20:25:47Z</time>
      </trkpt>
      <trkpt lat="39.923176" lon="3.107897">
        <ele>155.5</ele>
        <time>2020-06-02T20:25:48Z</time>
      </trkpt>
      <trkpt lat="39.923222" lon="3.107907">
        <ele>155.8</ele>
        <time>2020-06-02T20:25:50Z</time>
      </trkpt>
      <trkpt lat="39.923263" lon="3.107915">
        <ele>156.1</ele>
        <time>2020-06-02T20:25:51Z</time>
      </trkpt>
      <trkpt lat="39.923313" lon="3.107924">
        <ele>156.4</ele>
        <time>2020-06-02T20:25:52Z</time>
      </trkpt>
      <trkpt lat="39.923363" lon="3.107932">
        <ele>156.7</ele>
        <time>2020-06-02T20:25:53Z</time>
      </trkpt>
      <trkpt lat="39.923416" lon="3.107941">
        <ele>157.1</ele>
        <time>2020-06-02T20:25:54Z</time>
      </trkpt>
      <trkpt lat="39.923454" lon="3.107947">
        <ele>157.3</ele>
        <time>2020-06-02T20:25:55Z</time>
      </trkpt>
      <trkpt lat="39.923504" lon="3.107952">
        <ele>157.7</ele>
        <time>2020-06-02T20:25:56Z</time>
      </trkpt>
      <trkpt lat="39.92355" lon="3.107954">
        <ele>158</ele>
        <time>2020-06-02T20:25:58Z</time>
      </trkpt>
      <trkpt lat="39.923592" lon="3.107952">
        <ele>158.2</ele>
        <time>2020-06-02T20:25:59Z</time>
      </trkpt>
      <trkpt lat="39.92363" lon="3.107949">
        <ele>158.5</ele>
        <time>2020-06-02T20:26:00Z</time>
      </trkpt>
      <trkpt lat="39.923676" lon="3.107945">
        <ele>158.8</ele>
        <time>2020-06-02T20:26:01Z</time>
      </trkpt>
      <trkpt lat="39.923725" lon="3.107941">
        <ele>159.1</ele>
        <time>2020-06-02T20:26:02Z</time>
      </trkpt>
      <trkpt lat="39.923763" lon="3.107936">
        <ele>159.4</ele>
        <time>2020-06-02T20:26:03Z</time>
      </trkpt>
      <trkpt lat="39.923801" lon="3.107928">
        <ele>159.6</ele>
        <time>2020-06-02T20:26:04Z</time>
      </trkpt>
      <trkpt lat="39.923851" lon="3.107913">
        <ele>160</ele>
        <time>2020-06-02T20:26:05Z</time>
      </trkpt>
      <trkpt lat="39.923901" lon="3.107888">
        <ele>160.3</ele>
        <time>2020-06-02T20:26:06Z</time>
      </trkpt>
      <trkpt lat="39.923942" lon="3.107864">
        <ele>160.7</ele>
        <time>2020-06-02T20:26:07Z</time>
      </trkpt>
      <trkpt lat="39.923992" lon="3.107836">
        <ele>161</ele>
        <time>2020-06-02T20:26:09Z</time>
      </trkpt>
      <trkpt lat="39.924038" lon="3.107809">
        <ele>161.4</ele>
        <time>2020-06-02T20:26:10Z</time>
      </trkpt>
      <trkpt lat="39.924087" lon="3.107784">
        <ele>161.8</ele>
        <time>2020-06-02T20:26:11Z</time>
      </trkpt>
      <trkpt lat="39.924129" lon="3.10776">
        <ele>162.2</ele>
        <time>2020-06-02T20:26:12Z</time>
      </trkpt>
      <trkpt lat="39.924171" lon="3.107738">
        <ele>162.6</ele>
        <time>2020-06-02T20:26:13Z</time>
      </trkpt>
      <trkpt lat="39.92421" lon="3.10772">
        <ele>163</ele>
        <time>2020-06-02T20:26:15Z</time>
      </trkpt>
      <trkpt lat="39.924236" lon="3.107709">
        <ele>163.3</ele>
        <time>2020-06-02T20:26:16Z</time>
      </trkpt>
      <trkpt lat="39.924271" lon="3.107697">
        <ele>163.6</ele>
        <time>2020-06-02T20:26:17Z</time>
      </trkpt>
      <trkpt lat="39.924297" lon="3.107688">
        <ele>163.9</ele>
        <time>2020-06-02T20:26:18Z</time>
      </trkpt>
      <trkpt lat="39.924324" lon="3.107679">
        <ele>164.2</ele>
        <time>2020-06-02T20:26:19Z</time>
      </trkpt>
      <trkpt lat="39.924351" lon="3.107669">
        <ele>164.4</ele>
        <time>2020-06-02T20:26:20Z</time>
      </trkpt>
      <trkpt lat="39.924381" lon="3.107662">
        <ele>164.7</ele>
        <time>2020-06-02T20:26:21Z</time>
      </trkpt>
      <trkpt lat="39.924416" lon="3.107656">
        <ele>165.1</ele>
        <time>2020-06-02T20:26:22Z</time>
      </trkpt>
      <trkpt lat="39.92445" lon="3.107655">
        <ele>165.4</ele>
        <time>2020-06-02T20:26:23Z</time>
      </trkpt>
      <trkpt lat="39.924488" lon="3.107663">
        <ele>165.7</ele>
        <time>2020-06-02T20:26:24Z</time>
      </trkpt>
      <trkpt lat="39.924522" lon="3.107678">
        <ele>166</ele>
        <time>2020-06-02T20:26:25Z</time>
      </trkpt>
      <trkpt lat="39.924557" lon="3.107697">
        <ele>166.3</ele>
        <time>2020-06-02T20:26:27Z</time>
      </trkpt>
      <trkpt lat="39.924595" lon="3.10772">
        <ele>166.7</ele>
        <time>2020-06-02T20:26:28Z</time>
      </trkpt>
      <trkpt lat="39.924625" lon="3.107741">
        <ele>167</ele>
        <time>2020-06-02T20:26:29Z</time>
      </trkpt>
      <trkpt lat="39.92466" lon="3.10777">
        <ele>167.4</ele>
        <time>2020-06-02T20:26:30Z</time>
      </trkpt>
      <trkpt lat="39.924686" lon="3.107809">
        <ele>167.7</ele>
        <time>2020-06-02T20:26:31Z</time>
      </trkpt>
      <trkpt lat="39.924698" lon="3.107844">
        <ele>167.9</ele>
        <time>2020-06-02T20:26:32Z</time>
      </trkpt>
      <trkpt lat="39.924713" lon="3.107891">
        <ele>168.3</ele>
        <time>2020-06-02T20:26:33Z</time>
      </trkpt>
      <trkpt lat="39.924728" lon="3.10794">
        <ele>168.6</ele>
        <time>2020-06-02T20:26:35Z</time>
      </trkpt>
      <trkpt lat="39.924744" lon="3.107991">
        <ele>168.9</ele>
        <time>2020-06-02T20:26:36Z</time>
      </trkpt>
      <trkpt lat="39.924763" lon="3.10804">
        <ele>169.2</ele>
        <time>2020-06-02T20:26:37Z</time>
      </trkpt>
      <trkpt lat="39.924782" lon="3.108088">
        <ele>169.5</ele>
        <time>2020-06-02T20:26:38Z</time>
      </trkpt>
      <trkpt lat="39.924801" lon="3.108133">
        <ele>169.8</ele>
        <time>2020-06-02T20:26:39Z</time>
      </trkpt>
      <trkpt lat="39.92482" lon="3.108177">
        <ele>170.1</ele>
        <time>2020-06-02T20:26:41Z</time>
      </trkpt>
      <trkpt lat="39.924831" lon="3.108212">
        <ele>170.3</ele>
        <time>2020-06-02T20:26:42Z</time>
      </trkpt>
      <trkpt lat="39.92485" lon="3.108254">
        <ele>170.6</ele>
        <time>2020-06-02T20:26:43Z</time>
      </trkpt>
      <trkpt lat="39.92487" lon="3.108294">
        <ele>170.9</ele>
        <time>2020-06-02T20:26:44Z</time>
      </trkpt>
      <trkpt lat="39.924892" lon="3.108334">
        <ele>171.1</ele>
        <time>2020-06-02T20:26:45Z</time>
      </trkpt>
      <trkpt lat="39.924911" lon="3.108374">
        <ele>171.4</ele>
        <time>2020-06-02T20:26:46Z</time>
      </trkpt>
      <trkpt lat="39.924934" lon="3.108414">
        <ele>171.7</ele>
        <time>2020-06-02T20:26:48Z</time>
      </trkpt>
      <trkpt lat="39.924953" lon="3.108453">
        <ele>171.9</ele>
        <time>2020-06-02T20:26:49Z</time>
      </trkpt>
      <trkpt lat="39.924976" lon="3.108492">
        <ele>172.2</ele>
        <time>2020-06-02T20:26:50Z</time>
      </trkpt>
      <trkpt lat="39.925003" lon="3.108529">
        <ele>172.5</ele>
        <time>2020-06-02T20:26:51Z</time>
      </trkpt>
      <trkpt lat="39.925034" lon="3.108563">
        <ele>172.8</ele>
        <time>2020-06-02T20:26:52Z</time>
      </trkpt>
      <trkpt lat="39.925064" lon="3.108588">
        <ele>173</ele>
        <time>2020-06-02T20:26:53Z</time>
      </trkpt>
      <trkpt lat="39.925106" lon="3.108611">
        <ele>173.4</ele>
        <time>2020-06-02T20:26:55Z</time>
      </trkpt>
      <trkpt lat="39.925156" lon="3.108629">
        <ele>173.8</ele>
        <time>2020-06-02T20:26:56Z</time>
      </trkpt>
      <trkpt lat="39.925198" lon="3.108642">
        <ele>174.1</ele>
        <time>2020-06-02T20:26:57Z</time>
      </trkpt>
      <trkpt lat="39.925236" lon="3.108654">
        <ele>174.4</ele>
        <time>2020-06-02T20:26:58Z</time>
      </trkpt>
      <trkpt lat="39.925285" lon="3.108665">
        <ele>174.8</ele>
        <time>2020-06-02T20:26:59Z</time>
      </trkpt>
      <trkpt lat="39.925331" lon="3.108673">
        <ele>175.1</ele>
        <time>2020-06-02T20:27:00Z</time>
      </trkpt>
      <trkpt lat="39.925369" lon="3.108677">
        <ele>175.4</ele>
        <time>2020-06-02T20:27:01Z</time>
      </trkpt>
      <trkpt lat="39.925411" lon="3.108684">
        <ele>175.8</ele>
        <time>2020-06-02T20:27:02Z</time>
      </trkpt>
      <trkpt lat="39.925453" lon="3.108692">
        <ele>176.1</ele>
        <time>2020-06-02T20:27:04Z</time>
      </trkpt>
      <trkpt lat="39.925495" lon="3.108702">
        <ele>176.4</ele>
        <time>2020-06-02T20:27:05Z</time>
      </trkpt>
      <trkpt lat="39.925533" lon="3.108715">
        <ele>176.7</ele>
        <time>2020-06-02T20:27:06Z</time>
      </trkpt>
      <trkpt lat="39.925568" lon="3.108729">
        <ele>177</ele>
        <time>2020-06-02T20:27:07Z</time>
      </trkpt>
      <trkpt lat="39.925602" lon="3.108757">
        <ele>177.3</ele>
        <time>2020-06-02T20:27:08Z</time>
      </trkpt>
      <trkpt lat="39.925625" lon="3.108797">
        <ele>177.6</ele>
        <time>2020-06-02T20:27:09Z</time>
      </trkpt>
      <trkpt lat="39.925648" lon="3.108841">
        <ele>177.9</ele>
        <time>2020-06-02T20:27:11Z</time>
      </trkpt>
      <trkpt lat="39.925671" lon="3.108879">
        <ele>178.2</ele>
        <time>2020-06-02T20:27:12Z</time>
      </trkpt>
      <trkpt lat="39.925697" lon="3.108927">
        <ele>178.5</ele>
        <time>2020-06-02T20:27:13Z</time>
      </trkpt>
      <trkpt lat="39.92572" lon="3.108967">
        <ele>178.8</ele>
        <time>2020-06-02T20:27:14Z</time>
      </trkpt>
      <trkpt lat="39.925747" lon="3.109014">
        <ele>179.1</ele>
        <time>2020-06-02T20:27:15Z</time>
      </trkpt>
      <trkpt lat="39.925766" lon="3.109053">
        <ele>179.4</ele>
        <time>2020-06-02T20:27:16Z</time>
      </trkpt>
      <trkpt lat="39.925785" lon="3.109094">
        <ele>179.6</ele>
        <time>2020-06-02T20:27:17Z</time>
      </trkpt>
      <trkpt lat="39.925812" lon="3.109144">
        <ele>180</ele>
        <time>2020-06-02T20:27:18Z</time>
      </trkpt>
      <trkpt lat="39.925831" lon="3.109185">
        <ele>180.2</ele>
        <time>2020-06-02T20:27:19Z</time>
      </trkpt>
      <trkpt lat="39.925858" lon="3.109234">
        <ele>180.6</ele>
        <time>2020-06-02T20:27:20Z</time>
      </trkpt>
      <trkpt lat="39.925884" lon="3.109282">
        <ele>180.9</ele>
        <time>2020-06-02T20:27:22Z</time>
      </trkpt>
      <trkpt lat="39.925907" lon="3.109322">
        <ele>181.1</ele>
        <time>2020-06-02T20:27:23Z</time>
      </trkpt>
      <trkpt lat="39.925938" lon="3.109367">
        <ele>181.5</ele>
        <time>2020-06-02T20:27:24Z</time>
      </trkpt>
      <trkpt lat="39.925968" lon="3.1094">
        <ele>181.7</ele>
        <time>2020-06-02T20:27:25Z</time>
      </trkpt>
      <trkpt lat="39.926014" lon="3.109429">
        <ele>182.1</ele>
        <time>2020-06-02T20:27:26Z</time>
      </trkpt>
      <trkpt lat="39.92606" lon="3.109445">
        <ele>182.4</ele>
        <time>2020-06-02T20:27:27Z</time>
      </trkpt>
      <trkpt lat="39.926098" lon="3.109456">
        <ele>182.7</ele>
        <time>2020-06-02T20:27:28Z</time>
      </trkpt>
      <trkpt lat="39.92614" lon="3.109469">
        <ele>183</ele>
        <time>2020-06-02T20:27:29Z</time>
      </trkpt>
      <trkpt lat="39.926174" lon="3.10948">
        <ele>183.2</ele>
        <time>2020-06-02T20:27:30Z</time>
      </trkpt>
      <trkpt lat="39.926216" lon="3.109491">
        <ele>183.6</ele>
        <time>2020-06-02T20:27:32Z</time>
      </trkpt>
      <trkpt lat="39.926258" lon="3.109498">
        <ele>183.9</ele>
        <time>2020-06-02T20:27:33Z</time>
      </trkpt>
      <trkpt lat="39.9263" lon="3.109503">
        <ele>184.2</ele>
        <time>2020-06-02T20:27:34Z</time>
      </trkpt>
      <trkpt lat="39.926338" lon="3.109503">
        <ele>184.5</ele>
        <time>2020-06-02T20:27:35Z</time>
      </trkpt>
      <trkpt lat="39.92638" lon="3.109505">
        <ele>184.9</ele>
        <time>2020-06-02T20:27:36Z</time>
      </trkpt>
      <trkpt lat="39.926418" lon="3.109508">
        <ele>185.2</ele>
        <time>2020-06-02T20:27:37Z</time>
      </trkpt>
      <trkpt lat="39.926456" lon="3.109512">
        <ele>185.5</ele>
        <time>2020-06-02T20:27:38Z</time>
      </trkpt>
      <trkpt lat="39.926495" lon="3.109518">
        <ele>185.8</ele>
        <time>2020-06-02T20:27:39Z</time>
      </trkpt>
      <trkpt lat="39.926533" lon="3.109526">
        <ele>186.1</ele>
        <time>2020-06-02T20:27:40Z</time>
      </trkpt>
      <trkpt lat="39.926575" lon="3.109543">
        <ele>186.4</ele>
        <time>2020-06-02T20:27:41Z</time>
      </trkpt>
      <trkpt lat="39.926617" lon="3.10957">
        <ele>186.8</ele>
        <time>2020-06-02T20:27:43Z</time>
      </trkpt>
      <trkpt lat="39.926655" lon="3.109606">
        <ele>187.2</ele>
        <time>2020-06-02T20:27:44Z</time>
      </trkpt>
      <trkpt lat="39.926693" lon="3.109644">
        <ele>187.6</ele>
        <time>2020-06-02T20:27:45Z</time>
      </trkpt>
      <trkpt lat="39.926727" lon="3.10968">
        <ele>188</ele>
        <time>2020-06-02T20:27:46Z</time>
      </trkpt>
      <trkpt lat="39.926765" lon="3.109716">
        <ele>188.4</ele>
        <time>2020-06-02T20:27:47Z</time>
      </trkpt>
      <trkpt lat="39.926804" lon="3.109751">
        <ele>188.8</ele>
        <time>2020-06-02T20:27:49Z</time>
      </trkpt>
      <trkpt lat="39.926842" lon="3.109784">
        <ele>189.2</ele>
        <time>2020-06-02T20:27:50Z</time>
      </trkpt>
      <trkpt lat="39.926872" lon="3.109807">
        <ele>189.4</ele>
        <time>2020-06-02T20:27:51Z</time>
      </trkpt>
      <trkpt lat="39.926914" lon="3.109828">
        <ele>189.8</ele>
        <time>2020-06-02T20:27:52Z</time>
      </trkpt>
      <trkpt lat="39.92696" lon="3.109845">
        <ele>190.1</ele>
        <time>2020-06-02T20:27:53Z</time>
      </trkpt>
      <trkpt lat="39.926994" lon="3.109857">
        <ele>190.3</ele>
        <time>2020-06-02T20:27:54Z</time>
      </trkpt>
      <trkpt lat="39.92704" lon="3.109866">
        <ele>190.7</ele>
        <time>2020-06-02T20:27:55Z</time>
      </trkpt>
      <trkpt lat="39.927078" lon="3.109867">
        <ele>190.9</ele>
        <time>2020-06-02T20:27:56Z</time>
      </trkpt>
      <trkpt lat="39.927124" lon="3.109855">
        <ele>191.3</ele>
        <time>2020-06-02T20:27:58Z</time>
      </trkpt>
      <trkpt lat="39.927174" lon="3.109835">
        <ele>191.6</ele>
        <time>2020-06-02T20:27:59Z</time>
      </trkpt>
      <trkpt lat="39.927219" lon="3.109815">
        <ele>192</ele>
        <time>2020-06-02T20:28:00Z</time>
      </trkpt>
      <trkpt lat="39.927261" lon="3.109804">
        <ele>192.3</ele>
        <time>2020-06-02T20:28:01Z</time>
      </trkpt>
      <trkpt lat="39.927307" lon="3.109796">
        <ele>192.6</ele>
        <time>2020-06-02T20:28:02Z</time>
      </trkpt>
      <trkpt lat="39.927353" lon="3.109795">
        <ele>193</ele>
        <time>2020-06-02T20:28:03Z</time>
      </trkpt>
      <trkpt lat="39.927391" lon="3.109799">
        <ele>193.3</ele>
        <time>2020-06-02T20:28:04Z</time>
      </trkpt>
      <trkpt lat="39.927433" lon="3.109816">
        <ele>193.6</ele>
        <time>2020-06-02T20:28:06Z</time>
      </trkpt>
      <trkpt lat="39.927471" lon="3.109841">
        <ele>193.9</ele>
        <time>2020-06-02T20:28:07Z</time>
      </trkpt>
      <trkpt lat="39.927505" lon="3.109867">
        <ele>194.2</ele>
        <time>2020-06-02T20:28:08Z</time>
      </trkpt>
      <trkpt lat="39.92754" lon="3.109887">
        <ele>194.5</ele>
        <time>2020-06-02T20:28:09Z</time>
      </trkpt>
      <trkpt lat="39.927578" lon="3.109909">
        <ele>194.9</ele>
        <time>2020-06-02T20:28:10Z</time>
      </trkpt>
      <trkpt lat="39.92762" lon="3.109929">
        <ele>195.2</ele>
        <time>2020-06-02T20:28:11Z</time>
      </trkpt>
      <trkpt lat="39.927662" lon="3.109948">
        <ele>195.5</ele>
        <time>2020-06-02T20:28:13Z</time>
      </trkpt>
      <trkpt lat="39.9277" lon="3.109967">
        <ele>195.9</ele>
        <time>2020-06-02T20:28:14Z</time>
      </trkpt>
      <trkpt lat="39.927742" lon="3.109985">
        <ele>196.2</ele>
        <time>2020-06-02T20:28:15Z</time>
      </trkpt>
      <trkpt lat="39.927784" lon="3.110003">
        <ele>196.6</ele>
        <time>2020-06-02T20:28:16Z</time>
      </trkpt>
      <trkpt lat="39.927818" lon="3.11002">
        <ele>196.9</ele>
        <time>2020-06-02T20:28:17Z</time>
      </trkpt>
      <trkpt lat="39.92786" lon="3.110039">
        <ele>197.3</ele>
        <time>2020-06-02T20:28:18Z</time>
      </trkpt>
      <trkpt lat="39.927902" lon="3.11006">
        <ele>197.7</ele>
        <time>2020-06-02T20:28:20Z</time>
      </trkpt>
      <trkpt lat="39.927937" lon="3.110076">
        <ele>198.1</ele>
        <time>2020-06-02T20:28:21Z</time>
      </trkpt>
      <trkpt lat="39.927975" lon="3.110093">
        <ele>198.4</ele>
        <time>2020-06-02T20:28:22Z</time>
      </trkpt>
      <trkpt lat="39.928009" lon="3.110107">
        <ele>198.7</ele>
        <time>2020-06-02T20:28:23Z</time>
      </trkpt>
      <trkpt lat="39.928047" lon="3.110119">
        <ele>199.1</ele>
        <time>2020-06-02T20:28:24Z</time>
      </trkpt>
      <trkpt lat="39.928085" lon="3.110128">
        <ele>199.3</ele>
        <time>2020-06-02T20:28:25Z</time>
      </trkpt>
      <trkpt lat="39.928131" lon="3.110137">
        <ele>199.7</ele>
        <time>2020-06-02T20:28:26Z</time>
      </trkpt>
      <trkpt lat="39.928177" lon="3.110146">
        <ele>200</ele>
        <time>2020-06-02T20:28:27Z</time>
      </trkpt>
      <trkpt lat="39.928226" lon="3.110154">
        <ele>200.3</ele>
        <time>2020-06-02T20:28:28Z</time>
      </trkpt>
      <trkpt lat="39.928272" lon="3.110161">
        <ele>200.7</ele>
        <time>2020-06-02T20:28:29Z</time>
      </trkpt>
      <trkpt lat="39.928322" lon="3.110166">
        <ele>201</ele>
        <time>2020-06-02T20:28:31Z</time>
      </trkpt>
      <trkpt lat="39.928364" lon="3.11017">
        <ele>201.3</ele>
        <time>2020-06-02T20:28:32Z</time>
      </trkpt>
      <trkpt lat="39.928413" lon="3.110174">
        <ele>201.7</ele>
        <time>2020-06-02T20:28:33Z</time>
      </trkpt>
      <trkpt lat="39.928467" lon="3.110181">
        <ele>202.1</ele>
        <time>2020-06-02T20:28:34Z</time>
      </trkpt>
      <trkpt lat="39.928516" lon="3.110189">
        <ele>202.5</ele>
        <time>2020-06-02T20:28:35Z</time>
      </trkpt>
      <trkpt lat="39.928566" lon="3.110202">
        <ele>202.9</ele>
        <time>2020-06-02T20:28:36Z</time>
      </trkpt>
      <trkpt lat="39.928612" lon="3.110224">
        <ele>203.2</ele>
        <time>2020-06-02T20:28:38Z</time>
      </trkpt>
      <trkpt lat="39.928646" lon="3.110258">
        <ele>203.4</ele>
        <time>2020-06-02T20:28:39Z</time>
      </trkpt>
      <trkpt lat="39.928673" lon="3.110297">
        <ele>203.6</ele>
        <time>2020-06-02T20:28:40Z</time>
      </trkpt>
      <trkpt lat="39.928696" lon="3.110329">
        <ele>203.8</ele>
        <time>2020-06-02T20:28:41Z</time>
      </trkpt>
      <trkpt lat="39.928722" lon="3.110369">
        <ele>203.8</ele>
        <time>2020-06-02T20:28:42Z</time>
      </trkpt>
      <trkpt lat="39.928745" lon="3.110404">
        <ele>203.8</ele>
        <time>2020-06-02T20:28:43Z</time>
      </trkpt>
      <trkpt lat="39.928768" lon="3.11044">
        <ele>203.9</ele>
        <time>2020-06-02T20:28:44Z</time>
      </trkpt>
      <trkpt lat="39.928795" lon="3.110487">
        <ele>204</ele>
        <time>2020-06-02T20:28:45Z</time>
      </trkpt>
      <trkpt lat="39.928822" lon="3.110538">
        <ele>204.1</ele>
        <time>2020-06-02T20:28:47Z</time>
      </trkpt>
      <trkpt lat="39.928841" lon="3.110584">
        <ele>204.1</ele>
        <time>2020-06-02T20:28:48Z</time>
      </trkpt>
      <trkpt lat="39.92886" lon="3.110646">
        <ele>204.2</ele>
        <time>2020-06-02T20:28:49Z</time>
      </trkpt>
      <trkpt lat="39.928875" lon="3.110703">
        <ele>204.3</ele>
        <time>2020-06-02T20:28:50Z</time>
      </trkpt>
      <trkpt lat="39.928898" lon="3.110777">
        <ele>204.2</ele>
        <time>2020-06-02T20:28:51Z</time>
      </trkpt>
      <trkpt lat="39.928917" lon="3.110842">
        <ele>204.1</ele>
        <time>2020-06-02T20:28:52Z</time>
      </trkpt>
      <trkpt lat="39.928921" lon="3.110926">
        <ele>203.9</ele>
        <time>2020-06-02T20:28:53Z</time>
      </trkpt>
      <trkpt lat="39.928894" lon="3.111007">
        <ele>203.5</ele>
        <time>2020-06-02T20:28:54Z</time>
      </trkpt>
      <trkpt lat="39.92886" lon="3.111078">
        <ele>203.2</ele>
        <time>2020-06-02T20:28:55Z</time>
      </trkpt>
      <trkpt lat="39.928822" lon="3.11117">
        <ele>202.8</ele>
        <time>2020-06-02T20:28:57Z</time>
      </trkpt>
      <trkpt lat="39.928783" lon="3.111255">
        <ele>202.3</ele>
        <time>2020-06-02T20:28:58Z</time>
      </trkpt>
      <trkpt lat="39.92876" lon="3.111381">
        <ele>201.8</ele>
        <time>2020-06-02T20:28:59Z</time>
      </trkpt>
      <trkpt lat="39.928753" lon="3.111526">
        <ele>201.1</ele>
        <time>2020-06-02T20:29:00Z</time>
      </trkpt>
      <trkpt lat="39.928768" lon="3.111678">
        <ele>200.4</ele>
        <time>2020-06-02T20:29:01Z</time>
      </trkpt>
      <trkpt lat="39.928806" lon="3.11183">
        <ele>199.4</ele>
        <time>2020-06-02T20:29:02Z</time>
      </trkpt>
      <trkpt lat="39.928833" lon="3.11196">
        <ele>198.6</ele>
        <time>2020-06-02T20:29:03Z</time>
      </trkpt>
      <trkpt lat="39.928871" lon="3.112088">
        <ele>197.8</ele>
        <time>2020-06-02T20:29:04Z</time>
      </trkpt>
      <trkpt lat="39.928925" lon="3.112242">
        <ele>196.8</ele>
        <time>2020-06-02T20:29:06Z</time>
      </trkpt>
      <trkpt lat="39.928982" lon="3.112407">
        <ele>195.7</ele>
        <time>2020-06-02T20:29:07Z</time>
      </trkpt>
      <trkpt lat="39.929024" lon="3.112547">
        <ele>194.8</ele>
        <time>2020-06-02T20:29:08Z</time>
      </trkpt>
      <trkpt lat="39.929077" lon="3.112709">
        <ele>193.8</ele>
        <time>2020-06-02T20:29:09Z</time>
      </trkpt>
      <trkpt lat="39.929115" lon="3.112869">
        <ele>192.7</ele>
        <time>2020-06-02T20:29:10Z</time>
      </trkpt>
      <trkpt lat="39.929142" lon="3.113">
        <ele>191.8</ele>
        <time>2020-06-02T20:29:11Z</time>
      </trkpt>
      <trkpt lat="39.929195" lon="3.113138">
        <ele>185.7</ele>
        <time>2020-06-02T20:29:12Z</time>
      </trkpt>
      <trkpt lat="39.929302" lon="3.113117">
        <ele>179.8</ele>
        <time>2020-06-02T20:29:14Z</time>
      </trkpt>
      <trkpt lat="39.929363" lon="3.112966">
        <ele>180.8</ele>
        <time>2020-06-02T20:29:15Z</time>
      </trkpt>
      <trkpt lat="39.929356" lon="3.112816">
        <ele>181.5</ele>
        <time>2020-06-02T20:29:16Z</time>
      </trkpt>
      <trkpt lat="39.929321" lon="3.112679">
        <ele>182</ele>
        <time>2020-06-02T20:29:17Z</time>
      </trkpt>
      <trkpt lat="39.929291" lon="3.112517">
        <ele>182.3</ele>
        <time>2020-06-02T20:29:18Z</time>
      </trkpt>
      <trkpt lat="39.929272" lon="3.112367">
        <ele>182.8</ele>
        <time>2020-06-02T20:29:19Z</time>
      </trkpt>
      <trkpt lat="39.92926" lon="3.112253">
        <ele>183.2</ele>
        <time>2020-06-02T20:29:20Z</time>
      </trkpt>
      <trkpt lat="39.929256" lon="3.112127">
        <ele>183.7</ele>
        <time>2020-06-02T20:29:21Z</time>
      </trkpt>
      <trkpt lat="39.929279" lon="3.112039">
        <ele>184</ele>
        <time>2020-06-02T20:29:22Z</time>
      </trkpt>
      <trkpt lat="39.929363" lon="3.112011">
        <ele>184.5</ele>
        <time>2020-06-02T20:29:24Z</time>
      </trkpt>
      <trkpt lat="39.929428" lon="3.112009">
        <ele>184.8</ele>
        <time>2020-06-02T20:29:25Z</time>
      </trkpt>
      <trkpt lat="39.929462" lon="3.112104">
        <ele>184.4</ele>
        <time>2020-06-02T20:29:26Z</time>
      </trkpt>
      <trkpt lat="39.929459" lon="3.112239">
        <ele>183.7</ele>
        <time>2020-06-02T20:29:27Z</time>
      </trkpt>
      <trkpt lat="39.92947" lon="3.112393">
        <ele>182.9</ele>
        <time>2020-06-02T20:29:28Z</time>
      </trkpt>
      <trkpt lat="39.929478" lon="3.112565">
        <ele>182.2</ele>
        <time>2020-06-02T20:29:29Z</time>
      </trkpt>
      <trkpt lat="39.929485" lon="3.112723">
        <ele>181.9</ele>
        <time>2020-06-02T20:29:30Z</time>
      </trkpt>
      <trkpt lat="39.929497" lon="3.112891">
        <ele>181.1</ele>
        <time>2020-06-02T20:29:31Z</time>
      </trkpt>
      <trkpt lat="39.929508" lon="3.113065">
        <ele>180</ele>
        <time>2020-06-02T20:29:32Z</time>
      </trkpt>
      <trkpt lat="39.929523" lon="3.11328">
        <ele>178.6</ele>
        <time>2020-06-02T20:29:34Z</time>
      </trkpt>
      <trkpt lat="39.929535" lon="3.113499">
        <ele>177.2</ele>
        <time>2020-06-02T20:29:35Z</time>
      </trkpt>
      <trkpt lat="39.92955" lon="3.113723">
        <ele>175.8</ele>
        <time>2020-06-02T20:29:36Z</time>
      </trkpt>
      <trkpt lat="39.929569" lon="3.113912">
        <ele>174.6</ele>
        <time>2020-06-02T20:29:37Z</time>
      </trkpt>
      <trkpt lat="39.929604" lon="3.114138">
        <ele>173.4</ele>
        <time>2020-06-02T20:29:38Z</time>
      </trkpt>
      <trkpt lat="39.929642" lon="3.114352">
        <ele>172.1</ele>
        <time>2020-06-02T20:29:39Z</time>
      </trkpt>
      <trkpt lat="39.929668" lon="3.114557">
        <ele>170.9</ele>
        <time>2020-06-02T20:29:41Z</time>
      </trkpt>
      <trkpt lat="39.929707" lon="3.114716">
        <ele>170</ele>
        <time>2020-06-02T20:29:42Z</time>
      </trkpt>
      <trkpt lat="39.929783" lon="3.114882">
        <ele>168.8</ele>
        <time>2020-06-02T20:29:43Z</time>
      </trkpt>
      <trkpt lat="39.929893" lon="3.11495">
        <ele>167.7</ele>
        <time>2020-06-02T20:29:44Z</time>
      </trkpt>
      <trkpt lat="39.930008" lon="3.115014">
        <ele>166.7</ele>
        <time>2020-06-02T20:29:45Z</time>
      </trkpt>
      <trkpt lat="39.930138" lon="3.115122">
        <ele>165.5</ele>
        <time>2020-06-02T20:29:46Z</time>
      </trkpt>
      <trkpt lat="39.930256" lon="3.115258">
        <ele>164.2</ele>
        <time>2020-06-02T20:29:47Z</time>
      </trkpt>
      <trkpt lat="39.930355" lon="3.115378">
        <ele>163.2</ele>
        <time>2020-06-02T20:29:48Z</time>
      </trkpt>
      <trkpt lat="39.930443" lon="3.115522">
        <ele>162.1</ele>
        <time>2020-06-02T20:29:49Z</time>
      </trkpt>
      <trkpt lat="39.930534" lon="3.115706">
        <ele>160.7</ele>
        <time>2020-06-02T20:29:50Z</time>
      </trkpt>
      <trkpt lat="39.930572" lon="3.115922">
        <ele>159.4</ele>
        <time>2020-06-02T20:29:52Z</time>
      </trkpt>
      <trkpt lat="39.930588" lon="3.116143">
        <ele>158.4</ele>
        <time>2020-06-02T20:29:53Z</time>
      </trkpt>
      <trkpt lat="39.930618" lon="3.116361">
        <ele>157.6</ele>
        <time>2020-06-02T20:29:54Z</time>
      </trkpt>
      <trkpt lat="39.930668" lon="3.116574">
        <ele>157</ele>
        <time>2020-06-02T20:29:55Z</time>
      </trkpt>
      <trkpt lat="39.93071" lon="3.116752">
        <ele>156.8</ele>
        <time>2020-06-02T20:29:56Z</time>
      </trkpt>
      <trkpt lat="39.930748" lon="3.116971">
        <ele>156.6</ele>
        <time>2020-06-02T20:29:57Z</time>
      </trkpt>
      <trkpt lat="39.930763" lon="3.117192">
        <ele>156.6</ele>
        <time>2020-06-02T20:29:59Z</time>
      </trkpt>
      <trkpt lat="39.930748" lon="3.117405">
        <ele>156.6</ele>
        <time>2020-06-02T20:30:00Z</time>
      </trkpt>
      <trkpt lat="39.930717" lon="3.117568">
        <ele>156.7</ele>
        <time>2020-06-02T20:30:01Z</time>
      </trkpt>
      <trkpt lat="39.930676" lon="3.117754">
        <ele>156.7</ele>
        <time>2020-06-02T20:30:02Z</time>
      </trkpt>
      <trkpt lat="39.930641" lon="3.117895">
        <ele>156.6</ele>
        <time>2020-06-02T20:30:03Z</time>
      </trkpt>
      <trkpt lat="39.930603" lon="3.118055">
        <ele>156.6</ele>
        <time>2020-06-02T20:30:04Z</time>
      </trkpt>
      <trkpt lat="39.930561" lon="3.118204">
        <ele>156.6</ele>
        <time>2020-06-02T20:30:05Z</time>
      </trkpt>
      <trkpt lat="39.930523" lon="3.118342">
        <ele>156.6</ele>
        <time>2020-06-02T20:30:07Z</time>
      </trkpt>
      <trkpt lat="39.930492" lon="3.118454">
        <ele>156.5</ele>
        <time>2020-06-02T20:30:08Z</time>
      </trkpt>
      <trkpt lat="39.930473" lon="3.11859">
        <ele>156.5</ele>
        <time>2020-06-02T20:30:09Z</time>
      </trkpt>
      <trkpt lat="39.930473" lon="3.118725">
        <ele>156.5</ele>
        <time>2020-06-02T20:30:10Z</time>
      </trkpt>
      <trkpt lat="39.930473" lon="3.118839">
        <ele>156.5</ele>
        <time>2020-06-02T20:30:11Z</time>
      </trkpt>
      <trkpt lat="39.930477" lon="3.118975">
        <ele>156.5</ele>
        <time>2020-06-02T20:30:12Z</time>
      </trkpt>
      <trkpt lat="39.930485" lon="3.119088">
        <ele>156.6</ele>
        <time>2020-06-02T20:30:13Z</time>
      </trkpt>
      <trkpt lat="39.930492" lon="3.119202">
        <ele>156.5</ele>
        <time>2020-06-02T20:30:14Z</time>
      </trkpt>
      <trkpt lat="39.930496" lon="3.119315">
        <ele>156.5</ele>
        <time>2020-06-02T20:30:15Z</time>
      </trkpt>
      <trkpt lat="39.930504" lon="3.11945">
        <ele>156.3</ele>
        <time>2020-06-02T20:30:16Z</time>
      </trkpt>
      <trkpt lat="39.930508" lon="3.119586">
        <ele>156.1</ele>
        <time>2020-06-02T20:30:18Z</time>
      </trkpt>
      <trkpt lat="39.930515" lon="3.119723">
        <ele>155.8</ele>
        <time>2020-06-02T20:30:19Z</time>
      </trkpt>
      <trkpt lat="39.930542" lon="3.119857">
        <ele>155.3</ele>
        <time>2020-06-02T20:30:20Z</time>
      </trkpt>
      <trkpt lat="39.930576" lon="3.119985">
        <ele>154.8</ele>
        <time>2020-06-02T20:30:21Z</time>
      </trkpt>
      <trkpt lat="39.930614" lon="3.120115">
        <ele>154</ele>
        <time>2020-06-02T20:30:22Z</time>
      </trkpt>
      <trkpt lat="39.930645" lon="3.120224">
        <ele>153.3</ele>
        <time>2020-06-02T20:30:23Z</time>
      </trkpt>
      <trkpt lat="39.930679" lon="3.120363">
        <ele>152.4</ele>
        <time>2020-06-02T20:30:25Z</time>
      </trkpt>
      <trkpt lat="39.930706" lon="3.120484">
        <ele>151.6</ele>
        <time>2020-06-02T20:30:26Z</time>
      </trkpt>
      <trkpt lat="39.930744" lon="3.120633">
        <ele>150.6</ele>
        <time>2020-06-02T20:30:27Z</time>
      </trkpt>
      <trkpt lat="39.930782" lon="3.120799">
        <ele>149.4</ele>
        <time>2020-06-02T20:30:28Z</time>
      </trkpt>
      <trkpt lat="39.930809" lon="3.120955">
        <ele>148.3</ele>
        <time>2020-06-02T20:30:29Z</time>
      </trkpt>
      <trkpt lat="39.93079" lon="3.121157">
        <ele>147</ele>
        <time>2020-06-02T20:30:30Z</time>
      </trkpt>
      <trkpt lat="39.930763" lon="3.121355">
        <ele>145.6</ele>
        <time>2020-06-02T20:30:31Z</time>
      </trkpt>
      <trkpt lat="39.93074" lon="3.121546">
        <ele>144.3</ele>
        <time>2020-06-02T20:30:33Z</time>
      </trkpt>
      <trkpt lat="39.93074" lon="3.121725">
        <ele>143</ele>
        <time>2020-06-02T20:30:34Z</time>
      </trkpt>
      <trkpt lat="39.930801" lon="3.121835">
        <ele>142</ele>
        <time>2020-06-02T20:30:35Z</time>
      </trkpt>
      <trkpt lat="39.930904" lon="3.121912">
        <ele>140.9</ele>
        <time>2020-06-02T20:30:36Z</time>
      </trkpt>
      <trkpt lat="39.931" lon="3.121987">
        <ele>139.9</ele>
        <time>2020-06-02T20:30:37Z</time>
      </trkpt>
      <trkpt lat="39.931091" lon="3.12205">
        <ele>138.9</ele>
        <time>2020-06-02T20:30:38Z</time>
      </trkpt>
      <trkpt lat="39.931168" lon="3.122118">
        <ele>138</ele>
        <time>2020-06-02T20:30:40Z</time>
      </trkpt>
      <trkpt lat="39.931229" lon="3.122203">
        <ele>137.2</ele>
        <time>2020-06-02T20:30:41Z</time>
      </trkpt>
      <trkpt lat="39.931156" lon="3.122294">
        <ele>136.3</ele>
        <time>2020-06-02T20:30:42Z</time>
      </trkpt>
      <trkpt lat="39.931049" lon="3.12237">
        <ele>135.4</ele>
        <time>2020-06-02T20:30:43Z</time>
      </trkpt>
      <trkpt lat="39.93092" lon="3.122451">
        <ele>134.4</ele>
        <time>2020-06-02T20:30:44Z</time>
      </trkpt>
      <trkpt lat="39.930794" lon="3.122554">
        <ele>133.4</ele>
        <time>2020-06-02T20:30:46Z</time>
      </trkpt>
      <trkpt lat="39.930672" lon="3.122678">
        <ele>132.5</ele>
        <time>2020-06-02T20:30:47Z</time>
      </trkpt>
      <trkpt lat="39.930561" lon="3.122809">
        <ele>131.5</ele>
        <time>2020-06-02T20:30:48Z</time>
      </trkpt>
      <trkpt lat="39.930454" lon="3.122945">
        <ele>130.5</ele>
        <time>2020-06-02T20:30:49Z</time>
      </trkpt>
      <trkpt lat="39.930405" lon="3.123123">
        <ele>129.7</ele>
        <time>2020-06-02T20:30:50Z</time>
      </trkpt>
      <trkpt lat="39.930389" lon="3.123284">
        <ele>129</ele>
        <time>2020-06-02T20:30:51Z</time>
      </trkpt>
      <trkpt lat="39.930389" lon="3.12348">
        <ele>128.2</ele>
        <time>2020-06-02T20:30:53Z</time>
      </trkpt>
      <trkpt lat="39.930393" lon="3.123681">
        <ele>127.3</ele>
        <time>2020-06-02T20:30:54Z</time>
      </trkpt>
      <trkpt lat="39.930389" lon="3.123885">
        <ele>126.5</ele>
        <time>2020-06-02T20:30:55Z</time>
      </trkpt>
      <trkpt lat="39.930378" lon="3.124091">
        <ele>125.6</ele>
        <time>2020-06-02T20:30:56Z</time>
      </trkpt>
      <trkpt lat="39.930366" lon="3.124283">
        <ele>124.7</ele>
        <time>2020-06-02T20:30:57Z</time>
      </trkpt>
      <trkpt lat="39.930359" lon="3.124451">
        <ele>123.8</ele>
        <time>2020-06-02T20:30:59Z</time>
      </trkpt>
      <trkpt lat="39.930347" lon="3.124606">
        <ele>123.2</ele>
        <time>2020-06-02T20:31:00Z</time>
      </trkpt>
      <trkpt lat="39.930355" lon="3.124729">
        <ele>123</ele>
        <time>2020-06-02T20:31:01Z</time>
      </trkpt>
      <trkpt lat="39.930389" lon="3.124838">
        <ele>122.6</ele>
        <time>2020-06-02T20:31:02Z</time>
      </trkpt>
      <trkpt lat="39.930454" lon="3.124909">
        <ele>122.2</ele>
        <time>2020-06-02T20:31:03Z</time>
      </trkpt>
      <trkpt lat="39.930538" lon="3.124825">
        <ele>121.5</ele>
        <time>2020-06-02T20:31:04Z</time>
      </trkpt>
      <trkpt lat="39.930603" lon="3.124695">
        <ele>120.6</ele>
        <time>2020-06-02T20:31:05Z</time>
      </trkpt>
      <trkpt lat="39.930634" lon="3.124536">
        <ele>119.6</ele>
        <time>2020-06-02T20:31:07Z</time>
      </trkpt>
      <trkpt lat="39.930626" lon="3.124361">
        <ele>118.5</ele>
        <time>2020-06-02T20:31:08Z</time>
      </trkpt>
      <trkpt lat="39.930641" lon="3.124171">
        <ele>117.3</ele>
        <time>2020-06-02T20:31:09Z</time>
      </trkpt>
      <trkpt lat="39.930676" lon="3.123986">
        <ele>116.1</ele>
        <time>2020-06-02T20:31:10Z</time>
      </trkpt>
      <trkpt lat="39.930702" lon="3.123837">
        <ele>115.2</ele>
        <time>2020-06-02T20:31:11Z</time>
      </trkpt>
      <trkpt lat="39.930725" lon="3.123691">
        <ele>114.4</ele>
        <time>2020-06-02T20:31:12Z</time>
      </trkpt>
      <trkpt lat="39.930744" lon="3.123546">
        <ele>113.7</ele>
        <time>2020-06-02T20:31:13Z</time>
      </trkpt>
      <trkpt lat="39.930778" lon="3.123388">
        <ele>113</ele>
        <time>2020-06-02T20:31:14Z</time>
      </trkpt>
      <trkpt lat="39.930881" lon="3.123297">
        <ele>111.8</ele>
        <time>2020-06-02T20:31:16Z</time>
      </trkpt>
      <trkpt lat="39.930988" lon="3.123256">
        <ele>111.1</ele>
        <time>2020-06-02T20:31:17Z</time>
      </trkpt>
      <trkpt lat="39.931118" lon="3.123228">
        <ele>110.3</ele>
        <time>2020-06-02T20:31:18Z</time>
      </trkpt>
      <trkpt lat="39.931248" lon="3.123227">
        <ele>109.5</ele>
        <time>2020-06-02T20:31:19Z</time>
      </trkpt>
      <trkpt lat="39.931374" lon="3.123216">
        <ele>108.8</ele>
        <time>2020-06-02T20:31:20Z</time>
      </trkpt>
      <trkpt lat="39.931499" lon="3.1232">
        <ele>108</ele>
        <time>2020-06-02T20:31:21Z</time>
      </trkpt>
      <trkpt lat="39.931621" lon="3.123187">
        <ele>107.2</ele>
        <time>2020-06-02T20:31:23Z</time>
      </trkpt>
      <trkpt lat="39.931724" lon="3.12321">
        <ele>106.5</ele>
        <time>2020-06-02T20:31:24Z</time>
      </trkpt>
      <trkpt lat="39.931828" lon="3.123312">
        <ele>105.5</ele>
        <time>2020-06-02T20:31:25Z</time>
      </trkpt>
      <trkpt lat="39.931919" lon="3.123434">
        <ele>104.5</ele>
        <time>2020-06-02T20:31:26Z</time>
      </trkpt>
      <trkpt lat="39.931965" lon="3.123573">
        <ele>103.6</ele>
        <time>2020-06-02T20:31:27Z</time>
      </trkpt>
      <trkpt lat="39.932018" lon="3.123746">
        <ele>102.4</ele>
        <time>2020-06-02T20:31:28Z</time>
      </trkpt>
      <trkpt lat="39.93206" lon="3.123929">
        <ele>101.3</ele>
        <time>2020-06-02T20:31:29Z</time>
      </trkpt>
      <trkpt lat="39.932098" lon="3.124124">
        <ele>100.1</ele>
        <time>2020-06-02T20:31:31Z</time>
      </trkpt>
      <trkpt lat="39.932129" lon="3.124294">
        <ele>98.9</ele>
        <time>2020-06-02T20:31:32Z</time>
      </trkpt>
      <trkpt lat="39.932163" lon="3.124507">
        <ele>97.6</ele>
        <time>2020-06-02T20:31:33Z</time>
      </trkpt>
      <trkpt lat="39.932209" lon="3.124725">
        <ele>96.6</ele>
        <time>2020-06-02T20:31:34Z</time>
      </trkpt>
      <trkpt lat="39.932255" lon="3.124905">
        <ele>95.4</ele>
        <time>2020-06-02T20:31:35Z</time>
      </trkpt>
      <trkpt lat="39.932339" lon="3.125107">
        <ele>93.6</ele>
        <time>2020-06-02T20:31:36Z</time>
      </trkpt>
      <trkpt lat="39.932438" lon="3.125244">
        <ele>92.3</ele>
        <time>2020-06-02T20:31:37Z</time>
      </trkpt>
      <trkpt lat="39.932579" lon="3.125363">
        <ele>90.8</ele>
        <time>2020-06-02T20:31:38Z</time>
      </trkpt>
      <trkpt lat="39.93272" lon="3.125407">
        <ele>89.3</ele>
        <time>2020-06-02T20:31:39Z</time>
      </trkpt>
      <trkpt lat="39.932892" lon="3.125444">
        <ele>87.7</ele>
        <time>2020-06-02T20:31:41Z</time>
      </trkpt>
      <trkpt lat="39.933041" lon="3.125435">
        <ele>86.4</ele>
        <time>2020-06-02T20:31:42Z</time>
      </trkpt>
      <trkpt lat="39.933212" lon="3.125436">
        <ele>85.2</ele>
        <time>2020-06-02T20:31:43Z</time>
      </trkpt>
      <trkpt lat="39.933357" lon="3.125455">
        <ele>84.3</ele>
        <time>2020-06-02T20:31:44Z</time>
      </trkpt>
      <trkpt lat="39.933464" lon="3.125471">
        <ele>84.1</ele>
        <time>2020-06-02T20:31:45Z</time>
      </trkpt>
      <trkpt lat="39.933582" lon="3.125514">
        <ele>83.5</ele>
        <time>2020-06-02T20:31:46Z</time>
      </trkpt>
      <trkpt lat="39.933678" lon="3.125576">
        <ele>82.9</ele>
        <time>2020-06-02T20:31:47Z</time>
      </trkpt>
      <trkpt lat="39.933727" lon="3.125664">
        <ele>82.3</ele>
        <time>2020-06-02T20:31:48Z</time>
      </trkpt>
      <trkpt lat="39.93372" lon="3.125778">
        <ele>81.6</ele>
        <time>2020-06-02T20:31:49Z</time>
      </trkpt>
      <trkpt lat="39.933701" lon="3.125919">
        <ele>80.7</ele>
        <time>2020-06-02T20:31:51Z</time>
      </trkpt>
      <trkpt lat="39.933662" lon="3.126036">
        <ele>80</ele>
        <time>2020-06-02T20:31:52Z</time>
      </trkpt>
      <trkpt lat="39.933601" lon="3.126169">
        <ele>79.1</ele>
        <time>2020-06-02T20:31:53Z</time>
      </trkpt>
      <trkpt lat="39.933536" lon="3.12631">
        <ele>78.3</ele>
        <time>2020-06-02T20:31:54Z</time>
      </trkpt>
      <trkpt lat="39.933453" lon="3.126445">
        <ele>77.3</ele>
        <time>2020-06-02T20:31:55Z</time>
      </trkpt>
      <trkpt lat="39.933361" lon="3.126587">
        <ele>76.4</ele>
        <time>2020-06-02T20:31:56Z</time>
      </trkpt>
      <trkpt lat="39.933262" lon="3.126737">
        <ele>75.4</ele>
        <time>2020-06-02T20:31:58Z</time>
      </trkpt>
      <trkpt lat="39.933163" lon="3.126881">
        <ele>74.3</ele>
        <time>2020-06-02T20:31:59Z</time>
      </trkpt>
      <trkpt lat="39.933063" lon="3.127024">
        <ele>73.1</ele>
        <time>2020-06-02T20:32:00Z</time>
      </trkpt>
      <trkpt lat="39.93296" lon="3.127149">
        <ele>72</ele>
        <time>2020-06-02T20:32:01Z</time>
      </trkpt>
      <trkpt lat="39.932838" lon="3.127301">
        <ele>70.7</ele>
        <time>2020-06-02T20:32:02Z</time>
      </trkpt>
      <trkpt lat="39.932743" lon="3.12743">
        <ele>69.7</ele>
        <time>2020-06-02T20:32:03Z</time>
      </trkpt>
      <trkpt lat="39.932632" lon="3.127584">
        <ele>68.5</ele>
        <time>2020-06-02T20:32:04Z</time>
      </trkpt>
      <trkpt lat="39.932537" lon="3.127748">
        <ele>67.4</ele>
        <time>2020-06-02T20:32:05Z</time>
      </trkpt>
      <trkpt lat="39.932446" lon="3.127917">
        <ele>66.3</ele>
        <time>2020-06-02T20:32:07Z</time>
      </trkpt>
      <trkpt lat="39.932377" lon="3.128106">
        <ele>65.2</ele>
        <time>2020-06-02T20:32:08Z</time>
      </trkpt>
      <trkpt lat="39.932323" lon="3.128272">
        <ele>64.2</ele>
        <time>2020-06-02T20:32:09Z</time>
      </trkpt>
      <trkpt lat="39.932297" lon="3.128449">
        <ele>63.2</ele>
        <time>2020-06-02T20:32:10Z</time>
      </trkpt>
      <trkpt lat="39.932259" lon="3.12866">
        <ele>62</ele>
        <time>2020-06-02T20:32:11Z</time>
      </trkpt>
      <trkpt lat="39.932236" lon="3.128873">
        <ele>60.7</ele>
        <time>2020-06-02T20:32:12Z</time>
      </trkpt>
      <trkpt lat="39.932236" lon="3.129087">
        <ele>59.5</ele>
        <time>2020-06-02T20:32:13Z</time>
      </trkpt>
      <trkpt lat="39.932308" lon="3.129277">
        <ele>58.3</ele>
        <time>2020-06-02T20:32:15Z</time>
      </trkpt>
      <trkpt lat="39.9324" lon="3.129458">
        <ele>57.1</ele>
        <time>2020-06-02T20:32:16Z</time>
      </trkpt>
      <trkpt lat="39.93251" lon="3.129624">
        <ele>55.9</ele>
        <time>2020-06-02T20:32:17Z</time>
      </trkpt>
      <trkpt lat="39.932613" lon="3.129798">
        <ele>54.8</ele>
        <time>2020-06-02T20:32:18Z</time>
      </trkpt>
      <trkpt lat="39.932709" lon="3.129988">
        <ele>53.4</ele>
        <time>2020-06-02T20:32:19Z</time>
      </trkpt>
      <trkpt lat="39.932781" lon="3.130153">
        <ele>52.2</ele>
        <time>2020-06-02T20:32:20Z</time>
      </trkpt>
      <trkpt lat="39.93285" lon="3.130306">
        <ele>51.1</ele>
        <time>2020-06-02T20:32:21Z</time>
      </trkpt>
      <trkpt lat="39.932919" lon="3.130453">
        <ele>50.1</ele>
        <time>2020-06-02T20:32:23Z</time>
      </trkpt>
      <trkpt lat="39.932976" lon="3.130557">
        <ele>49.5</ele>
        <time>2020-06-02T20:32:24Z</time>
      </trkpt>
      <trkpt lat="39.933037" lon="3.130643">
        <ele>49</ele>
        <time>2020-06-02T20:32:25Z</time>
      </trkpt>
      <trkpt lat="39.933098" lon="3.130718">
        <ele>48.6</ele>
        <time>2020-06-02T20:32:26Z</time>
      </trkpt>
      <trkpt lat="39.933163" lon="3.130804">
        <ele>48.3</ele>
        <time>2020-06-02T20:32:27Z</time>
      </trkpt>
      <trkpt lat="39.933174" lon="3.130901">
        <ele>48</ele>
        <time>2020-06-02T20:32:28Z</time>
      </trkpt>
      <trkpt lat="39.933094" lon="3.130952">
        <ele>47.9</ele>
        <time>2020-06-02T20:32:29Z</time>
      </trkpt>
      <trkpt lat="39.933029" lon="3.130898">
        <ele>47.5</ele>
        <time>2020-06-02T20:32:30Z</time>
      </trkpt>
      <trkpt lat="39.932972" lon="3.130794">
        <ele>46.8</ele>
        <time>2020-06-02T20:32:31Z</time>
      </trkpt>
      <trkpt lat="39.932919" lon="3.130713">
        <ele>46.3</ele>
        <time>2020-06-02T20:32:32Z</time>
      </trkpt>
      <trkpt lat="39.932854" lon="3.130637">
        <ele>45.6</ele>
        <time>2020-06-02T20:32:33Z</time>
      </trkpt>
      <trkpt lat="39.932781" lon="3.130539">
        <ele>44.8</ele>
        <time>2020-06-02T20:32:35Z</time>
      </trkpt>
      <trkpt lat="39.932701" lon="3.130428">
        <ele>43.9</ele>
        <time>2020-06-02T20:32:36Z</time>
      </trkpt>
      <trkpt lat="39.932632" lon="3.130329">
        <ele>43.2</ele>
        <time>2020-06-02T20:32:37Z</time>
      </trkpt>
      <trkpt lat="39.932545" lon="3.130207">
        <ele>42.2</ele>
        <time>2020-06-02T20:32:38Z</time>
      </trkpt>
      <trkpt lat="39.932457" lon="3.130103">
        <ele>41.3</ele>
        <time>2020-06-02T20:32:39Z</time>
      </trkpt>
      <trkpt lat="39.932342" lon="3.129978">
        <ele>40</ele>
        <time>2020-06-02T20:32:40Z</time>
      </trkpt>
      <trkpt lat="39.932205" lon="3.129864">
        <ele>38.7</ele>
        <time>2020-06-02T20:32:41Z</time>
      </trkpt>
      <trkpt lat="39.932064" lon="3.129745">
        <ele>37.2</ele>
        <time>2020-06-02T20:32:43Z</time>
      </trkpt>
      <trkpt lat="39.931908" lon="3.129641">
        <ele>35.8</ele>
        <time>2020-06-02T20:32:44Z</time>
      </trkpt>
      <trkpt lat="39.931751" lon="3.129538">
        <ele>34.4</ele>
        <time>2020-06-02T20:32:45Z</time>
      </trkpt>
      <trkpt lat="39.931618" lon="3.129471">
        <ele>33.3</ele>
        <time>2020-06-02T20:32:46Z</time>
      </trkpt>
      <trkpt lat="39.931454" lon="3.129408">
        <ele>32</ele>
        <time>2020-06-02T20:32:47Z</time>
      </trkpt>
      <trkpt lat="39.931282" lon="3.129422">
        <ele>30.7</ele>
        <time>2020-06-02T20:32:48Z</time>
      </trkpt>
      <trkpt lat="39.931129" lon="3.129512">
        <ele>29.9</ele>
        <time>2020-06-02T20:32:50Z</time>
      </trkpt>
      <trkpt lat="39.930988" lon="3.129631">
        <ele>29.3</ele>
        <time>2020-06-02T20:32:51Z</time>
      </trkpt>
      <trkpt lat="39.930851" lon="3.129751">
        <ele>28.1</ele>
        <time>2020-06-02T20:32:52Z</time>
      </trkpt>
      <trkpt lat="39.930717" lon="3.129868">
        <ele>26.8</ele>
        <time>2020-06-02T20:32:53Z</time>
      </trkpt>
      <trkpt lat="39.930572" lon="3.129972">
        <ele>25.5</ele>
        <time>2020-06-02T20:32:54Z</time>
      </trkpt>
      <trkpt lat="39.930427" lon="3.130077">
        <ele>24.3</ele>
        <time>2020-06-02T20:32:56Z</time>
      </trkpt>
      <trkpt lat="39.93029" lon="3.130189">
        <ele>23.1</ele>
        <time>2020-06-02T20:32:57Z</time>
      </trkpt>
      <trkpt lat="39.930157" lon="3.130306">
        <ele>22.5</ele>
        <time>2020-06-02T20:32:58Z</time>
      </trkpt>
      <trkpt lat="39.930031" lon="3.130428">
        <ele>21.9</ele>
        <time>2020-06-02T20:32:59Z</time>
      </trkpt>
      <trkpt lat="39.929916" lon="3.130554">
        <ele>20.8</ele>
        <time>2020-06-02T20:33:00Z</time>
      </trkpt>
      <trkpt lat="39.929829" lon="3.130709">
        <ele>19.6</ele>
        <time>2020-06-02T20:33:02Z</time>
      </trkpt>
      <trkpt lat="39.929775" lon="3.130899">
        <ele>18.4</ele>
        <time>2020-06-02T20:33:03Z</time>
      </trkpt>
      <trkpt lat="39.929726" lon="3.131103">
        <ele>17.3</ele>
        <time>2020-06-02T20:33:04Z</time>
      </trkpt>
      <trkpt lat="39.929687" lon="3.13132">
        <ele>16.1</ele>
        <time>2020-06-02T20:33:05Z</time>
      </trkpt>
      <trkpt lat="39.929649" lon="3.131543">
        <ele>15</ele>
        <time>2020-06-02T20:33:06Z</time>
      </trkpt>
      <trkpt lat="39.929607" lon="3.131729">
        <ele>14</ele>
        <time>2020-06-02T20:33:07Z</time>
      </trkpt>
      <trkpt lat="39.929562" lon="3.131952">
        <ele>12.8</ele>
        <time>2020-06-02T20:33:09Z</time>
      </trkpt>
      <trkpt lat="39.929523" lon="3.132136">
        <ele>11.8</ele>
        <time>2020-06-02T20:33:10Z</time>
      </trkpt>
      <trkpt lat="39.929478" lon="3.13235">
        <ele>10.6</ele>
        <time>2020-06-02T20:33:11Z</time>
      </trkpt>
      <trkpt lat="39.929432" lon="3.132556">
        <ele>9.5</ele>
        <time>2020-06-02T20:33:12Z</time>
      </trkpt>
      <trkpt lat="39.92939" lon="3.132754">
        <ele>8.5</ele>
        <time>2020-06-02T20:33:13Z</time>
      </trkpt>
      <trkpt lat="39.929348" lon="3.132943">
        <ele>7.5</ele>
        <time>2020-06-02T20:33:14Z</time>
      </trkpt>
      <trkpt lat="39.929306" lon="3.133095">
        <ele>6.7</ele>
        <time>2020-06-02T20:33:15Z</time>
      </trkpt>
      <trkpt lat="39.92926" lon="3.133274">
        <ele>5.8</ele>
        <time>2020-06-02T20:33:17Z</time>
      </trkpt>
      <trkpt lat="39.929218" lon="3.133454">
        <ele>5.2</ele>
        <time>2020-06-02T20:33:18Z</time>
      </trkpt>
      <trkpt lat="39.929211" lon="3.133605">
        <ele>4.9</ele>
        <time>2020-06-02T20:33:19Z</time>
      </trkpt>
      <trkpt lat="39.929218" lon="3.133783">
        <ele>4.8</ele>
        <time>2020-06-02T20:33:20Z</time>
      </trkpt>
      <trkpt lat="39.92926" lon="3.133913">
        <ele>4.7</ele>
        <time>2020-06-02T20:33:21Z</time>
      </trkpt>
      <trkpt lat="39.929348" lon="3.133996">
        <ele>4.6</ele>
        <time>2020-06-02T20:33:22Z</time>
      </trkpt>
      <trkpt lat="39.929455" lon="3.134086">
        <ele>4.6</ele>
        <time>2020-06-02T20:33:23Z</time>
      </trkpt>
      <trkpt lat="39.929581" lon="3.134123">
        <ele>4.5</ele>
        <time>2020-06-02T20:33:24Z</time>
      </trkpt>
      <trkpt lat="39.929703" lon="3.13415">
        <ele>4.6</ele>
        <time>2020-06-02T20:33:26Z</time>
      </trkpt>
      <trkpt lat="39.929829" lon="3.134175">
        <ele>4.7</ele>
        <time>2020-06-02T20:33:27Z</time>
      </trkpt>
      <trkpt lat="39.929924" lon="3.134187">
        <ele>4.8</ele>
        <time>2020-06-02T20:33:28Z</time>
      </trkpt>
      <trkpt lat="39.930038" lon="3.134204">
        <ele>5.1</ele>
        <time>2020-06-02T20:33:29Z</time>
      </trkpt>
      <trkpt lat="39.930126" lon="3.134223">
        <ele>5.2</ele>
        <time>2020-06-02T20:33:30Z</time>
      </trkpt>
      <trkpt lat="39.930229" lon="3.134253">
        <ele>5.5</ele>
        <time>2020-06-02T20:33:31Z</time>
      </trkpt>
      <trkpt lat="39.930325" lon="3.134279">
        <ele>5.7</ele>
        <time>2020-06-02T20:33:32Z</time>
      </trkpt>
      <trkpt lat="39.93042" lon="3.134304">
        <ele>6</ele>
        <time>2020-06-02T20:33:34Z</time>
      </trkpt>
      <trkpt lat="39.930511" lon="3.134336">
        <ele>6.2</ele>
        <time>2020-06-02T20:33:35Z</time>
      </trkpt>
      <trkpt lat="39.930592" lon="3.134374">
        <ele>6.5</ele>
        <time>2020-06-02T20:33:36Z</time>
      </trkpt>
      <trkpt lat="39.930664" lon="3.134411">
        <ele>6.8</ele>
        <time>2020-06-02T20:33:37Z</time>
      </trkpt>
      <trkpt lat="39.930733" lon="3.134445">
        <ele>7</ele>
        <time>2020-06-02T20:33:38Z</time>
      </trkpt>
      <trkpt lat="39.93079" lon="3.134479">
        <ele>7.2</ele>
        <time>2020-06-02T20:33:40Z</time>
      </trkpt>
      <trkpt lat="39.930836" lon="3.134506">
        <ele>7.4</ele>
        <time>2020-06-02T20:33:41Z</time>
      </trkpt>
      <trkpt lat="39.930878" lon="3.134532">
        <ele>7.6</ele>
        <time>2020-06-02T20:33:42Z</time>
      </trkpt>
      <trkpt lat="39.930927" lon="3.134563">
        <ele>7.8</ele>
        <time>2020-06-02T20:33:43Z</time>
      </trkpt>
      <trkpt lat="39.930973" lon="3.134594">
        <ele>8</ele>
        <time>2020-06-02T20:33:44Z</time>
      </trkpt>
      <trkpt lat="39.931023" lon="3.134625">
        <ele>8.2</ele>
        <time>2020-06-02T20:33:45Z</time>
      </trkpt>
      <trkpt lat="39.931076" lon="3.134657">
        <ele>8.4</ele>
        <time>2020-06-02T20:33:46Z</time>
      </trkpt>
      <trkpt lat="39.931126" lon="3.13469">
        <ele>8.6</ele>
        <time>2020-06-02T20:33:48Z</time>
      </trkpt>
      <trkpt lat="39.931175" lon="3.134724">
        <ele>8.8</ele>
        <time>2020-06-02T20:33:49Z</time>
      </trkpt>
      <trkpt lat="39.931229" lon="3.134759">
        <ele>8.9</ele>
        <time>2020-06-02T20:33:50Z</time>
      </trkpt>
      <trkpt lat="39.931278" lon="3.134793">
        <ele>9.1</ele>
        <time>2020-06-02T20:33:51Z</time>
      </trkpt>
      <trkpt lat="39.931332" lon="3.134826">
        <ele>9.3</ele>
        <time>2020-06-02T20:33:52Z</time>
      </trkpt>
      <trkpt lat="39.931389" lon="3.134858">
        <ele>9.5</ele>
        <time>2020-06-02T20:33:54Z</time>
      </trkpt>
      <trkpt lat="39.931435" lon="3.134884">
        <ele>9.7</ele>
        <time>2020-06-02T20:33:55Z</time>
      </trkpt>
      <trkpt lat="39.93148" lon="3.134911">
        <ele>9.9</ele>
        <time>2020-06-02T20:33:56Z</time>
      </trkpt>
      <trkpt lat="39.931538" lon="3.134943">
        <ele>10.2</ele>
        <time>2020-06-02T20:33:57Z</time>
      </trkpt>
      <trkpt lat="39.931591" lon="3.134976">
        <ele>10.5</ele>
        <time>2020-06-02T20:33:58Z</time>
      </trkpt>
      <trkpt lat="39.931648" lon="3.135006">
        <ele>10.7</ele>
        <time>2020-06-02T20:33:59Z</time>
      </trkpt>
      <trkpt lat="39.931702" lon="3.135036">
        <ele>11</ele>
        <time>2020-06-02T20:34:00Z</time>
      </trkpt>
      <trkpt lat="39.931759" lon="3.135065">
        <ele>11.2</ele>
        <time>2020-06-02T20:34:02Z</time>
      </trkpt>
      <trkpt lat="39.931816" lon="3.135095">
        <ele>11.5</ele>
        <time>2020-06-02T20:34:03Z</time>
      </trkpt>
      <trkpt lat="39.931862" lon="3.13512">
        <ele>11.7</ele>
        <time>2020-06-02T20:34:04Z</time>
      </trkpt>
      <trkpt lat="39.931908" lon="3.135144">
        <ele>11.9</ele>
        <time>2020-06-02T20:34:05Z</time>
      </trkpt>
      <trkpt lat="39.931965" lon="3.135173">
        <ele>12.2</ele>
        <time>2020-06-02T20:34:06Z</time>
      </trkpt>
      <trkpt lat="39.932022" lon="3.1352">
        <ele>12.5</ele>
        <time>2020-06-02T20:34:07Z</time>
      </trkpt>
      <trkpt lat="39.932079" lon="3.135228">
        <ele>12.8</ele>
        <time>2020-06-02T20:34:08Z</time>
      </trkpt>
      <trkpt lat="39.93214" lon="3.135256">
        <ele>13.2</ele>
        <time>2020-06-02T20:34:10Z</time>
      </trkpt>
      <trkpt lat="39.93219" lon="3.13528">
        <ele>13.5</ele>
        <time>2020-06-02T20:34:11Z</time>
      </trkpt>
      <trkpt lat="39.932236" lon="3.135303">
        <ele>13.8</ele>
        <time>2020-06-02T20:34:12Z</time>
      </trkpt>
      <trkpt lat="39.932289" lon="3.13533">
        <ele>14.1</ele>
        <time>2020-06-02T20:34:13Z</time>
      </trkpt>
      <trkpt lat="39.932342" lon="3.135356">
        <ele>14.4</ele>
        <time>2020-06-02T20:34:14Z</time>
      </trkpt>
      <trkpt lat="39.932392" lon="3.135381">
        <ele>14.7</ele>
        <time>2020-06-02T20:34:15Z</time>
      </trkpt>
      <trkpt lat="39.932442" lon="3.135407">
        <ele>15</ele>
        <time>2020-06-02T20:34:16Z</time>
      </trkpt>
      <trkpt lat="39.932495" lon="3.135434">
        <ele>15.3</ele>
        <time>2020-06-02T20:34:18Z</time>
      </trkpt>
      <trkpt lat="39.932545" lon="3.13546">
        <ele>15.6</ele>
        <time>2020-06-02T20:34:19Z</time>
      </trkpt>
      <trkpt lat="39.932594" lon="3.135485">
        <ele>15.9</ele>
        <time>2020-06-02T20:34:20Z</time>
      </trkpt>
      <trkpt lat="39.932644" lon="3.135509">
        <ele>16.2</ele>
        <time>2020-06-02T20:34:21Z</time>
      </trkpt>
      <trkpt lat="39.932693" lon="3.135533">
        <ele>16.4</ele>
        <time>2020-06-02T20:34:22Z</time>
      </trkpt>
      <trkpt lat="39.932735" lon="3.135554">
        <ele>16.7</ele>
        <time>2020-06-02T20:34:23Z</time>
      </trkpt>
      <trkpt lat="39.932789" lon="3.135578">
        <ele>17</ele>
        <time>2020-06-02T20:34:25Z</time>
      </trkpt>
      <trkpt lat="39.932842" lon="3.135602">
        <ele>17.3</ele>
        <time>2020-06-02T20:34:26Z</time>
      </trkpt>
      <trkpt lat="39.932884" lon="3.135622">
        <ele>17.6</ele>
        <time>2020-06-02T20:34:27Z</time>
      </trkpt>
      <trkpt lat="39.932934" lon="3.135647">
        <ele>17.9</ele>
        <time>2020-06-02T20:34:28Z</time>
      </trkpt>
      <trkpt lat="39.932983" lon="3.13567">
        <ele>18.2</ele>
        <time>2020-06-02T20:34:29Z</time>
      </trkpt>
      <trkpt lat="39.933037" lon="3.135693">
        <ele>18.5</ele>
        <time>2020-06-02T20:34:30Z</time>
      </trkpt>
      <trkpt lat="39.933075" lon="3.135713">
        <ele>18.7</ele>
        <time>2020-06-02T20:34:31Z</time>
      </trkpt>
      <trkpt lat="39.933117" lon="3.135737">
        <ele>18.9</ele>
        <time>2020-06-02T20:34:32Z</time>
      </trkpt>
      <trkpt lat="39.933155" lon="3.135765">
        <ele>19.2</ele>
        <time>2020-06-02T20:34:33Z</time>
      </trkpt>
      <trkpt lat="39.933197" lon="3.135806">
        <ele>19.5</ele>
        <time>2020-06-02T20:34:35Z</time>
      </trkpt>
      <trkpt lat="39.933235" lon="3.135851">
        <ele>19.7</ele>
        <time>2020-06-02T20:34:36Z</time>
      </trkpt>
      <trkpt lat="39.933281" lon="3.135897">
        <ele>20</ele>
        <time>2020-06-02T20:34:37Z</time>
      </trkpt>
      <trkpt lat="39.933323" lon="3.135945">
        <ele>20.3</ele>
        <time>2020-06-02T20:34:38Z</time>
      </trkpt>
      <trkpt lat="39.933353" lon="3.135989">
        <ele>20.5</ele>
        <time>2020-06-02T20:34:39Z</time>
      </trkpt>
      <trkpt lat="39.933388" lon="3.136051">
        <ele>20.8</ele>
        <time>2020-06-02T20:34:40Z</time>
      </trkpt>
      <trkpt lat="39.933411" lon="3.136118">
        <ele>21</ele>
        <time>2020-06-02T20:34:42Z</time>
      </trkpt>
      <trkpt lat="39.93343" lon="3.136176">
        <ele>21.3</ele>
        <time>2020-06-02T20:34:43Z</time>
      </trkpt>
      <trkpt lat="39.933453" lon="3.136248">
        <ele>21.5</ele>
        <time>2020-06-02T20:34:44Z</time>
      </trkpt>
      <trkpt lat="39.933472" lon="3.136322">
        <ele>21.7</ele>
        <time>2020-06-02T20:34:45Z</time>
      </trkpt>
      <trkpt lat="39.933483" lon="3.136384">
        <ele>21.9</ele>
        <time>2020-06-02T20:34:46Z</time>
      </trkpt>
      <trkpt lat="39.933483" lon="3.136456">
        <ele>22</ele>
        <time>2020-06-02T20:34:47Z</time>
      </trkpt>
      <trkpt lat="39.933483" lon="3.136513">
        <ele>22</ele>
        <time>2020-06-02T20:34:48Z</time>
      </trkpt>
      <trkpt lat="39.933487" lon="3.136581">
        <ele>22.1</ele>
        <time>2020-06-02T20:34:49Z</time>
      </trkpt>
      <trkpt lat="39.933495" lon="3.136647">
        <ele>22.3</ele>
        <time>2020-06-02T20:34:51Z</time>
      </trkpt>
      <trkpt lat="39.933498" lon="3.136713">
        <ele>22.5</ele>
        <time>2020-06-02T20:34:52Z</time>
      </trkpt>
      <trkpt lat="39.933506" lon="3.136767">
        <ele>22.6</ele>
        <time>2020-06-02T20:34:53Z</time>
      </trkpt>
      <trkpt lat="39.933506" lon="3.13682">
        <ele>22.8</ele>
        <time>2020-06-02T20:34:54Z</time>
      </trkpt>
      <trkpt lat="39.93351" lon="3.136882">
        <ele>23</ele>
        <time>2020-06-02T20:34:55Z</time>
      </trkpt>
      <trkpt lat="39.93351" lon="3.136943">
        <ele>23.2</ele>
        <time>2020-06-02T20:34:56Z</time>
      </trkpt>
      <trkpt lat="39.933514" lon="3.137002">
        <ele>23.5</ele>
        <time>2020-06-02T20:34:57Z</time>
      </trkpt>
      <trkpt lat="39.933514" lon="3.137061">
        <ele>23.7</ele>
        <time>2020-06-02T20:34:59Z</time>
      </trkpt>
      <trkpt lat="39.933517" lon="3.137121">
        <ele>24</ele>
        <time>2020-06-02T20:35:00Z</time>
      </trkpt>
      <trkpt lat="39.933517" lon="3.137182">
        <ele>24.2</ele>
        <time>2020-06-02T20:35:01Z</time>
      </trkpt>
      <trkpt lat="39.933525" lon="3.137243">
        <ele>24.5</ele>
        <time>2020-06-02T20:35:02Z</time>
      </trkpt>
      <trkpt lat="39.933529" lon="3.137293">
        <ele>24.7</ele>
        <time>2020-06-02T20:35:03Z</time>
      </trkpt>
      <trkpt lat="39.93354" lon="3.137351">
        <ele>24.9</ele>
        <time>2020-06-02T20:35:04Z</time>
      </trkpt>
      <trkpt lat="39.933552" lon="3.137409">
        <ele>25.2</ele>
        <time>2020-06-02T20:35:06Z</time>
      </trkpt>
      <trkpt lat="39.933563" lon="3.137465">
        <ele>25.4</ele>
        <time>2020-06-02T20:35:07Z</time>
      </trkpt>
      <trkpt lat="39.933578" lon="3.137521">
        <ele>25.7</ele>
        <time>2020-06-02T20:35:08Z</time>
      </trkpt>
      <trkpt lat="39.93359" lon="3.137576">
        <ele>26</ele>
        <time>2020-06-02T20:35:09Z</time>
      </trkpt>
      <trkpt lat="39.933605" lon="3.137622">
        <ele>26.2</ele>
        <time>2020-06-02T20:35:10Z</time>
      </trkpt>
      <trkpt lat="39.933628" lon="3.137676">
        <ele>26.5</ele>
        <time>2020-06-02T20:35:11Z</time>
      </trkpt>
      <trkpt lat="39.933647" lon="3.137717">
        <ele>26.8</ele>
        <time>2020-06-02T20:35:12Z</time>
      </trkpt>
      <trkpt lat="39.933674" lon="3.137765">
        <ele>27.1</ele>
        <time>2020-06-02T20:35:14Z</time>
      </trkpt>
      <trkpt lat="39.933701" lon="3.137814">
        <ele>27.5</ele>
        <time>2020-06-02T20:35:15Z</time>
      </trkpt>
      <trkpt lat="39.933723" lon="3.137855">
        <ele>27.8</ele>
        <time>2020-06-02T20:35:16Z</time>
      </trkpt>
      <trkpt lat="39.933746" lon="3.137897">
        <ele>28.1</ele>
        <time>2020-06-02T20:35:17Z</time>
      </trkpt>
      <trkpt lat="39.933773" lon="3.137938">
        <ele>28.4</ele>
        <time>2020-06-02T20:35:18Z</time>
      </trkpt>
      <trkpt lat="39.9338" lon="3.137986">
        <ele>28.7</ele>
        <time>2020-06-02T20:35:19Z</time>
      </trkpt>
      <trkpt lat="39.933826" lon="3.138025">
        <ele>28.9</ele>
        <time>2020-06-02T20:35:20Z</time>
      </trkpt>
      <trkpt lat="39.933861" lon="3.138072">
        <ele>29.3</ele>
        <time>2020-06-02T20:35:21Z</time>
      </trkpt>
      <trkpt lat="39.933887" lon="3.138111">
        <ele>29.5</ele>
        <time>2020-06-02T20:35:22Z</time>
      </trkpt>
      <trkpt lat="39.933918" lon="3.138158">
        <ele>29.8</ele>
        <time>2020-06-02T20:35:23Z</time>
      </trkpt>
      <trkpt lat="39.933945" lon="3.138205">
        <ele>30.1</ele>
        <time>2020-06-02T20:35:25Z</time>
      </trkpt>
      <trkpt lat="39.933968" lon="3.138244">
        <ele>30.4</ele>
        <time>2020-06-02T20:35:26Z</time>
      </trkpt>
      <trkpt lat="39.933994" lon="3.138291">
        <ele>30.7</ele>
        <time>2020-06-02T20:35:27Z</time>
      </trkpt>
      <trkpt lat="39.934021" lon="3.138338">
        <ele>31.1</ele>
        <time>2020-06-02T20:35:28Z</time>
      </trkpt>
      <trkpt lat="39.934048" lon="3.138386">
        <ele>31.4</ele>
        <time>2020-06-02T20:35:29Z</time>
      </trkpt>
      <trkpt lat="39.934071" lon="3.138433">
        <ele>31.7</ele>
        <time>2020-06-02T20:35:30Z</time>
      </trkpt>
      <trkpt lat="39.934097" lon="3.138481">
        <ele>32.1</ele>
        <time>2020-06-02T20:35:32Z</time>
      </trkpt>
      <trkpt lat="39.934124" lon="3.138528">
        <ele>32.4</ele>
        <time>2020-06-02T20:35:33Z</time>
      </trkpt>
      <trkpt lat="39.934151" lon="3.138573">
        <ele>32.7</ele>
        <time>2020-06-02T20:35:34Z</time>
      </trkpt>
      <trkpt lat="39.93417" lon="3.138611">
        <ele>33</ele>
        <time>2020-06-02T20:35:35Z</time>
      </trkpt>
      <trkpt lat="39.934196" lon="3.138656">
        <ele>33.3</ele>
        <time>2020-06-02T20:35:36Z</time>
      </trkpt>
      <trkpt lat="39.934219" lon="3.138693">
        <ele>33.6</ele>
        <time>2020-06-02T20:35:37Z</time>
      </trkpt>
      <trkpt lat="39.934246" lon="3.138738">
        <ele>33.9</ele>
        <time>2020-06-02T20:35:38Z</time>
      </trkpt>
      <trkpt lat="39.934269" lon="3.138783">
        <ele>34.2</ele>
        <time>2020-06-02T20:35:40Z</time>
      </trkpt>
      <trkpt lat="39.934296" lon="3.138829">
        <ele>34.5</ele>
        <time>2020-06-02T20:35:41Z</time>
      </trkpt>
      <trkpt lat="39.934319" lon="3.138867">
        <ele>34.8</ele>
        <time>2020-06-02T20:35:42Z</time>
      </trkpt>
      <trkpt lat="39.934341" lon="3.138913">
        <ele>35.1</ele>
        <time>2020-06-02T20:35:43Z</time>
      </trkpt>
      <trkpt lat="39.934368" lon="3.138959">
        <ele>35.4</ele>
        <time>2020-06-02T20:35:44Z</time>
      </trkpt>
      <trkpt lat="39.934395" lon="3.139005">
        <ele>35.6</ele>
        <time>2020-06-02T20:35:45Z</time>
      </trkpt>
      <trkpt lat="39.934418" lon="3.139042">
        <ele>35.8</ele>
        <time>2020-06-02T20:35:46Z</time>
      </trkpt>
      <trkpt lat="39.934444" lon="3.139087">
        <ele>36</ele>
        <time>2020-06-02T20:35:48Z</time>
      </trkpt>
      <trkpt lat="39.934475" lon="3.139133">
        <ele>36.2</ele>
        <time>2020-06-02T20:35:49Z</time>
      </trkpt>
      <trkpt lat="39.934502" lon="3.13918">
        <ele>36.4</ele>
        <time>2020-06-02T20:35:50Z</time>
      </trkpt>
      <trkpt lat="39.934524" lon="3.13922">
        <ele>36.5</ele>
        <time>2020-06-02T20:35:51Z</time>
      </trkpt>
      <trkpt lat="39.934547" lon="3.139261">
        <ele>36.6</ele>
        <time>2020-06-02T20:35:52Z</time>
      </trkpt>
      <trkpt lat="39.934578" lon="3.139313">
        <ele>36.7</ele>
        <time>2020-06-02T20:35:53Z</time>
      </trkpt>
      <trkpt lat="39.934608" lon="3.139372">
        <ele>36.8</ele>
        <time>2020-06-02T20:35:54Z</time>
      </trkpt>
      <trkpt lat="39.934647" lon="3.13944">
        <ele>36.8</ele>
        <time>2020-06-02T20:35:56Z</time>
      </trkpt>
      <trkpt lat="39.934681" lon="3.139502">
        <ele>36.9</ele>
        <time>2020-06-02T20:35:57Z</time>
      </trkpt>
      <trkpt lat="39.934715" lon="3.139569">
        <ele>36.9</ele>
        <time>2020-06-02T20:35:58Z</time>
      </trkpt>
      <trkpt lat="39.934753" lon="3.139636">
        <ele>37</ele>
        <time>2020-06-02T20:35:59Z</time>
      </trkpt>
      <trkpt lat="39.934803" lon="3.139718">
        <ele>37</ele>
        <time>2020-06-02T20:36:00Z</time>
      </trkpt>
      <trkpt lat="39.934849" lon="3.139801">
        <ele>37.1</ele>
        <time>2020-06-02T20:36:01Z</time>
      </trkpt>
      <trkpt lat="39.934898" lon="3.139885">
        <ele>37.3</ele>
        <time>2020-06-02T20:36:02Z</time>
      </trkpt>
      <trkpt lat="39.934936" lon="3.139956">
        <ele>37.4</ele>
        <time>2020-06-02T20:36:03Z</time>
      </trkpt>
      <trkpt lat="39.934975" lon="3.140031">
        <ele>37.6</ele>
        <time>2020-06-02T20:36:04Z</time>
      </trkpt>
      <trkpt lat="39.935005" lon="3.140108">
        <ele>37.7</ele>
        <time>2020-06-02T20:36:05Z</time>
      </trkpt>
      <trkpt lat="39.935039" lon="3.140195">
        <ele>37.8</ele>
        <time>2020-06-02T20:36:06Z</time>
      </trkpt>
      <trkpt lat="39.93507" lon="3.140278">
        <ele>37.9</ele>
        <time>2020-06-02T20:36:08Z</time>
      </trkpt>
      <trkpt lat="39.935104" lon="3.140357">
        <ele>38</ele>
        <time>2020-06-02T20:36:09Z</time>
      </trkpt>
      <trkpt lat="39.935135" lon="3.140435">
        <ele>38.2</ele>
        <time>2020-06-02T20:36:10Z</time>
      </trkpt>
      <trkpt lat="39.935158" lon="3.140497">
        <ele>38.3</ele>
        <time>2020-06-02T20:36:11Z</time>
      </trkpt>
      <trkpt lat="39.935184" lon="3.140569">
        <ele>38.5</ele>
        <time>2020-06-02T20:36:12Z</time>
      </trkpt>
      <trkpt lat="39.935211" lon="3.14064">
        <ele>38.8</ele>
        <time>2020-06-02T20:36:13Z</time>
      </trkpt>
      <trkpt lat="39.935234" lon="3.1407">
        <ele>39</ele>
        <time>2020-06-02T20:36:14Z</time>
      </trkpt>
      <trkpt lat="39.935265" lon="3.140767">
        <ele>39.2</ele>
        <time>2020-06-02T20:36:16Z</time>
      </trkpt>
      <trkpt lat="39.935291" lon="3.140819">
        <ele>39.4</ele>
        <time>2020-06-02T20:36:17Z</time>
      </trkpt>
      <trkpt lat="39.935326" lon="3.140878">
        <ele>39.6</ele>
        <time>2020-06-02T20:36:18Z</time>
      </trkpt>
      <trkpt lat="39.93536" lon="3.140936">
        <ele>39.9</ele>
        <time>2020-06-02T20:36:19Z</time>
      </trkpt>
      <trkpt lat="39.935394" lon="3.140994">
        <ele>40.2</ele>
        <time>2020-06-02T20:36:20Z</time>
      </trkpt>
      <trkpt lat="39.935429" lon="3.141051">
        <ele>40.4</ele>
        <time>2020-06-02T20:36:21Z</time>
      </trkpt>
      <trkpt lat="39.935463" lon="3.141105">
        <ele>40.6</ele>
        <time>2020-06-02T20:36:23Z</time>
      </trkpt>
      <trkpt lat="39.935505" lon="3.141155">
        <ele>40.8</ele>
        <time>2020-06-02T20:36:24Z</time>
      </trkpt>
      <trkpt lat="39.935547" lon="3.141202">
        <ele>41</ele>
        <time>2020-06-02T20:36:25Z</time>
      </trkpt>
      <trkpt lat="39.935585" lon="3.141242">
        <ele>41.2</ele>
        <time>2020-06-02T20:36:26Z</time>
      </trkpt>
      <trkpt lat="39.935627" lon="3.141288">
        <ele>41.3</ele>
        <time>2020-06-02T20:36:27Z</time>
      </trkpt>
      <trkpt lat="39.935669" lon="3.141335">
        <ele>41.4</ele>
        <time>2020-06-02T20:36:28Z</time>
      </trkpt>
      <trkpt lat="39.935711" lon="3.14138">
        <ele>41.6</ele>
        <time>2020-06-02T20:36:30Z</time>
      </trkpt>
      <trkpt lat="39.935757" lon="3.141425">
        <ele>41.7</ele>
        <time>2020-06-02T20:36:31Z</time>
      </trkpt>
      <trkpt lat="39.935795" lon="3.141461">
        <ele>41.8</ele>
        <time>2020-06-02T20:36:32Z</time>
      </trkpt>
      <trkpt lat="39.935841" lon="3.141505">
        <ele>41.9</ele>
        <time>2020-06-02T20:36:33Z</time>
      </trkpt>
      <trkpt lat="39.93589" lon="3.14155">
        <ele>42</ele>
        <time>2020-06-02T20:36:34Z</time>
      </trkpt>
      <trkpt lat="39.935928" lon="3.14159">
        <ele>42</ele>
        <time>2020-06-02T20:36:35Z</time>
      </trkpt>
      <trkpt lat="39.93597" lon="3.141632">
        <ele>42.1</ele>
        <time>2020-06-02T20:36:36Z</time>
      </trkpt>
      <trkpt lat="39.936024" lon="3.141689">
        <ele>42.1</ele>
        <time>2020-06-02T20:36:37Z</time>
      </trkpt>
      <trkpt lat="39.936081" lon="3.141749">
        <ele>42.2</ele>
        <time>2020-06-02T20:36:39Z</time>
      </trkpt>
      <trkpt lat="39.93613" lon="3.1418">
        <ele>42.3</ele>
        <time>2020-06-02T20:36:40Z</time>
      </trkpt>
      <trkpt lat="39.936188" lon="3.141859">
        <ele>42.4</ele>
        <time>2020-06-02T20:36:41Z</time>
      </trkpt>
      <trkpt lat="39.936245" lon="3.141917">
        <ele>42.5</ele>
        <time>2020-06-02T20:36:42Z</time>
      </trkpt>
      <trkpt lat="39.936294" lon="3.141966">
        <ele>42.5</ele>
        <time>2020-06-02T20:36:43Z</time>
      </trkpt>
      <trkpt lat="39.936348" lon="3.142024">
        <ele>42.6</ele>
        <time>2020-06-02T20:36:44Z</time>
      </trkpt>
      <trkpt lat="39.936405" lon="3.142083">
        <ele>42.7</ele>
        <time>2020-06-02T20:36:45Z</time>
      </trkpt>
      <trkpt lat="39.936459" lon="3.14214">
        <ele>42.9</ele>
        <time>2020-06-02T20:36:47Z</time>
      </trkpt>
      <trkpt lat="39.936516" lon="3.142196">
        <ele>43</ele>
        <time>2020-06-02T20:36:48Z</time>
      </trkpt>
      <trkpt lat="39.936573" lon="3.142252">
        <ele>43.1</ele>
        <time>2020-06-02T20:36:49Z</time>
      </trkpt>
      <trkpt lat="39.936626" lon="3.142308">
        <ele>43.2</ele>
        <time>2020-06-02T20:36:50Z</time>
      </trkpt>
      <trkpt lat="39.936672" lon="3.142356">
        <ele>43.2</ele>
        <time>2020-06-02T20:36:51Z</time>
      </trkpt>
      <trkpt lat="39.936729" lon="3.142413">
        <ele>43.4</ele>
        <time>2020-06-02T20:36:52Z</time>
      </trkpt>
      <trkpt lat="39.936775" lon="3.142462">
        <ele>43.5</ele>
        <time>2020-06-02T20:36:53Z</time>
      </trkpt>
      <trkpt lat="39.936829" lon="3.14252">
        <ele>43.6</ele>
        <time>2020-06-02T20:36:55Z</time>
      </trkpt>
      <trkpt lat="39.936878" lon="3.142576">
        <ele>43.8</ele>
        <time>2020-06-02T20:36:56Z</time>
      </trkpt>
      <trkpt lat="39.93692" lon="3.142621">
        <ele>44</ele>
        <time>2020-06-02T20:36:57Z</time>
      </trkpt>
      <trkpt lat="39.936966" lon="3.142673">
        <ele>44.2</ele>
        <time>2020-06-02T20:36:58Z</time>
      </trkpt>
      <trkpt lat="39.937012" lon="3.142723">
        <ele>44.4</ele>
        <time>2020-06-02T20:36:59Z</time>
      </trkpt>
      <trkpt lat="39.937054" lon="3.142762">
        <ele>44.6</ele>
        <time>2020-06-02T20:37:00Z</time>
      </trkpt>
      <trkpt lat="39.937099" lon="3.142807">
        <ele>44.8</ele>
        <time>2020-06-02T20:37:01Z</time>
      </trkpt>
      <trkpt lat="39.937141" lon="3.142843">
        <ele>45</ele>
        <time>2020-06-02T20:37:02Z</time>
      </trkpt>
      <trkpt lat="39.93718" lon="3.142879">
        <ele>45.2</ele>
        <time>2020-06-02T20:37:03Z</time>
      </trkpt>
      <trkpt lat="39.937222" lon="3.142916">
        <ele>45.4</ele>
        <time>2020-06-02T20:37:04Z</time>
      </trkpt>
      <trkpt lat="39.937267" lon="3.142961">
        <ele>45.6</ele>
        <time>2020-06-02T20:37:06Z</time>
      </trkpt>
      <trkpt lat="39.937309" lon="3.142999">
        <ele>45.8</ele>
        <time>2020-06-02T20:37:07Z</time>
      </trkpt>
      <trkpt lat="39.937347" lon="3.14304">
        <ele>45.9</ele>
        <time>2020-06-02T20:37:08Z</time>
      </trkpt>
      <trkpt lat="39.937393" lon="3.143089">
        <ele>46</ele>
        <time>2020-06-02T20:37:09Z</time>
      </trkpt>
      <trkpt lat="39.937439" lon="3.143137">
        <ele>46.1</ele>
        <time>2020-06-02T20:37:10Z</time>
      </trkpt>
      <trkpt lat="39.937477" lon="3.143178">
        <ele>46.3</ele>
        <time>2020-06-02T20:37:11Z</time>
      </trkpt>
      <trkpt lat="39.937519" lon="3.143227">
        <ele>46.5</ele>
        <time>2020-06-02T20:37:12Z</time>
      </trkpt>
      <trkpt lat="39.937561" lon="3.143274">
        <ele>46.7</ele>
        <time>2020-06-02T20:37:13Z</time>
      </trkpt>
      <trkpt lat="39.937599" lon="3.143318">
        <ele>47</ele>
        <time>2020-06-02T20:37:15Z</time>
      </trkpt>
      <trkpt lat="39.937637" lon="3.14336">
        <ele>47.2</ele>
        <time>2020-06-02T20:37:16Z</time>
      </trkpt>
      <trkpt lat="39.937672" lon="3.143401">
        <ele>47.5</ele>
        <time>2020-06-02T20:37:17Z</time>
      </trkpt>
      <trkpt lat="39.937702" lon="3.143434">
        <ele>47.7</ele>
        <time>2020-06-02T20:37:18Z</time>
      </trkpt>
      <trkpt lat="39.937737" lon="3.143467">
        <ele>47.9</ele>
        <time>2020-06-02T20:37:19Z</time>
      </trkpt>
      <trkpt lat="39.937775" lon="3.143504">
        <ele>48.2</ele>
        <time>2020-06-02T20:37:20Z</time>
      </trkpt>
      <trkpt lat="39.937813" lon="3.143539">
        <ele>48.4</ele>
        <time>2020-06-02T20:37:21Z</time>
      </trkpt>
      <trkpt lat="39.937843" lon="3.143566">
        <ele>48.6</ele>
        <time>2020-06-02T20:37:22Z</time>
      </trkpt>
      <trkpt lat="39.937874" lon="3.143597">
        <ele>48.8</ele>
        <time>2020-06-02T20:37:24Z</time>
      </trkpt>
      <trkpt lat="39.937904" lon="3.143623">
        <ele>49</ele>
        <time>2020-06-02T20:37:25Z</time>
      </trkpt>
      <trkpt lat="39.937931" lon="3.14365">
        <ele>49.2</ele>
        <time>2020-06-02T20:37:26Z</time>
      </trkpt>
      <trkpt lat="39.937965" lon="3.143684">
        <ele>49.4</ele>
        <time>2020-06-02T20:37:27Z</time>
      </trkpt>
      <trkpt lat="39.938" lon="3.143722">
        <ele>49.7</ele>
        <time>2020-06-02T20:37:28Z</time>
      </trkpt>
      <trkpt lat="39.938038" lon="3.143764">
        <ele>50</ele>
        <time>2020-06-02T20:37:29Z</time>
      </trkpt>
      <trkpt lat="39.938076" lon="3.143812">
        <ele>50.4</ele>
        <time>2020-06-02T20:37:30Z</time>
      </trkpt>
      <trkpt lat="39.938106" lon="3.143852">
        <ele>50.6</ele>
        <time>2020-06-02T20:37:31Z</time>
      </trkpt>
      <trkpt lat="39.938145" lon="3.1439">
        <ele>51</ele>
        <time>2020-06-02T20:37:33Z</time>
      </trkpt>
      <trkpt lat="39.938175" lon="3.143939">
        <ele>51.2</ele>
        <time>2020-06-02T20:37:34Z</time>
      </trkpt>
      <trkpt lat="39.938209" lon="3.143978">
        <ele>51.4</ele>
        <time>2020-06-02T20:37:35Z</time>
      </trkpt>
      <trkpt lat="39.938244" lon="3.144025">
        <ele>51.7</ele>
        <time>2020-06-02T20:37:36Z</time>
      </trkpt>
      <trkpt lat="39.938278" lon="3.14407">
        <ele>52</ele>
        <time>2020-06-02T20:37:37Z</time>
      </trkpt>
      <trkpt lat="39.938313" lon="3.144113">
        <ele>52.2</ele>
        <time>2020-06-02T20:37:38Z</time>
      </trkpt>
      <trkpt lat="39.938343" lon="3.144155">
        <ele>52.5</ele>
        <time>2020-06-02T20:37:39Z</time>
      </trkpt>
      <trkpt lat="39.93837" lon="3.144189">
        <ele>52.7</ele>
        <time>2020-06-02T20:37:40Z</time>
      </trkpt>
      <trkpt lat="39.938404" lon="3.14423">
        <ele>52.9</ele>
        <time>2020-06-02T20:37:42Z</time>
      </trkpt>
      <trkpt lat="39.938435" lon="3.14427">
        <ele>53.1</ele>
        <time>2020-06-02T20:37:43Z</time>
      </trkpt>
      <trkpt lat="39.938465" lon="3.144312">
        <ele>53.3</ele>
        <time>2020-06-02T20:37:44Z</time>
      </trkpt>
      <trkpt lat="39.938496" lon="3.144356">
        <ele>53.5</ele>
        <time>2020-06-02T20:37:45Z</time>
      </trkpt>
      <trkpt lat="39.938522" lon="3.144394">
        <ele>53.7</ele>
        <time>2020-06-02T20:37:46Z</time>
      </trkpt>
      <trkpt lat="39.938545" lon="3.144431">
        <ele>53.8</ele>
        <time>2020-06-02T20:37:47Z</time>
      </trkpt>
      <trkpt lat="39.938572" lon="3.144477">
        <ele>54</ele>
        <time>2020-06-02T20:37:48Z</time>
      </trkpt>
      <trkpt lat="39.938595" lon="3.144515">
        <ele>54.1</ele>
        <time>2020-06-02T20:37:49Z</time>
      </trkpt>
      <trkpt lat="39.938625" lon="3.144561">
        <ele>54.3</ele>
        <time>2020-06-02T20:37:51Z</time>
      </trkpt>
      <trkpt lat="39.938656" lon="3.144609">
        <ele>54.4</ele>
        <time>2020-06-02T20:37:52Z</time>
      </trkpt>
      <trkpt lat="39.93869" lon="3.144658">
        <ele>54.5</ele>
        <time>2020-06-02T20:37:53Z</time>
      </trkpt>
      <trkpt lat="39.938721" lon="3.144703">
        <ele>54.7</ele>
        <time>2020-06-02T20:37:54Z</time>
      </trkpt>
      <trkpt lat="39.938763" lon="3.144761">
        <ele>54.8</ele>
        <time>2020-06-02T20:37:55Z</time>
      </trkpt>
      <trkpt lat="39.938797" lon="3.144813">
        <ele>54.8</ele>
        <time>2020-06-02T20:37:56Z</time>
      </trkpt>
      <trkpt lat="39.938839" lon="3.144878">
        <ele>54.8</ele>
        <time>2020-06-02T20:37:57Z</time>
      </trkpt>
      <trkpt lat="39.938881" lon="3.144943">
        <ele>54.8</ele>
        <time>2020-06-02T20:37:59Z</time>
      </trkpt>
      <trkpt lat="39.938919" lon="3.144998">
        <ele>54.8</ele>
        <time>2020-06-02T20:38:00Z</time>
      </trkpt>
      <trkpt lat="39.938957" lon="3.145063">
        <ele>54.8</ele>
        <time>2020-06-02T20:38:01Z</time>
      </trkpt>
      <trkpt lat="39.938999" lon="3.145129">
        <ele>54.7</ele>
        <time>2020-06-02T20:38:02Z</time>
      </trkpt>
      <trkpt lat="39.939041" lon="3.145199">
        <ele>54.6</ele>
        <time>2020-06-02T20:38:03Z</time>
      </trkpt>
      <trkpt lat="39.939083" lon="3.145275">
        <ele>54.5</ele>
        <time>2020-06-02T20:38:04Z</time>
      </trkpt>
      <trkpt lat="39.939129" lon="3.145359">
        <ele>54.4</ele>
        <time>2020-06-02T20:38:06Z</time>
      </trkpt>
      <trkpt lat="39.939167" lon="3.145434">
        <ele>54.3</ele>
        <time>2020-06-02T20:38:07Z</time>
      </trkpt>
      <trkpt lat="39.939209" lon="3.145511">
        <ele>54.3</ele>
        <time>2020-06-02T20:38:08Z</time>
      </trkpt>
      <trkpt lat="39.939262" lon="3.145605">
        <ele>54.2</ele>
        <time>2020-06-02T20:38:09Z</time>
      </trkpt>
      <trkpt lat="39.939312" lon="3.145684">
        <ele>54.2</ele>
        <time>2020-06-02T20:38:10Z</time>
      </trkpt>
      <trkpt lat="39.939362" lon="3.145766">
        <ele>54.3</ele>
        <time>2020-06-02T20:38:11Z</time>
      </trkpt>
      <trkpt lat="39.939411" lon="3.145849">
        <ele>54.3</ele>
        <time>2020-06-02T20:38:12Z</time>
      </trkpt>
      <trkpt lat="39.93948" lon="3.145948">
        <ele>54.4</ele>
        <time>2020-06-02T20:38:13Z</time>
      </trkpt>
      <trkpt lat="39.939545" lon="3.146041">
        <ele>54.5</ele>
        <time>2020-06-02T20:38:14Z</time>
      </trkpt>
      <trkpt lat="39.939602" lon="3.146118">
        <ele>54.7</ele>
        <time>2020-06-02T20:38:15Z</time>
      </trkpt>
      <trkpt lat="39.939663" lon="3.146209">
        <ele>54.9</ele>
        <time>2020-06-02T20:38:16Z</time>
      </trkpt>
      <trkpt lat="39.93972" lon="3.146302">
        <ele>55.1</ele>
        <time>2020-06-02T20:38:18Z</time>
      </trkpt>
      <trkpt lat="39.939774" lon="3.146389">
        <ele>55.2</ele>
        <time>2020-06-02T20:38:19Z</time>
      </trkpt>
      <trkpt lat="39.939823" lon="3.146469">
        <ele>55.3</ele>
        <time>2020-06-02T20:38:20Z</time>
      </trkpt>
      <trkpt lat="39.939865" lon="3.146531">
        <ele>55.4</ele>
        <time>2020-06-02T20:38:21Z</time>
      </trkpt>
      <trkpt lat="39.939911" lon="3.146604">
        <ele>55.6</ele>
        <time>2020-06-02T20:38:22Z</time>
      </trkpt>
      <trkpt lat="39.939949" lon="3.146665">
        <ele>55.7</ele>
        <time>2020-06-02T20:38:23Z</time>
      </trkpt>
      <trkpt lat="39.939995" lon="3.146738">
        <ele>55.8</ele>
        <time>2020-06-02T20:38:24Z</time>
      </trkpt>
      <trkpt lat="39.940041" lon="3.146813">
        <ele>55.9</ele>
        <time>2020-06-02T20:38:26Z</time>
      </trkpt>
      <trkpt lat="39.940083" lon="3.146892">
        <ele>56</ele>
        <time>2020-06-02T20:38:27Z</time>
      </trkpt>
      <trkpt lat="39.940117" lon="3.14696">
        <ele>56.1</ele>
        <time>2020-06-02T20:38:28Z</time>
      </trkpt>
      <trkpt lat="39.940151" lon="3.147046">
        <ele>56.3</ele>
        <time>2020-06-02T20:38:29Z</time>
      </trkpt>
      <trkpt lat="39.940189" lon="3.147134">
        <ele>56.4</ele>
        <time>2020-06-02T20:38:30Z</time>
      </trkpt>
      <trkpt lat="39.940231" lon="3.147221">
        <ele>56.6</ele>
        <time>2020-06-02T20:38:31Z</time>
      </trkpt>
      <trkpt lat="39.940266" lon="3.147293">
        <ele>56.7</ele>
        <time>2020-06-02T20:38:32Z</time>
      </trkpt>
      <trkpt lat="39.9403" lon="3.147362">
        <ele>56.8</ele>
        <time>2020-06-02T20:38:33Z</time>
      </trkpt>
      <trkpt lat="39.940346" lon="3.147441">
        <ele>56.9</ele>
        <time>2020-06-02T20:38:35Z</time>
      </trkpt>
      <trkpt lat="39.940384" lon="3.147506">
        <ele>57</ele>
        <time>2020-06-02T20:38:36Z</time>
      </trkpt>
      <trkpt lat="39.940418" lon="3.147569">
        <ele>57.1</ele>
        <time>2020-06-02T20:38:37Z</time>
      </trkpt>
      <trkpt lat="39.940453" lon="3.147633">
        <ele>57.2</ele>
        <time>2020-06-02T20:38:38Z</time>
      </trkpt>
      <trkpt lat="39.940494" lon="3.147709">
        <ele>57.3</ele>
        <time>2020-06-02T20:38:39Z</time>
      </trkpt>
      <trkpt lat="39.940533" lon="3.147786">
        <ele>57.4</ele>
        <time>2020-06-02T20:38:40Z</time>
      </trkpt>
      <trkpt lat="39.940575" lon="3.147863">
        <ele>57.4</ele>
        <time>2020-06-02T20:38:41Z</time>
      </trkpt>
      <trkpt lat="39.94062" lon="3.14794">
        <ele>57.5</ele>
        <time>2020-06-02T20:38:42Z</time>
      </trkpt>
      <trkpt lat="39.940659" lon="3.148004">
        <ele>57.6</ele>
        <time>2020-06-02T20:38:43Z</time>
      </trkpt>
      <trkpt lat="39.940704" lon="3.148081">
        <ele>57.7</ele>
        <time>2020-06-02T20:38:45Z</time>
      </trkpt>
      <trkpt lat="39.940746" lon="3.148146">
        <ele>57.8</ele>
        <time>2020-06-02T20:38:46Z</time>
      </trkpt>
      <trkpt lat="39.940792" lon="3.148224">
        <ele>57.9</ele>
        <time>2020-06-02T20:38:47Z</time>
      </trkpt>
      <trkpt lat="39.94083" lon="3.14829">
        <ele>58</ele>
        <time>2020-06-02T20:38:48Z</time>
      </trkpt>
      <trkpt lat="39.940872" lon="3.148371">
        <ele>58.1</ele>
        <time>2020-06-02T20:38:49Z</time>
      </trkpt>
      <trkpt lat="39.940918" lon="3.148456">
        <ele>58.2</ele>
        <time>2020-06-02T20:38:50Z</time>
      </trkpt>
      <trkpt lat="39.940968" lon="3.148543">
        <ele>58.3</ele>
        <time>2020-06-02T20:38:51Z</time>
      </trkpt>
      <trkpt lat="39.941009" lon="3.148616">
        <ele>58.4</ele>
        <time>2020-06-02T20:38:52Z</time>
      </trkpt>
      <trkpt lat="39.941059" lon="3.148703">
        <ele>58.6</ele>
        <time>2020-06-02T20:38:54Z</time>
      </trkpt>
      <trkpt lat="39.941105" lon="3.148789">
        <ele>58.7</ele>
        <time>2020-06-02T20:38:55Z</time>
      </trkpt>
      <trkpt lat="39.941151" lon="3.148873">
        <ele>58.8</ele>
        <time>2020-06-02T20:38:56Z</time>
      </trkpt>
      <trkpt lat="39.941196" lon="3.148955">
        <ele>58.9</ele>
        <time>2020-06-02T20:38:57Z</time>
      </trkpt>
      <trkpt lat="39.941235" lon="3.149024">
        <ele>59</ele>
        <time>2020-06-02T20:38:58Z</time>
      </trkpt>
      <trkpt lat="39.941269" lon="3.149091">
        <ele>59.1</ele>
        <time>2020-06-02T20:38:59Z</time>
      </trkpt>
      <trkpt lat="39.941315" lon="3.149173">
        <ele>59.3</ele>
        <time>2020-06-02T20:39:00Z</time>
      </trkpt>
      <trkpt lat="39.941357" lon="3.149254">
        <ele>59.5</ele>
        <time>2020-06-02T20:39:02Z</time>
      </trkpt>
      <trkpt lat="39.941391" lon="3.149321">
        <ele>59.7</ele>
        <time>2020-06-02T20:39:03Z</time>
      </trkpt>
      <trkpt lat="39.941433" lon="3.149394">
        <ele>59.8</ele>
        <time>2020-06-02T20:39:04Z</time>
      </trkpt>
      <trkpt lat="39.941475" lon="3.149458">
        <ele>60</ele>
        <time>2020-06-02T20:39:05Z</time>
      </trkpt>
      <trkpt lat="39.941513" lon="3.149517">
        <ele>60.1</ele>
        <time>2020-06-02T20:39:06Z</time>
      </trkpt>
      <trkpt lat="39.941547" lon="3.149574">
        <ele>60.3</ele>
        <time>2020-06-02T20:39:07Z</time>
      </trkpt>
      <trkpt lat="39.941578" lon="3.14962">
        <ele>60.5</ele>
        <time>2020-06-02T20:39:08Z</time>
      </trkpt>
      <trkpt lat="39.941608" lon="3.149662">
        <ele>60.6</ele>
        <time>2020-06-02T20:39:09Z</time>
      </trkpt>
      <trkpt lat="39.941631" lon="3.1497">
        <ele>60.8</ele>
        <time>2020-06-02T20:39:10Z</time>
      </trkpt>
      <trkpt lat="39.941658" lon="3.149739">
        <ele>60.9</ele>
        <time>2020-06-02T20:39:12Z</time>
      </trkpt>
      <trkpt lat="39.941677" lon="3.149768">
        <ele>61</ele>
        <time>2020-06-02T20:39:13Z</time>
      </trkpt>
      <trkpt lat="39.9417" lon="3.149801">
        <ele>61</ele>
        <time>2020-06-02T20:39:14Z</time>
      </trkpt>
      <trkpt lat="39.941719" lon="3.149836">
        <ele>61.2</ele>
        <time>2020-06-02T20:39:15Z</time>
      </trkpt>
      <trkpt lat="39.941742" lon="3.149867">
        <ele>61.3</ele>
        <time>2020-06-02T20:39:16Z</time>
      </trkpt>
      <trkpt lat="39.941765" lon="3.149908">
        <ele>61.4</ele>
        <time>2020-06-02T20:39:17Z</time>
      </trkpt>
      <trkpt lat="39.941792" lon="3.149953">
        <ele>61.5</ele>
        <time>2020-06-02T20:39:18Z</time>
      </trkpt>
      <trkpt lat="39.941814" lon="3.150005">
        <ele>61.7</ele>
        <time>2020-06-02T20:39:20Z</time>
      </trkpt>
      <trkpt lat="39.941841" lon="3.150062">
        <ele>61.9</ele>
        <time>2020-06-02T20:39:21Z</time>
      </trkpt>
      <trkpt lat="39.941872" lon="3.150124">
        <ele>62.1</ele>
        <time>2020-06-02T20:39:22Z</time>
      </trkpt>
      <trkpt lat="39.941902" lon="3.150187">
        <ele>62.4</ele>
        <time>2020-06-02T20:39:23Z</time>
      </trkpt>
      <trkpt lat="39.941936" lon="3.15025">
        <ele>62.6</ele>
        <time>2020-06-02T20:39:24Z</time>
      </trkpt>
      <trkpt lat="39.941967" lon="3.150311">
        <ele>62.8</ele>
        <time>2020-06-02T20:39:26Z</time>
      </trkpt>
      <trkpt lat="39.942001" lon="3.150371">
        <ele>63</ele>
        <time>2020-06-02T20:39:27Z</time>
      </trkpt>
      <trkpt lat="39.942036" lon="3.150429">
        <ele>63.2</ele>
        <time>2020-06-02T20:39:28Z</time>
      </trkpt>
      <trkpt lat="39.942062" lon="3.150477">
        <ele>63.3</ele>
        <time>2020-06-02T20:39:29Z</time>
      </trkpt>
      <trkpt lat="39.942097" lon="3.150534">
        <ele>63.5</ele>
        <time>2020-06-02T20:39:30Z</time>
      </trkpt>
      <trkpt lat="39.942123" lon="3.150582">
        <ele>63.6</ele>
        <time>2020-06-02T20:39:31Z</time>
      </trkpt>
      <trkpt lat="39.942158" lon="3.150639">
        <ele>63.7</ele>
        <time>2020-06-02T20:39:32Z</time>
      </trkpt>
      <trkpt lat="39.942192" lon="3.150696">
        <ele>63.8</ele>
        <time>2020-06-02T20:39:34Z</time>
      </trkpt>
      <trkpt lat="39.942223" lon="3.150744">
        <ele>64</ele>
        <time>2020-06-02T20:39:35Z</time>
      </trkpt>
      <trkpt lat="39.942257" lon="3.150793">
        <ele>64.1</ele>
        <time>2020-06-02T20:39:36Z</time>
      </trkpt>
      <trkpt lat="39.942284" lon="3.150841">
        <ele>64.2</ele>
        <time>2020-06-02T20:39:37Z</time>
      </trkpt>
      <trkpt lat="39.942314" lon="3.15089">
        <ele>64.3</ele>
        <time>2020-06-02T20:39:38Z</time>
      </trkpt>
      <trkpt lat="39.942348" lon="3.150947">
        <ele>64.4</ele>
        <time>2020-06-02T20:39:39Z</time>
      </trkpt>
      <trkpt lat="39.942379" lon="3.150995">
        <ele>64.6</ele>
        <time>2020-06-02T20:39:40Z</time>
      </trkpt>
      <trkpt lat="39.942409" lon="3.151051">
        <ele>64.7</ele>
        <time>2020-06-02T20:39:41Z</time>
      </trkpt>
      <trkpt lat="39.942444" lon="3.151107">
        <ele>64.8</ele>
        <time>2020-06-02T20:39:42Z</time>
      </trkpt>
      <trkpt lat="39.942471" lon="3.151152">
        <ele>65</ele>
        <time>2020-06-02T20:39:43Z</time>
      </trkpt>
      <trkpt lat="39.942501" lon="3.151205">
        <ele>65.1</ele>
        <time>2020-06-02T20:39:44Z</time>
      </trkpt>
      <trkpt lat="39.942528" lon="3.15125">
        <ele>65.2</ele>
        <time>2020-06-02T20:39:45Z</time>
      </trkpt>
      <trkpt lat="39.942554" lon="3.151296">
        <ele>65.3</ele>
        <time>2020-06-02T20:39:46Z</time>
      </trkpt>
      <trkpt lat="39.942589" lon="3.151351">
        <ele>65.4</ele>
        <time>2020-06-02T20:39:48Z</time>
      </trkpt>
      <trkpt lat="39.942623" lon="3.151411">
        <ele>65.5</ele>
        <time>2020-06-02T20:39:49Z</time>
      </trkpt>
      <trkpt lat="39.942654" lon="3.151463">
        <ele>65.5</ele>
        <time>2020-06-02T20:39:50Z</time>
      </trkpt>
      <trkpt lat="39.942692" lon="3.151529">
        <ele>65.6</ele>
        <time>2020-06-02T20:39:51Z</time>
      </trkpt>
      <trkpt lat="39.94273" lon="3.1516">
        <ele>65.7</ele>
        <time>2020-06-02T20:39:52Z</time>
      </trkpt>
      <trkpt lat="39.942764" lon="3.151661">
        <ele>65.7</ele>
        <time>2020-06-02T20:39:53Z</time>
      </trkpt>
      <trkpt lat="39.942802" lon="3.151737">
        <ele>65.8</ele>
        <time>2020-06-02T20:39:54Z</time>
      </trkpt>
      <trkpt lat="39.942833" lon="3.151803">
        <ele>65.8</ele>
        <time>2020-06-02T20:39:55Z</time>
      </trkpt>
      <trkpt lat="39.942875" lon="3.151882">
        <ele>65.8</ele>
        <time>2020-06-02T20:39:57Z</time>
      </trkpt>
      <trkpt lat="39.942913" lon="3.151962">
        <ele>65.9</ele>
        <time>2020-06-02T20:39:58Z</time>
      </trkpt>
      <trkpt lat="39.942955" lon="3.152041">
        <ele>65.9</ele>
        <time>2020-06-02T20:39:59Z</time>
      </trkpt>
      <trkpt lat="39.942989" lon="3.152107">
        <ele>66</ele>
        <time>2020-06-02T20:40:00Z</time>
      </trkpt>
      <trkpt lat="39.943039" lon="3.152187">
        <ele>66</ele>
        <time>2020-06-02T20:40:01Z</time>
      </trkpt>
      <trkpt lat="39.943085" lon="3.152267">
        <ele>66.1</ele>
        <time>2020-06-02T20:40:02Z</time>
      </trkpt>
      <trkpt lat="39.943123" lon="3.152335">
        <ele>66.2</ele>
        <time>2020-06-02T20:40:03Z</time>
      </trkpt>
      <trkpt lat="39.943169" lon="3.152414">
        <ele>66.2</ele>
        <time>2020-06-02T20:40:05Z</time>
      </trkpt>
      <trkpt lat="39.943207" lon="3.152478">
        <ele>66.3</ele>
        <time>2020-06-02T20:40:06Z</time>
      </trkpt>
      <trkpt lat="39.943249" lon="3.152553">
        <ele>66.3</ele>
        <time>2020-06-02T20:40:07Z</time>
      </trkpt>
      <trkpt lat="39.943294" lon="3.152629">
        <ele>66.4</ele>
        <time>2020-06-02T20:40:08Z</time>
      </trkpt>
      <trkpt lat="39.943336" lon="3.152705">
        <ele>66.4</ele>
        <time>2020-06-02T20:40:09Z</time>
      </trkpt>
      <trkpt lat="39.943375" lon="3.152768">
        <ele>66.5</ele>
        <time>2020-06-02T20:40:10Z</time>
      </trkpt>
      <trkpt lat="39.943417" lon="3.152844">
        <ele>66.6</ele>
        <time>2020-06-02T20:40:11Z</time>
      </trkpt>
      <trkpt lat="39.943458" lon="3.152918">
        <ele>66.7</ele>
        <time>2020-06-02T20:40:13Z</time>
      </trkpt>
      <trkpt lat="39.9435" lon="3.15299">
        <ele>66.8</ele>
        <time>2020-06-02T20:40:14Z</time>
      </trkpt>
      <trkpt lat="39.943531" lon="3.153046">
        <ele>66.9</ele>
        <time>2020-06-02T20:40:15Z</time>
      </trkpt>
      <trkpt lat="39.943565" lon="3.153109">
        <ele>67</ele>
        <time>2020-06-02T20:40:16Z</time>
      </trkpt>
      <trkpt lat="39.9436" lon="3.153167">
        <ele>67.1</ele>
        <time>2020-06-02T20:40:17Z</time>
      </trkpt>
      <trkpt lat="39.94363" lon="3.153213">
        <ele>67.2</ele>
        <time>2020-06-02T20:40:18Z</time>
      </trkpt>
      <trkpt lat="39.943661" lon="3.153269">
        <ele>67.3</ele>
        <time>2020-06-02T20:40:19Z</time>
      </trkpt>
      <trkpt lat="39.943699" lon="3.153326">
        <ele>67.4</ele>
        <time>2020-06-02T20:40:21Z</time>
      </trkpt>
      <trkpt lat="39.943733" lon="3.153386">
        <ele>67.6</ele>
        <time>2020-06-02T20:40:22Z</time>
      </trkpt>
      <trkpt lat="39.943771" lon="3.153451">
        <ele>67.7</ele>
        <time>2020-06-02T20:40:23Z</time>
      </trkpt>
      <trkpt lat="39.943806" lon="3.153508">
        <ele>67.9</ele>
        <time>2020-06-02T20:40:24Z</time>
      </trkpt>
      <trkpt lat="39.94384" lon="3.153567">
        <ele>68</ele>
        <time>2020-06-02T20:40:25Z</time>
      </trkpt>
      <trkpt lat="39.943882" lon="3.153638">
        <ele>68.2</ele>
        <time>2020-06-02T20:40:26Z</time>
      </trkpt>
      <trkpt lat="39.94392" lon="3.153712">
        <ele>68.4</ele>
        <time>2020-06-02T20:40:27Z</time>
      </trkpt>
      <trkpt lat="39.943958" lon="3.153787">
        <ele>68.6</ele>
        <time>2020-06-02T20:40:29Z</time>
      </trkpt>
      <trkpt lat="39.943996" lon="3.153856">
        <ele>68.8</ele>
        <time>2020-06-02T20:40:30Z</time>
      </trkpt>
      <trkpt lat="39.944031" lon="3.153918">
        <ele>69</ele>
        <time>2020-06-02T20:40:31Z</time>
      </trkpt>
      <trkpt lat="39.944061" lon="3.153974">
        <ele>69.2</ele>
        <time>2020-06-02T20:40:32Z</time>
      </trkpt>
      <trkpt lat="39.944088" lon="3.154018">
        <ele>69.3</ele>
        <time>2020-06-02T20:40:33Z</time>
      </trkpt>
      <trkpt lat="39.944122" lon="3.154069">
        <ele>69.4</ele>
        <time>2020-06-02T20:40:34Z</time>
      </trkpt>
      <trkpt lat="39.94416" lon="3.154119">
        <ele>69.6</ele>
        <time>2020-06-02T20:40:36Z</time>
      </trkpt>
      <trkpt lat="39.944195" lon="3.15417">
        <ele>69.7</ele>
        <time>2020-06-02T20:40:37Z</time>
      </trkpt>
      <trkpt lat="39.944225" lon="3.154222">
        <ele>69.9</ele>
        <time>2020-06-02T20:40:38Z</time>
      </trkpt>
      <trkpt lat="39.94426" lon="3.154276">
        <ele>70</ele>
        <time>2020-06-02T20:40:39Z</time>
      </trkpt>
      <trkpt lat="39.944286" lon="3.154323">
        <ele>70.1</ele>
        <time>2020-06-02T20:40:40Z</time>
      </trkpt>
      <trkpt lat="39.944321" lon="3.154381">
        <ele>70.3</ele>
        <time>2020-06-02T20:40:41Z</time>
      </trkpt>
      <trkpt lat="39.944351" lon="3.154442">
        <ele>70.4</ele>
        <time>2020-06-02T20:40:43Z</time>
      </trkpt>
      <trkpt lat="39.944382" lon="3.154505">
        <ele>70.6</ele>
        <time>2020-06-02T20:40:44Z</time>
      </trkpt>
      <trkpt lat="39.944416" lon="3.15457">
        <ele>70.7</ele>
        <time>2020-06-02T20:40:45Z</time>
      </trkpt>
      <trkpt lat="39.94445" lon="3.154637">
        <ele>70.9</ele>
        <time>2020-06-02T20:40:46Z</time>
      </trkpt>
      <trkpt lat="39.944488" lon="3.15471">
        <ele>71</ele>
        <time>2020-06-02T20:40:47Z</time>
      </trkpt>
      <trkpt lat="39.944527" lon="3.154777">
        <ele>71.1</ele>
        <time>2020-06-02T20:40:48Z</time>
      </trkpt>
      <trkpt lat="39.944576" lon="3.154867">
        <ele>71.2</ele>
        <time>2020-06-02T20:40:50Z</time>
      </trkpt>
      <trkpt lat="39.94463" lon="3.154963">
        <ele>71.4</ele>
        <time>2020-06-02T20:40:51Z</time>
      </trkpt>
      <trkpt lat="39.944683" lon="3.15506">
        <ele>71.6</ele>
        <time>2020-06-02T20:40:52Z</time>
      </trkpt>
      <trkpt lat="39.944736" lon="3.155154">
        <ele>71.8</ele>
        <time>2020-06-02T20:40:53Z</time>
      </trkpt>
      <trkpt lat="39.944778" lon="3.155229">
        <ele>72</ele>
        <time>2020-06-02T20:40:54Z</time>
      </trkpt>
      <trkpt lat="39.944824" lon="3.155316">
        <ele>72.2</ele>
        <time>2020-06-02T20:40:55Z</time>
      </trkpt>
      <trkpt lat="39.94487" lon="3.155398">
        <ele>72.2</ele>
        <time>2020-06-02T20:40:57Z</time>
      </trkpt>
      <trkpt lat="39.944916" lon="3.155474">
        <ele>72.2</ele>
        <time>2020-06-02T20:40:58Z</time>
      </trkpt>
      <trkpt lat="39.944958" lon="3.155546">
        <ele>72.2</ele>
        <time>2020-06-02T20:40:59Z</time>
      </trkpt>
      <trkpt lat="39.944996" lon="3.155614">
        <ele>72.2</ele>
        <time>2020-06-02T20:41:00Z</time>
      </trkpt>
      <trkpt lat="39.94503" lon="3.155669">
        <ele>72.2</ele>
        <time>2020-06-02T20:41:01Z</time>
      </trkpt>
      <trkpt lat="39.945064" lon="3.155721">
        <ele>72.3</ele>
        <time>2020-06-02T20:41:02Z</time>
      </trkpt>
      <trkpt lat="39.945095" lon="3.155771">
        <ele>72.3</ele>
        <time>2020-06-02T20:41:03Z</time>
      </trkpt>
      <trkpt lat="39.945133" lon="3.155832">
        <ele>72.3</ele>
        <time>2020-06-02T20:41:04Z</time>
      </trkpt>
      <trkpt lat="39.945171" lon="3.155895">
        <ele>72.3</ele>
        <time>2020-06-02T20:41:06Z</time>
      </trkpt>
      <trkpt lat="39.945202" lon="3.155949">
        <ele>72.3</ele>
        <time>2020-06-02T20:41:07Z</time>
      </trkpt>
      <trkpt lat="39.94524" lon="3.156016">
        <ele>72.3</ele>
        <time>2020-06-02T20:41:08Z</time>
      </trkpt>
      <trkpt lat="39.945278" lon="3.156089">
        <ele>72.3</ele>
        <time>2020-06-02T20:41:09Z</time>
      </trkpt>
      <trkpt lat="39.94532" lon="3.156167">
        <ele>72.3</ele>
        <time>2020-06-02T20:41:10Z</time>
      </trkpt>
      <trkpt lat="39.945362" lon="3.156248">
        <ele>72.3</ele>
        <time>2020-06-02T20:41:11Z</time>
      </trkpt>
      <trkpt lat="39.945408" lon="3.156332">
        <ele>72.3</ele>
        <time>2020-06-02T20:41:13Z</time>
      </trkpt>
      <trkpt lat="39.945454" lon="3.156415">
        <ele>72.3</ele>
        <time>2020-06-02T20:41:14Z</time>
      </trkpt>
      <trkpt lat="39.945499" lon="3.156499">
        <ele>72.3</ele>
        <time>2020-06-02T20:41:15Z</time>
      </trkpt>
      <trkpt lat="39.945541" lon="3.156569">
        <ele>72.3</ele>
        <time>2020-06-02T20:41:16Z</time>
      </trkpt>
      <trkpt lat="39.945587" lon="3.156652">
        <ele>72.4</ele>
        <time>2020-06-02T20:41:17Z</time>
      </trkpt>
      <trkpt lat="39.945625" lon="3.156722">
        <ele>72.4</ele>
        <time>2020-06-02T20:41:18Z</time>
      </trkpt>
      <trkpt lat="39.945675" lon="3.156804">
        <ele>72.5</ele>
        <time>2020-06-02T20:41:19Z</time>
      </trkpt>
      <trkpt lat="39.945721" lon="3.156883">
        <ele>72.5</ele>
        <time>2020-06-02T20:41:21Z</time>
      </trkpt>
      <trkpt lat="39.945766" lon="3.15696">
        <ele>72.6</ele>
        <time>2020-06-02T20:41:22Z</time>
      </trkpt>
      <trkpt lat="39.945808" lon="3.157035">
        <ele>72.7</ele>
        <time>2020-06-02T20:41:23Z</time>
      </trkpt>
      <trkpt lat="39.945854" lon="3.15711">
        <ele>72.8</ele>
        <time>2020-06-02T20:41:24Z</time>
      </trkpt>
      <trkpt lat="39.945888" lon="3.157173">
        <ele>72.9</ele>
        <time>2020-06-02T20:41:25Z</time>
      </trkpt>
      <trkpt lat="39.945934" lon="3.157246">
        <ele>73</ele>
        <time>2020-06-02T20:41:26Z</time>
      </trkpt>
      <trkpt lat="39.945969" lon="3.157307">
        <ele>73.1</ele>
        <time>2020-06-02T20:41:27Z</time>
      </trkpt>
      <trkpt lat="39.946011" lon="3.15738">
        <ele>73.2</ele>
        <time>2020-06-02T20:41:29Z</time>
      </trkpt>
      <trkpt lat="39.946056" lon="3.157455">
        <ele>73.3</ele>
        <time>2020-06-02T20:41:30Z</time>
      </trkpt>
      <trkpt lat="39.946091" lon="3.157518">
        <ele>73.4</ele>
        <time>2020-06-02T20:41:31Z</time>
      </trkpt>
      <trkpt lat="39.946133" lon="3.157593">
        <ele>73.5</ele>
        <time>2020-06-02T20:41:32Z</time>
      </trkpt>
      <trkpt lat="39.946175" lon="3.157668">
        <ele>73.6</ele>
        <time>2020-06-02T20:41:33Z</time>
      </trkpt>
      <trkpt lat="39.946213" lon="3.157742">
        <ele>73.8</ele>
        <time>2020-06-02T20:41:34Z</time>
      </trkpt>
      <trkpt lat="39.946247" lon="3.157804">
        <ele>73.9</ele>
        <time>2020-06-02T20:41:35Z</time>
      </trkpt>
      <trkpt lat="39.946289" lon="3.157878">
        <ele>74</ele>
        <time>2020-06-02T20:41:37Z</time>
      </trkpt>
      <trkpt lat="39.946331" lon="3.157951">
        <ele>74.2</ele>
        <time>2020-06-02T20:41:38Z</time>
      </trkpt>
      <trkpt lat="39.946365" lon="3.158011">
        <ele>74.4</ele>
        <time>2020-06-02T20:41:39Z</time>
      </trkpt>
      <trkpt lat="39.946403" lon="3.15808">
        <ele>74.6</ele>
        <time>2020-06-02T20:41:40Z</time>
      </trkpt>
      <trkpt lat="39.946438" lon="3.158136">
        <ele>74.8</ele>
        <time>2020-06-02T20:41:41Z</time>
      </trkpt>
      <trkpt lat="39.946472" lon="3.158203">
        <ele>75</ele>
        <time>2020-06-02T20:41:42Z</time>
      </trkpt>
      <trkpt lat="39.946506" lon="3.15827">
        <ele>75.3</ele>
        <time>2020-06-02T20:41:43Z</time>
      </trkpt>
      <trkpt lat="39.946537" lon="3.158326">
        <ele>75.5</ele>
        <time>2020-06-02T20:41:44Z</time>
      </trkpt>
      <trkpt lat="39.946571" lon="3.158393">
        <ele>75.9</ele>
        <time>2020-06-02T20:41:46Z</time>
      </trkpt>
      <trkpt lat="39.946598" lon="3.15845">
        <ele>76.1</ele>
        <time>2020-06-02T20:41:47Z</time>
      </trkpt>
      <trkpt lat="39.946625" lon="3.158505">
        <ele>76.4</ele>
        <time>2020-06-02T20:41:48Z</time>
      </trkpt>
      <trkpt lat="39.946659" lon="3.158568">
        <ele>76.7</ele>
        <time>2020-06-02T20:41:49Z</time>
      </trkpt>
      <trkpt lat="39.946693" lon="3.158628">
        <ele>77.1</ele>
        <time>2020-06-02T20:41:50Z</time>
      </trkpt>
      <trkpt lat="39.946728" lon="3.158686">
        <ele>77.4</ele>
        <time>2020-06-02T20:41:51Z</time>
      </trkpt>
      <trkpt lat="39.946758" lon="3.158744">
        <ele>77.7</ele>
        <time>2020-06-02T20:41:52Z</time>
      </trkpt>
      <trkpt lat="39.946789" lon="3.1588">
        <ele>77.9</ele>
        <time>2020-06-02T20:41:54Z</time>
      </trkpt>
      <trkpt lat="39.946815" lon="3.158855">
        <ele>78.2</ele>
        <time>2020-06-02T20:41:55Z</time>
      </trkpt>
      <trkpt lat="39.946842" lon="3.158911">
        <ele>78.5</ele>
        <time>2020-06-02T20:41:56Z</time>
      </trkpt>
      <trkpt lat="39.946869" lon="3.158966">
        <ele>78.7</ele>
        <time>2020-06-02T20:41:57Z</time>
      </trkpt>
      <trkpt lat="39.946896" lon="3.159018">
        <ele>79</ele>
        <time>2020-06-02T20:41:58Z</time>
      </trkpt>
      <trkpt lat="39.946918" lon="3.15906">
        <ele>79.2</ele>
        <time>2020-06-02T20:41:59Z</time>
      </trkpt>
      <trkpt lat="39.946937" lon="3.1591">
        <ele>79.5</ele>
        <time>2020-06-02T20:42:00Z</time>
      </trkpt>
      <trkpt lat="39.94696" lon="3.15914">
        <ele>79.7</ele>
        <time>2020-06-02T20:42:01Z</time>
      </trkpt>
      <trkpt lat="39.946987" lon="3.159187">
        <ele>79.9</ele>
        <time>2020-06-02T20:42:03Z</time>
      </trkpt>
      <trkpt lat="39.94701" lon="3.159225">
        <ele>80.1</ele>
        <time>2020-06-02T20:42:04Z</time>
      </trkpt>
      <trkpt lat="39.947037" lon="3.159271">
        <ele>80.4</ele>
        <time>2020-06-02T20:42:05Z</time>
      </trkpt>
      <trkpt lat="39.94706" lon="3.159311">
        <ele>80.6</ele>
        <time>2020-06-02T20:42:06Z</time>
      </trkpt>
      <trkpt lat="39.94709" lon="3.159359">
        <ele>80.9</ele>
        <time>2020-06-02T20:42:07Z</time>
      </trkpt>
      <trkpt lat="39.947117" lon="3.159407">
        <ele>81.1</ele>
        <time>2020-06-02T20:42:08Z</time>
      </trkpt>
      <trkpt lat="39.947144" lon="3.159448">
        <ele>81.4</ele>
        <time>2020-06-02T20:42:09Z</time>
      </trkpt>
      <trkpt lat="39.94717" lon="3.159495">
        <ele>81.6</ele>
        <time>2020-06-02T20:42:10Z</time>
      </trkpt>
      <trkpt lat="39.947189" lon="3.159535">
        <ele>81.8</ele>
        <time>2020-06-02T20:42:11Z</time>
      </trkpt>
      <trkpt lat="39.947212" lon="3.159574">
        <ele>82</ele>
        <time>2020-06-02T20:42:12Z</time>
      </trkpt>
      <trkpt lat="39.947235" lon="3.159621">
        <ele>82.2</ele>
        <time>2020-06-02T20:42:14Z</time>
      </trkpt>
      <trkpt lat="39.947258" lon="3.159669">
        <ele>82.4</ele>
        <time>2020-06-02T20:42:15Z</time>
      </trkpt>
      <trkpt lat="39.947277" lon="3.159711">
        <ele>82.6</ele>
        <time>2020-06-02T20:42:16Z</time>
      </trkpt>
      <trkpt lat="39.947304" lon="3.159762">
        <ele>82.8</ele>
        <time>2020-06-02T20:42:17Z</time>
      </trkpt>
      <trkpt lat="39.947323" lon="3.159806">
        <ele>83</ele>
        <time>2020-06-02T20:42:18Z</time>
      </trkpt>
      <trkpt lat="39.94735" lon="3.159857">
        <ele>83.2</ele>
        <time>2020-06-02T20:42:19Z</time>
      </trkpt>
      <trkpt lat="39.947369" lon="3.159901">
        <ele>83.4</ele>
        <time>2020-06-02T20:42:20Z</time>
      </trkpt>
      <trkpt lat="39.947395" lon="3.159954">
        <ele>83.6</ele>
        <time>2020-06-02T20:42:21Z</time>
      </trkpt>
      <trkpt lat="39.947422" lon="3.160002">
        <ele>83.8</ele>
        <time>2020-06-02T20:42:22Z</time>
      </trkpt>
      <trkpt lat="39.947449" lon="3.16006">
        <ele>84</ele>
        <time>2020-06-02T20:42:24Z</time>
      </trkpt>
      <trkpt lat="39.947479" lon="3.160119">
        <ele>84.2</ele>
        <time>2020-06-02T20:42:25Z</time>
      </trkpt>
      <trkpt lat="39.947514" lon="3.160179">
        <ele>84.4</ele>
        <time>2020-06-02T20:42:26Z</time>
      </trkpt>
      <trkpt lat="39.947548" lon="3.16023">
        <ele>84.6</ele>
        <time>2020-06-02T20:42:27Z</time>
      </trkpt>
      <trkpt lat="39.947578" lon="3.160285">
        <ele>84.7</ele>
        <time>2020-06-02T20:42:28Z</time>
      </trkpt>
      <trkpt lat="39.94762" lon="3.160351">
        <ele>85</ele>
        <time>2020-06-02T20:42:29Z</time>
      </trkpt>
      <trkpt lat="39.947651" lon="3.160407">
        <ele>85.2</ele>
        <time>2020-06-02T20:42:30Z</time>
      </trkpt>
      <trkpt lat="39.947685" lon="3.160476">
        <ele>85.4</ele>
        <time>2020-06-02T20:42:31Z</time>
      </trkpt>
      <trkpt lat="39.947704" lon="3.160538">
        <ele>85.6</ele>
        <time>2020-06-02T20:42:32Z</time>
      </trkpt>
      <trkpt lat="39.947712" lon="3.160603">
        <ele>85.7</ele>
        <time>2020-06-02T20:42:34Z</time>
      </trkpt>
      <trkpt lat="39.947716" lon="3.160668">
        <ele>85.9</ele>
        <time>2020-06-02T20:42:35Z</time>
      </trkpt>
      <trkpt lat="39.947723" lon="3.160749">
        <ele>86.1</ele>
        <time>2020-06-02T20:42:36Z</time>
      </trkpt>
      <trkpt lat="39.947731" lon="3.160828">
        <ele>86.3</ele>
        <time>2020-06-02T20:42:37Z</time>
      </trkpt>
      <trkpt lat="39.947735" lon="3.160906">
        <ele>86.5</ele>
        <time>2020-06-02T20:42:38Z</time>
      </trkpt>
      <trkpt lat="39.947731" lon="3.16097">
        <ele>86.6</ele>
        <time>2020-06-02T20:42:39Z</time>
      </trkpt>
      <trkpt lat="39.947727" lon="3.161044">
        <ele>86.8</ele>
        <time>2020-06-02T20:42:40Z</time>
      </trkpt>
      <trkpt lat="39.94772" lon="3.161117">
        <ele>86.9</ele>
        <time>2020-06-02T20:42:42Z</time>
      </trkpt>
      <trkpt lat="39.94772" lon="3.16119">
        <ele>87</ele>
        <time>2020-06-02T20:42:43Z</time>
      </trkpt>
      <trkpt lat="39.947716" lon="3.161264">
        <ele>87.2</ele>
        <time>2020-06-02T20:42:44Z</time>
      </trkpt>
      <trkpt lat="39.947712" lon="3.161326">
        <ele>87.3</ele>
        <time>2020-06-02T20:42:45Z</time>
      </trkpt>
      <trkpt lat="39.947704" lon="3.161402">
        <ele>87.5</ele>
        <time>2020-06-02T20:42:46Z</time>
      </trkpt>
      <trkpt lat="39.947697" lon="3.161469">
        <ele>87.6</ele>
        <time>2020-06-02T20:42:47Z</time>
      </trkpt>
      <trkpt lat="39.947689" lon="3.161538">
        <ele>87.7</ele>
        <time>2020-06-02T20:42:48Z</time>
      </trkpt>
      <trkpt lat="39.947678" lon="3.161622">
        <ele>87.8</ele>
        <time>2020-06-02T20:42:49Z</time>
      </trkpt>
      <trkpt lat="39.947666" lon="3.161708">
        <ele>88</ele>
        <time>2020-06-02T20:42:51Z</time>
      </trkpt>
      <trkpt lat="39.947658" lon="3.161795">
        <ele>88.4</ele>
        <time>2020-06-02T20:42:52Z</time>
      </trkpt>
      <trkpt lat="39.947651" lon="3.161879">
        <ele>88.7</ele>
        <time>2020-06-02T20:42:53Z</time>
      </trkpt>
      <trkpt lat="39.947647" lon="3.161945">
        <ele>89.1</ele>
        <time>2020-06-02T20:42:54Z</time>
      </trkpt>
      <trkpt lat="39.947643" lon="3.162008">
        <ele>89.5</ele>
        <time>2020-06-02T20:42:55Z</time>
      </trkpt>
      <trkpt lat="39.947639" lon="3.162068">
        <ele>89.8</ele>
        <time>2020-06-02T20:42:56Z</time>
      </trkpt>
      <trkpt lat="39.947639" lon="3.162137">
        <ele>90</ele>
        <time>2020-06-02T20:42:57Z</time>
      </trkpt>
      <trkpt lat="39.947643" lon="3.162193">
        <ele>90.1</ele>
        <time>2020-06-02T20:42:58Z</time>
      </trkpt>
      <trkpt lat="39.947647" lon="3.162253">
        <ele>90.4</ele>
        <time>2020-06-02T20:42:59Z</time>
      </trkpt>
      <trkpt lat="39.947655" lon="3.162309">
        <ele>90.5</ele>
        <time>2020-06-02T20:43:01Z</time>
      </trkpt>
      <trkpt lat="39.947662" lon="3.162364">
        <ele>90.7</ele>
        <time>2020-06-02T20:43:02Z</time>
      </trkpt>
      <trkpt lat="39.947674" lon="3.16242">
        <ele>90.9</ele>
        <time>2020-06-02T20:43:03Z</time>
      </trkpt>
      <trkpt lat="39.947681" lon="3.162465">
        <ele>91.1</ele>
        <time>2020-06-02T20:43:04Z</time>
      </trkpt>
      <trkpt lat="39.947697" lon="3.162514">
        <ele>91.3</ele>
        <time>2020-06-02T20:43:05Z</time>
      </trkpt>
      <trkpt lat="39.947716" lon="3.162549">
        <ele>91.5</ele>
        <time>2020-06-02T20:43:06Z</time>
      </trkpt>
      <trkpt lat="39.947739" lon="3.16259">
        <ele>91.7</ele>
        <time>2020-06-02T20:43:07Z</time>
      </trkpt>
      <trkpt lat="39.947765" lon="3.162631">
        <ele>92</ele>
        <time>2020-06-02T20:43:09Z</time>
      </trkpt>
      <trkpt lat="39.947792" lon="3.162673">
        <ele>92.2</ele>
        <time>2020-06-02T20:43:10Z</time>
      </trkpt>
      <trkpt lat="39.947815" lon="3.162709">
        <ele>92.4</ele>
        <time>2020-06-02T20:43:11Z</time>
      </trkpt>
      <trkpt lat="39.947838" lon="3.162748">
        <ele>92.6</ele>
        <time>2020-06-02T20:43:12Z</time>
      </trkpt>
      <trkpt lat="39.947865" lon="3.162796">
        <ele>92.9</ele>
        <time>2020-06-02T20:43:13Z</time>
      </trkpt>
      <trkpt lat="39.947891" lon="3.162845">
        <ele>93.1</ele>
        <time>2020-06-02T20:43:14Z</time>
      </trkpt>
      <trkpt lat="39.947922" lon="3.162892">
        <ele>93.4</ele>
        <time>2020-06-02T20:43:15Z</time>
      </trkpt>
      <trkpt lat="39.947952" lon="3.16294">
        <ele>93.6</ele>
        <time>2020-06-02T20:43:17Z</time>
      </trkpt>
      <trkpt lat="39.947983" lon="3.162979">
        <ele>93.8</ele>
        <time>2020-06-02T20:43:18Z</time>
      </trkpt>
      <trkpt lat="39.948021" lon="3.16303">
        <ele>94</ele>
        <time>2020-06-02T20:43:19Z</time>
      </trkpt>
      <trkpt lat="39.94807" lon="3.163085">
        <ele>94.3</ele>
        <time>2020-06-02T20:43:20Z</time>
      </trkpt>
      <trkpt lat="39.948124" lon="3.163137">
        <ele>94.5</ele>
        <time>2020-06-02T20:43:21Z</time>
      </trkpt>
      <trkpt lat="39.948181" lon="3.16319">
        <ele>94.7</ele>
        <time>2020-06-02T20:43:22Z</time>
      </trkpt>
      <trkpt lat="39.948231" lon="3.163258">
        <ele>94.9</ele>
        <time>2020-06-02T20:43:24Z</time>
      </trkpt>
      <trkpt lat="39.948265" lon="3.163318">
        <ele>95</ele>
        <time>2020-06-02T20:43:25Z</time>
      </trkpt>
      <trkpt lat="39.948299" lon="3.163388">
        <ele>95.1</ele>
        <time>2020-06-02T20:43:26Z</time>
      </trkpt>
      <trkpt lat="39.948322" lon="3.163446">
        <ele>95.1</ele>
        <time>2020-06-02T20:43:27Z</time>
      </trkpt>
      <trkpt lat="39.948338" lon="3.163522">
        <ele>95.1</ele>
        <time>2020-06-02T20:43:28Z</time>
      </trkpt>
      <trkpt lat="39.948349" lon="3.163593">
        <ele>95</ele>
        <time>2020-06-02T20:43:29Z</time>
      </trkpt>
      <trkpt lat="39.948372" lon="3.163685">
        <ele>95</ele>
        <time>2020-06-02T20:43:30Z</time>
      </trkpt>
      <trkpt lat="39.948391" lon="3.163767">
        <ele>94.9</ele>
        <time>2020-06-02T20:43:31Z</time>
      </trkpt>
      <trkpt lat="39.948421" lon="3.163868">
        <ele>94.7</ele>
        <time>2020-06-02T20:43:32Z</time>
      </trkpt>
      <trkpt lat="39.94846" lon="3.163975">
        <ele>94.6</ele>
        <time>2020-06-02T20:43:34Z</time>
      </trkpt>
      <trkpt lat="39.94849" lon="3.164067">
        <ele>94.4</ele>
        <time>2020-06-02T20:43:35Z</time>
      </trkpt>
      <trkpt lat="39.948532" lon="3.164179">
        <ele>94.1</ele>
        <time>2020-06-02T20:43:36Z</time>
      </trkpt>
      <trkpt lat="39.948574" lon="3.16429">
        <ele>93.8</ele>
        <time>2020-06-02T20:43:37Z</time>
      </trkpt>
      <trkpt lat="39.948612" lon="3.164402">
        <ele>93.4</ele>
        <time>2020-06-02T20:43:38Z</time>
      </trkpt>
      <trkpt lat="39.948646" lon="3.164517">
        <ele>93</ele>
        <time>2020-06-02T20:43:39Z</time>
      </trkpt>
      <trkpt lat="39.948677" lon="3.164636">
        <ele>92.5</ele>
        <time>2020-06-02T20:43:41Z</time>
      </trkpt>
      <trkpt lat="39.948711" lon="3.16476">
        <ele>91.9</ele>
        <time>2020-06-02T20:43:42Z</time>
      </trkpt>
      <trkpt lat="39.948746" lon="3.164892">
        <ele>91.2</ele>
        <time>2020-06-02T20:43:43Z</time>
      </trkpt>
      <trkpt lat="39.94878" lon="3.165031">
        <ele>90.6</ele>
        <time>2020-06-02T20:43:44Z</time>
      </trkpt>
      <trkpt lat="39.948807" lon="3.165157">
        <ele>90</ele>
        <time>2020-06-02T20:43:45Z</time>
      </trkpt>
      <trkpt lat="39.948845" lon="3.165318">
        <ele>89.3</ele>
        <time>2020-06-02T20:43:46Z</time>
      </trkpt>
      <trkpt lat="39.948872" lon="3.165458">
        <ele>88.7</ele>
        <time>2020-06-02T20:43:47Z</time>
      </trkpt>
      <trkpt lat="39.94891" lon="3.165623">
        <ele>88</ele>
        <time>2020-06-02T20:43:49Z</time>
      </trkpt>
      <trkpt lat="39.94894" lon="3.165757">
        <ele>87.4</ele>
        <time>2020-06-02T20:43:50Z</time>
      </trkpt>
      <trkpt lat="39.948975" lon="3.165891">
        <ele>86.7</ele>
        <time>2020-06-02T20:43:51Z</time>
      </trkpt>
      <trkpt lat="39.949013" lon="3.166053">
        <ele>85.8</ele>
        <time>2020-06-02T20:43:52Z</time>
      </trkpt>
      <trkpt lat="39.949043" lon="3.166192">
        <ele>85</ele>
        <time>2020-06-02T20:43:53Z</time>
      </trkpt>
      <trkpt lat="39.949062" lon="3.166337">
        <ele>84.4</ele>
        <time>2020-06-02T20:43:54Z</time>
      </trkpt>
      <trkpt lat="39.949089" lon="3.166516">
        <ele>83.6</ele>
        <time>2020-06-02T20:43:55Z</time>
      </trkpt>
      <trkpt lat="39.949112" lon="3.166702">
        <ele>82.8</ele>
        <time>2020-06-02T20:43:56Z</time>
      </trkpt>
      <trkpt lat="39.949127" lon="3.166867">
        <ele>82.2</ele>
        <time>2020-06-02T20:43:57Z</time>
      </trkpt>
      <trkpt lat="39.949146" lon="3.167077">
        <ele>81.6</ele>
        <time>2020-06-02T20:43:58Z</time>
      </trkpt>
      <trkpt lat="39.949169" lon="3.167289">
        <ele>80.9</ele>
        <time>2020-06-02T20:44:00Z</time>
      </trkpt>
      <trkpt lat="39.949192" lon="3.167465">
        <ele>80.3</ele>
        <time>2020-06-02T20:44:01Z</time>
      </trkpt>
      <trkpt lat="39.94923" lon="3.167669">
        <ele>79.8</ele>
        <time>2020-06-02T20:44:02Z</time>
      </trkpt>
      <trkpt lat="39.949264" lon="3.167867">
        <ele>79.3</ele>
        <time>2020-06-02T20:44:03Z</time>
      </trkpt>
      <trkpt lat="39.949295" lon="3.168028">
        <ele>78.9</ele>
        <time>2020-06-02T20:44:04Z</time>
      </trkpt>
      <trkpt lat="39.949329" lon="3.168215">
        <ele>78.6</ele>
        <time>2020-06-02T20:44:05Z</time>
      </trkpt>
      <trkpt lat="39.949356" lon="3.168397">
        <ele>78.5</ele>
        <time>2020-06-02T20:44:06Z</time>
      </trkpt>
      <trkpt lat="39.949383" lon="3.16857">
        <ele>78.6</ele>
        <time>2020-06-02T20:44:08Z</time>
      </trkpt>
      <trkpt lat="39.949402" lon="3.168709">
        <ele>78.6</ele>
        <time>2020-06-02T20:44:09Z</time>
      </trkpt>
      <trkpt lat="39.949413" lon="3.168867">
        <ele>78.7</ele>
        <time>2020-06-02T20:44:10Z</time>
      </trkpt>
      <trkpt lat="39.949425" lon="3.169017">
        <ele>78.7</ele>
        <time>2020-06-02T20:44:11Z</time>
      </trkpt>
      <trkpt lat="39.949425" lon="3.169158">
        <ele>78.9</ele>
        <time>2020-06-02T20:44:12Z</time>
      </trkpt>
      <trkpt lat="39.949413" lon="3.169289">
        <ele>79</ele>
        <time>2020-06-02T20:44:13Z</time>
      </trkpt>
      <trkpt lat="39.949402" lon="3.169412">
        <ele>79.2</ele>
        <time>2020-06-02T20:44:15Z</time>
      </trkpt>
      <trkpt lat="39.949383" lon="3.16953">
        <ele>79.7</ele>
        <time>2020-06-02T20:44:16Z</time>
      </trkpt>
      <trkpt lat="39.949348" lon="3.169642">
        <ele>80.3</ele>
        <time>2020-06-02T20:44:17Z</time>
      </trkpt>
      <trkpt lat="39.949314" lon="3.169757">
        <ele>80.9</ele>
        <time>2020-06-02T20:44:18Z</time>
      </trkpt>
      <trkpt lat="39.949287" lon="3.169876">
        <ele>81.4</ele>
        <time>2020-06-02T20:44:19Z</time>
      </trkpt>
      <trkpt lat="39.949272" lon="3.169998">
        <ele>82.1</ele>
        <time>2020-06-02T20:44:21Z</time>
      </trkpt>
      <trkpt lat="39.949264" lon="3.170097">
        <ele>82.5</ele>
        <time>2020-06-02T20:44:22Z</time>
      </trkpt>
      <trkpt lat="39.949261" lon="3.170207">
        <ele>83</ele>
        <time>2020-06-02T20:44:23Z</time>
      </trkpt>
      <trkpt lat="39.949253" lon="3.170308">
        <ele>83.4</ele>
        <time>2020-06-02T20:44:24Z</time>
      </trkpt>
      <trkpt lat="39.949257" lon="3.170385">
        <ele>83.8</ele>
        <time>2020-06-02T20:44:25Z</time>
      </trkpt>
      <trkpt lat="39.949264" lon="3.170464">
        <ele>84.1</ele>
        <time>2020-06-02T20:44:26Z</time>
      </trkpt>
      <trkpt lat="39.949272" lon="3.170513">
        <ele>84.4</ele>
        <time>2020-06-02T20:44:27Z</time>
      </trkpt>
      <trkpt lat="39.949276" lon="3.170546">
        <ele>84.6</ele>
        <time>2020-06-02T20:44:28Z</time>
      </trkpt>
      <trkpt lat="39.949284" lon="3.170582">
        <ele>84.8</ele>
        <time>2020-06-02T20:44:29Z</time>
      </trkpt>
      <trkpt lat="39.949287" lon="3.170618">
        <ele>85</ele>
        <time>2020-06-02T20:44:31Z</time>
      </trkpt>
      <trkpt lat="39.949291" lon="3.170649">
        <ele>85.2</ele>
        <time>2020-06-02T20:44:32Z</time>
      </trkpt>
      <trkpt lat="39.949295" lon="3.170691">
        <ele>85.5</ele>
        <time>2020-06-02T20:44:33Z</time>
      </trkpt>
      <trkpt lat="39.949299" lon="3.170733">
        <ele>85.8</ele>
        <time>2020-06-02T20:44:34Z</time>
      </trkpt>
      <trkpt lat="39.949303" lon="3.170775">
        <ele>86.1</ele>
        <time>2020-06-02T20:44:35Z</time>
      </trkpt>
      <trkpt lat="39.949306" lon="3.17081">
        <ele>86.3</ele>
        <time>2020-06-02T20:44:36Z</time>
      </trkpt>
      <trkpt lat="39.949303" lon="3.170842">
        <ele>86.5</ele>
        <time>2020-06-02T20:44:37Z</time>
      </trkpt>
      <trkpt lat="39.949299" lon="3.170878">
        <ele>86.8</ele>
        <time>2020-06-02T20:44:38Z</time>
      </trkpt>
      <trkpt lat="39.949295" lon="3.170915">
        <ele>87.1</ele>
        <time>2020-06-02T20:44:40Z</time>
      </trkpt>
      <trkpt lat="39.949291" lon="3.170948">
        <ele>87.3</ele>
        <time>2020-06-02T20:44:41Z</time>
      </trkpt>
      <trkpt lat="39.949287" lon="3.170991">
        <ele>87.6</ele>
        <time>2020-06-02T20:44:42Z</time>
      </trkpt>
      <trkpt lat="39.94928" lon="3.171037">
        <ele>87.9</ele>
        <time>2020-06-02T20:44:43Z</time>
      </trkpt>
      <trkpt lat="39.949272" lon="3.171077">
        <ele>88.2</ele>
        <time>2020-06-02T20:44:44Z</time>
      </trkpt>
      <trkpt lat="39.949264" lon="3.171126">
        <ele>88.5</ele>
        <time>2020-06-02T20:44:45Z</time>
      </trkpt>
      <trkpt lat="39.949257" lon="3.171167">
        <ele>88.8</ele>
        <time>2020-06-02T20:44:46Z</time>
      </trkpt>
      <trkpt lat="39.949242" lon="3.171216">
        <ele>89.1</ele>
        <time>2020-06-02T20:44:47Z</time>
      </trkpt>
      <trkpt lat="39.949223" lon="3.171262">
        <ele>89.4</ele>
        <time>2020-06-02T20:44:49Z</time>
      </trkpt>
      <trkpt lat="39.949196" lon="3.171307">
        <ele>89.8</ele>
        <time>2020-06-02T20:44:50Z</time>
      </trkpt>
      <trkpt lat="39.949173" lon="3.171344">
        <ele>90.2</ele>
        <time>2020-06-02T20:44:51Z</time>
      </trkpt>
      <trkpt lat="39.949146" lon="3.171386">
        <ele>90.6</ele>
        <time>2020-06-02T20:44:52Z</time>
      </trkpt>
      <trkpt lat="39.949112" lon="3.171418">
        <ele>91</ele>
        <time>2020-06-02T20:44:53Z</time>
      </trkpt>
      <trkpt lat="39.949074" lon="3.171431">
        <ele>91.3</ele>
        <time>2020-06-02T20:44:54Z</time>
      </trkpt>
      <trkpt lat="39.949036" lon="3.171433">
        <ele>91.7</ele>
        <time>2020-06-02T20:44:56Z</time>
      </trkpt>
      <trkpt lat="39.94899" lon="3.171432">
        <ele>92.1</ele>
        <time>2020-06-02T20:44:57Z</time>
      </trkpt>
      <trkpt lat="39.948952" lon="3.171432">
        <ele>92.5</ele>
        <time>2020-06-02T20:44:58Z</time>
      </trkpt>
      <trkpt lat="39.94891" lon="3.171435">
        <ele>92.8</ele>
        <time>2020-06-02T20:44:59Z</time>
      </trkpt>
      <trkpt lat="39.948868" lon="3.171437">
        <ele>93.1</ele>
        <time>2020-06-02T20:45:00Z</time>
      </trkpt>
      <trkpt lat="39.948822" lon="3.171438">
        <ele>93.3</ele>
        <time>2020-06-02T20:45:01Z</time>
      </trkpt>
      <trkpt lat="39.94878" lon="3.171438">
        <ele>93.7</ele>
        <time>2020-06-02T20:45:03Z</time>
      </trkpt>
      <trkpt lat="39.948746" lon="3.171441">
        <ele>94.1</ele>
        <time>2020-06-02T20:45:04Z</time>
      </trkpt>
      <trkpt lat="39.9487" lon="3.171443">
        <ele>94.7</ele>
        <time>2020-06-02T20:45:05Z</time>
      </trkpt>
      <trkpt lat="39.948658" lon="3.171447">
        <ele>95.3</ele>
        <time>2020-06-02T20:45:06Z</time>
      </trkpt>
      <trkpt lat="39.948612" lon="3.171453">
        <ele>96.1</ele>
        <time>2020-06-02T20:45:07Z</time>
      </trkpt>
      <trkpt lat="39.948578" lon="3.171458">
        <ele>96.6</ele>
        <time>2020-06-02T20:45:08Z</time>
      </trkpt>
      <trkpt lat="39.948532" lon="3.171466">
        <ele>97.5</ele>
        <time>2020-06-02T20:45:09Z</time>
      </trkpt>
      <trkpt lat="39.948498" lon="3.171475">
        <ele>98.1</ele>
        <time>2020-06-02T20:45:10Z</time>
      </trkpt>
      <trkpt lat="39.948467" lon="3.171489">
        <ele>98.7</ele>
        <time>2020-06-02T20:45:11Z</time>
      </trkpt>
      <trkpt lat="39.948437" lon="3.17151">
        <ele>99.3</ele>
        <time>2020-06-02T20:45:12Z</time>
      </trkpt>
      <trkpt lat="39.94841" lon="3.171542">
        <ele>100</ele>
        <time>2020-06-02T20:45:14Z</time>
      </trkpt>
      <trkpt lat="39.948387" lon="3.171571">
        <ele>100.6</ele>
        <time>2020-06-02T20:45:15Z</time>
      </trkpt>
      <trkpt lat="39.948364" lon="3.171605">
        <ele>101.3</ele>
        <time>2020-06-02T20:45:16Z</time>
      </trkpt>
      <trkpt lat="39.948338" lon="3.171639">
        <ele>102</ele>
        <time>2020-06-02T20:45:17Z</time>
      </trkpt>
      <trkpt lat="39.948318" lon="3.171669">
        <ele>102.6</ele>
        <time>2020-06-02T20:45:18Z</time>
      </trkpt>
      <trkpt lat="39.948299" lon="3.17171">
        <ele>103.4</ele>
        <time>2020-06-02T20:45:19Z</time>
      </trkpt>
      <trkpt lat="39.948292" lon="3.171756">
        <ele>104.2</ele>
        <time>2020-06-02T20:45:20Z</time>
      </trkpt>
      <trkpt lat="39.948296" lon="3.171802">
        <ele>105</ele>
        <time>2020-06-02T20:45:22Z</time>
      </trkpt>
      <trkpt lat="39.948303" lon="3.171844">
        <ele>105.7</ele>
        <time>2020-06-02T20:45:23Z</time>
      </trkpt>
      <trkpt lat="39.948311" lon="3.171878">
        <ele>106.4</ele>
        <time>2020-06-02T20:45:24Z</time>
      </trkpt>
      <trkpt lat="39.948322" lon="3.171915">
        <ele>107.1</ele>
        <time>2020-06-02T20:45:25Z</time>
      </trkpt>
      <trkpt lat="39.948334" lon="3.171951">
        <ele>107.8</ele>
        <time>2020-06-02T20:45:26Z</time>
      </trkpt>
      <trkpt lat="39.948341" lon="3.171982">
        <ele>108.4</ele>
        <time>2020-06-02T20:45:27Z</time>
      </trkpt>
      <trkpt lat="39.948353" lon="3.172016">
        <ele>109.1</ele>
        <time>2020-06-02T20:45:28Z</time>
      </trkpt>
      <trkpt lat="39.948368" lon="3.172049">
        <ele>109.8</ele>
        <time>2020-06-02T20:45:30Z</time>
      </trkpt>
      <trkpt lat="39.948387" lon="3.172079">
        <ele>110.6</ele>
        <time>2020-06-02T20:45:31Z</time>
      </trkpt>
      <trkpt lat="39.948414" lon="3.172101">
        <ele>111.3</ele>
        <time>2020-06-02T20:45:32Z</time>
      </trkpt>
      <trkpt lat="39.948444" lon="3.172117">
        <ele>112.1</ele>
        <time>2020-06-02T20:45:33Z</time>
      </trkpt>
      <trkpt lat="39.948471" lon="3.172126">
        <ele>112.7</ele>
        <time>2020-06-02T20:45:34Z</time>
      </trkpt>
      <trkpt lat="39.948502" lon="3.172135">
        <ele>113.5</ele>
        <time>2020-06-02T20:45:35Z</time>
      </trkpt>
      <trkpt lat="39.948536" lon="3.172144">
        <ele>114.2</ele>
        <time>2020-06-02T20:45:37Z</time>
      </trkpt>
      <trkpt lat="39.948566" lon="3.172154">
        <ele>114.9</ele>
        <time>2020-06-02T20:45:38Z</time>
      </trkpt>
      <trkpt lat="39.948597" lon="3.172165">
        <ele>115.6</ele>
        <time>2020-06-02T20:45:39Z</time>
      </trkpt>
      <trkpt lat="39.948627" lon="3.172176">
        <ele>116.3</ele>
        <time>2020-06-02T20:45:40Z</time>
      </trkpt>
      <trkpt lat="39.948654" lon="3.172187">
        <ele>116.9</ele>
        <time>2020-06-02T20:45:41Z</time>
      </trkpt>
      <trkpt lat="39.948685" lon="3.172198">
        <ele>117.6</ele>
        <time>2020-06-02T20:45:43Z</time>
      </trkpt>
      <trkpt lat="39.948711" lon="3.172209">
        <ele>118.1</ele>
        <time>2020-06-02T20:45:44Z</time>
      </trkpt>
      <trkpt lat="39.948738" lon="3.172221">
        <ele>118.7</ele>
        <time>2020-06-02T20:45:45Z</time>
      </trkpt>
      <trkpt lat="39.948769" lon="3.172239">
        <ele>119.4</ele>
        <time>2020-06-02T20:45:46Z</time>
      </trkpt>
      <trkpt lat="39.948795" lon="3.172257">
        <ele>120</ele>
        <time>2020-06-02T20:45:47Z</time>
      </trkpt>
      <trkpt lat="39.94883" lon="3.172282">
        <ele>120.8</ele>
        <time>2020-06-02T20:45:48Z</time>
      </trkpt>
      <trkpt lat="39.948864" lon="3.172309">
        <ele>121.5</ele>
        <time>2020-06-02T20:45:49Z</time>
      </trkpt>
      <trkpt lat="39.948894" lon="3.172337">
        <ele>122.2</ele>
        <time>2020-06-02T20:45:50Z</time>
      </trkpt>
      <trkpt lat="39.948917" lon="3.172362">
        <ele>122.8</ele>
        <time>2020-06-02T20:45:51Z</time>
      </trkpt>
      <trkpt lat="39.94894" lon="3.17239">
        <ele>123.4</ele>
        <time>2020-06-02T20:45:52Z</time>
      </trkpt>
      <trkpt lat="39.948959" lon="3.17243">
        <ele>124.1</ele>
        <time>2020-06-02T20:45:54Z</time>
      </trkpt>
      <trkpt lat="39.948971" lon="3.17247">
        <ele>124.7</ele>
        <time>2020-06-02T20:45:55Z</time>
      </trkpt>
      <trkpt lat="39.948978" lon="3.172525">
        <ele>125.5</ele>
        <time>2020-06-02T20:45:56Z</time>
      </trkpt>
      <trkpt lat="39.948986" lon="3.172582">
        <ele>126.3</ele>
        <time>2020-06-02T20:45:57Z</time>
      </trkpt>
      <trkpt lat="39.948994" lon="3.17264">
        <ele>127.2</ele>
        <time>2020-06-02T20:45:58Z</time>
      </trkpt>
      <trkpt lat="39.949001" lon="3.172687">
        <ele>127.8</ele>
        <time>2020-06-02T20:45:59Z</time>
      </trkpt>
      <trkpt lat="39.949005" lon="3.17274">
        <ele>128.6</ele>
        <time>2020-06-02T20:46:00Z</time>
      </trkpt>
      <trkpt lat="39.949005" lon="3.172787">
        <ele>129.3</ele>
        <time>2020-06-02T20:46:01Z</time>
      </trkpt>
      <trkpt lat="39.949001" lon="3.172842">
        <ele>130.1</ele>
        <time>2020-06-02T20:46:03Z</time>
      </trkpt>
      <trkpt lat="39.948994" lon="3.172898">
        <ele>130.9</ele>
        <time>2020-06-02T20:46:04Z</time>
      </trkpt>
      <trkpt lat="39.948982" lon="3.172957">
        <ele>131.8</ele>
        <time>2020-06-02T20:46:05Z</time>
      </trkpt>
      <trkpt lat="39.948978" lon="3.173006">
        <ele>132.5</ele>
        <time>2020-06-02T20:46:06Z</time>
      </trkpt>
      <trkpt lat="39.948971" lon="3.173066">
        <ele>133.4</ele>
        <time>2020-06-02T20:46:07Z</time>
      </trkpt>
      <trkpt lat="39.948967" lon="3.173125">
        <ele>134.2</ele>
        <time>2020-06-02T20:46:08Z</time>
      </trkpt>
      <trkpt lat="39.948959" lon="3.173184">
        <ele>135.1</ele>
        <time>2020-06-02T20:46:10Z</time>
      </trkpt>
      <trkpt lat="39.948956" lon="3.173242">
        <ele>136</ele>
        <time>2020-06-02T20:46:11Z</time>
      </trkpt>
      <trkpt lat="39.948952" lon="3.173291">
        <ele>136.7</ele>
        <time>2020-06-02T20:46:12Z</time>
      </trkpt>
      <trkpt lat="39.948948" lon="3.17335">
        <ele>137.5</ele>
        <time>2020-06-02T20:46:13Z</time>
      </trkpt>
      <trkpt lat="39.948944" lon="3.173399">
        <ele>138.2</ele>
        <time>2020-06-02T20:46:14Z</time>
      </trkpt>
      <trkpt lat="39.94894" lon="3.173459">
        <ele>139.1</ele>
        <time>2020-06-02T20:46:15Z</time>
      </trkpt>
      <trkpt lat="39.948936" lon="3.173519">
        <ele>139.9</ele>
        <time>2020-06-02T20:46:16Z</time>
      </trkpt>
      <trkpt lat="39.948936" lon="3.17358">
        <ele>140.7</ele>
        <time>2020-06-02T20:46:18Z</time>
      </trkpt>
      <trkpt lat="39.948936" lon="3.173642">
        <ele>141.5</ele>
        <time>2020-06-02T20:46:19Z</time>
      </trkpt>
      <trkpt lat="39.948948" lon="3.173695">
        <ele>142.2</ele>
        <time>2020-06-02T20:46:20Z</time>
      </trkpt>
      <trkpt lat="39.948963" lon="3.173758">
        <ele>143.1</ele>
        <time>2020-06-02T20:46:21Z</time>
      </trkpt>
      <trkpt lat="39.948982" lon="3.173824">
        <ele>144</ele>
        <time>2020-06-02T20:46:22Z</time>
      </trkpt>
      <trkpt lat="39.948997" lon="3.173879">
        <ele>144.7</ele>
        <time>2020-06-02T20:46:23Z</time>
      </trkpt>
      <trkpt lat="39.94902" lon="3.173945">
        <ele>145.5</ele>
        <time>2020-06-02T20:46:24Z</time>
      </trkpt>
      <trkpt lat="39.949043" lon="3.17401">
        <ele>146.3</ele>
        <time>2020-06-02T20:46:26Z</time>
      </trkpt>
      <trkpt lat="39.949066" lon="3.174073">
        <ele>147.1</ele>
        <time>2020-06-02T20:46:27Z</time>
      </trkpt>
      <trkpt lat="39.949089" lon="3.174134">
        <ele>147.8</ele>
        <time>2020-06-02T20:46:28Z</time>
      </trkpt>
      <trkpt lat="39.949116" lon="3.174195">
        <ele>148.7</ele>
        <time>2020-06-02T20:46:29Z</time>
      </trkpt>
      <trkpt lat="39.949135" lon="3.174246">
        <ele>149.3</ele>
        <time>2020-06-02T20:46:30Z</time>
      </trkpt>
      <trkpt lat="39.949154" lon="3.174306">
        <ele>150.1</ele>
        <time>2020-06-02T20:46:31Z</time>
      </trkpt>
      <trkpt lat="39.949173" lon="3.174355">
        <ele>150.7</ele>
        <time>2020-06-02T20:46:32Z</time>
      </trkpt>
      <trkpt lat="39.949196" lon="3.174412">
        <ele>151.5</ele>
        <time>2020-06-02T20:46:34Z</time>
      </trkpt>
      <trkpt lat="39.949215" lon="3.174459">
        <ele>152.1</ele>
        <time>2020-06-02T20:46:35Z</time>
      </trkpt>
      <trkpt lat="39.949234" lon="3.174504">
        <ele>152.7</ele>
        <time>2020-06-02T20:46:36Z</time>
      </trkpt>
      <trkpt lat="39.949253" lon="3.174548">
        <ele>153.2</ele>
        <time>2020-06-02T20:46:37Z</time>
      </trkpt>
      <trkpt lat="39.949276" lon="3.1746">
        <ele>153.8</ele>
        <time>2020-06-02T20:46:38Z</time>
      </trkpt>
      <trkpt lat="39.949295" lon="3.174644">
        <ele>154.4</ele>
        <time>2020-06-02T20:46:39Z</time>
      </trkpt>
      <trkpt lat="39.949322" lon="3.174697">
        <ele>155.1</ele>
        <time>2020-06-02T20:46:40Z</time>
      </trkpt>
      <trkpt lat="39.949345" lon="3.174742">
        <ele>155.7</ele>
        <time>2020-06-02T20:46:41Z</time>
      </trkpt>
      <trkpt lat="39.949371" lon="3.174797">
        <ele>156.4</ele>
        <time>2020-06-02T20:46:42Z</time>
      </trkpt>
      <trkpt lat="39.949394" lon="3.174842">
        <ele>157</ele>
        <time>2020-06-02T20:46:43Z</time>
      </trkpt>
      <trkpt lat="39.949417" lon="3.174896">
        <ele>157.7</ele>
        <time>2020-06-02T20:46:44Z</time>
      </trkpt>
      <trkpt lat="39.949444" lon="3.17495">
        <ele>158.4</ele>
        <time>2020-06-02T20:46:46Z</time>
      </trkpt>
      <trkpt lat="39.949463" lon="3.174995">
        <ele>158.9</ele>
        <time>2020-06-02T20:46:47Z</time>
      </trkpt>
      <trkpt lat="39.949486" lon="3.175039">
        <ele>159.5</ele>
        <time>2020-06-02T20:46:48Z</time>
      </trkpt>
      <trkpt lat="39.949509" lon="3.175093">
        <ele>160.2</ele>
        <time>2020-06-02T20:46:49Z</time>
      </trkpt>
      <trkpt lat="39.949532" lon="3.175146">
        <ele>160.9</ele>
        <time>2020-06-02T20:46:50Z</time>
      </trkpt>
      <trkpt lat="39.949551" lon="3.175201">
        <ele>161.5</ele>
        <time>2020-06-02T20:46:51Z</time>
      </trkpt>
      <trkpt lat="39.949566" lon="3.175248">
        <ele>162.1</ele>
        <time>2020-06-02T20:46:52Z</time>
      </trkpt>
      <trkpt lat="39.949585" lon="3.175306">
        <ele>162.7</ele>
        <time>2020-06-02T20:46:53Z</time>
      </trkpt>
      <trkpt lat="39.9496" lon="3.175362">
        <ele>163.3</ele>
        <time>2020-06-02T20:46:55Z</time>
      </trkpt>
      <trkpt lat="39.949615" lon="3.175409">
        <ele>163.9</ele>
        <time>2020-06-02T20:46:56Z</time>
      </trkpt>
      <trkpt lat="39.949631" lon="3.175465">
        <ele>164.5</ele>
        <time>2020-06-02T20:46:57Z</time>
      </trkpt>
      <trkpt lat="39.949642" lon="3.175522">
        <ele>165.1</ele>
        <time>2020-06-02T20:46:58Z</time>
      </trkpt>
      <trkpt lat="39.949654" lon="3.175579">
        <ele>165.7</ele>
        <time>2020-06-02T20:46:59Z</time>
      </trkpt>
      <trkpt lat="39.949661" lon="3.175627">
        <ele>166.2</ele>
        <time>2020-06-02T20:47:00Z</time>
      </trkpt>
      <trkpt lat="39.949673" lon="3.175686">
        <ele>166.9</ele>
        <time>2020-06-02T20:47:01Z</time>
      </trkpt>
      <trkpt lat="39.949684" lon="3.175743">
        <ele>167.5</ele>
        <time>2020-06-02T20:47:03Z</time>
      </trkpt>
      <trkpt lat="39.949696" lon="3.175801">
        <ele>168.2</ele>
        <time>2020-06-02T20:47:04Z</time>
      </trkpt>
      <trkpt lat="39.949711" lon="3.175858">
        <ele>168.8</ele>
        <time>2020-06-02T20:47:05Z</time>
      </trkpt>
      <trkpt lat="39.949718" lon="3.175908">
        <ele>169.4</ele>
        <time>2020-06-02T20:47:06Z</time>
      </trkpt>
      <trkpt lat="39.94973" lon="3.175968">
        <ele>170.1</ele>
        <time>2020-06-02T20:47:07Z</time>
      </trkpt>
      <trkpt lat="39.949745" lon="3.176028">
        <ele>170.8</ele>
        <time>2020-06-02T20:47:08Z</time>
      </trkpt>
      <trkpt lat="39.949757" lon="3.176089">
        <ele>171.5</ele>
        <time>2020-06-02T20:47:10Z</time>
      </trkpt>
      <trkpt lat="39.949772" lon="3.176149">
        <ele>172.2</ele>
        <time>2020-06-02T20:47:11Z</time>
      </trkpt>
      <trkpt lat="39.949783" lon="3.176209">
        <ele>172.8</ele>
        <time>2020-06-02T20:47:12Z</time>
      </trkpt>
      <trkpt lat="39.949799" lon="3.176268">
        <ele>173.5</ele>
        <time>2020-06-02T20:47:13Z</time>
      </trkpt>
      <trkpt lat="39.94981" lon="3.176319">
        <ele>174.1</ele>
        <time>2020-06-02T20:47:14Z</time>
      </trkpt>
      <trkpt lat="39.949814" lon="3.176379">
        <ele>174.8</ele>
        <time>2020-06-02T20:47:15Z</time>
      </trkpt>
      <trkpt lat="39.949818" lon="3.176439">
        <ele>175.5</ele>
        <time>2020-06-02T20:47:17Z</time>
      </trkpt>
      <trkpt lat="39.949818" lon="3.176491">
        <ele>176.1</ele>
        <time>2020-06-02T20:47:18Z</time>
      </trkpt>
      <trkpt lat="39.949818" lon="3.176553">
        <ele>176.9</ele>
        <time>2020-06-02T20:47:19Z</time>
      </trkpt>
      <trkpt lat="39.949818" lon="3.176617">
        <ele>177.7</ele>
        <time>2020-06-02T20:47:20Z</time>
      </trkpt>
      <trkpt lat="39.949806" lon="3.176682">
        <ele>178.5</ele>
        <time>2020-06-02T20:47:21Z</time>
      </trkpt>
      <trkpt lat="39.949787" lon="3.176743">
        <ele>179.3</ele>
        <time>2020-06-02T20:47:22Z</time>
      </trkpt>
      <trkpt lat="39.949768" lon="3.176799">
        <ele>180</ele>
        <time>2020-06-02T20:47:24Z</time>
      </trkpt>
      <trkpt lat="39.949749" lon="3.176845">
        <ele>180.6</ele>
        <time>2020-06-02T20:47:25Z</time>
      </trkpt>
      <trkpt lat="39.94973" lon="3.1769">
        <ele>181.3</ele>
        <time>2020-06-02T20:47:26Z</time>
      </trkpt>
      <trkpt lat="39.949711" lon="3.176948">
        <ele>182</ele>
        <time>2020-06-02T20:47:27Z</time>
      </trkpt>
      <trkpt lat="39.949696" lon="3.177005">
        <ele>182.7</ele>
        <time>2020-06-02T20:47:28Z</time>
      </trkpt>
      <trkpt lat="39.949676" lon="3.177063">
        <ele>183.5</ele>
        <time>2020-06-02T20:47:29Z</time>
      </trkpt>
      <trkpt lat="39.949657" lon="3.17712">
        <ele>184.2</ele>
        <time>2020-06-02T20:47:30Z</time>
      </trkpt>
      <trkpt lat="39.949646" lon="3.177167">
        <ele>184.8</ele>
        <time>2020-06-02T20:47:31Z</time>
      </trkpt>
      <trkpt lat="39.949635" lon="3.177225">
        <ele>185.6</ele>
        <time>2020-06-02T20:47:33Z</time>
      </trkpt>
      <trkpt lat="39.949623" lon="3.177282">
        <ele>186.3</ele>
        <time>2020-06-02T20:47:34Z</time>
      </trkpt>
      <trkpt lat="39.949612" lon="3.177339">
        <ele>187</ele>
        <time>2020-06-02T20:47:35Z</time>
      </trkpt>
      <trkpt lat="39.9496" lon="3.177396">
        <ele>187.7</ele>
        <time>2020-06-02T20:47:36Z</time>
      </trkpt>
      <trkpt lat="39.949589" lon="3.177444">
        <ele>188.3</ele>
        <time>2020-06-02T20:47:37Z</time>
      </trkpt>
      <trkpt lat="39.949577" lon="3.177501">
        <ele>189</ele>
        <time>2020-06-02T20:47:38Z</time>
      </trkpt>
      <trkpt lat="39.94957" lon="3.177548">
        <ele>189.6</ele>
        <time>2020-06-02T20:47:39Z</time>
      </trkpt>
      <trkpt lat="39.949562" lon="3.177594">
        <ele>190.1</ele>
        <time>2020-06-02T20:47:40Z</time>
      </trkpt>
      <trkpt lat="39.949558" lon="3.177638">
        <ele>190.6</ele>
        <time>2020-06-02T20:47:41Z</time>
      </trkpt>
      <trkpt lat="39.949551" lon="3.177688">
        <ele>191.2</ele>
        <time>2020-06-02T20:47:43Z</time>
      </trkpt>
      <trkpt lat="39.949547" lon="3.177737">
        <ele>191.8</ele>
        <time>2020-06-02T20:47:44Z</time>
      </trkpt>
      <trkpt lat="39.949543" lon="3.177779">
        <ele>192.4</ele>
        <time>2020-06-02T20:47:45Z</time>
      </trkpt>
      <trkpt lat="39.949539" lon="3.177823">
        <ele>192.9</ele>
        <time>2020-06-02T20:47:46Z</time>
      </trkpt>
      <trkpt lat="39.949535" lon="3.177867">
        <ele>193.4</ele>
        <time>2020-06-02T20:47:47Z</time>
      </trkpt>
      <trkpt lat="39.949539" lon="3.177922">
        <ele>194.1</ele>
        <time>2020-06-02T20:47:48Z</time>
      </trkpt>
      <trkpt lat="39.949551" lon="3.177978">
        <ele>194.8</ele>
        <time>2020-06-02T20:47:49Z</time>
      </trkpt>
      <trkpt lat="39.949562" lon="3.178034">
        <ele>195.6</ele>
        <time>2020-06-02T20:47:50Z</time>
      </trkpt>
      <trkpt lat="39.949574" lon="3.178091">
        <ele>196.3</ele>
        <time>2020-06-02T20:47:52Z</time>
      </trkpt>
      <trkpt lat="39.949585" lon="3.178148">
        <ele>197</ele>
        <time>2020-06-02T20:47:53Z</time>
      </trkpt>
      <trkpt lat="39.949596" lon="3.178195">
        <ele>197.6</ele>
        <time>2020-06-02T20:47:54Z</time>
      </trkpt>
      <trkpt lat="39.949604" lon="3.178241">
        <ele>198.1</ele>
        <time>2020-06-02T20:47:55Z</time>
      </trkpt>
      <trkpt lat="39.949615" lon="3.178287">
        <ele>198.6</ele>
        <time>2020-06-02T20:47:56Z</time>
      </trkpt>
      <trkpt lat="39.949623" lon="3.178331">
        <ele>199.5</ele>
        <time>2020-06-02T20:47:57Z</time>
      </trkpt>
      <trkpt lat="39.949635" lon="3.178374">
        <ele>198.3</ele>
        <time>2020-06-02T20:47:58Z</time>
      </trkpt>
      <trkpt lat="39.949646" lon="3.178416">
        <ele>197.1</ele>
        <time>2020-06-02T20:47:59Z</time>
      </trkpt>
      <trkpt lat="39.949657" lon="3.178456">
        <ele>196</ele>
        <time>2020-06-02T20:48:00Z</time>
      </trkpt>
      <trkpt lat="39.949665" lon="3.178496">
        <ele>194.9</ele>
        <time>2020-06-02T20:48:01Z</time>
      </trkpt>
      <trkpt lat="39.949676" lon="3.178536">
        <ele>193.8</ele>
        <time>2020-06-02T20:48:02Z</time>
      </trkpt>
      <trkpt lat="39.949688" lon="3.178584">
        <ele>192.6</ele>
        <time>2020-06-02T20:48:03Z</time>
      </trkpt>
      <trkpt lat="39.949703" lon="3.178632">
        <ele>191.3</ele>
        <time>2020-06-02T20:48:04Z</time>
      </trkpt>
      <trkpt lat="39.949715" lon="3.178681">
        <ele>190</ele>
        <time>2020-06-02T20:48:05Z</time>
      </trkpt>
      <trkpt lat="39.94973" lon="3.178729">
        <ele>188.8</ele>
        <time>2020-06-02T20:48:07Z</time>
      </trkpt>
      <trkpt lat="39.949741" lon="3.178774">
        <ele>187.7</ele>
        <time>2020-06-02T20:48:08Z</time>
      </trkpt>
      <trkpt lat="39.949757" lon="3.178817">
        <ele>186.5</ele>
        <time>2020-06-02T20:48:09Z</time>
      </trkpt>
      <trkpt lat="39.949768" lon="3.178857">
        <ele>185.5</ele>
        <time>2020-06-02T20:48:10Z</time>
      </trkpt>
      <trkpt lat="39.949779" lon="3.178896">
        <ele>184.5</ele>
        <time>2020-06-02T20:48:11Z</time>
      </trkpt>
      <trkpt lat="39.949791" lon="3.178931">
        <ele>183.6</ele>
        <time>2020-06-02T20:48:12Z</time>
      </trkpt>
      <trkpt lat="39.949802" lon="3.178973">
        <ele>182.5</ele>
        <time>2020-06-02T20:48:14Z</time>
      </trkpt>
      <trkpt lat="39.949814" lon="3.179009">
        <ele>181.6</ele>
        <time>2020-06-02T20:48:15Z</time>
      </trkpt>
      <trkpt lat="39.949825" lon="3.179046">
        <ele>180.6</ele>
        <time>2020-06-02T20:48:16Z</time>
      </trkpt>
      <trkpt lat="39.949837" lon="3.17909">
        <ele>179.5</ele>
        <time>2020-06-02T20:48:17Z</time>
      </trkpt>
      <trkpt lat="39.949852" lon="3.179135">
        <ele>178.3</ele>
        <time>2020-06-02T20:48:18Z</time>
      </trkpt>
      <trkpt lat="39.949863" lon="3.179184">
        <ele>177.1</ele>
        <time>2020-06-02T20:48:19Z</time>
      </trkpt>
      <trkpt lat="39.949882" lon="3.179239">
        <ele>175.6</ele>
        <time>2020-06-02T20:48:20Z</time>
      </trkpt>
      <trkpt lat="39.949898" lon="3.179303">
        <ele>174</ele>
        <time>2020-06-02T20:48:22Z</time>
      </trkpt>
      <trkpt lat="39.949921" lon="3.179373">
        <ele>172.2</ele>
        <time>2020-06-02T20:48:23Z</time>
      </trkpt>
      <trkpt lat="39.94994" lon="3.179448">
        <ele>170.3</ele>
        <time>2020-06-02T20:48:24Z</time>
      </trkpt>
      <trkpt lat="39.949963" lon="3.179527">
        <ele>168.2</ele>
        <time>2020-06-02T20:48:25Z</time>
      </trkpt>
      <trkpt lat="39.949985" lon="3.179613">
        <ele>166</ele>
        <time>2020-06-02T20:48:26Z</time>
      </trkpt>
      <trkpt lat="39.950005" lon="3.179688">
        <ele>164</ele>
        <time>2020-06-02T20:48:27Z</time>
      </trkpt>
      <trkpt lat="39.950024" lon="3.179764">
        <ele>161.9</ele>
        <time>2020-06-02T20:48:28Z</time>
      </trkpt>
      <trkpt lat="39.950047" lon="3.179839">
        <ele>159.8</ele>
        <time>2020-06-02T20:48:29Z</time>
      </trkpt>
      <trkpt lat="39.950066" lon="3.179913">
        <ele>157.7</ele>
        <time>2020-06-02T20:48:30Z</time>
      </trkpt>
      <trkpt lat="39.950088" lon="3.179999">
        <ele>155.2</ele>
        <time>2020-06-02T20:48:32Z</time>
      </trkpt>
      <trkpt lat="39.950108" lon="3.180083">
        <ele>152.6</ele>
        <time>2020-06-02T20:48:33Z</time>
      </trkpt>
      <trkpt lat="39.950127" lon="3.180153">
        <ele>150.4</ele>
        <time>2020-06-02T20:48:34Z</time>
      </trkpt>
      <trkpt lat="39.95015" lon="3.180235">
        <ele>150.6</ele>
        <time>2020-06-02T20:48:35Z</time>
      </trkpt>
      <trkpt lat="39.950172" lon="3.180316">
        <ele>150.9</ele>
        <time>2020-06-02T20:48:36Z</time>
      </trkpt>
      <trkpt lat="39.950191" lon="3.180395">
        <ele>151.2</ele>
        <time>2020-06-02T20:48:37Z</time>
      </trkpt>
      <trkpt lat="39.950211" lon="3.180467">
        <ele>151.4</ele>
        <time>2020-06-02T20:48:39Z</time>
      </trkpt>
      <trkpt lat="39.950222" lon="3.180528">
        <ele>151.6</ele>
        <time>2020-06-02T20:48:40Z</time>
      </trkpt>
      <trkpt lat="39.950233" lon="3.180572">
        <ele>151.7</ele>
        <time>2020-06-02T20:48:41Z</time>
      </trkpt>
      <trkpt lat="39.950241" lon="3.18061">
        <ele>151.9</ele>
        <time>2020-06-02T20:48:42Z</time>
      </trkpt>
      <trkpt lat="39.950249" lon="3.180653">
        <ele>151.9</ele>
        <time>2020-06-02T20:48:43Z</time>
      </trkpt>
      <trkpt lat="39.95026" lon="3.180695">
        <ele>152</ele>
        <time>2020-06-02T20:48:44Z</time>
      </trkpt>
      <trkpt lat="39.950268" lon="3.180733">
        <ele>152</ele>
        <time>2020-06-02T20:48:45Z</time>
      </trkpt>
      <trkpt lat="39.950283" lon="3.180781">
        <ele>152.2</ele>
        <time>2020-06-02T20:48:46Z</time>
      </trkpt>
      <trkpt lat="39.950294" lon="3.180832">
        <ele>152.4</ele>
        <time>2020-06-02T20:48:48Z</time>
      </trkpt>
      <trkpt lat="39.95031" lon="3.180884">
        <ele>152.7</ele>
        <time>2020-06-02T20:48:49Z</time>
      </trkpt>
      <trkpt lat="39.950321" lon="3.180939">
        <ele>152.9</ele>
        <time>2020-06-02T20:48:50Z</time>
      </trkpt>
      <trkpt lat="39.950336" lon="3.180995">
        <ele>153.2</ele>
        <time>2020-06-02T20:48:51Z</time>
      </trkpt>
      <trkpt lat="39.950352" lon="3.181052">
        <ele>153.6</ele>
        <time>2020-06-02T20:48:52Z</time>
      </trkpt>
      <trkpt lat="39.950367" lon="3.181109">
        <ele>153.9</ele>
        <time>2020-06-02T20:48:54Z</time>
      </trkpt>
      <trkpt lat="39.950378" lon="3.181165">
        <ele>154.3</ele>
        <time>2020-06-02T20:48:55Z</time>
      </trkpt>
      <trkpt lat="39.95039" lon="3.181221">
        <ele>154.6</ele>
        <time>2020-06-02T20:48:56Z</time>
      </trkpt>
      <trkpt lat="39.950397" lon="3.181266">
        <ele>154.9</ele>
        <time>2020-06-02T20:48:57Z</time>
      </trkpt>
      <trkpt lat="39.950405" lon="3.181311">
        <ele>155.2</ele>
        <time>2020-06-02T20:48:58Z</time>
      </trkpt>
      <trkpt lat="39.950417" lon="3.181366">
        <ele>155.5</ele>
        <time>2020-06-02T20:48:59Z</time>
      </trkpt>
      <trkpt lat="39.950428" lon="3.181423">
        <ele>155.8</ele>
        <time>2020-06-02T20:49:00Z</time>
      </trkpt>
      <trkpt lat="39.950439" lon="3.181471">
        <ele>156.1</ele>
        <time>2020-06-02T20:49:01Z</time>
      </trkpt>
      <trkpt lat="39.950455" lon="3.181528">
        <ele>156.5</ele>
        <time>2020-06-02T20:49:03Z</time>
      </trkpt>
      <trkpt lat="39.95047" lon="3.181584">
        <ele>156.8</ele>
        <time>2020-06-02T20:49:04Z</time>
      </trkpt>
      <trkpt lat="39.950485" lon="3.181639">
        <ele>157.1</ele>
        <time>2020-06-02T20:49:05Z</time>
      </trkpt>
      <trkpt lat="39.950504" lon="3.181694">
        <ele>157.5</ele>
        <time>2020-06-02T20:49:06Z</time>
      </trkpt>
      <trkpt lat="39.950519" lon="3.181749">
        <ele>157.8</ele>
        <time>2020-06-02T20:49:07Z</time>
      </trkpt>
      <trkpt lat="39.950535" lon="3.181804">
        <ele>158.1</ele>
        <time>2020-06-02T20:49:09Z</time>
      </trkpt>
      <trkpt lat="39.95055" lon="3.18186">
        <ele>158.4</ele>
        <time>2020-06-02T20:49:10Z</time>
      </trkpt>
      <trkpt lat="39.950565" lon="3.181917">
        <ele>158.8</ele>
        <time>2020-06-02T20:49:11Z</time>
      </trkpt>
      <trkpt lat="39.950584" lon="3.181977">
        <ele>159.2</ele>
        <time>2020-06-02T20:49:12Z</time>
      </trkpt>
      <trkpt lat="39.950603" lon="3.182038">
        <ele>159.5</ele>
        <time>2020-06-02T20:49:13Z</time>
      </trkpt>
      <trkpt lat="39.950623" lon="3.1821">
        <ele>159.9</ele>
        <time>2020-06-02T20:49:15Z</time>
      </trkpt>
      <trkpt lat="39.950642" lon="3.182162">
        <ele>160.3</ele>
        <time>2020-06-02T20:49:16Z</time>
      </trkpt>
      <trkpt lat="39.950661" lon="3.182223">
        <ele>160.7</ele>
        <time>2020-06-02T20:49:17Z</time>
      </trkpt>
      <trkpt lat="39.950676" lon="3.182274">
        <ele>161</ele>
        <time>2020-06-02T20:49:18Z</time>
      </trkpt>
      <trkpt lat="39.950695" lon="3.182333">
        <ele>161.3</ele>
        <time>2020-06-02T20:49:19Z</time>
      </trkpt>
      <trkpt lat="39.95071" lon="3.182383">
        <ele>161.6</ele>
        <time>2020-06-02T20:49:20Z</time>
      </trkpt>
      <trkpt lat="39.950726" lon="3.182431">
        <ele>161.9</ele>
        <time>2020-06-02T20:49:21Z</time>
      </trkpt>
      <trkpt lat="39.950745" lon="3.182489">
        <ele>162.2</ele>
        <time>2020-06-02T20:49:22Z</time>
      </trkpt>
      <trkpt lat="39.950764" lon="3.182548">
        <ele>162.5</ele>
        <time>2020-06-02T20:49:24Z</time>
      </trkpt>
      <trkpt lat="39.950779" lon="3.182606">
        <ele>162.8</ele>
        <time>2020-06-02T20:49:25Z</time>
      </trkpt>
      <trkpt lat="39.950794" lon="3.182654">
        <ele>163.1</ele>
        <time>2020-06-02T20:49:26Z</time>
      </trkpt>
      <trkpt lat="39.950809" lon="3.182711">
        <ele>163.4</ele>
        <time>2020-06-02T20:49:27Z</time>
      </trkpt>
      <trkpt lat="39.950821" lon="3.182766">
        <ele>163.6</ele>
        <time>2020-06-02T20:49:28Z</time>
      </trkpt>
      <trkpt lat="39.950829" lon="3.182819">
        <ele>163.9</ele>
        <time>2020-06-02T20:49:29Z</time>
      </trkpt>
      <trkpt lat="39.95084" lon="3.182872">
        <ele>164.2</ele>
        <time>2020-06-02T20:49:31Z</time>
      </trkpt>
      <trkpt lat="39.950848" lon="3.182918">
        <ele>164.4</ele>
        <time>2020-06-02T20:49:32Z</time>
      </trkpt>
      <trkpt lat="39.950859" lon="3.182964">
        <ele>164.6</ele>
        <time>2020-06-02T20:49:33Z</time>
      </trkpt>
      <trkpt lat="39.950867" lon="3.183022">
        <ele>164.9</ele>
        <time>2020-06-02T20:49:34Z</time>
      </trkpt>
      <trkpt lat="39.950878" lon="3.18308">
        <ele>165.1</ele>
        <time>2020-06-02T20:49:35Z</time>
      </trkpt>
      <trkpt lat="39.950893" lon="3.183141">
        <ele>165.4</ele>
        <time>2020-06-02T20:49:36Z</time>
      </trkpt>
      <trkpt lat="39.950909" lon="3.183202">
        <ele>165.7</ele>
        <time>2020-06-02T20:49:37Z</time>
      </trkpt>
      <trkpt lat="39.950924" lon="3.183263">
        <ele>166</ele>
        <time>2020-06-02T20:49:39Z</time>
      </trkpt>
      <trkpt lat="39.950939" lon="3.183313">
        <ele>166.2</ele>
        <time>2020-06-02T20:49:40Z</time>
      </trkpt>
      <trkpt lat="39.950958" lon="3.183371">
        <ele>166.5</ele>
        <time>2020-06-02T20:49:41Z</time>
      </trkpt>
      <trkpt lat="39.950973" lon="3.18342">
        <ele>166.7</ele>
        <time>2020-06-02T20:49:42Z</time>
      </trkpt>
      <trkpt lat="39.950996" lon="3.183478">
        <ele>167</ele>
        <time>2020-06-02T20:49:43Z</time>
      </trkpt>
      <trkpt lat="39.951019" lon="3.183525">
        <ele>167.2</ele>
        <time>2020-06-02T20:49:44Z</time>
      </trkpt>
      <trkpt lat="39.951046" lon="3.18357">
        <ele>167.4</ele>
        <time>2020-06-02T20:49:45Z</time>
      </trkpt>
      <trkpt lat="39.951076" lon="3.183626">
        <ele>167.7</ele>
        <time>2020-06-02T20:49:46Z</time>
      </trkpt>
      <trkpt lat="39.951107" lon="3.183684">
        <ele>167.9</ele>
        <time>2020-06-02T20:49:47Z</time>
      </trkpt>
      <trkpt lat="39.951134" lon="3.183733">
        <ele>168.1</ele>
        <time>2020-06-02T20:49:48Z</time>
      </trkpt>
      <trkpt lat="39.951164" lon="3.183791">
        <ele>168.3</ele>
        <time>2020-06-02T20:49:50Z</time>
      </trkpt>
      <trkpt lat="39.951195" lon="3.183849">
        <ele>168.6</ele>
        <time>2020-06-02T20:49:51Z</time>
      </trkpt>
      <trkpt lat="39.951225" lon="3.183904">
        <ele>168.8</ele>
        <time>2020-06-02T20:49:52Z</time>
      </trkpt>
      <trkpt lat="39.951256" lon="3.183956">
        <ele>169</ele>
        <time>2020-06-02T20:49:53Z</time>
      </trkpt>
      <trkpt lat="39.951282" lon="3.183999">
        <ele>169.2</ele>
        <time>2020-06-02T20:49:54Z</time>
      </trkpt>
      <trkpt lat="39.951313" lon="3.184049">
        <ele>169.5</ele>
        <time>2020-06-02T20:49:55Z</time>
      </trkpt>
      <trkpt lat="39.95134" lon="3.184091">
        <ele>169.7</ele>
        <time>2020-06-02T20:49:56Z</time>
      </trkpt>
      <trkpt lat="39.95137" lon="3.184141">
        <ele>169.9</ele>
        <time>2020-06-02T20:49:58Z</time>
      </trkpt>
      <trkpt lat="39.951401" lon="3.184194">
        <ele>170.2</ele>
        <time>2020-06-02T20:49:59Z</time>
      </trkpt>
      <trkpt lat="39.951435" lon="3.184249">
        <ele>170.4</ele>
        <time>2020-06-02T20:50:00Z</time>
      </trkpt>
      <trkpt lat="39.951469" lon="3.184303">
        <ele>170.6</ele>
        <time>2020-06-02T20:50:01Z</time>
      </trkpt>
      <trkpt lat="39.9515" lon="3.184357">
        <ele>170.9</ele>
        <time>2020-06-02T20:50:02Z</time>
      </trkpt>
      <trkpt lat="39.95153" lon="3.184409">
        <ele>171</ele>
        <time>2020-06-02T20:50:04Z</time>
      </trkpt>
      <trkpt lat="39.951565" lon="3.184459">
        <ele>171.1</ele>
        <time>2020-06-02T20:50:05Z</time>
      </trkpt>
      <trkpt lat="39.951595" lon="3.184508">
        <ele>171.2</ele>
        <time>2020-06-02T20:50:06Z</time>
      </trkpt>
      <trkpt lat="39.951622" lon="3.184549">
        <ele>171.4</ele>
        <time>2020-06-02T20:50:07Z</time>
      </trkpt>
      <trkpt lat="39.951652" lon="3.184596">
        <ele>171.6</ele>
        <time>2020-06-02T20:50:08Z</time>
      </trkpt>
      <trkpt lat="39.951679" lon="3.184636">
        <ele>171.7</ele>
        <time>2020-06-02T20:50:09Z</time>
      </trkpt>
      <trkpt lat="39.951713" lon="3.184685">
        <ele>171.9</ele>
        <time>2020-06-02T20:50:10Z</time>
      </trkpt>
      <trkpt lat="39.951744" lon="3.184733">
        <ele>172.1</ele>
        <time>2020-06-02T20:50:12Z</time>
      </trkpt>
      <trkpt lat="39.951775" lon="3.184782">
        <ele>172.3</ele>
        <time>2020-06-02T20:50:13Z</time>
      </trkpt>
      <trkpt lat="39.951801" lon="3.184823">
        <ele>172.5</ele>
        <time>2020-06-02T20:50:14Z</time>
      </trkpt>
      <trkpt lat="39.951824" lon="3.184866">
        <ele>172.7</ele>
        <time>2020-06-02T20:50:15Z</time>
      </trkpt>
      <trkpt lat="39.951847" lon="3.184917">
        <ele>172.9</ele>
        <time>2020-06-02T20:50:16Z</time>
      </trkpt>
      <trkpt lat="39.95187" lon="3.18496">
        <ele>173.1</ele>
        <time>2020-06-02T20:50:17Z</time>
      </trkpt>
      <trkpt lat="39.951889" lon="3.185003">
        <ele>173.3</ele>
        <time>2020-06-02T20:50:18Z</time>
      </trkpt>
      <trkpt lat="39.951912" lon="3.185056">
        <ele>173.5</ele>
        <time>2020-06-02T20:50:19Z</time>
      </trkpt>
      <trkpt lat="39.951939" lon="3.18511">
        <ele>173.7</ele>
        <time>2020-06-02T20:50:20Z</time>
      </trkpt>
      <trkpt lat="39.951962" lon="3.185165">
        <ele>174</ele>
        <time>2020-06-02T20:50:22Z</time>
      </trkpt>
      <trkpt lat="39.951981" lon="3.185223">
        <ele>174.2</ele>
        <time>2020-06-02T20:50:23Z</time>
      </trkpt>
      <trkpt lat="39.951996" lon="3.185283">
        <ele>174.4</ele>
        <time>2020-06-02T20:50:24Z</time>
      </trkpt>
      <trkpt lat="39.952011" lon="3.185344">
        <ele>174.7</ele>
        <time>2020-06-02T20:50:25Z</time>
      </trkpt>
      <trkpt lat="39.952026" lon="3.185404">
        <ele>174.9</ele>
        <time>2020-06-02T20:50:26Z</time>
      </trkpt>
      <trkpt lat="39.952042" lon="3.185464">
        <ele>175.2</ele>
        <time>2020-06-02T20:50:28Z</time>
      </trkpt>
      <trkpt lat="39.952053" lon="3.185515">
        <ele>175.4</ele>
        <time>2020-06-02T20:50:29Z</time>
      </trkpt>
      <trkpt lat="39.952068" lon="3.185576">
        <ele>175.6</ele>
        <time>2020-06-02T20:50:30Z</time>
      </trkpt>
      <trkpt lat="39.952084" lon="3.185637">
        <ele>175.9</ele>
        <time>2020-06-02T20:50:31Z</time>
      </trkpt>
      <trkpt lat="39.952106" lon="3.185694">
        <ele>176.1</ele>
        <time>2020-06-02T20:50:32Z</time>
      </trkpt>
      <trkpt lat="39.952129" lon="3.185748">
        <ele>176.4</ele>
        <time>2020-06-02T20:50:33Z</time>
      </trkpt>
      <trkpt lat="39.952156" lon="3.1858">
        <ele>176.6</ele>
        <time>2020-06-02T20:50:35Z</time>
      </trkpt>
      <trkpt lat="39.952179" lon="3.185851">
        <ele>176.8</ele>
        <time>2020-06-02T20:50:36Z</time>
      </trkpt>
      <trkpt lat="39.952202" lon="3.185892">
        <ele>177</ele>
        <time>2020-06-02T20:50:37Z</time>
      </trkpt>
      <trkpt lat="39.952232" lon="3.185938">
        <ele>177.3</ele>
        <time>2020-06-02T20:50:38Z</time>
      </trkpt>
      <trkpt lat="39.952259" lon="3.185973">
        <ele>177.5</ele>
        <time>2020-06-02T20:50:39Z</time>
      </trkpt>
      <trkpt lat="39.952293" lon="3.186011">
        <ele>177.7</ele>
        <time>2020-06-02T20:50:40Z</time>
      </trkpt>
      <trkpt lat="39.952331" lon="3.186048">
        <ele>177.9</ele>
        <time>2020-06-02T20:50:41Z</time>
      </trkpt>
      <trkpt lat="39.952366" lon="3.186086">
        <ele>178.2</ele>
        <time>2020-06-02T20:50:43Z</time>
      </trkpt>
      <trkpt lat="39.952396" lon="3.186118">
        <ele>178.4</ele>
        <time>2020-06-02T20:50:44Z</time>
      </trkpt>
      <trkpt lat="39.952435" lon="3.186156">
        <ele>178.6</ele>
        <time>2020-06-02T20:50:45Z</time>
      </trkpt>
      <trkpt lat="39.952473" lon="3.186192">
        <ele>178.9</ele>
        <time>2020-06-02T20:50:46Z</time>
      </trkpt>
      <trkpt lat="39.952503" lon="3.186224">
        <ele>179.1</ele>
        <time>2020-06-02T20:50:47Z</time>
      </trkpt>
      <trkpt lat="39.952538" lon="3.186258">
        <ele>179.4</ele>
        <time>2020-06-02T20:50:48Z</time>
      </trkpt>
      <trkpt lat="39.952572" lon="3.186292">
        <ele>179.6</ele>
        <time>2020-06-02T20:50:49Z</time>
      </trkpt>
      <trkpt lat="39.952618" lon="3.186334">
        <ele>179.9</ele>
        <time>2020-06-02T20:50:50Z</time>
      </trkpt>
      <trkpt lat="39.95266" lon="3.186376">
        <ele>180.2</ele>
        <time>2020-06-02T20:50:51Z</time>
      </trkpt>
      <trkpt lat="39.952694" lon="3.186411">
        <ele>180.4</ele>
        <time>2020-06-02T20:50:52Z</time>
      </trkpt>
      <trkpt lat="39.95274" lon="3.186454">
        <ele>180.6</ele>
        <time>2020-06-02T20:50:54Z</time>
      </trkpt>
      <trkpt lat="39.952782" lon="3.186499">
        <ele>180.9</ele>
        <time>2020-06-02T20:50:55Z</time>
      </trkpt>
      <trkpt lat="39.952816" lon="3.18654">
        <ele>181.1</ele>
        <time>2020-06-02T20:50:56Z</time>
      </trkpt>
      <trkpt lat="39.952854" lon="3.186592">
        <ele>181.3</ele>
        <time>2020-06-02T20:50:57Z</time>
      </trkpt>
      <trkpt lat="39.952888" lon="3.18665">
        <ele>181.4</ele>
        <time>2020-06-02T20:50:58Z</time>
      </trkpt>
      <trkpt lat="39.952904" lon="3.186707">
        <ele>181.5</ele>
        <time>2020-06-02T20:50:59Z</time>
      </trkpt>
      <trkpt lat="39.952904" lon="3.186779">
        <ele>181.6</ele>
        <time>2020-06-02T20:51:00Z</time>
      </trkpt>
      <trkpt lat="39.952896" lon="3.186841">
        <ele>181.7</ele>
        <time>2020-06-02T20:51:01Z</time>
      </trkpt>
      <trkpt lat="39.952896" lon="3.186918">
        <ele>181.8</ele>
        <time>2020-06-02T20:51:03Z</time>
      </trkpt>
      <trkpt lat="39.952896" lon="3.186984">
        <ele>181.8</ele>
        <time>2020-06-02T20:51:04Z</time>
      </trkpt>
      <trkpt lat="39.952904" lon="3.187064">
        <ele>181.8</ele>
        <time>2020-06-02T20:51:05Z</time>
      </trkpt>
      <trkpt lat="39.952911" lon="3.187144">
        <ele>181.8</ele>
        <time>2020-06-02T20:51:06Z</time>
      </trkpt>
      <trkpt lat="39.952923" lon="3.187227">
        <ele>181.8</ele>
        <time>2020-06-02T20:51:07Z</time>
      </trkpt>
      <trkpt lat="39.952942" lon="3.187299">
        <ele>181.8</ele>
        <time>2020-06-02T20:51:08Z</time>
      </trkpt>
      <trkpt lat="39.952961" lon="3.187389">
        <ele>181.7</ele>
        <time>2020-06-02T20:51:09Z</time>
      </trkpt>
      <trkpt lat="39.952984" lon="3.187481">
        <ele>181.7</ele>
        <time>2020-06-02T20:51:11Z</time>
      </trkpt>
      <trkpt lat="39.953018" lon="3.187573">
        <ele>181.6</ele>
        <time>2020-06-02T20:51:12Z</time>
      </trkpt>
      <trkpt lat="39.953056" lon="3.187662">
        <ele>181.5</ele>
        <time>2020-06-02T20:51:13Z</time>
      </trkpt>
      <trkpt lat="39.953102" lon="3.187753">
        <ele>181.4</ele>
        <time>2020-06-02T20:51:14Z</time>
      </trkpt>
      <trkpt lat="39.953144" lon="3.187846">
        <ele>181.3</ele>
        <time>2020-06-02T20:51:15Z</time>
      </trkpt>
      <trkpt lat="39.953182" lon="3.187924">
        <ele>181.2</ele>
        <time>2020-06-02T20:51:16Z</time>
      </trkpt>
      <trkpt lat="39.953213" lon="3.188025">
        <ele>181.1</ele>
        <time>2020-06-02T20:51:18Z</time>
      </trkpt>
      <trkpt lat="39.953228" lon="3.188116">
        <ele>181.1</ele>
        <time>2020-06-02T20:51:19Z</time>
      </trkpt>
      <trkpt lat="39.953236" lon="3.188207">
        <ele>181.1</ele>
        <time>2020-06-02T20:51:20Z</time>
      </trkpt>
      <trkpt lat="39.953224" lon="3.188299">
        <ele>181</ele>
        <time>2020-06-02T20:51:21Z</time>
      </trkpt>
      <trkpt lat="39.953201" lon="3.188386">
        <ele>180.9</ele>
        <time>2020-06-02T20:51:22Z</time>
      </trkpt>
      <trkpt lat="39.953178" lon="3.188493">
        <ele>180.8</ele>
        <time>2020-06-02T20:51:23Z</time>
      </trkpt>
      <trkpt lat="39.953163" lon="3.188604">
        <ele>180.7</ele>
        <time>2020-06-02T20:51:24Z</time>
      </trkpt>
      <trkpt lat="39.953156" lon="3.18872">
        <ele>180.5</ele>
        <time>2020-06-02T20:51:25Z</time>
      </trkpt>
      <trkpt lat="39.953159" lon="3.188842">
        <ele>180.3</ele>
        <time>2020-06-02T20:51:26Z</time>
      </trkpt>
      <trkpt lat="39.953175" lon="3.188968">
        <ele>180</ele>
        <time>2020-06-02T20:51:28Z</time>
      </trkpt>
      <trkpt lat="39.953213" lon="3.189065">
        <ele>179.7</ele>
        <time>2020-06-02T20:51:29Z</time>
      </trkpt>
      <trkpt lat="39.9533" lon="3.189131">
        <ele>179.3</ele>
        <time>2020-06-02T20:51:30Z</time>
      </trkpt>
      <trkpt lat="39.953392" lon="3.189188">
        <ele>179</ele>
        <time>2020-06-02T20:51:31Z</time>
      </trkpt>
      <trkpt lat="39.953491" lon="3.18923">
        <ele>178.6</ele>
        <time>2020-06-02T20:51:32Z</time>
      </trkpt>
      <trkpt lat="39.953575" lon="3.189238">
        <ele>178.2</ele>
        <time>2020-06-02T20:51:33Z</time>
      </trkpt>
      <trkpt lat="39.953678" lon="3.18925">
        <ele>177.6</ele>
        <time>2020-06-02T20:51:34Z</time>
      </trkpt>
      <trkpt lat="39.953789" lon="3.189274">
        <ele>177.1</ele>
        <time>2020-06-02T20:51:36Z</time>
      </trkpt>
      <trkpt lat="39.95388" lon="3.189306">
        <ele>176.6</ele>
        <time>2020-06-02T20:51:37Z</time>
      </trkpt>
      <trkpt lat="39.953998" lon="3.189353">
        <ele>176.1</ele>
        <time>2020-06-02T20:51:38Z</time>
      </trkpt>
      <trkpt lat="39.954094" lon="3.189403">
        <ele>175.6</ele>
        <time>2020-06-02T20:51:39Z</time>
      </trkpt>
      <trkpt lat="39.954163" lon="3.189523">
        <ele>175.2</ele>
        <time>2020-06-02T20:51:40Z</time>
      </trkpt>
      <trkpt lat="39.954208" lon="3.189649">
        <ele>175</ele>
        <time>2020-06-02T20:51:41Z</time>
      </trkpt>
      <trkpt lat="39.954197" lon="3.189754">
        <ele>174.9</ele>
        <time>2020-06-02T20:51:42Z</time>
      </trkpt>
      <trkpt lat="39.954128" lon="3.189855">
        <ele>174.8</ele>
        <time>2020-06-02T20:51:43Z</time>
      </trkpt>
      <trkpt lat="39.95406" lon="3.189954">
        <ele>174.9</ele>
        <time>2020-06-02T20:51:45Z</time>
      </trkpt>
      <trkpt lat="39.953979" lon="3.190033">
        <ele>175.1</ele>
        <time>2020-06-02T20:51:46Z</time>
      </trkpt>
      <trkpt lat="39.953915" lon="3.190085">
        <ele>175.3</ele>
        <time>2020-06-02T20:51:47Z</time>
      </trkpt>
      <trkpt lat="39.953838" lon="3.190147">
        <ele>175.6</ele>
        <time>2020-06-02T20:51:48Z</time>
      </trkpt>
      <trkpt lat="39.953785" lon="3.190197">
        <ele>175.9</ele>
        <time>2020-06-02T20:51:49Z</time>
      </trkpt>
      <trkpt lat="39.95372" lon="3.190255">
        <ele>176.2</ele>
        <time>2020-06-02T20:51:50Z</time>
      </trkpt>
      <trkpt lat="39.953659" lon="3.190312">
        <ele>176.5</ele>
        <time>2020-06-02T20:51:51Z</time>
      </trkpt>
      <trkpt lat="39.953602" lon="3.190365">
        <ele>176.8</ele>
        <time>2020-06-02T20:51:53Z</time>
      </trkpt>
      <trkpt lat="39.95356" lon="3.190408">
        <ele>177.1</ele>
        <time>2020-06-02T20:51:54Z</time>
      </trkpt>
      <trkpt lat="39.95351" lon="3.190462">
        <ele>177.4</ele>
        <time>2020-06-02T20:51:55Z</time>
      </trkpt>
      <trkpt lat="39.953476" lon="3.190511">
        <ele>177.6</ele>
        <time>2020-06-02T20:51:56Z</time>
      </trkpt>
      <trkpt lat="39.953438" lon="3.190568">
        <ele>177.8</ele>
        <time>2020-06-02T20:51:57Z</time>
      </trkpt>
      <trkpt lat="39.953403" lon="3.190622">
        <ele>178.1</ele>
        <time>2020-06-02T20:51:58Z</time>
      </trkpt>
      <trkpt lat="39.953373" lon="3.190674">
        <ele>178.3</ele>
        <time>2020-06-02T20:51:59Z</time>
      </trkpt>
      <trkpt lat="39.953339" lon="3.190726">
        <ele>178.5</ele>
        <time>2020-06-02T20:52:01Z</time>
      </trkpt>
      <trkpt lat="39.953312" lon="3.190772">
        <ele>178.7</ele>
        <time>2020-06-02T20:52:02Z</time>
      </trkpt>
      <trkpt lat="39.953278" lon="3.190829">
        <ele>178.9</ele>
        <time>2020-06-02T20:52:03Z</time>
      </trkpt>
      <trkpt lat="39.953251" lon="3.190878">
        <ele>179.1</ele>
        <time>2020-06-02T20:52:04Z</time>
      </trkpt>
      <trkpt lat="39.95322" lon="3.190936">
        <ele>179.4</ele>
        <time>2020-06-02T20:52:05Z</time>
      </trkpt>
      <trkpt lat="39.953186" lon="3.190993">
        <ele>179.7</ele>
        <time>2020-06-02T20:52:06Z</time>
      </trkpt>
      <trkpt lat="39.953156" lon="3.191051">
        <ele>180</ele>
        <time>2020-06-02T20:52:07Z</time>
      </trkpt>
      <trkpt lat="39.953133" lon="3.1911">
        <ele>180.2</ele>
        <time>2020-06-02T20:52:08Z</time>
      </trkpt>
      <trkpt lat="39.953102" lon="3.191161">
        <ele>180.5</ele>
        <time>2020-06-02T20:52:10Z</time>
      </trkpt>
      <trkpt lat="39.953072" lon="3.191224">
        <ele>180.7</ele>
        <time>2020-06-02T20:52:11Z</time>
      </trkpt>
      <trkpt lat="39.953037" lon="3.191288">
        <ele>181</ele>
        <time>2020-06-02T20:52:12Z</time>
      </trkpt>
      <trkpt lat="39.953014" lon="3.191341">
        <ele>181.2</ele>
        <time>2020-06-02T20:52:13Z</time>
      </trkpt>
      <trkpt lat="39.952988" lon="3.191394">
        <ele>181.5</ele>
        <time>2020-06-02T20:52:14Z</time>
      </trkpt>
      <trkpt lat="39.952953" lon="3.191458">
        <ele>181.7</ele>
        <time>2020-06-02T20:52:15Z</time>
      </trkpt>
      <trkpt lat="39.952923" lon="3.191521">
        <ele>181.9</ele>
        <time>2020-06-02T20:52:16Z</time>
      </trkpt>
      <trkpt lat="39.952892" lon="3.191585">
        <ele>182.1</ele>
        <time>2020-06-02T20:52:18Z</time>
      </trkpt>
      <trkpt lat="39.952866" lon="3.191652">
        <ele>182.7</ele>
        <time>2020-06-02T20:52:19Z</time>
      </trkpt>
      <trkpt lat="39.952846" lon="3.191708">
        <ele>182.9</ele>
        <time>2020-06-02T20:52:20Z</time>
      </trkpt>
      <trkpt lat="39.952827" lon="3.191775">
        <ele>183.1</ele>
        <time>2020-06-02T20:52:21Z</time>
      </trkpt>
      <trkpt lat="39.952812" lon="3.191832">
        <ele>183.3</ele>
        <time>2020-06-02T20:52:22Z</time>
      </trkpt>
      <trkpt lat="39.952804" lon="3.191901">
        <ele>183.5</ele>
        <time>2020-06-02T20:52:23Z</time>
      </trkpt>
      <trkpt lat="39.952812" lon="3.191967">
        <ele>183.7</ele>
        <time>2020-06-02T20:52:24Z</time>
      </trkpt>
      <trkpt lat="39.952827" lon="3.192031">
        <ele>183.9</ele>
        <time>2020-06-02T20:52:26Z</time>
      </trkpt>
      <trkpt lat="39.952843" lon="3.192093">
        <ele>184.1</ele>
        <time>2020-06-02T20:52:27Z</time>
      </trkpt>
      <trkpt lat="39.95285" lon="3.192149">
        <ele>184.2</ele>
        <time>2020-06-02T20:52:28Z</time>
      </trkpt>
      <trkpt lat="39.952866" lon="3.192203">
        <ele>184.4</ele>
        <time>2020-06-02T20:52:29Z</time>
      </trkpt>
      <trkpt lat="39.952873" lon="3.192248">
        <ele>184.5</ele>
        <time>2020-06-02T20:52:30Z</time>
      </trkpt>
      <trkpt lat="39.952888" lon="3.192303">
        <ele>184.7</ele>
        <time>2020-06-02T20:52:31Z</time>
      </trkpt>
      <trkpt lat="39.9529" lon="3.192364">
        <ele>184.9</ele>
        <time>2020-06-02T20:52:33Z</time>
      </trkpt>
      <trkpt lat="39.952896" lon="3.192431">
        <ele>185.1</ele>
        <time>2020-06-02T20:52:34Z</time>
      </trkpt>
      <trkpt lat="39.952888" lon="3.192488">
        <ele>185.3</ele>
        <time>2020-06-02T20:52:35Z</time>
      </trkpt>
      <trkpt lat="39.952869" lon="3.192546">
        <ele>185.5</ele>
        <time>2020-06-02T20:52:36Z</time>
      </trkpt>
      <trkpt lat="39.952835" lon="3.192607">
        <ele>185.8</ele>
        <time>2020-06-02T20:52:37Z</time>
      </trkpt>
      <trkpt lat="39.952785" lon="3.192645">
        <ele>186.1</ele>
        <time>2020-06-02T20:52:38Z</time>
      </trkpt>
      <trkpt lat="39.952743" lon="3.192669">
        <ele>186.3</ele>
        <time>2020-06-02T20:52:39Z</time>
      </trkpt>
      <trkpt lat="39.952702" lon="3.192692">
        <ele>186.5</ele>
        <time>2020-06-02T20:52:40Z</time>
      </trkpt>
      <trkpt lat="39.95266" lon="3.192716">
        <ele>186.8</ele>
        <time>2020-06-02T20:52:41Z</time>
      </trkpt>
      <trkpt lat="39.952614" lon="3.19274">
        <ele>187</ele>
        <time>2020-06-02T20:52:42Z</time>
      </trkpt>
      <trkpt lat="39.952576" lon="3.192755">
        <ele>187.2</ele>
        <time>2020-06-02T20:52:43Z</time>
      </trkpt>
      <trkpt lat="39.95253" lon="3.192767">
        <ele>187.4</ele>
        <time>2020-06-02T20:52:45Z</time>
      </trkpt>
      <trkpt lat="39.95248" lon="3.192775">
        <ele>187.7</ele>
        <time>2020-06-02T20:52:46Z</time>
      </trkpt>
      <trkpt lat="39.952442" lon="3.192782">
        <ele>187.8</ele>
        <time>2020-06-02T20:52:47Z</time>
      </trkpt>
      <trkpt lat="39.952404" lon="3.192791">
        <ele>188</ele>
        <time>2020-06-02T20:52:48Z</time>
      </trkpt>
      <trkpt lat="39.952354" lon="3.192803">
        <ele>188.2</ele>
        <time>2020-06-02T20:52:49Z</time>
      </trkpt>
      <trkpt lat="39.952309" lon="3.192815">
        <ele>188.5</ele>
        <time>2020-06-02T20:52:50Z</time>
      </trkpt>
      <trkpt lat="39.952259" lon="3.192825">
        <ele>188.7</ele>
        <time>2020-06-02T20:52:51Z</time>
      </trkpt>
      <trkpt lat="39.952221" lon="3.192832">
        <ele>188.9</ele>
        <time>2020-06-02T20:52:52Z</time>
      </trkpt>
      <trkpt lat="39.952171" lon="3.192842">
        <ele>189.2</ele>
        <time>2020-06-02T20:52:54Z</time>
      </trkpt>
      <trkpt lat="39.952126" lon="3.192854">
        <ele>189.5</ele>
        <time>2020-06-02T20:52:55Z</time>
      </trkpt>
      <trkpt lat="39.95208" lon="3.192866">
        <ele>189.8</ele>
        <time>2020-06-02T20:52:56Z</time>
      </trkpt>
      <trkpt lat="39.952042" lon="3.192878">
        <ele>190</ele>
        <time>2020-06-02T20:52:57Z</time>
      </trkpt>
      <trkpt lat="39.952" lon="3.192896">
        <ele>190.3</ele>
        <time>2020-06-02T20:52:58Z</time>
      </trkpt>
      <trkpt lat="39.951958" lon="3.192921">
        <ele>190.6</ele>
        <time>2020-06-02T20:52:59Z</time>
      </trkpt>
      <trkpt lat="39.951923" lon="3.192949">
        <ele>190.9</ele>
        <time>2020-06-02T20:53:00Z</time>
      </trkpt>
      <trkpt lat="39.951893" lon="3.192986">
        <ele>191.1</ele>
        <time>2020-06-02T20:53:01Z</time>
      </trkpt>
      <trkpt lat="39.951862" lon="3.193026">
        <ele>191.4</ele>
        <time>2020-06-02T20:53:02Z</time>
      </trkpt>
      <trkpt lat="39.951824" lon="3.193074">
        <ele>191.7</ele>
        <time>2020-06-02T20:53:04Z</time>
      </trkpt>
      <trkpt lat="39.951794" lon="3.193113">
        <ele>192</ele>
        <time>2020-06-02T20:53:05Z</time>
      </trkpt>
      <trkpt lat="39.951755" lon="3.193159">
        <ele>192.4</ele>
        <time>2020-06-02T20:53:06Z</time>
      </trkpt>
      <trkpt lat="39.951717" lon="3.193207">
        <ele>192.7</ele>
        <time>2020-06-02T20:53:07Z</time>
      </trkpt>
      <trkpt lat="39.951687" lon="3.193253">
        <ele>193</ele>
        <time>2020-06-02T20:53:08Z</time>
      </trkpt>
      <trkpt lat="39.95166" lon="3.193297">
        <ele>193.3</ele>
        <time>2020-06-02T20:53:10Z</time>
      </trkpt>
      <trkpt lat="39.951637" lon="3.193336">
        <ele>193.6</ele>
        <time>2020-06-02T20:53:11Z</time>
      </trkpt>
      <trkpt lat="39.951618" lon="3.193368">
        <ele>193.8</ele>
        <time>2020-06-02T20:53:12Z</time>
      </trkpt>
      <trkpt lat="39.951591" lon="3.193406">
        <ele>194.1</ele>
        <time>2020-06-02T20:53:13Z</time>
      </trkpt>
      <trkpt lat="39.951565" lon="3.193445">
        <ele>194.4</ele>
        <time>2020-06-02T20:53:14Z</time>
      </trkpt>
      <trkpt lat="39.951542" lon="3.193478">
        <ele>194.7</ele>
        <time>2020-06-02T20:53:15Z</time>
      </trkpt>
      <trkpt lat="39.951515" lon="3.193517">
        <ele>195</ele>
        <time>2020-06-02T20:53:16Z</time>
      </trkpt>
      <trkpt lat="39.951485" lon="3.193549">
        <ele>195.3</ele>
        <time>2020-06-02T20:53:17Z</time>
      </trkpt>
      <trkpt lat="39.951458" lon="3.193581">
        <ele>195.6</ele>
        <time>2020-06-02T20:53:18Z</time>
      </trkpt>
      <trkpt lat="39.95142" lon="3.193618">
        <ele>195.9</ele>
        <time>2020-06-02T20:53:20Z</time>
      </trkpt>
      <trkpt lat="39.951382" lon="3.193658">
        <ele>196.2</ele>
        <time>2020-06-02T20:53:21Z</time>
      </trkpt>
      <trkpt lat="39.951347" lon="3.193699">
        <ele>196.5</ele>
        <time>2020-06-02T20:53:22Z</time>
      </trkpt>
      <trkpt lat="39.951317" lon="3.193735">
        <ele>196.7</ele>
        <time>2020-06-02T20:53:23Z</time>
      </trkpt>
      <trkpt lat="39.951282" lon="3.19378">
        <ele>196.9</ele>
        <time>2020-06-02T20:53:24Z</time>
      </trkpt>
      <trkpt lat="39.951252" lon="3.193833">
        <ele>197.2</ele>
        <time>2020-06-02T20:53:25Z</time>
      </trkpt>
      <trkpt lat="39.951241" lon="3.193896">
        <ele>197.4</ele>
        <time>2020-06-02T20:53:27Z</time>
      </trkpt>
      <trkpt lat="39.951248" lon="3.193965">
        <ele>197.6</ele>
        <time>2020-06-02T20:53:28Z</time>
      </trkpt>
      <trkpt lat="39.95126" lon="3.194021">
        <ele>197.9</ele>
        <time>2020-06-02T20:53:29Z</time>
      </trkpt>
      <trkpt lat="39.951279" lon="3.19409">
        <ele>198.1</ele>
        <time>2020-06-02T20:53:30Z</time>
      </trkpt>
      <trkpt lat="39.951302" lon="3.194157">
        <ele>198.4</ele>
        <time>2020-06-02T20:53:31Z</time>
      </trkpt>
      <trkpt lat="39.951332" lon="3.194219">
        <ele>198.6</ele>
        <time>2020-06-02T20:53:32Z</time>
      </trkpt>
      <trkpt lat="39.951363" lon="3.194266">
        <ele>198.9</ele>
        <time>2020-06-02T20:53:33Z</time>
      </trkpt>
      <trkpt lat="39.951397" lon="3.194325">
        <ele>199.1</ele>
        <time>2020-06-02T20:53:35Z</time>
      </trkpt>
      <trkpt lat="39.951427" lon="3.194387">
        <ele>199.4</ele>
        <time>2020-06-02T20:53:36Z</time>
      </trkpt>
      <trkpt lat="39.951458" lon="3.194452">
        <ele>199.7</ele>
        <time>2020-06-02T20:53:37Z</time>
      </trkpt>
      <trkpt lat="39.951488" lon="3.194519">
        <ele>199.9</ele>
        <time>2020-06-02T20:53:38Z</time>
      </trkpt>
      <trkpt lat="39.951504" lon="3.194579">
        <ele>200.1</ele>
        <time>2020-06-02T20:53:39Z</time>
      </trkpt>
      <trkpt lat="39.951511" lon="3.194643">
        <ele>200.3</ele>
        <time>2020-06-02T20:53:40Z</time>
      </trkpt>
      <trkpt lat="39.951508" lon="3.194719">
        <ele>200.5</ele>
        <time>2020-06-02T20:53:41Z</time>
      </trkpt>
      <trkpt lat="39.951504" lon="3.194797">
        <ele>200.7</ele>
        <time>2020-06-02T20:53:43Z</time>
      </trkpt>
      <trkpt lat="39.951496" lon="3.194859">
        <ele>200.9</ele>
        <time>2020-06-02T20:53:44Z</time>
      </trkpt>
      <trkpt lat="39.951458" lon="3.19491">
        <ele>201.2</ele>
        <time>2020-06-02T20:53:45Z</time>
      </trkpt>
      <trkpt lat="39.951408" lon="3.194935">
        <ele>201.4</ele>
        <time>2020-06-02T20:53:46Z</time>
      </trkpt>
      <trkpt lat="39.951366" lon="3.194954">
        <ele>201.6</ele>
        <time>2020-06-02T20:53:47Z</time>
      </trkpt>
      <trkpt lat="39.951328" lon="3.194973">
        <ele>201.8</ele>
        <time>2020-06-02T20:53:48Z</time>
      </trkpt>
      <trkpt lat="39.95129" lon="3.194993">
        <ele>201.9</ele>
        <time>2020-06-02T20:53:49Z</time>
      </trkpt>
      <trkpt lat="39.951244" lon="3.195017">
        <ele>202.2</ele>
        <time>2020-06-02T20:53:50Z</time>
      </trkpt>
      <trkpt lat="39.951202" lon="3.195043">
        <ele>202.4</ele>
        <time>2020-06-02T20:53:51Z</time>
      </trkpt>
      <trkpt lat="39.95116" lon="3.195072">
        <ele>202.6</ele>
        <time>2020-06-02T20:53:53Z</time>
      </trkpt>
      <trkpt lat="39.951118" lon="3.195104">
        <ele>202.9</ele>
        <time>2020-06-02T20:53:54Z</time>
      </trkpt>
      <trkpt lat="39.951076" lon="3.195139">
        <ele>203.2</ele>
        <time>2020-06-02T20:53:55Z</time>
      </trkpt>
      <trkpt lat="39.951038" lon="3.195174">
        <ele>203.5</ele>
        <time>2020-06-02T20:53:56Z</time>
      </trkpt>
      <trkpt lat="39.951" lon="3.195211">
        <ele>203.7</ele>
        <time>2020-06-02T20:53:57Z</time>
      </trkpt>
      <trkpt lat="39.950966" lon="3.195252">
        <ele>204</ele>
        <time>2020-06-02T20:53:59Z</time>
      </trkpt>
      <trkpt lat="39.950935" lon="3.1953">
        <ele>204.2</ele>
        <time>2020-06-02T20:54:00Z</time>
      </trkpt>
      <trkpt lat="39.950912" lon="3.195356">
        <ele>204.5</ele>
        <time>2020-06-02T20:54:01Z</time>
      </trkpt>
      <trkpt lat="39.950897" lon="3.195417">
        <ele>204.7</ele>
        <time>2020-06-02T20:54:02Z</time>
      </trkpt>
      <trkpt lat="39.950886" lon="3.195477">
        <ele>205</ele>
        <time>2020-06-02T20:54:03Z</time>
      </trkpt>
      <trkpt lat="39.95087" lon="3.195537">
        <ele>205.3</ele>
        <time>2020-06-02T20:54:05Z</time>
      </trkpt>
      <trkpt lat="39.950859" lon="3.195586">
        <ele>205.5</ele>
        <time>2020-06-02T20:54:06Z</time>
      </trkpt>
      <trkpt lat="39.950851" lon="3.195646">
        <ele>205.7</ele>
        <time>2020-06-02T20:54:07Z</time>
      </trkpt>
      <trkpt lat="39.950855" lon="3.195704">
        <ele>205.9</ele>
        <time>2020-06-02T20:54:08Z</time>
      </trkpt>
      <trkpt lat="39.950863" lon="3.195759">
        <ele>206.2</ele>
        <time>2020-06-02T20:54:09Z</time>
      </trkpt>
      <trkpt lat="39.950878" lon="3.19581">
        <ele>206.4</ele>
        <time>2020-06-02T20:54:10Z</time>
      </trkpt>
      <trkpt lat="39.950886" lon="3.195853">
        <ele>206.6</ele>
        <time>2020-06-02T20:54:11Z</time>
      </trkpt>
      <trkpt lat="39.950897" lon="3.195906">
        <ele>206.9</ele>
        <time>2020-06-02T20:54:13Z</time>
      </trkpt>
      <trkpt lat="39.950901" lon="3.195954">
        <ele>207.1</ele>
        <time>2020-06-02T20:54:14Z</time>
      </trkpt>
      <trkpt lat="39.950909" lon="3.196004">
        <ele>207.4</ele>
        <time>2020-06-02T20:54:15Z</time>
      </trkpt>
      <trkpt lat="39.950916" lon="3.196069">
        <ele>207.7</ele>
        <time>2020-06-02T20:54:16Z</time>
      </trkpt>
      <trkpt lat="39.950924" lon="3.196125">
        <ele>208</ele>
        <time>2020-06-02T20:54:17Z</time>
      </trkpt>
      <trkpt lat="39.950932" lon="3.196196">
        <ele>208.3</ele>
        <time>2020-06-02T20:54:18Z</time>
      </trkpt>
      <trkpt lat="39.950939" lon="3.196256">
        <ele>208.5</ele>
        <time>2020-06-02T20:54:19Z</time>
      </trkpt>
      <trkpt lat="39.950947" lon="3.196314">
        <ele>208.8</ele>
        <time>2020-06-02T20:54:20Z</time>
      </trkpt>
      <trkpt lat="39.950954" lon="3.196383">
        <ele>209.1</ele>
        <time>2020-06-02T20:54:21Z</time>
      </trkpt>
      <trkpt lat="39.950962" lon="3.196437">
        <ele>209.3</ele>
        <time>2020-06-02T20:54:22Z</time>
      </trkpt>
      <trkpt lat="39.950977" lon="3.196499">
        <ele>209.6</ele>
        <time>2020-06-02T20:54:23Z</time>
      </trkpt>
      <trkpt lat="39.950989" lon="3.196556">
        <ele>209.8</ele>
        <time>2020-06-02T20:54:25Z</time>
      </trkpt>
      <trkpt lat="39.951" lon="3.1966">
        <ele>210</ele>
        <time>2020-06-02T20:54:26Z</time>
      </trkpt>
      <trkpt lat="39.951015" lon="3.196653">
        <ele>210.2</ele>
        <time>2020-06-02T20:54:27Z</time>
      </trkpt>
      <trkpt lat="39.951031" lon="3.196706">
        <ele>210.5</ele>
        <time>2020-06-02T20:54:28Z</time>
      </trkpt>
      <trkpt lat="39.951042" lon="3.196753">
        <ele>210.7</ele>
        <time>2020-06-02T20:54:29Z</time>
      </trkpt>
      <trkpt lat="39.951057" lon="3.196811">
        <ele>210.9</ele>
        <time>2020-06-02T20:54:30Z</time>
      </trkpt>
      <trkpt lat="39.951076" lon="3.19687">
        <ele>211.2</ele>
        <time>2020-06-02T20:54:31Z</time>
      </trkpt>
      <trkpt lat="39.951096" lon="3.196928">
        <ele>211.5</ele>
        <time>2020-06-02T20:54:33Z</time>
      </trkpt>
      <trkpt lat="39.951122" lon="3.196989">
        <ele>211.8</ele>
        <time>2020-06-02T20:54:34Z</time>
      </trkpt>
      <trkpt lat="39.951145" lon="3.19704">
        <ele>212.1</ele>
        <time>2020-06-02T20:54:35Z</time>
      </trkpt>
      <trkpt lat="39.951172" lon="3.197103">
        <ele>212.4</ele>
        <time>2020-06-02T20:54:36Z</time>
      </trkpt>
      <trkpt lat="39.951199" lon="3.197167">
        <ele>212.7</ele>
        <time>2020-06-02T20:54:37Z</time>
      </trkpt>
      <trkpt lat="39.951229" lon="3.197228">
        <ele>213.1</ele>
        <time>2020-06-02T20:54:38Z</time>
      </trkpt>
      <trkpt lat="39.951252" lon="3.197276">
        <ele>213.4</ele>
        <time>2020-06-02T20:54:39Z</time>
      </trkpt>
      <trkpt lat="39.951279" lon="3.197329">
        <ele>213.7</ele>
        <time>2020-06-02T20:54:41Z</time>
      </trkpt>
      <trkpt lat="39.951305" lon="3.197377">
        <ele>214</ele>
        <time>2020-06-02T20:54:42Z</time>
      </trkpt>
      <trkpt lat="39.951328" lon="3.197424">
        <ele>214.3</ele>
        <time>2020-06-02T20:54:43Z</time>
      </trkpt>
      <trkpt lat="39.951351" lon="3.197473">
        <ele>214.6</ele>
        <time>2020-06-02T20:54:44Z</time>
      </trkpt>
      <trkpt lat="39.951374" lon="3.197523">
        <ele>214.9</ele>
        <time>2020-06-02T20:54:45Z</time>
      </trkpt>
      <trkpt lat="39.951397" lon="3.197574">
        <ele>215.2</ele>
        <time>2020-06-02T20:54:47Z</time>
      </trkpt>
      <trkpt lat="39.951424" lon="3.197627">
        <ele>215.5</ele>
        <time>2020-06-02T20:54:48Z</time>
      </trkpt>
      <trkpt lat="39.951447" lon="3.197683">
        <ele>215.8</ele>
        <time>2020-06-02T20:54:49Z</time>
      </trkpt>
      <trkpt lat="39.951462" lon="3.197731">
        <ele>216.1</ele>
        <time>2020-06-02T20:54:50Z</time>
      </trkpt>
      <trkpt lat="39.951485" lon="3.197789">
        <ele>216.5</ele>
        <time>2020-06-02T20:54:51Z</time>
      </trkpt>
      <trkpt lat="39.951504" lon="3.197847">
        <ele>216.8</ele>
        <time>2020-06-02T20:54:52Z</time>
      </trkpt>
      <trkpt lat="39.951523" lon="3.197905">
        <ele>217.2</ele>
        <time>2020-06-02T20:54:54Z</time>
      </trkpt>
      <trkpt lat="39.951538" lon="3.197954">
        <ele>217.5</ele>
        <time>2020-06-02T20:54:55Z</time>
      </trkpt>
      <trkpt lat="39.951553" lon="3.198015">
        <ele>217.8</ele>
        <time>2020-06-02T20:54:56Z</time>
      </trkpt>
      <trkpt lat="39.951565" lon="3.198076">
        <ele>218.1</ele>
        <time>2020-06-02T20:54:57Z</time>
      </trkpt>
      <trkpt lat="39.951576" lon="3.198124">
        <ele>218.2</ele>
        <time>2020-06-02T20:54:58Z</time>
      </trkpt>
      <trkpt lat="39.951588" lon="3.198178">
        <ele>218.4</ele>
        <time>2020-06-02T20:54:59Z</time>
      </trkpt>
      <trkpt lat="39.951603" lon="3.198229">
        <ele>218.4</ele>
        <time>2020-06-02T20:55:00Z</time>
      </trkpt>
      <trkpt lat="39.951622" lon="3.198279">
        <ele>218.4</ele>
        <time>2020-06-02T20:55:02Z</time>
      </trkpt>
      <trkpt lat="39.951645" lon="3.198329">
        <ele>218.4</ele>
        <time>2020-06-02T20:55:03Z</time>
      </trkpt>
      <trkpt lat="39.951668" lon="3.198377">
        <ele>218.4</ele>
        <time>2020-06-02T20:55:04Z</time>
      </trkpt>
      <trkpt lat="39.951706" lon="3.198417">
        <ele>218.4</ele>
        <time>2020-06-02T20:55:05Z</time>
      </trkpt>
      <trkpt lat="39.951752" lon="3.198442">
        <ele>218.3</ele>
        <time>2020-06-02T20:55:06Z</time>
      </trkpt>
      <trkpt lat="39.951809" lon="3.198461">
        <ele>218.2</ele>
        <time>2020-06-02T20:55:08Z</time>
      </trkpt>
      <trkpt lat="39.95187" lon="3.198484">
        <ele>218.2</ele>
        <time>2020-06-02T20:55:09Z</time>
      </trkpt>
      <trkpt lat="39.951923" lon="3.198502">
        <ele>218.1</ele>
        <time>2020-06-02T20:55:10Z</time>
      </trkpt>
      <trkpt lat="39.951996" lon="3.198517">
        <ele>218.1</ele>
        <time>2020-06-02T20:55:11Z</time>
      </trkpt>
      <trkpt lat="39.952072" lon="3.198522">
        <ele>218</ele>
        <time>2020-06-02T20:55:12Z</time>
      </trkpt>
      <trkpt lat="39.95216" lon="3.198526">
        <ele>217.9</ele>
        <time>2020-06-02T20:55:13Z</time>
      </trkpt>
      <trkpt lat="39.952251" lon="3.198531">
        <ele>217.8</ele>
        <time>2020-06-02T20:55:15Z</time>
      </trkpt>
      <trkpt lat="39.952351" lon="3.198537">
        <ele>217.7</ele>
        <time>2020-06-02T20:55:16Z</time>
      </trkpt>
      <trkpt lat="39.952435" lon="3.198543">
        <ele>217.6</ele>
        <time>2020-06-02T20:55:17Z</time>
      </trkpt>
      <trkpt lat="39.952522" lon="3.198549">
        <ele>217.6</ele>
        <time>2020-06-02T20:55:18Z</time>
      </trkpt>
      <trkpt lat="39.952625" lon="3.19856">
        <ele>217.7</ele>
        <time>2020-06-02T20:55:19Z</time>
      </trkpt>
      <trkpt lat="39.952717" lon="3.198578">
        <ele>217.7</ele>
        <time>2020-06-02T20:55:20Z</time>
      </trkpt>
      <trkpt lat="39.952824" lon="3.198604">
        <ele>217.8</ele>
        <time>2020-06-02T20:55:21Z</time>
      </trkpt>
      <trkpt lat="39.95293" lon="3.198638">
        <ele>217.9</ele>
        <time>2020-06-02T20:55:22Z</time>
      </trkpt>
      <trkpt lat="39.953007" lon="3.198692">
        <ele>217.9</ele>
        <time>2020-06-02T20:55:23Z</time>
      </trkpt>
      <trkpt lat="39.953094" lon="3.198768">
        <ele>218</ele>
        <time>2020-06-02T20:55:25Z</time>
      </trkpt>
      <trkpt lat="39.953167" lon="3.19886">
        <ele>218.1</ele>
        <time>2020-06-02T20:55:26Z</time>
      </trkpt>
      <trkpt lat="39.953175" lon="3.198991">
        <ele>218.2</ele>
        <time>2020-06-02T20:55:27Z</time>
      </trkpt>
      <trkpt lat="39.953167" lon="3.199131">
        <ele>218.3</ele>
        <time>2020-06-02T20:55:28Z</time>
      </trkpt>
      <trkpt lat="39.953136" lon="3.19924">
        <ele>218.4</ele>
        <time>2020-06-02T20:55:29Z</time>
      </trkpt>
      <trkpt lat="39.953075" lon="3.199354">
        <ele>218.3</ele>
        <time>2020-06-02T20:55:30Z</time>
      </trkpt>
      <trkpt lat="39.95303" lon="3.199453">
        <ele>218.3</ele>
        <time>2020-06-02T20:55:31Z</time>
      </trkpt>
      <trkpt lat="39.95298" lon="3.199573">
        <ele>218.1</ele>
        <time>2020-06-02T20:55:33Z</time>
      </trkpt>
      <trkpt lat="39.952938" lon="3.199698">
        <ele>218</ele>
        <time>2020-06-02T20:55:34Z</time>
      </trkpt>
      <trkpt lat="39.952911" lon="3.199805">
        <ele>217.8</ele>
        <time>2020-06-02T20:55:35Z</time>
      </trkpt>
      <trkpt lat="39.952888" lon="3.199934">
        <ele>217.6</ele>
        <time>2020-06-02T20:55:36Z</time>
      </trkpt>
      <trkpt lat="39.952896" lon="3.200066">
        <ele>217.5</ele>
        <time>2020-06-02T20:55:37Z</time>
      </trkpt>
      <trkpt lat="39.952915" lon="3.200175">
        <ele>217.4</ele>
        <time>2020-06-02T20:55:38Z</time>
      </trkpt>
      <trkpt lat="39.952934" lon="3.200304">
        <ele>217.2</ele>
        <time>2020-06-02T20:55:39Z</time>
      </trkpt>
      <trkpt lat="39.952961" lon="3.20043">
        <ele>217.1</ele>
        <time>2020-06-02T20:55:41Z</time>
      </trkpt>
      <trkpt lat="39.952995" lon="3.20053">
        <ele>216.9</ele>
        <time>2020-06-02T20:55:42Z</time>
      </trkpt>
      <trkpt lat="39.953026" lon="3.200629">
        <ele>216.8</ele>
        <time>2020-06-02T20:55:43Z</time>
      </trkpt>
      <trkpt lat="39.953064" lon="3.200748">
        <ele>216.5</ele>
        <time>2020-06-02T20:55:44Z</time>
      </trkpt>
      <trkpt lat="39.953106" lon="3.200867">
        <ele>216.3</ele>
        <time>2020-06-02T20:55:45Z</time>
      </trkpt>
      <trkpt lat="39.953148" lon="3.200988">
        <ele>215.9</ele>
        <time>2020-06-02T20:55:46Z</time>
      </trkpt>
      <trkpt lat="39.953186" lon="3.201091">
        <ele>215.6</ele>
        <time>2020-06-02T20:55:47Z</time>
      </trkpt>
      <trkpt lat="39.953224" lon="3.201192">
        <ele>215.3</ele>
        <time>2020-06-02T20:55:48Z</time>
      </trkpt>
      <trkpt lat="39.95327" lon="3.20129">
        <ele>214.8</ele>
        <time>2020-06-02T20:55:49Z</time>
      </trkpt>
      <trkpt lat="39.953335" lon="3.201406">
        <ele>214.2</ele>
        <time>2020-06-02T20:55:50Z</time>
      </trkpt>
      <trkpt lat="39.9534" lon="3.201524">
        <ele>213.5</ele>
        <time>2020-06-02T20:55:52Z</time>
      </trkpt>
      <trkpt lat="39.953457" lon="3.20165">
        <ele>212.7</ele>
        <time>2020-06-02T20:55:53Z</time>
      </trkpt>
      <trkpt lat="39.953503" lon="3.201762">
        <ele>212</ele>
        <time>2020-06-02T20:55:54Z</time>
      </trkpt>
      <trkpt lat="39.953537" lon="3.201882">
        <ele>211.2</ele>
        <time>2020-06-02T20:55:55Z</time>
      </trkpt>
      <trkpt lat="39.953548" lon="3.20201">
        <ele>210.6</ele>
        <time>2020-06-02T20:55:56Z</time>
      </trkpt>
      <trkpt lat="39.953552" lon="3.202169">
        <ele>209.7</ele>
        <time>2020-06-02T20:55:57Z</time>
      </trkpt>
      <trkpt lat="39.95356" lon="3.20233">
        <ele>208.8</ele>
        <time>2020-06-02T20:55:58Z</time>
      </trkpt>
      <trkpt lat="39.953564" lon="3.202463">
        <ele>208.1</ele>
        <time>2020-06-02T20:55:59Z</time>
      </trkpt>
      <trkpt lat="39.953567" lon="3.202597">
        <ele>207.3</ele>
        <time>2020-06-02T20:56:00Z</time>
      </trkpt>
      <trkpt lat="39.953579" lon="3.202732">
        <ele>206.5</ele>
        <time>2020-06-02T20:56:01Z</time>
      </trkpt>
      <trkpt lat="39.953606" lon="3.202867">
        <ele>205.6</ele>
        <time>2020-06-02T20:56:02Z</time>
      </trkpt>
      <trkpt lat="39.953667" lon="3.203013">
        <ele>204.4</ele>
        <time>2020-06-02T20:56:03Z</time>
      </trkpt>
      <trkpt lat="39.953766" lon="3.203021">
        <ele>203.4</ele>
        <time>2020-06-02T20:56:04Z</time>
      </trkpt>
      <trkpt lat="39.953854" lon="3.202949">
        <ele>202.5</ele>
        <time>2020-06-02T20:56:05Z</time>
      </trkpt>
      <trkpt lat="39.953945" lon="3.202836">
        <ele>201.4</ele>
        <time>2020-06-02T20:56:07Z</time>
      </trkpt>
      <trkpt lat="39.95396" lon="3.202685">
        <ele>200.4</ele>
        <time>2020-06-02T20:56:08Z</time>
      </trkpt>
      <trkpt lat="39.953964" lon="3.202538">
        <ele>199.5</ele>
        <time>2020-06-02T20:56:09Z</time>
      </trkpt>
      <trkpt lat="39.953968" lon="3.202397">
        <ele>198.6</ele>
        <time>2020-06-02T20:56:10Z</time>
      </trkpt>
      <trkpt lat="39.953998" lon="3.202268">
        <ele>198.4</ele>
        <time>2020-06-02T20:56:11Z</time>
      </trkpt>
      <trkpt lat="39.954052" lon="3.202167">
        <ele>198.3</ele>
        <time>2020-06-02T20:56:13Z</time>
      </trkpt>
      <trkpt lat="39.954155" lon="3.202182">
        <ele>193.6</ele>
        <time>2020-06-02T20:56:14Z</time>
      </trkpt>
      <trkpt lat="39.954273" lon="3.202221">
        <ele>188.1</ele>
        <time>2020-06-02T20:56:15Z</time>
      </trkpt>
      <trkpt lat="39.954411" lon="3.202233">
        <ele>183.9</ele>
        <time>2020-06-02T20:56:16Z</time>
      </trkpt>
      <trkpt lat="39.954544" lon="3.202147">
        <ele>181.4</ele>
        <time>2020-06-02T20:56:17Z</time>
      </trkpt>
      <trkpt lat="39.954655" lon="3.202007">
        <ele>180.6</ele>
        <time>2020-06-02T20:56:19Z</time>
      </trkpt>
      <trkpt lat="39.954704" lon="3.201846">
        <ele>181.2</ele>
        <time>2020-06-02T20:56:20Z</time>
      </trkpt>
      <trkpt lat="39.954781" lon="3.20166">
        <ele>181.8</ele>
        <time>2020-06-02T20:56:21Z</time>
      </trkpt>
      <trkpt lat="39.954868" lon="3.20153">
        <ele>181.2</ele>
        <time>2020-06-02T20:56:22Z</time>
      </trkpt>
      <trkpt lat="39.954983" lon="3.201387">
        <ele>181.4</ele>
        <time>2020-06-02T20:56:23Z</time>
      </trkpt>
      <trkpt lat="39.955082" lon="3.201296">
        <ele>181.1</ele>
        <time>2020-06-02T20:56:24Z</time>
      </trkpt>
      <trkpt lat="39.955185" lon="3.201199">
        <ele>181.2</ele>
        <time>2020-06-02T20:56:25Z</time>
      </trkpt>
      <trkpt lat="39.955269" lon="3.201125">
        <ele>181.3</ele>
        <time>2020-06-02T20:56:26Z</time>
      </trkpt>
      <trkpt lat="39.955379" lon="3.201081">
        <ele>180.9</ele>
        <time>2020-06-02T20:56:27Z</time>
      </trkpt>
      <trkpt lat="39.95549" lon="3.201082">
        <ele>179.7</ele>
        <time>2020-06-02T20:56:29Z</time>
      </trkpt>
      <trkpt lat="39.955551" lon="3.201187">
        <ele>179.4</ele>
        <time>2020-06-02T20:56:30Z</time>
      </trkpt>
      <trkpt lat="39.955593" lon="3.201323">
        <ele>178.7</ele>
        <time>2020-06-02T20:56:31Z</time>
      </trkpt>
      <trkpt lat="39.955585" lon="3.20151">
        <ele>178.6</ele>
        <time>2020-06-02T20:56:32Z</time>
      </trkpt>
      <trkpt lat="39.955559" lon="3.201669">
        <ele>178.4</ele>
        <time>2020-06-02T20:56:33Z</time>
      </trkpt>
      <trkpt lat="39.955543" lon="3.201866">
        <ele>178.3</ele>
        <time>2020-06-02T20:56:34Z</time>
      </trkpt>
      <trkpt lat="39.955555" lon="3.202028">
        <ele>178.2</ele>
        <time>2020-06-02T20:56:35Z</time>
      </trkpt>
      <trkpt lat="39.955578" lon="3.202218">
        <ele>178.1</ele>
        <time>2020-06-02T20:56:36Z</time>
      </trkpt>
      <trkpt lat="39.955605" lon="3.202403">
        <ele>178.1</ele>
        <time>2020-06-02T20:56:37Z</time>
      </trkpt>
      <trkpt lat="39.955624" lon="3.202582">
        <ele>178.2</ele>
        <time>2020-06-02T20:56:39Z</time>
      </trkpt>
      <trkpt lat="39.955616" lon="3.202727">
        <ele>178.2</ele>
        <time>2020-06-02T20:56:40Z</time>
      </trkpt>
      <trkpt lat="39.955563" lon="3.20288">
        <ele>178.1</ele>
        <time>2020-06-02T20:56:41Z</time>
      </trkpt>
      <trkpt lat="39.955505" lon="3.202992">
        <ele>178</ele>
        <time>2020-06-02T20:56:42Z</time>
      </trkpt>
      <trkpt lat="39.95541" lon="3.203089">
        <ele>178</ele>
        <time>2020-06-02T20:56:43Z</time>
      </trkpt>
      <trkpt lat="39.955318" lon="3.203178">
        <ele>177.9</ele>
        <time>2020-06-02T20:56:44Z</time>
      </trkpt>
      <trkpt lat="39.955238" lon="3.203246">
        <ele>177.8</ele>
        <time>2020-06-02T20:56:45Z</time>
      </trkpt>
      <trkpt lat="39.955147" lon="3.203323">
        <ele>177.7</ele>
        <time>2020-06-02T20:56:46Z</time>
      </trkpt>
      <trkpt lat="39.955074" lon="3.203387">
        <ele>177.6</ele>
        <time>2020-06-02T20:56:47Z</time>
      </trkpt>
      <trkpt lat="39.95499" lon="3.203466">
        <ele>177.4</ele>
        <time>2020-06-02T20:56:49Z</time>
      </trkpt>
      <trkpt lat="39.95491" lon="3.203548">
        <ele>177.2</ele>
        <time>2020-06-02T20:56:50Z</time>
      </trkpt>
      <trkpt lat="39.954838" lon="3.203636">
        <ele>176.9</ele>
        <time>2020-06-02T20:56:51Z</time>
      </trkpt>
      <trkpt lat="39.954765" lon="3.203727">
        <ele>176.6</ele>
        <time>2020-06-02T20:56:52Z</time>
      </trkpt>
      <trkpt lat="39.954708" lon="3.20383">
        <ele>176.4</ele>
        <time>2020-06-02T20:56:53Z</time>
      </trkpt>
      <trkpt lat="39.954655" lon="3.20394">
        <ele>176.1</ele>
        <time>2020-06-02T20:56:55Z</time>
      </trkpt>
      <trkpt lat="39.954601" lon="3.204047">
        <ele>175.9</ele>
        <time>2020-06-02T20:56:56Z</time>
      </trkpt>
      <trkpt lat="39.95454" lon="3.204153">
        <ele>175.6</ele>
        <time>2020-06-02T20:56:57Z</time>
      </trkpt>
      <trkpt lat="39.954483" lon="3.204256">
        <ele>175.4</ele>
        <time>2020-06-02T20:56:58Z</time>
      </trkpt>
      <trkpt lat="39.954433" lon="3.204344">
        <ele>175.3</ele>
        <time>2020-06-02T20:56:59Z</time>
      </trkpt>
      <trkpt lat="39.954388" lon="3.204433">
        <ele>175.2</ele>
        <time>2020-06-02T20:57:00Z</time>
      </trkpt>
      <trkpt lat="39.954338" lon="3.204546">
        <ele>175.1</ele>
        <time>2020-06-02T20:57:01Z</time>
      </trkpt>
      <trkpt lat="39.954281" lon="3.204663">
        <ele>175</ele>
        <time>2020-06-02T20:57:03Z</time>
      </trkpt>
      <trkpt lat="39.954224" lon="3.204783">
        <ele>175.1</ele>
        <time>2020-06-02T20:57:04Z</time>
      </trkpt>
      <trkpt lat="39.95417" lon="3.204915">
        <ele>175.3</ele>
        <time>2020-06-02T20:57:05Z</time>
      </trkpt>
      <trkpt lat="39.954132" lon="3.205036">
        <ele>175.6</ele>
        <time>2020-06-02T20:57:06Z</time>
      </trkpt>
      <trkpt lat="39.95409" lon="3.205187">
        <ele>176</ele>
        <time>2020-06-02T20:57:07Z</time>
      </trkpt>
      <trkpt lat="39.954056" lon="3.205317">
        <ele>176.4</ele>
        <time>2020-06-02T20:57:08Z</time>
      </trkpt>
      <trkpt lat="39.954018" lon="3.205474">
        <ele>177.1</ele>
        <time>2020-06-02T20:57:09Z</time>
      </trkpt>
      <trkpt lat="39.953979" lon="3.205628">
        <ele>177.8</ele>
        <time>2020-06-02T20:57:11Z</time>
      </trkpt>
      <trkpt lat="39.953937" lon="3.205773">
        <ele>178.7</ele>
        <time>2020-06-02T20:57:12Z</time>
      </trkpt>
      <trkpt lat="39.953892" lon="3.20591">
        <ele>179.6</ele>
        <time>2020-06-02T20:57:13Z</time>
      </trkpt>
      <trkpt lat="39.953846" lon="3.206038">
        <ele>180.4</ele>
        <time>2020-06-02T20:57:14Z</time>
      </trkpt>
      <trkpt lat="39.953815" lon="3.206136">
        <ele>180.9</ele>
        <time>2020-06-02T20:57:15Z</time>
      </trkpt>
      <trkpt lat="39.953785" lon="3.206242">
        <ele>181.4</ele>
        <time>2020-06-02T20:57:16Z</time>
      </trkpt>
      <trkpt lat="39.953766" lon="3.206337">
        <ele>181.8</ele>
        <time>2020-06-02T20:57:18Z</time>
      </trkpt>
      <trkpt lat="39.953758" lon="3.206421">
        <ele>182.2</ele>
        <time>2020-06-02T20:57:19Z</time>
      </trkpt>
      <trkpt lat="39.953762" lon="3.20649">
        <ele>182.4</ele>
        <time>2020-06-02T20:57:20Z</time>
      </trkpt>
      <trkpt lat="39.953766" lon="3.206538">
        <ele>182.6</ele>
        <time>2020-06-02T20:57:21Z</time>
      </trkpt>
      <trkpt lat="39.953777" lon="3.206595">
        <ele>182.8</ele>
        <time>2020-06-02T20:57:22Z</time>
      </trkpt>
      <trkpt lat="39.953785" lon="3.206648">
        <ele>183</ele>
        <time>2020-06-02T20:57:23Z</time>
      </trkpt>
      <trkpt lat="39.953789" lon="3.2067">
        <ele>183.2</ele>
        <time>2020-06-02T20:57:25Z</time>
      </trkpt>
      <trkpt lat="39.953796" lon="3.206754">
        <ele>183.4</ele>
        <time>2020-06-02T20:57:26Z</time>
      </trkpt>
      <trkpt lat="39.953804" lon="3.206803">
        <ele>183.6</ele>
        <time>2020-06-02T20:57:27Z</time>
      </trkpt>
      <trkpt lat="39.953812" lon="3.206852">
        <ele>183.8</ele>
        <time>2020-06-02T20:57:28Z</time>
      </trkpt>
      <trkpt lat="39.953819" lon="3.206913">
        <ele>184.1</ele>
        <time>2020-06-02T20:57:29Z</time>
      </trkpt>
      <trkpt lat="39.953831" lon="3.206977">
        <ele>184.4</ele>
        <time>2020-06-02T20:57:30Z</time>
      </trkpt>
      <trkpt lat="39.953838" lon="3.20703">
        <ele>184.7</ele>
        <time>2020-06-02T20:57:31Z</time>
      </trkpt>
      <trkpt lat="39.953846" lon="3.207092">
        <ele>185</ele>
        <time>2020-06-02T20:57:32Z</time>
      </trkpt>
      <trkpt lat="39.953854" lon="3.207151">
        <ele>185.3</ele>
        <time>2020-06-02T20:57:34Z</time>
      </trkpt>
      <trkpt lat="39.953861" lon="3.207209">
        <ele>185.6</ele>
        <time>2020-06-02T20:57:35Z</time>
      </trkpt>
      <trkpt lat="39.953869" lon="3.207265">
        <ele>185.9</ele>
        <time>2020-06-02T20:57:36Z</time>
      </trkpt>
      <trkpt lat="39.953876" lon="3.20732">
        <ele>186.2</ele>
        <time>2020-06-02T20:57:37Z</time>
      </trkpt>
      <trkpt lat="39.953888" lon="3.207365">
        <ele>186.4</ele>
        <time>2020-06-02T20:57:38Z</time>
      </trkpt>
      <trkpt lat="39.953899" lon="3.207411">
        <ele>186.7</ele>
        <time>2020-06-02T20:57:39Z</time>
      </trkpt>
      <trkpt lat="39.953911" lon="3.207467">
        <ele>186.9</ele>
        <time>2020-06-02T20:57:40Z</time>
      </trkpt>
      <trkpt lat="39.953926" lon="3.207514">
        <ele>187.2</ele>
        <time>2020-06-02T20:57:41Z</time>
      </trkpt>
      <trkpt lat="39.953941" lon="3.207571">
        <ele>187.4</ele>
        <time>2020-06-02T20:57:43Z</time>
      </trkpt>
      <trkpt lat="39.953964" lon="3.207626">
        <ele>187.7</ele>
        <time>2020-06-02T20:57:44Z</time>
      </trkpt>
      <trkpt lat="39.953998" lon="3.207676">
        <ele>188</ele>
        <time>2020-06-02T20:57:45Z</time>
      </trkpt>
      <trkpt lat="39.954029" lon="3.207712">
        <ele>188.2</ele>
        <time>2020-06-02T20:57:46Z</time>
      </trkpt>
      <trkpt lat="39.954071" lon="3.207755">
        <ele>188.4</ele>
        <time>2020-06-02T20:57:47Z</time>
      </trkpt>
      <trkpt lat="39.954105" lon="3.207792">
        <ele>188.5</ele>
        <time>2020-06-02T20:57:48Z</time>
      </trkpt>
      <trkpt lat="39.954147" lon="3.207835">
        <ele>188.7</ele>
        <time>2020-06-02T20:57:49Z</time>
      </trkpt>
      <trkpt lat="39.954189" lon="3.207874">
        <ele>188.8</ele>
        <time>2020-06-02T20:57:51Z</time>
      </trkpt>
      <trkpt lat="39.954231" lon="3.207909">
        <ele>188.9</ele>
        <time>2020-06-02T20:57:52Z</time>
      </trkpt>
      <trkpt lat="39.954273" lon="3.207936">
        <ele>189</ele>
        <time>2020-06-02T20:57:53Z</time>
      </trkpt>
      <trkpt lat="39.954308" lon="3.207957">
        <ele>189.1</ele>
        <time>2020-06-02T20:57:54Z</time>
      </trkpt>
      <trkpt lat="39.954353" lon="3.207982">
        <ele>189.3</ele>
        <time>2020-06-02T20:57:55Z</time>
      </trkpt>
      <trkpt lat="39.954388" lon="3.208002">
        <ele>189.4</ele>
        <time>2020-06-02T20:57:56Z</time>
      </trkpt>
      <trkpt lat="39.954426" lon="3.208023">
        <ele>189.5</ele>
        <time>2020-06-02T20:57:57Z</time>
      </trkpt>
      <trkpt lat="39.954475" lon="3.208048">
        <ele>189.7</ele>
        <time>2020-06-02T20:57:58Z</time>
      </trkpt>
      <trkpt lat="39.954529" lon="3.208071">
        <ele>189.9</ele>
        <time>2020-06-02T20:58:00Z</time>
      </trkpt>
      <trkpt lat="39.954575" lon="3.208091">
        <ele>190</ele>
        <time>2020-06-02T20:58:01Z</time>
      </trkpt>
      <trkpt lat="39.954636" lon="3.208117">
        <ele>190.2</ele>
        <time>2020-06-02T20:58:02Z</time>
      </trkpt>
      <trkpt lat="39.954685" lon="3.208141">
        <ele>190.3</ele>
        <time>2020-06-02T20:58:03Z</time>
      </trkpt>
      <trkpt lat="39.954746" lon="3.208172">
        <ele>190.5</ele>
        <time>2020-06-02T20:58:04Z</time>
      </trkpt>
      <trkpt lat="39.954807" lon="3.208203">
        <ele>190.7</ele>
        <time>2020-06-02T20:58:05Z</time>
      </trkpt>
      <trkpt lat="39.954868" lon="3.208235">
        <ele>190.9</ele>
        <time>2020-06-02T20:58:06Z</time>
      </trkpt>
      <trkpt lat="39.954929" lon="3.208265">
        <ele>191.1</ele>
        <time>2020-06-02T20:58:08Z</time>
      </trkpt>
      <trkpt lat="39.954987" lon="3.208294">
        <ele>191.2</ele>
        <time>2020-06-02T20:58:09Z</time>
      </trkpt>
      <trkpt lat="39.955048" lon="3.208322">
        <ele>191.4</ele>
        <time>2020-06-02T20:58:10Z</time>
      </trkpt>
      <trkpt lat="39.955105" lon="3.208347">
        <ele>191.5</ele>
        <time>2020-06-02T20:58:11Z</time>
      </trkpt>
      <trkpt lat="39.955162" lon="3.208369">
        <ele>191.7</ele>
        <time>2020-06-02T20:58:12Z</time>
      </trkpt>
      <trkpt lat="39.955219" lon="3.208389">
        <ele>191.8</ele>
        <time>2020-06-02T20:58:14Z</time>
      </trkpt>
      <trkpt lat="39.955276" lon="3.208411">
        <ele>191.9</ele>
        <time>2020-06-02T20:58:15Z</time>
      </trkpt>
      <trkpt lat="39.955326" lon="3.208429">
        <ele>192</ele>
        <time>2020-06-02T20:58:16Z</time>
      </trkpt>
      <trkpt lat="39.955387" lon="3.20845">
        <ele>192.1</ele>
        <time>2020-06-02T20:58:17Z</time>
      </trkpt>
      <trkpt lat="39.955448" lon="3.208463">
        <ele>192.2</ele>
        <time>2020-06-02T20:58:18Z</time>
      </trkpt>
      <trkpt lat="39.955509" lon="3.208462">
        <ele>192.2</ele>
        <time>2020-06-02T20:58:19Z</time>
      </trkpt>
      <trkpt lat="39.955563" lon="3.208455">
        <ele>192.3</ele>
        <time>2020-06-02T20:58:20Z</time>
      </trkpt>
      <trkpt lat="39.955616" lon="3.208448">
        <ele>192.3</ele>
        <time>2020-06-02T20:58:21Z</time>
      </trkpt>
      <trkpt lat="39.955681" lon="3.208438">
        <ele>192.4</ele>
        <time>2020-06-02T20:58:23Z</time>
      </trkpt>
      <trkpt lat="39.955734" lon="3.208425">
        <ele>192.4</ele>
        <time>2020-06-02T20:58:24Z</time>
      </trkpt>
      <trkpt lat="39.955799" lon="3.208402">
        <ele>192.4</ele>
        <time>2020-06-02T20:58:25Z</time>
      </trkpt>
      <trkpt lat="39.955864" lon="3.208378">
        <ele>192.4</ele>
        <time>2020-06-02T20:58:26Z</time>
      </trkpt>
      <trkpt lat="39.955933" lon="3.208355">
        <ele>192.4</ele>
        <time>2020-06-02T20:58:27Z</time>
      </trkpt>
      <trkpt lat="39.956001" lon="3.208332">
        <ele>192.3</ele>
        <time>2020-06-02T20:58:28Z</time>
      </trkpt>
      <trkpt lat="39.956058" lon="3.208311">
        <ele>192.2</ele>
        <time>2020-06-02T20:58:29Z</time>
      </trkpt>
      <trkpt lat="39.95612" lon="3.208293">
        <ele>192.1</ele>
        <time>2020-06-02T20:58:30Z</time>
      </trkpt>
      <trkpt lat="39.956196" lon="3.208272">
        <ele>192.1</ele>
        <time>2020-06-02T20:58:32Z</time>
      </trkpt>
      <trkpt lat="39.956276" lon="3.208254">
        <ele>192.1</ele>
        <time>2020-06-02T20:58:33Z</time>
      </trkpt>
      <trkpt lat="39.956356" lon="3.208255">
        <ele>192.1</ele>
        <time>2020-06-02T20:58:34Z</time>
      </trkpt>
      <trkpt lat="39.95644" lon="3.208281">
        <ele>192.1</ele>
        <time>2020-06-02T20:58:35Z</time>
      </trkpt>
      <trkpt lat="39.956524" lon="3.20831">
        <ele>192</ele>
        <time>2020-06-02T20:58:36Z</time>
      </trkpt>
      <trkpt lat="39.956615" lon="3.208342">
        <ele>192</ele>
        <time>2020-06-02T20:58:38Z</time>
      </trkpt>
      <trkpt lat="39.956707" lon="3.208374">
        <ele>192</ele>
        <time>2020-06-02T20:58:39Z</time>
      </trkpt>
      <trkpt lat="39.956806" lon="3.208402">
        <ele>192</ele>
        <time>2020-06-02T20:58:40Z</time>
      </trkpt>
      <trkpt lat="39.956905" lon="3.20843">
        <ele>191.9</ele>
        <time>2020-06-02T20:58:41Z</time>
      </trkpt>
      <trkpt lat="39.956989" lon="3.208449">
        <ele>191.9</ele>
        <time>2020-06-02T20:58:42Z</time>
      </trkpt>
      <trkpt lat="39.957088" lon="3.208462">
        <ele>191.9</ele>
        <time>2020-06-02T20:58:43Z</time>
      </trkpt>
      <trkpt lat="39.957169" lon="3.208469">
        <ele>191.9</ele>
        <time>2020-06-02T20:58:44Z</time>
      </trkpt>
      <trkpt lat="39.957249" lon="3.208448">
        <ele>191.9</ele>
        <time>2020-06-02T20:58:45Z</time>
      </trkpt>
      <trkpt lat="39.957317" lon="3.208359">
        <ele>191.9</ele>
        <time>2020-06-02T20:58:47Z</time>
      </trkpt>
      <trkpt lat="39.957367" lon="3.208272">
        <ele>191.8</ele>
        <time>2020-06-02T20:58:48Z</time>
      </trkpt>
      <trkpt lat="39.957413" lon="3.208158">
        <ele>191.8</ele>
        <time>2020-06-02T20:58:49Z</time>
      </trkpt>
      <trkpt lat="39.957424" lon="3.208033">
        <ele>191.7</ele>
        <time>2020-06-02T20:58:50Z</time>
      </trkpt>
      <trkpt lat="39.957432" lon="3.207931">
        <ele>191.5</ele>
        <time>2020-06-02T20:58:51Z</time>
      </trkpt>
      <trkpt lat="39.957443" lon="3.207833">
        <ele>191.4</ele>
        <time>2020-06-02T20:58:52Z</time>
      </trkpt>
      <trkpt lat="39.957458" lon="3.207738">
        <ele>190.9</ele>
        <time>2020-06-02T20:58:53Z</time>
      </trkpt>
      <trkpt lat="39.957493" lon="3.207651">
        <ele>190.1</ele>
        <time>2020-06-02T20:58:54Z</time>
      </trkpt>
      <trkpt lat="39.957542" lon="3.20758">
        <ele>189.6</ele>
        <time>2020-06-02T20:58:55Z</time>
      </trkpt>
      <trkpt lat="39.957615" lon="3.207512">
        <ele>188.2</ele>
        <time>2020-06-02T20:58:56Z</time>
      </trkpt>
      <trkpt lat="39.957699" lon="3.207558">
        <ele>188.1</ele>
        <time>2020-06-02T20:58:57Z</time>
      </trkpt>
      <trkpt lat="39.957767" lon="3.207621">
        <ele>188</ele>
        <time>2020-06-02T20:58:58Z</time>
      </trkpt>
      <trkpt lat="39.957836" lon="3.207694">
        <ele>187.9</ele>
        <time>2020-06-02T20:58:59Z</time>
      </trkpt>
      <trkpt lat="39.957886" lon="3.207819">
        <ele>187.9</ele>
        <time>2020-06-02T20:59:01Z</time>
      </trkpt>
      <trkpt lat="39.957924" lon="3.20795">
        <ele>187.9</ele>
        <time>2020-06-02T20:59:02Z</time>
      </trkpt>
      <trkpt lat="39.957958" lon="3.208079">
        <ele>187.9</ele>
        <time>2020-06-02T20:59:03Z</time>
      </trkpt>
      <trkpt lat="39.957981" lon="3.208208">
        <ele>187.9</ele>
        <time>2020-06-02T20:59:04Z</time>
      </trkpt>
      <trkpt lat="39.957996" lon="3.208333">
        <ele>188.1</ele>
        <time>2020-06-02T20:59:05Z</time>
      </trkpt>
      <trkpt lat="39.958004" lon="3.208452">
        <ele>188.4</ele>
        <time>2020-06-02T20:59:07Z</time>
      </trkpt>
      <trkpt lat="39.958" lon="3.208564">
        <ele>188.7</ele>
        <time>2020-06-02T20:59:08Z</time>
      </trkpt>
      <trkpt lat="39.957977" lon="3.208661">
        <ele>189.1</ele>
        <time>2020-06-02T20:59:09Z</time>
      </trkpt>
      <trkpt lat="39.957958" lon="3.208751">
        <ele>189.5</ele>
        <time>2020-06-02T20:59:10Z</time>
      </trkpt>
      <trkpt lat="39.957939" lon="3.208838">
        <ele>189.9</ele>
        <time>2020-06-02T20:59:11Z</time>
      </trkpt>
      <trkpt lat="39.957912" lon="3.208916">
        <ele>190.3</ele>
        <time>2020-06-02T20:59:13Z</time>
      </trkpt>
      <trkpt lat="39.957882" lon="3.208981">
        <ele>190.7</ele>
        <time>2020-06-02T20:59:14Z</time>
      </trkpt>
      <trkpt lat="39.957855" lon="3.209024">
        <ele>191</ele>
        <time>2020-06-02T20:59:15Z</time>
      </trkpt>
      <trkpt lat="39.957829" lon="3.209067">
        <ele>191.3</ele>
        <time>2020-06-02T20:59:16Z</time>
      </trkpt>
      <trkpt lat="39.957806" lon="3.209107">
        <ele>191.6</ele>
        <time>2020-06-02T20:59:17Z</time>
      </trkpt>
      <trkpt lat="39.957787" lon="3.20914">
        <ele>191.8</ele>
        <time>2020-06-02T20:59:18Z</time>
      </trkpt>
      <trkpt lat="39.957767" lon="3.209175">
        <ele>192.1</ele>
        <time>2020-06-02T20:59:19Z</time>
      </trkpt>
      <trkpt lat="39.957741" lon="3.209218">
        <ele>192.4</ele>
        <time>2020-06-02T20:59:20Z</time>
      </trkpt>
      <trkpt lat="39.95771" lon="3.209259">
        <ele>192.8</ele>
        <time>2020-06-02T20:59:22Z</time>
      </trkpt>
      <trkpt lat="39.957684" lon="3.209295">
        <ele>193.1</ele>
        <time>2020-06-02T20:59:23Z</time>
      </trkpt>
      <trkpt lat="39.957653" lon="3.209325">
        <ele>193.4</ele>
        <time>2020-06-02T20:59:24Z</time>
      </trkpt>
      <trkpt lat="39.95763" lon="3.209347">
        <ele>193.6</ele>
        <time>2020-06-02T20:59:25Z</time>
      </trkpt>
      <trkpt lat="39.957603" lon="3.209375">
        <ele>193.9</ele>
        <time>2020-06-02T20:59:26Z</time>
      </trkpt>
      <trkpt lat="39.95758" lon="3.209399">
        <ele>194.1</ele>
        <time>2020-06-02T20:59:27Z</time>
      </trkpt>
      <trkpt lat="39.95755" lon="3.209429">
        <ele>194.4</ele>
        <time>2020-06-02T20:59:28Z</time>
      </trkpt>
      <trkpt lat="39.957519" lon="3.20946">
        <ele>194.7</ele>
        <time>2020-06-02T20:59:30Z</time>
      </trkpt>
      <trkpt lat="39.957485" lon="3.209491">
        <ele>195</ele>
        <time>2020-06-02T20:59:31Z</time>
      </trkpt>
      <trkpt lat="39.957455" lon="3.209523">
        <ele>195.3</ele>
        <time>2020-06-02T20:59:32Z</time>
      </trkpt>
      <trkpt lat="39.95742" lon="3.209555">
        <ele>195.6</ele>
        <time>2020-06-02T20:59:33Z</time>
      </trkpt>
      <trkpt lat="39.957386" lon="3.209589">
        <ele>195.9</ele>
        <time>2020-06-02T20:59:34Z</time>
      </trkpt>
      <trkpt lat="39.957359" lon="3.209618">
        <ele>196.2</ele>
        <time>2020-06-02T20:59:35Z</time>
      </trkpt>
      <trkpt lat="39.957329" lon="3.209649">
        <ele>196.4</ele>
        <time>2020-06-02T20:59:36Z</time>
      </trkpt>
      <trkpt lat="39.957298" lon="3.209686">
        <ele>196.7</ele>
        <time>2020-06-02T20:59:38Z</time>
      </trkpt>
      <trkpt lat="39.957268" lon="3.209719">
        <ele>196.9</ele>
        <time>2020-06-02T20:59:39Z</time>
      </trkpt>
      <trkpt lat="39.957233" lon="3.209763">
        <ele>197.2</ele>
        <time>2020-06-02T20:59:40Z</time>
      </trkpt>
      <trkpt lat="39.957199" lon="3.209812">
        <ele>197.5</ele>
        <time>2020-06-02T20:59:41Z</time>
      </trkpt>
      <trkpt lat="39.957165" lon="3.209866">
        <ele>197.9</ele>
        <time>2020-06-02T20:59:42Z</time>
      </trkpt>
      <trkpt lat="39.957123" lon="3.209923">
        <ele>198.2</ele>
        <time>2020-06-02T20:59:43Z</time>
      </trkpt>
      <trkpt lat="39.957081" lon="3.209979">
        <ele>198.6</ele>
        <time>2020-06-02T20:59:45Z</time>
      </trkpt>
      <trkpt lat="39.957046" lon="3.210025">
        <ele>198.9</ele>
        <time>2020-06-02T20:59:46Z</time>
      </trkpt>
      <trkpt lat="39.957012" lon="3.210079">
        <ele>199.1</ele>
        <time>2020-06-02T20:59:47Z</time>
      </trkpt>
      <trkpt lat="39.956982" lon="3.210125">
        <ele>199.3</ele>
        <time>2020-06-02T20:59:48Z</time>
      </trkpt>
      <trkpt lat="39.956951" lon="3.21017">
        <ele>199.5</ele>
        <time>2020-06-02T20:59:49Z</time>
      </trkpt>
      <trkpt lat="39.956924" lon="3.210215">
        <ele>199.6</ele>
        <time>2020-06-02T20:59:50Z</time>
      </trkpt>
      <trkpt lat="39.95689" lon="3.210267">
        <ele>199.7</ele>
        <time>2020-06-02T20:59:51Z</time>
      </trkpt>
      <trkpt lat="39.956856" lon="3.210319">
        <ele>199.6</ele>
        <time>2020-06-02T20:59:52Z</time>
      </trkpt>
      <trkpt lat="39.956821" lon="3.210371">
        <ele>199.5</ele>
        <time>2020-06-02T20:59:53Z</time>
      </trkpt>
      <trkpt lat="39.956791" lon="3.210416">
        <ele>199.4</ele>
        <time>2020-06-02T20:59:54Z</time>
      </trkpt>
      <trkpt lat="39.956757" lon="3.210464">
        <ele>199.4</ele>
        <time>2020-06-02T20:59:55Z</time>
      </trkpt>
      <trkpt lat="39.956711" lon="3.210531">
        <ele>199.3</ele>
        <time>2020-06-02T20:59:57Z</time>
      </trkpt>
      <trkpt lat="39.956661" lon="3.210605">
        <ele>199.2</ele>
        <time>2020-06-02T20:59:58Z</time>
      </trkpt>
      <trkpt lat="39.956615" lon="3.210671">
        <ele>199.2</ele>
        <time>2020-06-02T20:59:59Z</time>
      </trkpt>
      <trkpt lat="39.95657" lon="3.210738">
        <ele>199.1</ele>
        <time>2020-06-02T21:00:00Z</time>
      </trkpt>
      <trkpt lat="39.956505" lon="3.21082">
        <ele>199</ele>
        <time>2020-06-02T21:00:01Z</time>
      </trkpt>
      <trkpt lat="39.95644" lon="3.210904">
        <ele>198.9</ele>
        <time>2020-06-02T21:00:02Z</time>
      </trkpt>
      <trkpt lat="39.956367" lon="3.210989">
        <ele>198.4</ele>
        <time>2020-06-02T21:00:03Z</time>
      </trkpt>
      <trkpt lat="39.956303" lon="3.211061">
        <ele>197.8</ele>
        <time>2020-06-02T21:00:04Z</time>
      </trkpt>
      <trkpt lat="39.956211" lon="3.211151">
        <ele>196.8</ele>
        <time>2020-06-02T21:00:06Z</time>
      </trkpt>
      <trkpt lat="39.956127" lon="3.211232">
        <ele>195.9</ele>
        <time>2020-06-02T21:00:07Z</time>
      </trkpt>
      <trkpt lat="39.956036" lon="3.211315">
        <ele>195</ele>
        <time>2020-06-02T21:00:08Z</time>
      </trkpt>
      <trkpt lat="39.955933" lon="3.211403">
        <ele>194.1</ele>
        <time>2020-06-02T21:00:09Z</time>
      </trkpt>
      <trkpt lat="39.955807" lon="3.211515">
        <ele>192.8</ele>
        <time>2020-06-02T21:00:10Z</time>
      </trkpt>
      <trkpt lat="39.955704" lon="3.211595">
        <ele>191.7</ele>
        <time>2020-06-02T21:00:11Z</time>
      </trkpt>
      <trkpt lat="39.955585" lon="3.21168">
        <ele>188.2</ele>
        <time>2020-06-02T21:00:12Z</time>
      </trkpt>
      <trkpt lat="39.955482" lon="3.211785">
        <ele>181.2</ele>
        <time>2020-06-02T21:00:13Z</time>
      </trkpt>
      <trkpt lat="39.955433" lon="3.211904">
        <ele>182.7</ele>
        <time>2020-06-02T21:00:14Z</time>
      </trkpt>
      <trkpt lat="39.955463" lon="3.21205">
        <ele>184.1</ele>
        <time>2020-06-02T21:00:15Z</time>
      </trkpt>
      <trkpt lat="39.955589" lon="3.212122">
        <ele>182.7</ele>
        <time>2020-06-02T21:00:17Z</time>
      </trkpt>
      <trkpt lat="39.955734" lon="3.21214">
        <ele>181.2</ele>
        <time>2020-06-02T21:00:18Z</time>
      </trkpt>
      <trkpt lat="39.955852" lon="3.212071">
        <ele>179.9</ele>
        <time>2020-06-02T21:00:19Z</time>
      </trkpt>
      <trkpt lat="39.955978" lon="3.212004">
        <ele>178.6</ele>
        <time>2020-06-02T21:00:20Z</time>
      </trkpt>
      <trkpt lat="39.956135" lon="3.211911">
        <ele>177.1</ele>
        <time>2020-06-02T21:00:21Z</time>
      </trkpt>
      <trkpt lat="39.956299" lon="3.211826">
        <ele>175.6</ele>
        <time>2020-06-02T21:00:22Z</time>
      </trkpt>
      <trkpt lat="39.956482" lon="3.211775">
        <ele>173.7</ele>
        <time>2020-06-02T21:00:23Z</time>
      </trkpt>
      <trkpt lat="39.956669" lon="3.211759">
        <ele>171.8</ele>
        <time>2020-06-02T21:00:25Z</time>
      </trkpt>
      <trkpt lat="39.956821" lon="3.211797">
        <ele>170.2</ele>
        <time>2020-06-02T21:00:26Z</time>
      </trkpt>
      <trkpt lat="39.957008" lon="3.211836">
        <ele>168.2</ele>
        <time>2020-06-02T21:00:27Z</time>
      </trkpt>
      <trkpt lat="39.957161" lon="3.21187">
        <ele>166.7</ele>
        <time>2020-06-02T21:00:28Z</time>
      </trkpt>
      <trkpt lat="39.95731" lon="3.211901">
        <ele>165.2</ele>
        <time>2020-06-02T21:00:29Z</time>
      </trkpt>
      <trkpt lat="39.957493" lon="3.211915">
        <ele>163.4</ele>
        <time>2020-06-02T21:00:30Z</time>
      </trkpt>
      <trkpt lat="39.957642" lon="3.211891">
        <ele>161.8</ele>
        <time>2020-06-02T21:00:31Z</time>
      </trkpt>
      <trkpt lat="39.957787" lon="3.211825">
        <ele>160.1</ele>
        <time>2020-06-02T21:00:32Z</time>
      </trkpt>
      <trkpt lat="39.957962" lon="3.211728">
        <ele>158.2</ele>
        <time>2020-06-02T21:00:33Z</time>
      </trkpt>
      <trkpt lat="39.958141" lon="3.211619">
        <ele>156.3</ele>
        <time>2020-06-02T21:00:34Z</time>
      </trkpt>
      <trkpt lat="39.958328" lon="3.211527">
        <ele>154.4</ele>
        <time>2020-06-02T21:00:36Z</time>
      </trkpt>
      <trkpt lat="39.958481" lon="3.211455">
        <ele>152.8</ele>
        <time>2020-06-02T21:00:37Z</time>
      </trkpt>
      <trkpt lat="39.958645" lon="3.211415">
        <ele>151.1</ele>
        <time>2020-06-02T21:00:38Z</time>
      </trkpt>
      <trkpt lat="39.958839" lon="3.211377">
        <ele>149</ele>
        <time>2020-06-02T21:00:39Z</time>
      </trkpt>
      <trkpt lat="39.959026" lon="3.211306">
        <ele>147</ele>
        <time>2020-06-02T21:00:40Z</time>
      </trkpt>
      <trkpt lat="39.959175" lon="3.211203">
        <ele>145.2</ele>
        <time>2020-06-02T21:00:41Z</time>
      </trkpt>
      <trkpt lat="39.959324" lon="3.211021">
        <ele>143.1</ele>
        <time>2020-06-02T21:00:42Z</time>
      </trkpt>
      <trkpt lat="39.959423" lon="3.210832">
        <ele>141.2</ele>
        <time>2020-06-02T21:00:43Z</time>
      </trkpt>
      <trkpt lat="39.959545" lon="3.2106">
        <ele>139</ele>
        <time>2020-06-02T21:00:44Z</time>
      </trkpt>
      <trkpt lat="39.959671" lon="3.210389">
        <ele>137.8</ele>
        <time>2020-06-02T21:00:46Z</time>
      </trkpt>
      <trkpt lat="39.959812" lon="3.210235">
        <ele>136.4</ele>
        <time>2020-06-02T21:00:47Z</time>
      </trkpt>
      <trkpt lat="39.959949" lon="3.210132">
        <ele>135.3</ele>
        <time>2020-06-02T21:00:48Z</time>
      </trkpt>
      <trkpt lat="39.96006" lon="3.210077">
        <ele>134.6</ele>
        <time>2020-06-02T21:00:49Z</time>
      </trkpt>
      <trkpt lat="39.96019" lon="3.210058">
        <ele>134</ele>
        <time>2020-06-02T21:00:50Z</time>
      </trkpt>
      <trkpt lat="39.960289" lon="3.21006">
        <ele>133.8</ele>
        <time>2020-06-02T21:00:51Z</time>
      </trkpt>
      <trkpt lat="39.960381" lon="3.210155">
        <ele>133.8</ele>
        <time>2020-06-02T21:00:52Z</time>
      </trkpt>
      <trkpt lat="39.960453" lon="3.210247">
        <ele>134.1</ele>
        <time>2020-06-02T21:00:53Z</time>
      </trkpt>
      <trkpt lat="39.960506" lon="3.210389">
        <ele>134.6</ele>
        <time>2020-06-02T21:00:55Z</time>
      </trkpt>
      <trkpt lat="39.960518" lon="3.21055">
        <ele>135.3</ele>
        <time>2020-06-02T21:00:56Z</time>
      </trkpt>
      <trkpt lat="39.960529" lon="3.210684">
        <ele>136.1</ele>
        <time>2020-06-02T21:00:57Z</time>
      </trkpt>
      <trkpt lat="39.96056" lon="3.210833">
        <ele>137.1</ele>
        <time>2020-06-02T21:00:58Z</time>
      </trkpt>
      <trkpt lat="39.960606" lon="3.210961">
        <ele>138</ele>
        <time>2020-06-02T21:00:59Z</time>
      </trkpt>
      <trkpt lat="39.960651" lon="3.211071">
        <ele>138.6</ele>
        <time>2020-06-02T21:01:00Z</time>
      </trkpt>
      <trkpt lat="39.960693" lon="3.211149">
        <ele>139</ele>
        <time>2020-06-02T21:01:01Z</time>
      </trkpt>
      <trkpt lat="39.960728" lon="3.211216">
        <ele>139.1</ele>
        <time>2020-06-02T21:01:02Z</time>
      </trkpt>
      <trkpt lat="39.960762" lon="3.211289">
        <ele>139.1</ele>
        <time>2020-06-02T21:01:04Z</time>
      </trkpt>
      <trkpt lat="39.960789" lon="3.211356">
        <ele>139.2</ele>
        <time>2020-06-02T21:01:05Z</time>
      </trkpt>
      <trkpt lat="39.960796" lon="3.211406">
        <ele>139.3</ele>
        <time>2020-06-02T21:01:06Z</time>
      </trkpt>
      <trkpt lat="39.960793" lon="3.21145">
        <ele>139.3</ele>
        <time>2020-06-02T21:01:07Z</time>
      </trkpt>
      <trkpt lat="39.960773" lon="3.211495">
        <ele>139.4</ele>
        <time>2020-06-02T21:01:08Z</time>
      </trkpt>
      <trkpt lat="39.960758" lon="3.211535">
        <ele>139.5</ele>
        <time>2020-06-02T21:01:09Z</time>
      </trkpt>
      <trkpt lat="39.960743" lon="3.211568">
        <ele>139.6</ele>
        <time>2020-06-02T21:01:10Z</time>
      </trkpt>
      <trkpt lat="39.960728" lon="3.211597">
        <ele>139.6</ele>
        <time>2020-06-02T21:01:11Z</time>
      </trkpt>
      <trkpt lat="39.960712" lon="3.211635">
        <ele>139.7</ele>
        <time>2020-06-02T21:01:13Z</time>
      </trkpt>
      <trkpt lat="39.960697" lon="3.211676">
        <ele>139.8</ele>
        <time>2020-06-02T21:01:14Z</time>
      </trkpt>
      <trkpt lat="39.960678" lon="3.211718">
        <ele>139.9</ele>
        <time>2020-06-02T21:01:15Z</time>
      </trkpt>
      <trkpt lat="39.960655" lon="3.211764">
        <ele>140.1</ele>
        <time>2020-06-02T21:01:16Z</time>
      </trkpt>
      <trkpt lat="39.960636" lon="3.211804">
        <ele>140.1</ele>
        <time>2020-06-02T21:01:17Z</time>
      </trkpt>
      <trkpt lat="39.960613" lon="3.211857">
        <ele>140.2</ele>
        <time>2020-06-02T21:01:18Z</time>
      </trkpt>
      <trkpt lat="39.96059" lon="3.211912">
        <ele>140.2</ele>
        <time>2020-06-02T21:01:20Z</time>
      </trkpt>
      <trkpt lat="39.960575" lon="3.211959">
        <ele>140.2</ele>
        <time>2020-06-02T21:01:21Z</time>
      </trkpt>
      <trkpt lat="39.960552" lon="3.212015">
        <ele>140.1</ele>
        <time>2020-06-02T21:01:22Z</time>
      </trkpt>
      <trkpt lat="39.960533" lon="3.212073">
        <ele>141.3</ele>
        <time>2020-06-02T21:01:23Z</time>
      </trkpt>
      <trkpt lat="39.960518" lon="3.212132">
        <ele>141.9</ele>
        <time>2020-06-02T21:01:24Z</time>
      </trkpt>
      <trkpt lat="39.960514" lon="3.212191">
        <ele>142.5</ele>
        <time>2020-06-02T21:01:25Z</time>
      </trkpt>
      <trkpt lat="39.960529" lon="3.212243">
        <ele>143.2</ele>
        <time>2020-06-02T21:01:27Z</time>
      </trkpt>
      <trkpt lat="39.96056" lon="3.21228">
        <ele>144</ele>
        <time>2020-06-02T21:01:28Z</time>
      </trkpt>
      <trkpt lat="39.96059" lon="3.212306">
        <ele>145.2</ele>
        <time>2020-06-02T21:01:29Z</time>
      </trkpt>
      <trkpt lat="39.960621" lon="3.212329">
        <ele>145.7</ele>
        <time>2020-06-02T21:01:30Z</time>
      </trkpt>
      <trkpt lat="39.960663" lon="3.212341">
        <ele>146.2</ele>
        <time>2020-06-02T21:01:31Z</time>
      </trkpt>
      <trkpt lat="39.960693" lon="3.212319">
        <ele>146.5</ele>
        <time>2020-06-02T21:01:32Z</time>
      </trkpt>
      <trkpt lat="39.960724" lon="3.212269">
        <ele>146.6</ele>
        <time>2020-06-02T21:01:33Z</time>
      </trkpt>
      <trkpt lat="39.960747" lon="3.212203">
        <ele>148.7</ele>
        <time>2020-06-02T21:01:34Z</time>
      </trkpt>
      <trkpt lat="39.960773" lon="3.21213">
        <ele>150.2</ele>
        <time>2020-06-02T21:01:36Z</time>
      </trkpt>
      <trkpt lat="39.960804" lon="3.212057">
        <ele>154.5</ele>
        <time>2020-06-02T21:01:37Z</time>
      </trkpt>
      <trkpt lat="39.960831" lon="3.211999">
        <ele>156.4</ele>
        <time>2020-06-02T21:01:38Z</time>
      </trkpt>
      <trkpt lat="39.960857" lon="3.211943">
        <ele>153.9</ele>
        <time>2020-06-02T21:01:39Z</time>
      </trkpt>
      <trkpt lat="39.960876" lon="3.211887">
        <ele>150.3</ele>
        <time>2020-06-02T21:01:40Z</time>
      </trkpt>
      <trkpt lat="39.960903" lon="3.211821">
        <ele>153.6</ele>
        <time>2020-06-02T21:01:41Z</time>
      </trkpt>
      <trkpt lat="39.960922" lon="3.211767">
        <ele>152.7</ele>
        <time>2020-06-02T21:01:42Z</time>
      </trkpt>
      <trkpt lat="39.960949" lon="3.211706">
        <ele>149.8</ele>
        <time>2020-06-02T21:01:43Z</time>
      </trkpt>
      <trkpt lat="39.960972" lon="3.211648">
        <ele>144.8</ele>
        <time>2020-06-02T21:01:44Z</time>
      </trkpt>
      <trkpt lat="39.960995" lon="3.211595">
        <ele>143.5</ele>
        <time>2020-06-02T21:01:46Z</time>
      </trkpt>
      <trkpt lat="39.961018" lon="3.211549">
        <ele>124.3</ele>
        <time>2020-06-02T21:01:47Z</time>
      </trkpt>
      <trkpt lat="39.96104" lon="3.211515">
        <ele>98.9</ele>
        <time>2020-06-02T21:01:48Z</time>
      </trkpt>
      <trkpt lat="39.961063" lon="3.211494">
        <ele>99.3</ele>
        <time>2020-06-02T21:01:49Z</time>
      </trkpt>
      <trkpt lat="39.961082" lon="3.211484">
        <ele>84</ele>
        <time>2020-06-02T21:01:50Z</time>
      </trkpt>
      <trkpt lat="39.961105" lon="3.211478">
        <ele>59.5</ele>
        <time>2020-06-02T21:01:51Z</time>
      </trkpt>
      <trkpt lat="39.961124" lon="3.211475">
        <ele>59.9</ele>
        <time>2020-06-02T21:01:52Z</time>
      </trkpt>
      <trkpt lat="39.961151" lon="3.211474">
        <ele>48.2</ele>
        <time>2020-06-02T21:01:54Z</time>
      </trkpt>
      <trkpt lat="39.961178" lon="3.211476">
        <ele>37.8</ele>
        <time>2020-06-02T21:01:55Z</time>
      </trkpt>
      <trkpt lat="39.961208" lon="3.211487">
        <ele>31</ele>
        <time>2020-06-02T21:01:56Z</time>
      </trkpt>
      <trkpt lat="39.961208" lon="3.21152">
        <ele>31.4</ele>
        <time>2020-06-02T21:01:57Z</time>
      </trkpt>
      <trkpt lat="39.961193" lon="3.211554">
        <ele>46.5</ele>
        <time>2020-06-02T21:01:58Z</time>
      </trkpt>
      <trkpt lat="39.96117" lon="3.211607">
        <ele>49.4</ele>
        <time>2020-06-02T21:01:59Z</time>
      </trkpt>
      <trkpt lat="39.961143" lon="3.211657">
        <ele>67.2</ele>
        <time>2020-06-02T21:02:00Z</time>
      </trkpt>
      <trkpt lat="39.961113" lon="3.211712">
        <ele>82.7</ele>
        <time>2020-06-02T21:02:01Z</time>
      </trkpt>
      <trkpt lat="39.961082" lon="3.211769">
        <ele>96.9</ele>
        <time>2020-06-02T21:02:02Z</time>
      </trkpt>
      <trkpt lat="39.961048" lon="3.211834">
        <ele>106.4</ele>
        <time>2020-06-02T21:02:03Z</time>
      </trkpt>
      <trkpt lat="39.961021" lon="3.211886">
        <ele>120.9</ele>
        <time>2020-06-02T21:02:04Z</time>
      </trkpt>
      <trkpt lat="39.960995" lon="3.211944">
        <ele>135.8</ele>
        <time>2020-06-02T21:02:06Z</time>
      </trkpt>
      <trkpt lat="39.960976" lon="3.21199">
        <ele>138</ele>
        <time>2020-06-02T21:02:07Z</time>
      </trkpt>
      <trkpt lat="39.960949" lon="3.212045">
        <ele>153.4</ele>
        <time>2020-06-02T21:02:08Z</time>
      </trkpt>
      <trkpt lat="39.960926" lon="3.212103">
        <ele>161.2</ele>
        <time>2020-06-02T21:02:09Z</time>
      </trkpt>
      <trkpt lat="39.960903" lon="3.212152">
        <ele>164.2</ele>
        <time>2020-06-02T21:02:10Z</time>
      </trkpt>
      <trkpt lat="39.960876" lon="3.21221">
        <ele>162.5</ele>
        <time>2020-06-02T21:02:11Z</time>
      </trkpt>
      <trkpt lat="39.960857" lon="3.212257">
        <ele>159.9</ele>
        <time>2020-06-02T21:02:12Z</time>
      </trkpt>
      <trkpt lat="39.960842" lon="3.212308">
        <ele>158.7</ele>
        <time>2020-06-02T21:02:13Z</time>
      </trkpt>
      <trkpt lat="39.960838" lon="3.212353">
        <ele>158.9</ele>
        <time>2020-06-02T21:02:15Z</time>
      </trkpt>
      <trkpt lat="39.960834" lon="3.212387">
        <ele>159</ele>
        <time>2020-06-02T21:02:16Z</time>
      </trkpt>
      <trkpt lat="39.960834" lon="3.212428">
        <ele>159.2</ele>
        <time>2020-06-02T21:02:17Z</time>
      </trkpt>
      <trkpt lat="39.960834" lon="3.212463">
        <ele>159.3</ele>
        <time>2020-06-02T21:02:18Z</time>
      </trkpt>
      <trkpt lat="39.960838" lon="3.212504">
        <ele>159.4</ele>
        <time>2020-06-02T21:02:19Z</time>
      </trkpt>
      <trkpt lat="39.960842" lon="3.212542">
        <ele>159.6</ele>
        <time>2020-06-02T21:02:20Z</time>
      </trkpt>
      <trkpt lat="39.960854" lon="3.212576">
        <ele>159.7</ele>
        <time>2020-06-02T21:02:21Z</time>
      </trkpt>
      <trkpt lat="39.960861" lon="3.2126">
        <ele>159.8</ele>
        <time>2020-06-02T21:02:22Z</time>
      </trkpt>
      <trkpt lat="39.960876" lon="3.212621">
        <ele>159.9</ele>
        <time>2020-06-02T21:02:23Z</time>
      </trkpt>
      <trkpt lat="39.960888" lon="3.212639">
        <ele>160</ele>
        <time>2020-06-02T21:02:25Z</time>
      </trkpt>
      <trkpt lat="39.960888" lon="3.21264">
        <ele>160</ele>
        <time>2020-06-02T21:02:26Z</time>
      </trkpt>
      <trkpt lat="39.960888" lon="3.21264">
        <ele>160</ele>
        <time>2020-06-02T21:02:27Z</time>
      </trkpt>
      <trkpt lat="39.960888" lon="3.21264">
        <ele>160</ele>
        <time>2020-06-02T21:02:28Z</time>
      </trkpt>
      <trkpt lat="39.960888" lon="3.21264">
        <ele>160</ele>
        <time>2020-06-02T21:02:29Z</time>
      </trkpt>
      <trkpt lat="39.960888" lon="3.21264">
        <ele>160</ele>
        <time>2020-06-02T21:02:30Z</time>
      </trkpt>
      <trkpt lat="39.960888" lon="3.21264">
        <ele>160</ele>
        <time>2020-06-02T21:02:31Z</time>
      </trkpt>
      <trkpt lat="39.960888" lon="3.21264">
        <ele>160</ele>
        <time>2020-06-02T21:02:32Z</time>
      </trkpt>
      <trkpt lat="39.960888" lon="3.21264">
        <ele>160</ele>
        <time>2020-06-02T21:02:33Z</time>
      </trkpt>
      <trkpt lat="39.960888" lon="3.21264">
        <ele>160</ele>
        <time>2020-06-02T21:02:34Z</time>
      </trkpt>
      <trkpt lat="39.960888" lon="3.21264">
        <ele>160</ele>
        <time>2020-06-02T21:02:35Z</time>
      </trkpt>
      <trkpt lat="39.960888" lon="3.21264">
        <ele>160</ele>
        <time>2020-06-02T21:02:37Z</time>
      </trkpt>
      <trkpt lat="39.960888" lon="3.21264">
        <ele>160</ele>
        <time>2020-06-02T21:02:38Z</time>
      </trkpt>
      <trkpt lat="39.960888" lon="3.21264">
        <ele>160</ele>
        <time>2020-06-02T21:02:39Z</time>
      </trkpt>
      <trkpt lat="39.960888" lon="3.21264">
        <ele>160</ele>
        <time>2020-06-02T21:02:40Z</time>
      </trkpt>
      <trkpt lat="39.960888" lon="3.21264">
        <ele>160</ele>
        <time>2020-06-02T21:02:41Z</time>
      </trkpt>
      <trkpt lat="39.960888" lon="3.21264">
        <ele>160</ele>
        <time>2020-06-02T21:02:42Z</time>
      </trkpt>
      <trkpt lat="39.960888" lon="3.21264">
        <ele>160</ele>
        <time>2020-06-02T21:02:44Z</time>
      </trkpt>
      <trkpt lat="39.960888" lon="3.21264">
        <ele>160</ele>
        <time>2020-06-02T21:02:45Z</time>
      </trkpt>
      <trkpt lat="39.960888" lon="3.21264">
        <ele>160</ele>
        <time>2020-06-02T21:02:46Z</time>
      </trkpt>
      <trkpt lat="39.960888" lon="3.21264">
        <ele>160</ele>
        <time>2020-06-02T21:02:47Z</time>
      </trkpt>
      <trkpt lat="39.960888" lon="3.21264">
        <ele>160</ele>
        <time>2020-06-02T21:02:48Z</time>
      </trkpt>
      <trkpt lat="39.960888" lon="3.21264">
        <ele>160</ele>
        <time>2020-06-02T21:02:49Z</time>
      </trkpt>
      <trkpt lat="39.960888" lon="3.21264">
        <ele>160</ele>
        <time>2020-06-02T21:02:50Z</time>
      </trkpt>
      <trkpt lat="39.960888" lon="3.21264">
        <ele>160</ele>
        <time>2020-06-02T21:02:52Z</time>
      </trkpt>
      <trkpt lat="39.960899" lon="3.212652">
        <ele>160</ele>
        <time>2020-06-02T21:02:53Z</time>
      </trkpt>
      <trkpt lat="39.960918" lon="3.212672">
        <ele>160.2</ele>
        <time>2020-06-02T21:02:54Z</time>
      </trkpt>
      <trkpt lat="39.960934" lon="3.212686">
        <ele>160.2</ele>
        <time>2020-06-02T21:02:55Z</time>
      </trkpt>
      <trkpt lat="39.960949" lon="3.212699">
        <ele>160.3</ele>
        <time>2020-06-02T21:02:56Z</time>
      </trkpt>
      <trkpt lat="39.96096" lon="3.212709">
        <ele>160.4</ele>
        <time>2020-06-02T21:02:57Z</time>
      </trkpt>
      <trkpt lat="39.960976" lon="3.212722">
        <ele>160.5</ele>
        <time>2020-06-02T21:02:58Z</time>
      </trkpt>
      <trkpt lat="39.960995" lon="3.21274">
        <ele>160.6</ele>
        <time>2020-06-02T21:03:00Z</time>
      </trkpt>
      <trkpt lat="39.961018" lon="3.212765">
        <ele>160.7</ele>
        <time>2020-06-02T21:03:01Z</time>
      </trkpt>
      <trkpt lat="39.961044" lon="3.212798">
        <ele>160.9</ele>
        <time>2020-06-02T21:03:02Z</time>
      </trkpt>
      <trkpt lat="39.961079" lon="3.212837">
        <ele>161.1</ele>
        <time>2020-06-02T21:03:03Z</time>
      </trkpt>
      <trkpt lat="39.961109" lon="3.212871">
        <ele>161.3</ele>
        <time>2020-06-02T21:03:04Z</time>
      </trkpt>
      <trkpt lat="39.961159" lon="3.212908">
        <ele>161.6</ele>
        <time>2020-06-02T21:03:05Z</time>
      </trkpt>
      <trkpt lat="39.961216" lon="3.212928">
        <ele>161.9</ele>
        <time>2020-06-02T21:03:07Z</time>
      </trkpt>
      <trkpt lat="39.961281" lon="3.212922">
        <ele>162.2</ele>
        <time>2020-06-02T21:03:08Z</time>
      </trkpt>
      <trkpt lat="39.961338" lon="3.212905">
        <ele>162.4</ele>
        <time>2020-06-02T21:03:09Z</time>
      </trkpt>
      <trkpt lat="39.96138" lon="3.212844">
        <ele>163</ele>
        <time>2020-06-02T21:03:10Z</time>
      </trkpt>
      <trkpt lat="39.961349" lon="3.212771">
        <ele>163.1</ele>
        <time>2020-06-02T21:03:11Z</time>
      </trkpt>
      <trkpt lat="39.961308" lon="3.212709">
        <ele>163.2</ele>
        <time>2020-06-02T21:03:13Z</time>
      </trkpt>
      <trkpt lat="39.961262" lon="3.212651">
        <ele>163.3</ele>
        <time>2020-06-02T21:03:14Z</time>
      </trkpt>
      <trkpt lat="39.96122" lon="3.212592">
        <ele>163.4</ele>
        <time>2020-06-02T21:03:15Z</time>
      </trkpt>
      <trkpt lat="39.961178" lon="3.212531">
        <ele>163.5</ele>
        <time>2020-06-02T21:03:16Z</time>
      </trkpt>
      <trkpt lat="39.96114" lon="3.212466">
        <ele>163.6</ele>
        <time>2020-06-02T21:03:17Z</time>
      </trkpt>
      <trkpt lat="39.961124" lon="3.212391">
        <ele>163.7</ele>
        <time>2020-06-02T21:03:19Z</time>
      </trkpt>
      <trkpt lat="39.961132" lon="3.212324">
        <ele>163.8</ele>
        <time>2020-06-02T21:03:20Z</time>
      </trkpt>
      <trkpt lat="39.961147" lon="3.21226">
        <ele>163.9</ele>
        <time>2020-06-02T21:03:21Z</time>
      </trkpt>
      <trkpt lat="39.961178" lon="3.212188">
        <ele>164</ele>
        <time>2020-06-02T21:03:22Z</time>
      </trkpt>
      <trkpt lat="39.961212" lon="3.212139">
        <ele>164.1</ele>
        <time>2020-06-02T21:03:23Z</time>
      </trkpt>
      <trkpt lat="39.961254" lon="3.212107">
        <ele>164.2</ele>
        <time>2020-06-02T21:03:24Z</time>
      </trkpt>
      <trkpt lat="39.961277" lon="3.212092">
        <ele>164.2</ele>
        <time>2020-06-02T21:03:25Z</time>
      </trkpt>
      <trkpt lat="39.961235" lon="3.212113">
        <ele>164.3</ele>
        <time>2020-06-02T21:03:26Z</time>
      </trkpt>
      <trkpt lat="39.961182" lon="3.212142">
        <ele>164.3</ele>
        <time>2020-06-02T21:03:27Z</time>
      </trkpt>
      <trkpt lat="39.961162" lon="3.212172">
        <ele>164.3</ele>
        <time>2020-06-02T21:03:28Z</time>
      </trkpt>
      <trkpt lat="39.96114" lon="3.212219">
        <ele>164.2</ele>
        <time>2020-06-02T21:03:30Z</time>
      </trkpt>
      <trkpt lat="39.961121" lon="3.212278">
        <ele>164.1</ele>
        <time>2020-06-02T21:03:31Z</time>
      </trkpt>
      <trkpt lat="39.961105" lon="3.212335">
        <ele>164</ele>
        <time>2020-06-02T21:03:32Z</time>
      </trkpt>
      <trkpt lat="39.961098" lon="3.212412">
        <ele>163.8</ele>
        <time>2020-06-02T21:03:33Z</time>
      </trkpt>
      <trkpt lat="39.961117" lon="3.212489">
        <ele>163.7</ele>
        <time>2020-06-02T21:03:34Z</time>
      </trkpt>
      <trkpt lat="39.961151" lon="3.212555">
        <ele>163.5</ele>
        <time>2020-06-02T21:03:35Z</time>
      </trkpt>
      <trkpt lat="39.961193" lon="3.212616">
        <ele>163.4</ele>
        <time>2020-06-02T21:03:37Z</time>
      </trkpt>
      <trkpt lat="39.961235" lon="3.212675">
        <ele>163.2</ele>
        <time>2020-06-02T21:03:38Z</time>
      </trkpt>
      <trkpt lat="39.961281" lon="3.212733">
        <ele>163.1</ele>
        <time>2020-06-02T21:03:39Z</time>
      </trkpt>
      <trkpt lat="39.961323" lon="3.212792">
        <ele>163</ele>
        <time>2020-06-02T21:03:40Z</time>
      </trkpt>
      <trkpt lat="39.961349" lon="3.212848">
        <ele>162.6</ele>
        <time>2020-06-02T21:03:41Z</time>
      </trkpt>
      <trkpt lat="39.961281" lon="3.21288">
        <ele>162.3</ele>
        <time>2020-06-02T21:03:42Z</time>
      </trkpt>
      <trkpt lat="39.96122" lon="3.212885">
        <ele>162</ele>
        <time>2020-06-02T21:03:43Z</time>
      </trkpt>
      <trkpt lat="39.961147" lon="3.212847">
        <ele>161.6</ele>
        <time>2020-06-02T21:03:45Z</time>
      </trkpt>
      <trkpt lat="39.961094" lon="3.212786">
        <ele>161.2</ele>
        <time>2020-06-02T21:03:46Z</time>
      </trkpt>
      <trkpt lat="39.961025" lon="3.2127">
        <ele>160.7</ele>
        <time>2020-06-02T21:03:47Z</time>
      </trkpt>
      <trkpt lat="39.960941" lon="3.212615">
        <ele>160.2</ele>
        <time>2020-06-02T21:03:48Z</time>
      </trkpt>
      <trkpt lat="39.960892" lon="3.212473">
        <ele>159.7</ele>
        <time>2020-06-02T21:03:49Z</time>
      </trkpt>
      <trkpt lat="39.960907" lon="3.212294">
        <ele>158.1</ele>
        <time>2020-06-02T21:03:50Z</time>
      </trkpt>
      <trkpt lat="39.960972" lon="3.21213">
        <ele>147.4</ele>
        <time>2020-06-02T21:03:52Z</time>
      </trkpt>
      <trkpt lat="39.961029" lon="3.211985">
        <ele>123.6</ele>
        <time>2020-06-02T21:03:53Z</time>
      </trkpt>
      <trkpt lat="39.961086" lon="3.211852">
        <ele>90.2</ele>
        <time>2020-06-02T21:03:54Z</time>
      </trkpt>
      <trkpt lat="39.961147" lon="3.211731">
        <ele>66.6</ele>
        <time>2020-06-02T21:03:55Z</time>
      </trkpt>
      <trkpt lat="39.961201" lon="3.211622">
        <ele>51.4</ele>
        <time>2020-06-02T21:03:56Z</time>
      </trkpt>
      <trkpt lat="39.961239" lon="3.211516">
        <ele>22.8</ele>
        <time>2020-06-02T21:03:58Z</time>
      </trkpt>
      <trkpt lat="39.961185" lon="3.21144">
        <ele>33.7</ele>
        <time>2020-06-02T21:03:59Z</time>
      </trkpt>
      <trkpt lat="39.961071" lon="3.211455">
        <ele>73.2</ele>
        <time>2020-06-02T21:04:00Z</time>
      </trkpt>
      <trkpt lat="39.960979" lon="3.211575">
        <ele>145.1</ele>
        <time>2020-06-02T21:04:01Z</time>
      </trkpt>
      <trkpt lat="39.960922" lon="3.211716">
        <ele>158.5</ele>
        <time>2020-06-02T21:04:02Z</time>
      </trkpt>
      <trkpt lat="39.960884" lon="3.211824">
        <ele>154.9</ele>
        <time>2020-06-02T21:04:03Z</time>
      </trkpt>
      <trkpt lat="39.960842" lon="3.211925">
        <ele>155.1</ele>
        <time>2020-06-02T21:04:04Z</time>
      </trkpt>
      <trkpt lat="39.960789" lon="3.212034">
        <ele>155.6</ele>
        <time>2020-06-02T21:04:06Z</time>
      </trkpt>
      <trkpt lat="39.960743" lon="3.212141">
        <ele>150.7</ele>
        <time>2020-06-02T21:04:07Z</time>
      </trkpt>
      <trkpt lat="39.960709" lon="3.212227">
        <ele>147.2</ele>
        <time>2020-06-02T21:04:08Z</time>
      </trkpt>
      <trkpt lat="39.96067" lon="3.212298">
        <ele>145.8</ele>
        <time>2020-06-02T21:04:09Z</time>
      </trkpt>
      <trkpt lat="39.960583" lon="3.212248">
        <ele>143.9</ele>
        <time>2020-06-02T21:04:10Z</time>
      </trkpt>
      <trkpt lat="39.960556" lon="3.212141">
        <ele>142.1</ele>
        <time>2020-06-02T21:04:11Z</time>
      </trkpt>
      <trkpt lat="39.960602" lon="3.212015">
        <ele>140.1</ele>
        <time>2020-06-02T21:04:12Z</time>
      </trkpt>
      <trkpt lat="39.960674" lon="3.211862">
        <ele>140.2</ele>
        <time>2020-06-02T21:04:13Z</time>
      </trkpt>
      <trkpt lat="39.960735" lon="3.21173">
        <ele>140</ele>
        <time>2020-06-02T21:04:14Z</time>
      </trkpt>
      <trkpt lat="39.960796" lon="3.211592">
        <ele>139.6</ele>
        <time>2020-06-02T21:04:15Z</time>
      </trkpt>
      <trkpt lat="39.960854" lon="3.211422">
        <ele>139.3</ele>
        <time>2020-06-02T21:04:16Z</time>
      </trkpt>
      <trkpt lat="39.960808" lon="3.211246">
        <ele>139.1</ele>
        <time>2020-06-02T21:04:18Z</time>
      </trkpt>
      <trkpt lat="39.96072" lon="3.211081">
        <ele>138.8</ele>
        <time>2020-06-02T21:04:19Z</time>
      </trkpt>
      <trkpt lat="39.960644" lon="3.210907">
        <ele>137.9</ele>
        <time>2020-06-02T21:04:20Z</time>
      </trkpt>
      <trkpt lat="39.960586" lon="3.21073">
        <ele>136.7</ele>
        <time>2020-06-02T21:04:21Z</time>
      </trkpt>
      <trkpt lat="39.960564" lon="3.210582">
        <ele>135.8</ele>
        <time>2020-06-02T21:04:22Z</time>
      </trkpt>
      <trkpt lat="39.960548" lon="3.210421">
        <ele>135</ele>
        <time>2020-06-02T21:04:23Z</time>
      </trkpt>
      <trkpt lat="39.960529" lon="3.210305">
        <ele>134.5</ele>
        <time>2020-06-02T21:04:24Z</time>
      </trkpt>
      <trkpt lat="39.960472" lon="3.210206">
        <ele>134.1</ele>
        <time>2020-06-02T21:04:26Z</time>
      </trkpt>
      <trkpt lat="39.960411" lon="3.210131">
        <ele>133.9</ele>
        <time>2020-06-02T21:04:27Z</time>
      </trkpt>
      <trkpt lat="39.960358" lon="3.210065">
        <ele>133.8</ele>
        <time>2020-06-02T21:04:28Z</time>
      </trkpt>
      <trkpt lat="39.960297" lon="3.210021">
        <ele>133.8</ele>
        <time>2020-06-02T21:04:29Z</time>
      </trkpt>
      <trkpt lat="39.960232" lon="3.210012">
        <ele>133.9</ele>
        <time>2020-06-02T21:04:30Z</time>
      </trkpt>
      <trkpt lat="39.960175" lon="3.210018">
        <ele>134</ele>
        <time>2020-06-02T21:04:32Z</time>
      </trkpt>
      <trkpt lat="39.960117" lon="3.210026">
        <ele>134.3</ele>
        <time>2020-06-02T21:04:33Z</time>
      </trkpt>
      <trkpt lat="39.960068" lon="3.210035">
        <ele>134.5</ele>
        <time>2020-06-02T21:04:34Z</time>
      </trkpt>
      <trkpt lat="39.960022" lon="3.21005">
        <ele>134.7</ele>
        <time>2020-06-02T21:04:35Z</time>
      </trkpt>
      <trkpt lat="39.959991" lon="3.210066">
        <ele>134.9</ele>
        <time>2020-06-02T21:04:36Z</time>
      </trkpt>
      <trkpt lat="39.959957" lon="3.210089">
        <ele>135.1</ele>
        <time>2020-06-02T21:04:37Z</time>
      </trkpt>
      <trkpt lat="39.959927" lon="3.210112">
        <ele>135.4</ele>
        <time>2020-06-02T21:04:39Z</time>
      </trkpt>
      <trkpt lat="39.959907" lon="3.210131">
        <ele>135.5</ele>
        <time>2020-06-02T21:04:40Z</time>
      </trkpt>
      <trkpt lat="39.959885" lon="3.21015">
        <ele>135.7</ele>
        <time>2020-06-02T21:04:41Z</time>
      </trkpt>
      <trkpt lat="39.959862" lon="3.21017">
        <ele>135.9</ele>
        <time>2020-06-02T21:04:42Z</time>
      </trkpt>
      <trkpt lat="39.959831" lon="3.210195">
        <ele>136.2</ele>
        <time>2020-06-02T21:04:43Z</time>
      </trkpt>
      <trkpt lat="39.959808" lon="3.210217">
        <ele>136.4</ele>
        <time>2020-06-02T21:04:44Z</time>
      </trkpt>
      <trkpt lat="39.959778" lon="3.210245">
        <ele>136.6</ele>
        <time>2020-06-02T21:04:45Z</time>
      </trkpt>
      <trkpt lat="39.959743" lon="3.210277">
        <ele>136.9</ele>
        <time>2020-06-02T21:04:46Z</time>
      </trkpt>
      <trkpt lat="39.959721" lon="3.210306">
        <ele>137.1</ele>
        <time>2020-06-02T21:04:47Z</time>
      </trkpt>
      <trkpt lat="39.959694" lon="3.210343">
        <ele>137.3</ele>
        <time>2020-06-02T21:04:48Z</time>
      </trkpt>
      <trkpt lat="39.959667" lon="3.21038">
        <ele>137.6</ele>
        <time>2020-06-02T21:04:50Z</time>
      </trkpt>
      <trkpt lat="39.95964" lon="3.210418">
        <ele>137.8</ele>
        <time>2020-06-02T21:04:51Z</time>
      </trkpt>
      <trkpt lat="39.959621" lon="3.210449">
        <ele>137.9</ele>
        <time>2020-06-02T21:04:52Z</time>
      </trkpt>
      <trkpt lat="39.959599" lon="3.210487">
        <ele>138.1</ele>
        <time>2020-06-02T21:04:53Z</time>
      </trkpt>
      <trkpt lat="39.959576" lon="3.210524">
        <ele>138.2</ele>
        <time>2020-06-02T21:04:54Z</time>
      </trkpt>
      <trkpt lat="39.959553" lon="3.210564">
        <ele>138.5</ele>
        <time>2020-06-02T21:04:55Z</time>
      </trkpt>
      <trkpt lat="39.959537" lon="3.210597">
        <ele>138.7</ele>
        <time>2020-06-02T21:04:56Z</time>
      </trkpt>
      <trkpt lat="39.959515" lon="3.210637">
        <ele>139</ele>
        <time>2020-06-02T21:04:58Z</time>
      </trkpt>
      <trkpt lat="39.959496" lon="3.210674">
        <ele>139.3</ele>
        <time>2020-06-02T21:04:59Z</time>
      </trkpt>
      <trkpt lat="39.959476" lon="3.210709">
        <ele>139.6</ele>
        <time>2020-06-02T21:05:00Z</time>
      </trkpt>
      <trkpt lat="39.959461" lon="3.210741">
        <ele>139.9</ele>
        <time>2020-06-02T21:05:01Z</time>
      </trkpt>
      <trkpt lat="39.959446" lon="3.210771">
        <ele>140.2</ele>
        <time>2020-06-02T21:05:02Z</time>
      </trkpt>
      <trkpt lat="39.959431" lon="3.210795">
        <ele>140.4</ele>
        <time>2020-06-02T21:05:03Z</time>
      </trkpt>
      <trkpt lat="39.959415" lon="3.210825">
        <ele>140.7</ele>
        <time>2020-06-02T21:05:05Z</time>
      </trkpt>
      <trkpt lat="39.959404" lon="3.21085">
        <ele>141</ele>
        <time>2020-06-02T21:05:06Z</time>
      </trkpt>
      <trkpt lat="39.959389" lon="3.210883">
        <ele>141.3</ele>
        <time>2020-06-02T21:05:07Z</time>
      </trkpt>
      <trkpt lat="39.959373" lon="3.210915">
        <ele>141.6</ele>
        <time>2020-06-02T21:05:08Z</time>
      </trkpt>
      <trkpt lat="39.959358" lon="3.210948">
        <ele>141.9</ele>
        <time>2020-06-02T21:05:09Z</time>
      </trkpt>
      <trkpt lat="39.959343" lon="3.210974">
        <ele>142.1</ele>
        <time>2020-06-02T21:05:10Z</time>
      </trkpt>
      <trkpt lat="39.959328" lon="3.211">
        <ele>142.4</ele>
        <time>2020-06-02T21:05:11Z</time>
      </trkpt>
      <trkpt lat="39.959305" lon="3.211029">
        <ele>142.8</ele>
        <time>2020-06-02T21:05:12Z</time>
      </trkpt>
      <trkpt lat="39.959282" lon="3.211057">
        <ele>143.1</ele>
        <time>2020-06-02T21:05:14Z</time>
      </trkpt>
      <trkpt lat="39.959259" lon="3.211086">
        <ele>143.4</ele>
        <time>2020-06-02T21:05:15Z</time>
      </trkpt>
      <trkpt lat="39.959232" lon="3.211114">
        <ele>143.8</ele>
        <time>2020-06-02T21:05:16Z</time>
      </trkpt>
      <trkpt lat="39.959213" lon="3.211138">
        <ele>144.1</ele>
        <time>2020-06-02T21:05:17Z</time>
      </trkpt>
      <trkpt lat="39.95919" lon="3.211167">
        <ele>144.4</ele>
        <time>2020-06-02T21:05:18Z</time>
      </trkpt>
      <trkpt lat="39.959167" lon="3.21119">
        <ele>144.7</ele>
        <time>2020-06-02T21:05:19Z</time>
      </trkpt>
      <trkpt lat="39.959145" lon="3.211216">
        <ele>145</ele>
        <time>2020-06-02T21:05:20Z</time>
      </trkpt>
      <trkpt lat="39.959122" lon="3.211235">
        <ele>145.3</ele>
        <time>2020-06-02T21:05:21Z</time>
      </trkpt>
      <trkpt lat="39.959103" lon="3.211252">
        <ele>145.5</ele>
        <time>2020-06-02T21:05:22Z</time>
      </trkpt>
      <trkpt lat="39.959072" lon="3.211269">
        <ele>145.9</ele>
        <time>2020-06-02T21:05:24Z</time>
      </trkpt>
      <trkpt lat="39.959042" lon="3.211284">
        <ele>146.2</ele>
        <time>2020-06-02T21:05:25Z</time>
      </trkpt>
      <trkpt lat="39.959011" lon="3.211298">
        <ele>146.6</ele>
        <time>2020-06-02T21:05:26Z</time>
      </trkpt>
      <trkpt lat="39.958977" lon="3.211312">
        <ele>147</ele>
        <time>2020-06-02T21:05:27Z</time>
      </trkpt>
      <trkpt lat="39.958942" lon="3.211324">
        <ele>147.3</ele>
        <time>2020-06-02T21:05:28Z</time>
      </trkpt>
      <trkpt lat="39.958916" lon="3.211334">
        <ele>147.6</ele>
        <time>2020-06-02T21:05:29Z</time>
      </trkpt>
      <trkpt lat="39.958885" lon="3.211346">
        <ele>148</ele>
        <time>2020-06-02T21:05:31Z</time>
      </trkpt>
      <trkpt lat="39.958855" lon="3.211356">
        <ele>148.3</ele>
        <time>2020-06-02T21:05:32Z</time>
      </trkpt>
      <trkpt lat="39.958828" lon="3.211363">
        <ele>148.6</ele>
        <time>2020-06-02T21:05:33Z</time>
      </trkpt>
      <trkpt lat="39.958801" lon="3.211369">
        <ele>148.9</ele>
        <time>2020-06-02T21:05:34Z</time>
      </trkpt>
      <trkpt lat="39.958767" lon="3.211376">
        <ele>149.3</ele>
        <time>2020-06-02T21:05:35Z</time>
      </trkpt>
      <trkpt lat="39.95874" lon="3.211381">
        <ele>149.5</ele>
        <time>2020-06-02T21:05:36Z</time>
      </trkpt>
      <trkpt lat="39.958706" lon="3.211388">
        <ele>149.9</ele>
        <time>2020-06-02T21:05:37Z</time>
      </trkpt>
      <trkpt lat="39.958668" lon="3.211394">
        <ele>150.3</ele>
        <time>2020-06-02T21:05:38Z</time>
      </trkpt>
      <trkpt lat="39.958637" lon="3.211399">
        <ele>150.7</ele>
        <time>2020-06-02T21:05:39Z</time>
      </trkpt>
      <trkpt lat="39.958599" lon="3.211404">
        <ele>151</ele>
        <time>2020-06-02T21:05:41Z</time>
      </trkpt>
      <trkpt lat="39.958569" lon="3.211409">
        <ele>151.4</ele>
        <time>2020-06-02T21:05:42Z</time>
      </trkpt>
      <trkpt lat="39.958538" lon="3.211415">
        <ele>151.7</ele>
        <time>2020-06-02T21:05:43Z</time>
      </trkpt>
      <trkpt lat="39.9585" lon="3.211424">
        <ele>152.1</ele>
        <time>2020-06-02T21:05:44Z</time>
      </trkpt>
      <trkpt lat="39.958469" lon="3.211433">
        <ele>152.4</ele>
        <time>2020-06-02T21:05:45Z</time>
      </trkpt>
      <trkpt lat="39.958439" lon="3.211445">
        <ele>152.7</ele>
        <time>2020-06-02T21:05:46Z</time>
      </trkpt>
      <trkpt lat="39.958408" lon="3.211457">
        <ele>153</ele>
        <time>2020-06-02T21:05:47Z</time>
      </trkpt>
      <trkpt lat="39.958382" lon="3.211471">
        <ele>153.3</ele>
        <time>2020-06-02T21:05:48Z</time>
      </trkpt>
      <trkpt lat="39.958347" lon="3.211486">
        <ele>153.7</ele>
        <time>2020-06-02T21:05:49Z</time>
      </trkpt>
      <trkpt lat="39.958313" lon="3.211502">
        <ele>154</ele>
        <time>2020-06-02T21:05:50Z</time>
      </trkpt>
      <trkpt lat="39.958279" lon="3.211517">
        <ele>154.4</ele>
        <time>2020-06-02T21:05:51Z</time>
      </trkpt>
      <trkpt lat="39.958248" lon="3.211529">
        <ele>154.7</ele>
        <time>2020-06-02T21:05:52Z</time>
      </trkpt>
      <trkpt lat="39.958214" lon="3.211544">
        <ele>155</ele>
        <time>2020-06-02T21:05:54Z</time>
      </trkpt>
      <trkpt lat="39.958179" lon="3.211559">
        <ele>155.4</ele>
        <time>2020-06-02T21:05:55Z</time>
      </trkpt>
      <trkpt lat="39.958153" lon="3.211572">
        <ele>155.7</ele>
        <time>2020-06-02T21:05:56Z</time>
      </trkpt>
      <trkpt lat="39.958126" lon="3.211585">
        <ele>155.9</ele>
        <time>2020-06-02T21:05:57Z</time>
      </trkpt>
      <trkpt lat="39.958099" lon="3.2116">
        <ele>156.2</ele>
        <time>2020-06-02T21:05:58Z</time>
      </trkpt>
      <trkpt lat="39.958069" lon="3.211615">
        <ele>156.5</ele>
        <time>2020-06-02T21:05:59Z</time>
      </trkpt>
      <trkpt lat="39.958042" lon="3.211628">
        <ele>156.8</ele>
        <time>2020-06-02T21:06:00Z</time>
      </trkpt>
      <trkpt lat="39.958015" lon="3.211644">
        <ele>157.1</ele>
        <time>2020-06-02T21:06:01Z</time>
      </trkpt>
      <trkpt lat="39.957989" lon="3.21166">
        <ele>157.4</ele>
        <time>2020-06-02T21:06:03Z</time>
      </trkpt>
      <trkpt lat="39.957962" lon="3.211676">
        <ele>157.7</ele>
        <time>2020-06-02T21:06:04Z</time>
      </trkpt>
      <trkpt lat="39.957935" lon="3.211692">
        <ele>158</ele>
        <time>2020-06-02T21:06:05Z</time>
      </trkpt>
      <trkpt lat="39.957912" lon="3.211705">
        <ele>158.2</ele>
        <time>2020-06-02T21:06:06Z</time>
      </trkpt>
      <trkpt lat="39.957893" lon="3.211718">
        <ele>158.4</ele>
        <time>2020-06-02T21:06:07Z</time>
      </trkpt>
      <trkpt lat="39.957867" lon="3.211732">
        <ele>158.7</ele>
        <time>2020-06-02T21:06:08Z</time>
      </trkpt>
      <trkpt lat="39.957844" lon="3.211744">
        <ele>158.9</ele>
        <time>2020-06-02T21:06:09Z</time>
      </trkpt>
      <trkpt lat="39.957817" lon="3.211758">
        <ele>159.2</ele>
        <time>2020-06-02T21:06:10Z</time>
      </trkpt>
      <trkpt lat="39.95779" lon="3.211769">
        <ele>159.5</ele>
        <time>2020-06-02T21:06:11Z</time>
      </trkpt>
      <trkpt lat="39.957764" lon="3.211782">
        <ele>159.8</ele>
        <time>2020-06-02T21:06:13Z</time>
      </trkpt>
      <trkpt lat="39.957737" lon="3.211793">
        <ele>160.1</ele>
        <time>2020-06-02T21:06:14Z</time>
      </trkpt>
      <trkpt lat="39.957706" lon="3.211807">
        <ele>160.4</ele>
        <time>2020-06-02T21:06:15Z</time>
      </trkpt>
      <trkpt lat="39.957684" lon="3.211819">
        <ele>160.7</ele>
        <time>2020-06-02T21:06:16Z</time>
      </trkpt>
      <trkpt lat="39.957653" lon="3.211833">
        <ele>161</ele>
        <time>2020-06-02T21:06:17Z</time>
      </trkpt>
      <trkpt lat="39.957622" lon="3.211846">
        <ele>161.4</ele>
        <time>2020-06-02T21:06:18Z</time>
      </trkpt>
      <trkpt lat="39.957596" lon="3.211856">
        <ele>161.7</ele>
        <time>2020-06-02T21:06:19Z</time>
      </trkpt>
      <trkpt lat="39.957561" lon="3.211862">
        <ele>162.1</ele>
        <time>2020-06-02T21:06:21Z</time>
      </trkpt>
      <trkpt lat="39.957527" lon="3.211865">
        <ele>162.4</ele>
        <time>2020-06-02T21:06:22Z</time>
      </trkpt>
      <trkpt lat="39.957493" lon="3.211865">
        <ele>162.8</ele>
        <time>2020-06-02T21:06:23Z</time>
      </trkpt>
      <trkpt lat="39.957455" lon="3.211863">
        <ele>163.2</ele>
        <time>2020-06-02T21:06:24Z</time>
      </trkpt>
      <trkpt lat="39.957416" lon="3.211861">
        <ele>163.6</ele>
        <time>2020-06-02T21:06:25Z</time>
      </trkpt>
      <trkpt lat="39.957375" lon="3.211858">
        <ele>164</ele>
        <time>2020-06-02T21:06:26Z</time>
      </trkpt>
      <trkpt lat="39.95734" lon="3.211855">
        <ele>164.4</ele>
        <time>2020-06-02T21:06:27Z</time>
      </trkpt>
      <trkpt lat="39.957298" lon="3.21185">
        <ele>164.8</ele>
        <time>2020-06-02T21:06:29Z</time>
      </trkpt>
      <trkpt lat="39.95726" lon="3.211844">
        <ele>165.1</ele>
        <time>2020-06-02T21:06:30Z</time>
      </trkpt>
      <trkpt lat="39.957214" lon="3.211838">
        <ele>165.6</ele>
        <time>2020-06-02T21:06:31Z</time>
      </trkpt>
      <trkpt lat="39.95718" lon="3.211832">
        <ele>165.9</ele>
        <time>2020-06-02T21:06:32Z</time>
      </trkpt>
      <trkpt lat="39.957134" lon="3.211826">
        <ele>166.4</ele>
        <time>2020-06-02T21:06:33Z</time>
      </trkpt>
      <trkpt lat="39.957092" lon="3.21182">
        <ele>166.8</ele>
        <time>2020-06-02T21:06:34Z</time>
      </trkpt>
      <trkpt lat="39.957046" lon="3.211813">
        <ele>167.3</ele>
        <time>2020-06-02T21:06:35Z</time>
      </trkpt>
      <trkpt lat="39.957004" lon="3.211807">
        <ele>167.7</ele>
        <time>2020-06-02T21:06:37Z</time>
      </trkpt>
      <trkpt lat="39.956963" lon="3.211801">
        <ele>168.1</ele>
        <time>2020-06-02T21:06:38Z</time>
      </trkpt>
      <trkpt lat="39.956924" lon="3.211796">
        <ele>168.5</ele>
        <time>2020-06-02T21:06:39Z</time>
      </trkpt>
      <trkpt lat="39.956882" lon="3.211789">
        <ele>169</ele>
        <time>2020-06-02T21:06:40Z</time>
      </trkpt>
      <trkpt lat="39.956844" lon="3.211783">
        <ele>169.4</ele>
        <time>2020-06-02T21:06:41Z</time>
      </trkpt>
      <trkpt lat="39.956814" lon="3.211777">
        <ele>169.7</ele>
        <time>2020-06-02T21:06:42Z</time>
      </trkpt>
      <trkpt lat="39.956776" lon="3.21177">
        <ele>170.1</ele>
        <time>2020-06-02T21:06:44Z</time>
      </trkpt>
      <trkpt lat="39.956745" lon="3.211763">
        <ele>170.5</ele>
        <time>2020-06-02T21:06:45Z</time>
      </trkpt>
      <trkpt lat="39.956703" lon="3.211754">
        <ele>170.9</ele>
        <time>2020-06-02T21:06:46Z</time>
      </trkpt>
      <trkpt lat="39.956661" lon="3.211746">
        <ele>171.3</ele>
        <time>2020-06-02T21:06:47Z</time>
      </trkpt>
      <trkpt lat="39.956627" lon="3.211744">
        <ele>171.7</ele>
        <time>2020-06-02T21:06:48Z</time>
      </trkpt>
      <trkpt lat="39.956589" lon="3.211745">
        <ele>172.1</ele>
        <time>2020-06-02T21:06:49Z</time>
      </trkpt>
      <trkpt lat="39.956551" lon="3.21175">
        <ele>172.4</ele>
        <time>2020-06-02T21:06:50Z</time>
      </trkpt>
      <trkpt lat="39.956512" lon="3.211757">
        <ele>172.8</ele>
        <time>2020-06-02T21:06:52Z</time>
      </trkpt>
      <trkpt lat="39.956486" lon="3.211763">
        <ele>173.1</ele>
        <time>2020-06-02T21:06:53Z</time>
      </trkpt>
      <trkpt lat="39.956455" lon="3.21177">
        <ele>173.4</ele>
        <time>2020-06-02T21:06:54Z</time>
      </trkpt>
      <trkpt lat="39.956425" lon="3.211777">
        <ele>173.7</ele>
        <time>2020-06-02T21:06:55Z</time>
      </trkpt>
      <trkpt lat="39.95639" lon="3.211786">
        <ele>174.1</ele>
        <time>2020-06-02T21:06:56Z</time>
      </trkpt>
      <trkpt lat="39.956356" lon="3.211796">
        <ele>174.5</ele>
        <time>2020-06-02T21:06:57Z</time>
      </trkpt>
      <trkpt lat="39.956322" lon="3.211808">
        <ele>174.8</ele>
        <time>2020-06-02T21:06:59Z</time>
      </trkpt>
      <trkpt lat="39.956287" lon="3.211823">
        <ele>175.2</ele>
        <time>2020-06-02T21:07:00Z</time>
      </trkpt>
      <trkpt lat="39.956257" lon="3.211836">
        <ele>175.5</ele>
        <time>2020-06-02T21:07:01Z</time>
      </trkpt>
      <trkpt lat="39.956222" lon="3.211854">
        <ele>175.8</ele>
        <time>2020-06-02T21:07:02Z</time>
      </trkpt>
      <trkpt lat="39.956196" lon="3.211869">
        <ele>176.1</ele>
        <time>2020-06-02T21:07:03Z</time>
      </trkpt>
      <trkpt lat="39.956165" lon="3.211884">
        <ele>176.3</ele>
        <time>2020-06-02T21:07:04Z</time>
      </trkpt>
      <trkpt lat="39.956131" lon="3.211904">
        <ele>176.7</ele>
        <time>2020-06-02T21:07:05Z</time>
      </trkpt>
      <trkpt lat="39.956097" lon="3.211923">
        <ele>177</ele>
        <time>2020-06-02T21:07:06Z</time>
      </trkpt>
      <trkpt lat="39.956066" lon="3.211944">
        <ele>177.3</ele>
        <time>2020-06-02T21:07:08Z</time>
      </trkpt>
      <trkpt lat="39.956032" lon="3.211965">
        <ele>177.6</ele>
        <time>2020-06-02T21:07:09Z</time>
      </trkpt>
      <trkpt lat="39.955997" lon="3.211984">
        <ele>177.9</ele>
        <time>2020-06-02T21:07:10Z</time>
      </trkpt>
      <trkpt lat="39.955959" lon="3.212001">
        <ele>178.3</ele>
        <time>2020-06-02T21:07:11Z</time>
      </trkpt>
      <trkpt lat="39.955933" lon="3.212014">
        <ele>178.5</ele>
        <time>2020-06-02T21:07:12Z</time>
      </trkpt>
      <trkpt lat="39.955894" lon="3.212028">
        <ele>178.9</ele>
        <time>2020-06-02T21:07:13Z</time>
      </trkpt>
      <trkpt lat="39.95586" lon="3.212044">
        <ele>179.2</ele>
        <time>2020-06-02T21:07:15Z</time>
      </trkpt>
      <trkpt lat="39.95583" lon="3.212058">
        <ele>179.5</ele>
        <time>2020-06-02T21:07:16Z</time>
      </trkpt>
      <trkpt lat="39.955803" lon="3.212073">
        <ele>179.8</ele>
        <time>2020-06-02T21:07:17Z</time>
      </trkpt>
      <trkpt lat="39.955772" lon="3.212089">
        <ele>180.2</ele>
        <time>2020-06-02T21:07:18Z</time>
      </trkpt>
      <trkpt lat="39.955738" lon="3.212106">
        <ele>180.5</ele>
        <time>2020-06-02T21:07:19Z</time>
      </trkpt>
      <trkpt lat="39.955704" lon="3.212115">
        <ele>180.9</ele>
        <time>2020-06-02T21:07:20Z</time>
      </trkpt>
      <trkpt lat="39.955669" lon="3.212114">
        <ele>181.3</ele>
        <time>2020-06-02T21:07:21Z</time>
      </trkpt>
      <trkpt lat="39.955643" lon="3.212107">
        <ele>181.5</ele>
        <time>2020-06-02T21:07:22Z</time>
      </trkpt>
      <trkpt lat="39.955612" lon="3.212093">
        <ele>181.9</ele>
        <time>2020-06-02T21:07:23Z</time>
      </trkpt>
      <trkpt lat="39.955585" lon="3.21208">
        <ele>182.2</ele>
        <time>2020-06-02T21:07:24Z</time>
      </trkpt>
      <trkpt lat="39.955555" lon="3.212062">
        <ele>182.5</ele>
        <time>2020-06-02T21:07:26Z</time>
      </trkpt>
      <trkpt lat="39.955521" lon="3.212044">
        <ele>182.9</ele>
        <time>2020-06-02T21:07:27Z</time>
      </trkpt>
      <trkpt lat="39.95549" lon="3.212022">
        <ele>183.3</ele>
        <time>2020-06-02T21:07:28Z</time>
      </trkpt>
      <trkpt lat="39.955467" lon="3.211996">
        <ele>183.6</ele>
        <time>2020-06-02T21:07:29Z</time>
      </trkpt>
      <trkpt lat="39.955456" lon="3.211957">
        <ele>183.9</ele>
        <time>2020-06-02T21:07:30Z</time>
      </trkpt>
      <trkpt lat="39.955463" lon="3.211918">
        <ele>184.2</ele>
        <time>2020-06-02T21:07:31Z</time>
      </trkpt>
      <trkpt lat="39.955475" lon="3.211878">
        <ele>184</ele>
        <time>2020-06-02T21:07:33Z</time>
      </trkpt>
      <trkpt lat="39.955494" lon="3.21184">
        <ele>183.6</ele>
        <time>2020-06-02T21:07:34Z</time>
      </trkpt>
      <trkpt lat="39.955513" lon="3.211802">
        <ele>183.3</ele>
        <time>2020-06-02T21:07:35Z</time>
      </trkpt>
      <trkpt lat="39.955536" lon="3.211768">
        <ele>182.9</ele>
        <time>2020-06-02T21:07:36Z</time>
      </trkpt>
      <trkpt lat="39.95557" lon="3.211739">
        <ele>182.5</ele>
        <time>2020-06-02T21:07:37Z</time>
      </trkpt>
      <trkpt lat="39.955597" lon="3.211717">
        <ele>182.1</ele>
        <time>2020-06-02T21:07:38Z</time>
      </trkpt>
      <trkpt lat="39.955635" lon="3.211692">
        <ele>181.6</ele>
        <time>2020-06-02T21:07:40Z</time>
      </trkpt>
      <trkpt lat="39.955673" lon="3.211667">
        <ele>181.2</ele>
        <time>2020-06-02T21:07:41Z</time>
      </trkpt>
      <trkpt lat="39.955711" lon="3.211641">
        <ele>180.7</ele>
        <time>2020-06-02T21:07:42Z</time>
      </trkpt>
      <trkpt lat="39.955749" lon="3.211615">
        <ele>180.3</ele>
        <time>2020-06-02T21:07:43Z</time>
      </trkpt>
      <trkpt lat="39.955788" lon="3.211589">
        <ele>179.8</ele>
        <time>2020-06-02T21:07:44Z</time>
      </trkpt>
      <trkpt lat="39.955822" lon="3.211562">
        <ele>179.4</ele>
        <time>2020-06-02T21:07:46Z</time>
      </trkpt>
      <trkpt lat="39.95586" lon="3.211534">
        <ele>179</ele>
        <time>2020-06-02T21:07:47Z</time>
      </trkpt>
      <trkpt lat="39.955891" lon="3.211508">
        <ele>178.6</ele>
        <time>2020-06-02T21:07:48Z</time>
      </trkpt>
      <trkpt lat="39.955921" lon="3.211482">
        <ele>178.3</ele>
        <time>2020-06-02T21:07:49Z</time>
      </trkpt>
      <trkpt lat="39.955948" lon="3.211459">
        <ele>178</ele>
        <time>2020-06-02T21:07:50Z</time>
      </trkpt>
      <trkpt lat="39.955971" lon="3.21144">
        <ele>177.7</ele>
        <time>2020-06-02T21:07:51Z</time>
      </trkpt>
      <trkpt lat="39.956001" lon="3.211417">
        <ele>177.4</ele>
        <time>2020-06-02T21:07:53Z</time>
      </trkpt>
      <trkpt lat="39.956024" lon="3.211398">
        <ele>177.2</ele>
        <time>2020-06-02T21:07:54Z</time>
      </trkpt>
      <trkpt lat="39.956051" lon="3.211374">
        <ele>176.9</ele>
        <time>2020-06-02T21:07:55Z</time>
      </trkpt>
      <trkpt lat="39.956074" lon="3.211354">
        <ele>182.2</ele>
        <time>2020-06-02T21:07:56Z</time>
      </trkpt>
      <trkpt lat="39.956104" lon="3.21133">
        <ele>184</ele>
        <time>2020-06-02T21:07:57Z</time>
      </trkpt>
      <trkpt lat="39.956131" lon="3.211303">
        <ele>186.8</ele>
        <time>2020-06-02T21:07:58Z</time>
      </trkpt>
      <trkpt lat="39.956158" lon="3.21128">
        <ele>188.5</ele>
        <time>2020-06-02T21:07:59Z</time>
      </trkpt>
      <trkpt lat="39.956188" lon="3.21125">
        <ele>192.9</ele>
        <time>2020-06-02T21:08:00Z</time>
      </trkpt>
      <trkpt lat="39.956215" lon="3.211222">
        <ele>196.7</ele>
        <time>2020-06-02T21:08:01Z</time>
      </trkpt>
      <trkpt lat="39.956253" lon="3.211188">
        <ele>197</ele>
        <time>2020-06-02T21:08:03Z</time>
      </trkpt>
      <trkpt lat="39.95628" lon="3.211159">
        <ele>197.3</ele>
        <time>2020-06-02T21:08:04Z</time>
      </trkpt>
      <trkpt lat="39.956314" lon="3.211124">
        <ele>197.6</ele>
        <time>2020-06-02T21:08:05Z</time>
      </trkpt>
      <trkpt lat="39.956345" lon="3.211095">
        <ele>197.9</ele>
        <time>2020-06-02T21:08:06Z</time>
      </trkpt>
      <trkpt lat="39.956375" lon="3.211057">
        <ele>198.1</ele>
        <time>2020-06-02T21:08:07Z</time>
      </trkpt>
      <trkpt lat="39.956413" lon="3.211016">
        <ele>198.4</ele>
        <time>2020-06-02T21:08:08Z</time>
      </trkpt>
      <trkpt lat="39.956451" lon="3.210969">
        <ele>198.7</ele>
        <time>2020-06-02T21:08:09Z</time>
      </trkpt>
      <trkpt lat="39.956486" lon="3.210927">
        <ele>198.8</ele>
        <time>2020-06-02T21:08:10Z</time>
      </trkpt>
      <trkpt lat="39.95652" lon="3.210883">
        <ele>199</ele>
        <time>2020-06-02T21:08:11Z</time>
      </trkpt>
      <trkpt lat="39.956562" lon="3.210829">
        <ele>199.1</ele>
        <time>2020-06-02T21:08:13Z</time>
      </trkpt>
      <trkpt lat="39.956596" lon="3.210783">
        <ele>199.1</ele>
        <time>2020-06-02T21:08:14Z</time>
      </trkpt>
      <trkpt lat="39.956631" lon="3.210737">
        <ele>199.2</ele>
        <time>2020-06-02T21:08:15Z</time>
      </trkpt>
      <trkpt lat="39.956661" lon="3.21069">
        <ele>199.2</ele>
        <time>2020-06-02T21:08:16Z</time>
      </trkpt>
      <trkpt lat="39.956699" lon="3.210634">
        <ele>199.3</ele>
        <time>2020-06-02T21:08:17Z</time>
      </trkpt>
      <trkpt lat="39.956737" lon="3.210578">
        <ele>199.3</ele>
        <time>2020-06-02T21:08:18Z</time>
      </trkpt>
      <trkpt lat="39.956768" lon="3.210532">
        <ele>199.3</ele>
        <time>2020-06-02T21:08:19Z</time>
      </trkpt>
      <trkpt lat="39.956799" lon="3.210487">
        <ele>199.4</ele>
        <time>2020-06-02T21:08:20Z</time>
      </trkpt>
      <trkpt lat="39.956833" lon="3.210439">
        <ele>199.5</ele>
        <time>2020-06-02T21:08:21Z</time>
      </trkpt>
      <trkpt lat="39.956875" lon="3.210376">
        <ele>199.6</ele>
        <time>2020-06-02T21:08:22Z</time>
      </trkpt>
      <trkpt lat="39.956924" lon="3.210302">
        <ele>199.7</ele>
        <time>2020-06-02T21:08:23Z</time>
      </trkpt>
      <trkpt lat="39.956966" lon="3.210232">
        <ele>199.7</ele>
        <time>2020-06-02T21:08:24Z</time>
      </trkpt>
      <trkpt lat="39.957027" lon="3.210139">
        <ele>199.3</ele>
        <time>2020-06-02T21:08:26Z</time>
      </trkpt>
      <trkpt lat="39.957081" lon="3.210058">
        <ele>198.9</ele>
        <time>2020-06-02T21:08:27Z</time>
      </trkpt>
      <trkpt lat="39.957146" lon="3.209974">
        <ele>198.3</ele>
        <time>2020-06-02T21:08:28Z</time>
      </trkpt>
      <trkpt lat="39.957222" lon="3.209865">
        <ele>197.6</ele>
        <time>2020-06-02T21:08:29Z</time>
      </trkpt>
      <trkpt lat="39.957302" lon="3.209753">
        <ele>196.9</ele>
        <time>2020-06-02T21:08:30Z</time>
      </trkpt>
      <trkpt lat="39.957382" lon="3.209661">
        <ele>196.1</ele>
        <time>2020-06-02T21:08:31Z</time>
      </trkpt>
      <trkpt lat="39.957493" lon="3.209548">
        <ele>195.1</ele>
        <time>2020-06-02T21:08:32Z</time>
      </trkpt>
      <trkpt lat="39.957611" lon="3.209421">
        <ele>193.9</ele>
        <time>2020-06-02T21:08:33Z</time>
      </trkpt>
      <trkpt lat="39.957729" lon="3.209285">
        <ele>192.5</ele>
        <time>2020-06-02T21:08:35Z</time>
      </trkpt>
      <trkpt lat="39.957832" lon="3.209115">
        <ele>191.2</ele>
        <time>2020-06-02T21:08:36Z</time>
      </trkpt>
      <trkpt lat="39.957935" lon="3.208944">
        <ele>190</ele>
        <time>2020-06-02T21:08:37Z</time>
      </trkpt>
      <trkpt lat="39.957993" lon="3.208741">
        <ele>189</ele>
        <time>2020-06-02T21:08:38Z</time>
      </trkpt>
      <trkpt lat="39.958027" lon="3.208573">
        <ele>188.4</ele>
        <time>2020-06-02T21:08:39Z</time>
      </trkpt>
      <trkpt lat="39.958031" lon="3.208372">
        <ele>188</ele>
        <time>2020-06-02T21:08:40Z</time>
      </trkpt>
      <trkpt lat="39.958015" lon="3.208215">
        <ele>187.9</ele>
        <time>2020-06-02T21:08:41Z</time>
      </trkpt>
      <trkpt lat="39.957985" lon="3.208043">
        <ele>187.9</ele>
        <time>2020-06-02T21:08:43Z</time>
      </trkpt>
      <trkpt lat="39.957939" lon="3.207894">
        <ele>187.9</ele>
        <time>2020-06-02T21:08:44Z</time>
      </trkpt>
      <trkpt lat="39.957909" lon="3.20778">
        <ele>188</ele>
        <time>2020-06-02T21:08:45Z</time>
      </trkpt>
      <trkpt lat="39.957859" lon="3.207667">
        <ele>188.1</ele>
        <time>2020-06-02T21:08:46Z</time>
      </trkpt>
      <trkpt lat="39.957802" lon="3.207603">
        <ele>188.2</ele>
        <time>2020-06-02T21:08:47Z</time>
      </trkpt>
      <trkpt lat="39.957737" lon="3.207541">
        <ele>188.3</ele>
        <time>2020-06-02T21:08:48Z</time>
      </trkpt>
      <trkpt lat="39.957676" lon="3.207489">
        <ele>188.5</ele>
        <time>2020-06-02T21:08:49Z</time>
      </trkpt>
      <trkpt lat="39.957607" lon="3.207473">
        <ele>188.7</ele>
        <time>2020-06-02T21:08:51Z</time>
      </trkpt>
      <trkpt lat="39.95755" lon="3.207516">
        <ele>188.9</ele>
        <time>2020-06-02T21:08:52Z</time>
      </trkpt>
      <trkpt lat="39.957512" lon="3.207568">
        <ele>189.1</ele>
        <time>2020-06-02T21:08:53Z</time>
      </trkpt>
      <trkpt lat="39.95747" lon="3.207636">
        <ele>189.3</ele>
        <time>2020-06-02T21:08:54Z</time>
      </trkpt>
      <trkpt lat="39.957443" lon="3.2077">
        <ele>189.5</ele>
        <time>2020-06-02T21:08:55Z</time>
      </trkpt>
      <trkpt lat="39.957428" lon="3.207769">
        <ele>189.7</ele>
        <time>2020-06-02T21:08:56Z</time>
      </trkpt>
      <trkpt lat="39.95742" lon="3.207838">
        <ele>190</ele>
        <time>2020-06-02T21:08:57Z</time>
      </trkpt>
      <trkpt lat="39.957413" lon="3.207924">
        <ele>190.3</ele>
        <time>2020-06-02T21:08:58Z</time>
      </trkpt>
      <trkpt lat="39.957413" lon="3.208013">
        <ele>190.7</ele>
        <time>2020-06-02T21:08:59Z</time>
      </trkpt>
      <trkpt lat="39.957413" lon="3.208089">
        <ele>191</ele>
        <time>2020-06-02T21:09:00Z</time>
      </trkpt>
      <trkpt lat="39.957401" lon="3.20818">
        <ele>191.2</ele>
        <time>2020-06-02T21:09:02Z</time>
      </trkpt>
      <trkpt lat="39.957371" lon="3.208248">
        <ele>191.4</ele>
        <time>2020-06-02T21:09:03Z</time>
      </trkpt>
      <trkpt lat="39.957329" lon="3.208323">
        <ele>191.6</ele>
        <time>2020-06-02T21:09:04Z</time>
      </trkpt>
      <trkpt lat="39.957291" lon="3.208388">
        <ele>191.7</ele>
        <time>2020-06-02T21:09:05Z</time>
      </trkpt>
      <trkpt lat="39.957245" lon="3.208441">
        <ele>191.8</ele>
        <time>2020-06-02T21:09:06Z</time>
      </trkpt>
      <trkpt lat="39.957172" lon="3.20846">
        <ele>191.8</ele>
        <time>2020-06-02T21:09:07Z</time>
      </trkpt>
      <trkpt lat="39.957111" lon="3.208454">
        <ele>191.9</ele>
        <time>2020-06-02T21:09:08Z</time>
      </trkpt>
      <trkpt lat="39.957039" lon="3.208443">
        <ele>191.9</ele>
        <time>2020-06-02T21:09:09Z</time>
      </trkpt>
      <trkpt lat="39.95697" lon="3.208427">
        <ele>191.9</ele>
        <time>2020-06-02T21:09:10Z</time>
      </trkpt>
      <trkpt lat="39.956913" lon="3.208409">
        <ele>191.9</ele>
        <time>2020-06-02T21:09:11Z</time>
      </trkpt>
      <trkpt lat="39.956848" lon="3.208386">
        <ele>191.9</ele>
        <time>2020-06-02T21:09:13Z</time>
      </trkpt>
      <trkpt lat="39.956783" lon="3.208363">
        <ele>191.9</ele>
        <time>2020-06-02T21:09:14Z</time>
      </trkpt>
      <trkpt lat="39.956726" lon="3.208339">
        <ele>192</ele>
        <time>2020-06-02T21:09:15Z</time>
      </trkpt>
      <trkpt lat="39.956665" lon="3.208315">
        <ele>192</ele>
        <time>2020-06-02T21:09:16Z</time>
      </trkpt>
      <trkpt lat="39.956612" lon="3.208292">
        <ele>192</ele>
        <time>2020-06-02T21:09:17Z</time>
      </trkpt>
      <trkpt lat="39.956562" lon="3.208274">
        <ele>192</ele>
        <time>2020-06-02T21:09:18Z</time>
      </trkpt>
      <trkpt lat="39.956501" lon="3.208254">
        <ele>192</ele>
        <time>2020-06-02T21:09:20Z</time>
      </trkpt>
      <trkpt lat="39.95644" lon="3.208233">
        <ele>192.1</ele>
        <time>2020-06-02T21:09:21Z</time>
      </trkpt>
      <trkpt lat="39.956379" lon="3.208211">
        <ele>192.1</ele>
        <time>2020-06-02T21:09:22Z</time>
      </trkpt>
      <trkpt lat="39.956322" lon="3.208203">
        <ele>192.1</ele>
        <time>2020-06-02T21:09:23Z</time>
      </trkpt>
      <trkpt lat="39.956253" lon="3.20821">
        <ele>192.1</ele>
        <time>2020-06-02T21:09:24Z</time>
      </trkpt>
      <trkpt lat="39.956181" lon="3.208227">
        <ele>192.1</ele>
        <time>2020-06-02T21:09:25Z</time>
      </trkpt>
      <trkpt lat="39.95612" lon="3.208242">
        <ele>192.1</ele>
        <time>2020-06-02T21:09:26Z</time>
      </trkpt>
      <trkpt lat="39.956051" lon="3.208263">
        <ele>192.2</ele>
        <time>2020-06-02T21:09:28Z</time>
      </trkpt>
      <trkpt lat="39.95599" lon="3.208284">
        <ele>192.3</ele>
        <time>2020-06-02T21:09:29Z</time>
      </trkpt>
      <trkpt lat="39.955917" lon="3.208311">
        <ele>192.4</ele>
        <time>2020-06-02T21:09:30Z</time>
      </trkpt>
      <trkpt lat="39.955856" lon="3.208336">
        <ele>192.4</ele>
        <time>2020-06-02T21:09:31Z</time>
      </trkpt>
      <trkpt lat="39.955784" lon="3.208368">
        <ele>192.4</ele>
        <time>2020-06-02T21:09:32Z</time>
      </trkpt>
      <trkpt lat="39.955707" lon="3.208399">
        <ele>192.4</ele>
        <time>2020-06-02T21:09:33Z</time>
      </trkpt>
      <trkpt lat="39.955631" lon="3.208419">
        <ele>192.3</ele>
        <time>2020-06-02T21:09:34Z</time>
      </trkpt>
      <trkpt lat="39.955563" lon="3.208431">
        <ele>192.3</ele>
        <time>2020-06-02T21:09:35Z</time>
      </trkpt>
      <trkpt lat="39.95549" lon="3.20844">
        <ele>192.2</ele>
        <time>2020-06-02T21:09:36Z</time>
      </trkpt>
      <trkpt lat="39.955418" lon="3.208434">
        <ele>192.1</ele>
        <time>2020-06-02T21:09:37Z</time>
      </trkpt>
      <trkpt lat="39.955345" lon="3.208413">
        <ele>192</ele>
        <time>2020-06-02T21:09:38Z</time>
      </trkpt>
      <trkpt lat="39.955261" lon="3.208381">
        <ele>191.9</ele>
        <time>2020-06-02T21:09:40Z</time>
      </trkpt>
      <trkpt lat="39.95517" lon="3.208349">
        <ele>191.7</ele>
        <time>2020-06-02T21:09:41Z</time>
      </trkpt>
      <trkpt lat="39.955082" lon="3.208315">
        <ele>191.5</ele>
        <time>2020-06-02T21:09:42Z</time>
      </trkpt>
      <trkpt lat="39.954994" lon="3.208275">
        <ele>191.2</ele>
        <time>2020-06-02T21:09:43Z</time>
      </trkpt>
      <trkpt lat="39.95491" lon="3.208235">
        <ele>191</ele>
        <time>2020-06-02T21:09:44Z</time>
      </trkpt>
      <trkpt lat="39.954826" lon="3.208192">
        <ele>190.8</ele>
        <time>2020-06-02T21:09:46Z</time>
      </trkpt>
      <trkpt lat="39.954758" lon="3.208156">
        <ele>190.5</ele>
        <time>2020-06-02T21:09:47Z</time>
      </trkpt>
      <trkpt lat="39.954689" lon="3.208121">
        <ele>190.3</ele>
        <time>2020-06-02T21:09:48Z</time>
      </trkpt>
      <trkpt lat="39.954605" lon="3.208081">
        <ele>190.1</ele>
        <time>2020-06-02T21:09:49Z</time>
      </trkpt>
      <trkpt lat="39.954533" lon="3.208049">
        <ele>189.8</ele>
        <time>2020-06-02T21:09:50Z</time>
      </trkpt>
      <trkpt lat="39.954449" lon="3.208004">
        <ele>189.5</ele>
        <time>2020-06-02T21:09:51Z</time>
      </trkpt>
      <trkpt lat="39.95438" lon="3.207959">
        <ele>189.3</ele>
        <time>2020-06-02T21:09:52Z</time>
      </trkpt>
      <trkpt lat="39.9543" lon="3.20791">
        <ele>189</ele>
        <time>2020-06-02T21:09:53Z</time>
      </trkpt>
      <trkpt lat="39.954224" lon="3.207855">
        <ele>188.8</ele>
        <time>2020-06-02T21:09:54Z</time>
      </trkpt>
      <trkpt lat="39.954147" lon="3.207781">
        <ele>188.6</ele>
        <time>2020-06-02T21:09:55Z</time>
      </trkpt>
      <trkpt lat="39.954052" lon="3.207683">
        <ele>188.1</ele>
        <time>2020-06-02T21:09:56Z</time>
      </trkpt>
      <trkpt lat="39.953976" lon="3.207561">
        <ele>187.5</ele>
        <time>2020-06-02T21:09:57Z</time>
      </trkpt>
      <trkpt lat="39.95393" lon="3.2074">
        <ele>186.7</ele>
        <time>2020-06-02T21:09:59Z</time>
      </trkpt>
      <trkpt lat="39.953899" lon="3.207255">
        <ele>185.9</ele>
        <time>2020-06-02T21:10:00Z</time>
      </trkpt>
      <trkpt lat="39.953876" lon="3.20707">
        <ele>184.9</ele>
        <time>2020-06-02T21:10:01Z</time>
      </trkpt>
      <trkpt lat="39.95385" lon="3.206884">
        <ele>184</ele>
        <time>2020-06-02T21:10:02Z</time>
      </trkpt>
      <trkpt lat="39.953827" lon="3.206729">
        <ele>183.3</ele>
        <time>2020-06-02T21:10:03Z</time>
      </trkpt>
      <trkpt lat="39.953804" lon="3.206569">
        <ele>182.7</ele>
        <time>2020-06-02T21:10:04Z</time>
      </trkpt>
      <trkpt lat="39.953789" lon="3.206402">
        <ele>182</ele>
        <time>2020-06-02T21:10:05Z</time>
      </trkpt>
      <trkpt lat="39.953823" lon="3.206232">
        <ele>181.3</ele>
        <time>2020-06-02T21:10:06Z</time>
      </trkpt>
      <trkpt lat="39.95388" lon="3.206038">
        <ele>180.3</ele>
        <time>2020-06-02T21:10:07Z</time>
      </trkpt>
      <trkpt lat="39.953945" lon="3.205857">
        <ele>179.1</ele>
        <time>2020-06-02T21:10:08Z</time>
      </trkpt>
      <trkpt lat="39.954002" lon="3.20569">
        <ele>178</ele>
        <time>2020-06-02T21:10:10Z</time>
      </trkpt>
      <trkpt lat="39.954044" lon="3.205559">
        <ele>177.3</ele>
        <time>2020-06-02T21:10:11Z</time>
      </trkpt>
      <trkpt lat="39.954082" lon="3.205416">
        <ele>176.6</ele>
        <time>2020-06-02T21:10:12Z</time>
      </trkpt>
      <trkpt lat="39.954113" lon="3.205289">
        <ele>176.1</ele>
        <time>2020-06-02T21:10:13Z</time>
      </trkpt>
      <trkpt lat="39.95414" lon="3.205179">
        <ele>175.8</ele>
        <time>2020-06-02T21:10:14Z</time>
      </trkpt>
      <trkpt lat="39.954163" lon="3.205102">
        <ele>175.6</ele>
        <time>2020-06-02T21:10:15Z</time>
      </trkpt>
      <trkpt lat="39.954189" lon="3.205021">
        <ele>175.4</ele>
        <time>2020-06-02T21:10:16Z</time>
      </trkpt>
      <trkpt lat="39.954212" lon="3.204948">
        <ele>175.2</ele>
        <time>2020-06-02T21:10:18Z</time>
      </trkpt>
      <trkpt lat="39.954231" lon="3.204892">
        <ele>175.1</ele>
        <time>2020-06-02T21:10:19Z</time>
      </trkpt>
      <trkpt lat="39.954254" lon="3.20483">
        <ele>175.1</ele>
        <time>2020-06-02T21:10:20Z</time>
      </trkpt>
      <trkpt lat="39.954277" lon="3.204784">
        <ele>175</ele>
        <time>2020-06-02T21:10:21Z</time>
      </trkpt>
      <trkpt lat="39.9543" lon="3.20473">
        <ele>175</ele>
        <time>2020-06-02T21:10:22Z</time>
      </trkpt>
      <trkpt lat="39.954323" lon="3.204683">
        <ele>175</ele>
        <time>2020-06-02T21:10:23Z</time>
      </trkpt>
      <trkpt lat="39.954349" lon="3.204632">
        <ele>175.1</ele>
        <time>2020-06-02T21:10:24Z</time>
      </trkpt>
      <trkpt lat="39.954376" lon="3.20457">
        <ele>175.1</ele>
        <time>2020-06-02T21:10:25Z</time>
      </trkpt>
      <trkpt lat="39.954407" lon="3.204508">
        <ele>175.2</ele>
        <time>2020-06-02T21:10:26Z</time>
      </trkpt>
      <trkpt lat="39.954437" lon="3.204447">
        <ele>175.2</ele>
        <time>2020-06-02T21:10:28Z</time>
      </trkpt>
      <trkpt lat="39.954464" lon="3.204396">
        <ele>175.3</ele>
        <time>2020-06-02T21:10:29Z</time>
      </trkpt>
      <trkpt lat="39.954498" lon="3.204331">
        <ele>175.4</ele>
        <time>2020-06-02T21:10:30Z</time>
      </trkpt>
      <trkpt lat="39.954533" lon="3.204274">
        <ele>175.6</ele>
        <time>2020-06-02T21:10:31Z</time>
      </trkpt>
      <trkpt lat="39.954571" lon="3.204205">
        <ele>175.7</ele>
        <time>2020-06-02T21:10:32Z</time>
      </trkpt>
      <trkpt lat="39.954609" lon="3.204134">
        <ele>175.9</ele>
        <time>2020-06-02T21:10:33Z</time>
      </trkpt>
      <trkpt lat="39.954643" lon="3.204075">
        <ele>176</ele>
        <time>2020-06-02T21:10:34Z</time>
      </trkpt>
      <trkpt lat="39.954681" lon="3.204004">
        <ele>176.2</ele>
        <time>2020-06-02T21:10:35Z</time>
      </trkpt>
      <trkpt lat="39.954716" lon="3.203935">
        <ele>176.4</ele>
        <time>2020-06-02T21:10:37Z</time>
      </trkpt>
      <trkpt lat="39.954746" lon="3.203869">
        <ele>176.5</ele>
        <time>2020-06-02T21:10:38Z</time>
      </trkpt>
      <trkpt lat="39.954781" lon="3.203807">
        <ele>176.7</ele>
        <time>2020-06-02T21:10:39Z</time>
      </trkpt>
      <trkpt lat="39.954811" lon="3.203759">
        <ele>176.8</ele>
        <time>2020-06-02T21:10:40Z</time>
      </trkpt>
      <trkpt lat="39.954842" lon="3.203715">
        <ele>177</ele>
        <time>2020-06-02T21:10:41Z</time>
      </trkpt>
      <trkpt lat="39.954884" lon="3.203664">
        <ele>177.1</ele>
        <time>2020-06-02T21:10:42Z</time>
      </trkpt>
      <trkpt lat="39.954922" lon="3.203621">
        <ele>177.3</ele>
        <time>2020-06-02T21:10:43Z</time>
      </trkpt>
      <trkpt lat="39.954964" lon="3.203571">
        <ele>177.4</ele>
        <time>2020-06-02T21:10:44Z</time>
      </trkpt>
      <trkpt lat="39.955013" lon="3.203524">
        <ele>177.5</ele>
        <time>2020-06-02T21:10:46Z</time>
      </trkpt>
      <trkpt lat="39.955059" lon="3.203479">
        <ele>177.6</ele>
        <time>2020-06-02T21:10:47Z</time>
      </trkpt>
      <trkpt lat="39.955101" lon="3.203443">
        <ele>177.6</ele>
        <time>2020-06-02T21:10:48Z</time>
      </trkpt>
      <trkpt lat="39.955147" lon="3.203398">
        <ele>177.7</ele>
        <time>2020-06-02T21:10:49Z</time>
      </trkpt>
      <trkpt lat="39.955192" lon="3.203354">
        <ele>177.8</ele>
        <time>2020-06-02T21:10:50Z</time>
      </trkpt>
      <trkpt lat="39.955231" lon="3.203318">
        <ele>177.9</ele>
        <time>2020-06-02T21:10:51Z</time>
      </trkpt>
      <trkpt lat="39.955269" lon="3.203282">
        <ele>177.9</ele>
        <time>2020-06-02T21:10:52Z</time>
      </trkpt>
      <trkpt lat="39.955303" lon="3.203245">
        <ele>177.9</ele>
        <time>2020-06-02T21:10:53Z</time>
      </trkpt>
      <trkpt lat="39.955349" lon="3.2032">
        <ele>178</ele>
        <time>2020-06-02T21:10:54Z</time>
      </trkpt>
      <trkpt lat="39.955383" lon="3.203162">
        <ele>178</ele>
        <time>2020-06-02T21:10:55Z</time>
      </trkpt>
      <trkpt lat="39.955425" lon="3.203118">
        <ele>178</ele>
        <time>2020-06-02T21:10:57Z</time>
      </trkpt>
      <trkpt lat="39.955463" lon="3.203083">
        <ele>178</ele>
        <time>2020-06-02T21:10:58Z</time>
      </trkpt>
      <trkpt lat="39.955505" lon="3.203039">
        <ele>178.1</ele>
        <time>2020-06-02T21:10:59Z</time>
      </trkpt>
      <trkpt lat="39.955543" lon="3.202987">
        <ele>178.1</ele>
        <time>2020-06-02T21:11:00Z</time>
      </trkpt>
      <trkpt lat="39.955566" lon="3.202939">
        <ele>178.1</ele>
        <time>2020-06-02T21:11:01Z</time>
      </trkpt>
      <trkpt lat="39.955593" lon="3.202882">
        <ele>178.2</ele>
        <time>2020-06-02T21:11:02Z</time>
      </trkpt>
      <trkpt lat="39.955612" lon="3.202829">
        <ele>178.2</ele>
        <time>2020-06-02T21:11:03Z</time>
      </trkpt>
      <trkpt lat="39.955631" lon="3.20278">
        <ele>178.2</ele>
        <time>2020-06-02T21:11:05Z</time>
      </trkpt>
      <trkpt lat="39.955646" lon="3.202735">
        <ele>178.2</ele>
        <time>2020-06-02T21:11:06Z</time>
      </trkpt>
      <trkpt lat="39.95565" lon="3.202694">
        <ele>178.1</ele>
        <time>2020-06-02T21:11:07Z</time>
      </trkpt>
    </trkseg>
  </trk>
</gpx>